<?xml version="1.0" encoding="utf-8"?>
<gpx xmlns:xsi="http://www.w3.org/2001/XMLSchema-instance" xmlns:xsd="http://www.w3.org/2001/XMLSchema" version="1.1" creator="Shapelink.com" xmlns="http://www.topografix.com/GPX/1/1" xmlns:gpxtpx="http://www.garmin.com/xmlschemas/TrackPointExtension/v1">
  <metadata>
    <name>Ciclismo 21.73 km, 2020-02-10</name>
    <desc></desc>
    <author><name>Peter Littke</name></author> 
    <time>2020-02-10T07:45:00Z</time>
  </metadata>
  <trk>
    <name>Ciclismo 21.73 km, 2020-02-10</name>
    <trkseg>
      <trkpt lat="59.338726" lon="18.082189">
        <ele>20</ele>
        <time>2020-02-10T07:45:00Z</time>
      </trkpt>
      <trkpt lat="59.338614" lon="18.082119">
        <ele>20</ele>
        <time>2020-02-10T07:45:03Z</time>
      </trkpt>
      <trkpt lat="59.338561" lon="18.08207">
        <ele>20</ele>
        <time>2020-02-10T07:45:04Z</time>
      </trkpt>
      <trkpt lat="59.338509" lon="18.082026">
        <ele>20</ele>
        <time>2020-02-10T07:45:05Z</time>
      </trkpt>
      <trkpt lat="59.338455" lon="18.081985">
        <ele>20</ele>
        <time>2020-02-10T07:45:06Z</time>
      </trkpt>
      <trkpt lat="59.338401" lon="18.081941">
        <ele>20</ele>
        <time>2020-02-10T07:45:07Z</time>
      </trkpt>
      <trkpt lat="59.338349" lon="18.081896">
        <ele>20</ele>
        <time>2020-02-10T07:45:08Z</time>
      </trkpt>
      <trkpt lat="59.338296" lon="18.08185">
        <ele>20</ele>
        <time>2020-02-10T07:45:09Z</time>
      </trkpt>
      <trkpt lat="59.338248" lon="18.081798">
        <ele>19</ele>
        <time>2020-02-10T07:45:10Z</time>
      </trkpt>
      <trkpt lat="59.338203" lon="18.08175">
        <ele>19</ele>
        <time>2020-02-10T07:45:11Z</time>
      </trkpt>
      <trkpt lat="59.338155" lon="18.081705">
        <ele>19</ele>
        <time>2020-02-10T07:45:12Z</time>
      </trkpt>
      <trkpt lat="59.338104" lon="18.081668">
        <ele>19</ele>
        <time>2020-02-10T07:45:13Z</time>
      </trkpt>
      <trkpt lat="59.338049" lon="18.081632">
        <ele>19</ele>
        <time>2020-02-10T07:45:14Z</time>
      </trkpt>
      <trkpt lat="59.337994" lon="18.081594">
        <ele>19</ele>
        <time>2020-02-10T07:45:15Z</time>
      </trkpt>
      <trkpt lat="59.337941" lon="18.081557">
        <ele>19</ele>
        <time>2020-02-10T07:45:16Z</time>
      </trkpt>
      <trkpt lat="59.337888" lon="18.081523">
        <ele>19</ele>
        <time>2020-02-10T07:45:17Z</time>
      </trkpt>
      <trkpt lat="59.337835" lon="18.081494">
        <ele>19</ele>
        <time>2020-02-10T07:45:18Z</time>
      </trkpt>
      <trkpt lat="59.337783" lon="18.081464">
        <ele>19</ele>
        <time>2020-02-10T07:45:19Z</time>
      </trkpt>
      <trkpt lat="59.337735" lon="18.081427">
        <ele>19</ele>
        <time>2020-02-10T07:45:20Z</time>
      </trkpt>
      <trkpt lat="59.337689" lon="18.081385">
        <ele>19</ele>
        <time>2020-02-10T07:45:21Z</time>
      </trkpt>
      <trkpt lat="59.337642" lon="18.081351">
        <ele>19</ele>
        <time>2020-02-10T07:45:22Z</time>
      </trkpt>
      <trkpt lat="59.337596" lon="18.08132">
        <ele>19</ele>
        <time>2020-02-10T07:45:23Z</time>
      </trkpt>
      <trkpt lat="59.33755" lon="18.081295">
        <ele>19</ele>
        <time>2020-02-10T07:45:24Z</time>
      </trkpt>
      <trkpt lat="59.337509" lon="18.081262">
        <ele>19</ele>
        <time>2020-02-10T07:45:25Z</time>
      </trkpt>
      <trkpt lat="59.337468" lon="18.081235">
        <ele>19</ele>
        <time>2020-02-10T07:45:26Z</time>
      </trkpt>
      <trkpt lat="59.337427" lon="18.081211">
        <ele>19</ele>
        <time>2020-02-10T07:45:27Z</time>
      </trkpt>
      <trkpt lat="59.337388" lon="18.081193">
        <ele>19</ele>
        <time>2020-02-10T07:45:28Z</time>
      </trkpt>
      <trkpt lat="59.337348" lon="18.081175">
        <ele>19</ele>
        <time>2020-02-10T07:45:29Z</time>
      </trkpt>
      <trkpt lat="59.33731" lon="18.081161">
        <ele>19</ele>
        <time>2020-02-10T07:45:30Z</time>
      </trkpt>
      <trkpt lat="59.337274" lon="18.081153">
        <ele>19</ele>
        <time>2020-02-10T07:45:31Z</time>
      </trkpt>
      <trkpt lat="59.337243" lon="18.081136">
        <ele>19</ele>
        <time>2020-02-10T07:45:32Z</time>
      </trkpt>
      <trkpt lat="59.337217" lon="18.08112">
        <ele>19</ele>
        <time>2020-02-10T07:45:33Z</time>
      </trkpt>
      <trkpt lat="59.337201" lon="18.0811">
        <ele>19</ele>
        <time>2020-02-10T07:45:34Z</time>
      </trkpt>
      <trkpt lat="59.337177" lon="18.081063">
        <ele>19</ele>
        <time>2020-02-10T07:45:36Z</time>
      </trkpt>
      <trkpt lat="59.337154" lon="18.08102">
        <ele>19</ele>
        <time>2020-02-10T07:45:38Z</time>
      </trkpt>
      <trkpt lat="59.337137" lon="18.080986">
        <ele>19</ele>
        <time>2020-02-10T07:45:39Z</time>
      </trkpt>
      <trkpt lat="59.337121" lon="18.080941">
        <ele>19</ele>
        <time>2020-02-10T07:45:40Z</time>
      </trkpt>
      <trkpt lat="59.337086" lon="18.080896">
        <ele>19</ele>
        <time>2020-02-10T07:45:41Z</time>
      </trkpt>
      <trkpt lat="59.337055" lon="18.080841">
        <ele>19</ele>
        <time>2020-02-10T07:45:42Z</time>
      </trkpt>
      <trkpt lat="59.337016" lon="18.080792">
        <ele>19</ele>
        <time>2020-02-10T07:45:43Z</time>
      </trkpt>
      <trkpt lat="59.336965" lon="18.080754">
        <ele>18</ele>
        <time>2020-02-10T07:45:44Z</time>
      </trkpt>
      <trkpt lat="59.336914" lon="18.080717">
        <ele>18</ele>
        <time>2020-02-10T07:45:45Z</time>
      </trkpt>
      <trkpt lat="59.336865" lon="18.080681">
        <ele>18</ele>
        <time>2020-02-10T07:45:46Z</time>
      </trkpt>
      <trkpt lat="59.336817" lon="18.08065">
        <ele>18</ele>
        <time>2020-02-10T07:45:47Z</time>
      </trkpt>
      <trkpt lat="59.336768" lon="18.080626">
        <ele>18</ele>
        <time>2020-02-10T07:45:48Z</time>
      </trkpt>
      <trkpt lat="59.336718" lon="18.080593">
        <ele>18</ele>
        <time>2020-02-10T07:45:49Z</time>
      </trkpt>
      <trkpt lat="59.336666" lon="18.080554">
        <ele>18</ele>
        <time>2020-02-10T07:45:50Z</time>
      </trkpt>
      <trkpt lat="59.336612" lon="18.080524">
        <ele>18</ele>
        <time>2020-02-10T07:45:51Z</time>
      </trkpt>
      <trkpt lat="59.336559" lon="18.080498">
        <ele>18</ele>
        <time>2020-02-10T07:45:52Z</time>
      </trkpt>
      <trkpt lat="59.336506" lon="18.080474">
        <ele>18</ele>
        <time>2020-02-10T07:45:53Z</time>
      </trkpt>
      <trkpt lat="59.336458" lon="18.080443">
        <ele>18</ele>
        <time>2020-02-10T07:45:54Z</time>
      </trkpt>
      <trkpt lat="59.33641" lon="18.080409">
        <ele>18</ele>
        <time>2020-02-10T07:45:55Z</time>
      </trkpt>
      <trkpt lat="59.336365" lon="18.080376">
        <ele>18</ele>
        <time>2020-02-10T07:45:56Z</time>
      </trkpt>
      <trkpt lat="59.336322" lon="18.080341">
        <ele>19</ele>
        <time>2020-02-10T07:45:57Z</time>
      </trkpt>
      <trkpt lat="59.33628" lon="18.080302">
        <ele>19</ele>
        <time>2020-02-10T07:45:58Z</time>
      </trkpt>
      <trkpt lat="59.336237" lon="18.080258">
        <ele>19</ele>
        <time>2020-02-10T07:45:59Z</time>
      </trkpt>
      <trkpt lat="59.336194" lon="18.080224">
        <ele>19</ele>
        <time>2020-02-10T07:46:00Z</time>
      </trkpt>
      <trkpt lat="59.336154" lon="18.080165">
        <ele>19</ele>
        <time>2020-02-10T07:46:01Z</time>
      </trkpt>
      <trkpt lat="59.336112" lon="18.080118">
        <ele>20</ele>
        <time>2020-02-10T07:46:02Z</time>
      </trkpt>
      <trkpt lat="59.336073" lon="18.080068">
        <ele>20</ele>
        <time>2020-02-10T07:46:03Z</time>
      </trkpt>
      <trkpt lat="59.336032" lon="18.080017">
        <ele>20</ele>
        <time>2020-02-10T07:46:04Z</time>
      </trkpt>
      <trkpt lat="59.335993" lon="18.079972">
        <ele>20</ele>
        <time>2020-02-10T07:46:05Z</time>
      </trkpt>
      <trkpt lat="59.335959" lon="18.079934">
        <ele>20</ele>
        <time>2020-02-10T07:46:06Z</time>
      </trkpt>
      <trkpt lat="59.33593" lon="18.079908">
        <ele>20</ele>
        <time>2020-02-10T07:46:07Z</time>
      </trkpt>
      <trkpt lat="59.335914" lon="18.079892">
        <ele>20</ele>
        <time>2020-02-10T07:46:08Z</time>
      </trkpt>
      <trkpt lat="59.335899" lon="18.079868">
        <ele>21</ele>
        <time>2020-02-10T07:46:13Z</time>
      </trkpt>
      <trkpt lat="59.335894" lon="18.079866">
        <ele>0</ele>
        <time>2020-02-10T07:46:14Z</time>
      </trkpt>
      <trkpt lat="59.33586" lon="18.079823">
        <ele>21</ele>
        <time>2020-02-10T07:46:18Z</time>
      </trkpt>
      <trkpt lat="59.335842" lon="18.079792">
        <ele>21</ele>
        <time>2020-02-10T07:46:19Z</time>
      </trkpt>
      <trkpt lat="59.335825" lon="18.079751">
        <ele>21</ele>
        <time>2020-02-10T07:46:20Z</time>
      </trkpt>
      <trkpt lat="59.335807" lon="18.079704">
        <ele>21</ele>
        <time>2020-02-10T07:46:21Z</time>
      </trkpt>
      <trkpt lat="59.335783" lon="18.079654">
        <ele>21</ele>
        <time>2020-02-10T07:46:22Z</time>
      </trkpt>
      <trkpt lat="59.33575" lon="18.079608">
        <ele>21</ele>
        <time>2020-02-10T07:46:23Z</time>
      </trkpt>
      <trkpt lat="59.335697" lon="18.079583">
        <ele>21</ele>
        <time>2020-02-10T07:46:24Z</time>
      </trkpt>
      <trkpt lat="59.33565" lon="18.079549">
        <ele>21</ele>
        <time>2020-02-10T07:46:25Z</time>
      </trkpt>
      <trkpt lat="59.335602" lon="18.079509">
        <ele>21</ele>
        <time>2020-02-10T07:46:26Z</time>
      </trkpt>
      <trkpt lat="59.335548" lon="18.079469">
        <ele>20</ele>
        <time>2020-02-10T07:46:27Z</time>
      </trkpt>
      <trkpt lat="59.335496" lon="18.07943">
        <ele>20</ele>
        <time>2020-02-10T07:46:28Z</time>
      </trkpt>
      <trkpt lat="59.335432" lon="18.079389">
        <ele>19</ele>
        <time>2020-02-10T07:46:29Z</time>
      </trkpt>
      <trkpt lat="59.335371" lon="18.07935">
        <ele>19</ele>
        <time>2020-02-10T07:46:30Z</time>
      </trkpt>
      <trkpt lat="59.335304" lon="18.079307">
        <ele>19</ele>
        <time>2020-02-10T07:46:31Z</time>
      </trkpt>
      <trkpt lat="59.33524" lon="18.079263">
        <ele>18</ele>
        <time>2020-02-10T07:46:32Z</time>
      </trkpt>
      <trkpt lat="59.335177" lon="18.079218">
        <ele>18</ele>
        <time>2020-02-10T07:46:33Z</time>
      </trkpt>
      <trkpt lat="59.335113" lon="18.079168">
        <ele>0</ele>
        <time>2020-02-10T07:46:33Z</time>
      </trkpt>
      <trkpt lat="59.335048" lon="18.07912">
        <ele>18</ele>
        <time>2020-02-10T07:46:34Z</time>
      </trkpt>
      <trkpt lat="59.334988" lon="18.079072">
        <ele>17</ele>
        <time>2020-02-10T07:46:36Z</time>
      </trkpt>
      <trkpt lat="59.334931" lon="18.079018">
        <ele>16</ele>
        <time>2020-02-10T07:46:37Z</time>
      </trkpt>
      <trkpt lat="59.334871" lon="18.078968">
        <ele>16</ele>
        <time>2020-02-10T07:46:38Z</time>
      </trkpt>
      <trkpt lat="59.334814" lon="18.078911">
        <ele>16</ele>
        <time>2020-02-10T07:46:39Z</time>
      </trkpt>
      <trkpt lat="59.334756" lon="18.078856">
        <ele>15</ele>
        <time>2020-02-10T07:46:40Z</time>
      </trkpt>
      <trkpt lat="59.3347" lon="18.0788">
        <ele>15</ele>
        <time>2020-02-10T07:46:41Z</time>
      </trkpt>
      <trkpt lat="59.334645" lon="18.078749">
        <ele>15</ele>
        <time>2020-02-10T07:46:42Z</time>
      </trkpt>
      <trkpt lat="59.334591" lon="18.078696">
        <ele>14</ele>
        <time>2020-02-10T07:46:43Z</time>
      </trkpt>
      <trkpt lat="59.334532" lon="18.078645">
        <ele>14</ele>
        <time>2020-02-10T07:46:44Z</time>
      </trkpt>
      <trkpt lat="59.334473" lon="18.078589">
        <ele>13</ele>
        <time>2020-02-10T07:46:45Z</time>
      </trkpt>
      <trkpt lat="59.334416" lon="18.07853">
        <ele>13</ele>
        <time>2020-02-10T07:46:46Z</time>
      </trkpt>
      <trkpt lat="59.334358" lon="18.078472">
        <ele>13</ele>
        <time>2020-02-10T07:46:47Z</time>
      </trkpt>
      <trkpt lat="59.334304" lon="18.078411">
        <ele>13</ele>
        <time>2020-02-10T07:46:48Z</time>
      </trkpt>
      <trkpt lat="59.334243" lon="18.078358">
        <ele>13</ele>
        <time>2020-02-10T07:46:49Z</time>
      </trkpt>
      <trkpt lat="59.334178" lon="18.078302">
        <ele>13</ele>
        <time>2020-02-10T07:46:50Z</time>
      </trkpt>
      <trkpt lat="59.334116" lon="18.078248">
        <ele>13</ele>
        <time>2020-02-10T07:46:51Z</time>
      </trkpt>
      <trkpt lat="59.334058" lon="18.078191">
        <ele>12</ele>
        <time>2020-02-10T07:46:52Z</time>
      </trkpt>
      <trkpt lat="59.334005" lon="18.078133">
        <ele>12</ele>
        <time>2020-02-10T07:46:53Z</time>
      </trkpt>
      <trkpt lat="59.333954" lon="18.078079">
        <ele>12</ele>
        <time>2020-02-10T07:46:54Z</time>
      </trkpt>
      <trkpt lat="59.333905" lon="18.078028">
        <ele>12</ele>
        <time>2020-02-10T07:46:55Z</time>
      </trkpt>
      <trkpt lat="59.333855" lon="18.077979">
        <ele>12</ele>
        <time>2020-02-10T07:46:56Z</time>
      </trkpt>
      <trkpt lat="59.333803" lon="18.077921">
        <ele>11</ele>
        <time>2020-02-10T07:46:57Z</time>
      </trkpt>
      <trkpt lat="59.33375" lon="18.077851">
        <ele>0</ele>
        <time>2020-02-10T07:46:57Z</time>
      </trkpt>
      <trkpt lat="59.333698" lon="18.077792">
        <ele>11</ele>
        <time>2020-02-10T07:46:58Z</time>
      </trkpt>
      <trkpt lat="59.333648" lon="18.077741">
        <ele>10</ele>
        <time>2020-02-10T07:47:00Z</time>
      </trkpt>
      <trkpt lat="59.333606" lon="18.077695">
        <ele>10</ele>
        <time>2020-02-10T07:47:01Z</time>
      </trkpt>
      <trkpt lat="59.333558" lon="18.07767">
        <ele>10</ele>
        <time>2020-02-10T07:47:02Z</time>
      </trkpt>
      <trkpt lat="59.33353" lon="18.077621">
        <ele>10</ele>
        <time>2020-02-10T07:47:03Z</time>
      </trkpt>
      <trkpt lat="59.33352" lon="18.077557">
        <ele>10</ele>
        <time>2020-02-10T07:47:04Z</time>
      </trkpt>
      <trkpt lat="59.333535" lon="18.077485">
        <ele>10</ele>
        <time>2020-02-10T07:47:05Z</time>
      </trkpt>
      <trkpt lat="59.333561" lon="18.077403">
        <ele>11</ele>
        <time>2020-02-10T07:47:06Z</time>
      </trkpt>
      <trkpt lat="59.333575" lon="18.07733">
        <ele>11</ele>
        <time>2020-02-10T07:47:07Z</time>
      </trkpt>
      <trkpt lat="59.333592" lon="18.07726">
        <ele>11</ele>
        <time>2020-02-10T07:47:08Z</time>
      </trkpt>
      <trkpt lat="59.333639" lon="18.0771">
        <ele>11</ele>
        <time>2020-02-10T07:47:10Z</time>
      </trkpt>
      <trkpt lat="59.333677" lon="18.076904">
        <ele>11</ele>
        <time>2020-02-10T07:47:13Z</time>
      </trkpt>
      <trkpt lat="59.333622" lon="18.076727">
        <ele>10</ele>
        <time>2020-02-10T07:47:17Z</time>
      </trkpt>
      <trkpt lat="59.333586" lon="18.076689">
        <ele>10</ele>
        <time>2020-02-10T07:47:18Z</time>
      </trkpt>
      <trkpt lat="59.333539" lon="18.076658">
        <ele>10</ele>
        <time>2020-02-10T07:47:19Z</time>
      </trkpt>
      <trkpt lat="59.333487" lon="18.076629">
        <ele>10</ele>
        <time>2020-02-10T07:47:20Z</time>
      </trkpt>
      <trkpt lat="59.333435" lon="18.076594">
        <ele>10</ele>
        <time>2020-02-10T07:47:21Z</time>
      </trkpt>
      <trkpt lat="59.333385" lon="18.076557">
        <ele>10</ele>
        <time>2020-02-10T07:47:22Z</time>
      </trkpt>
      <trkpt lat="59.333337" lon="18.076516">
        <ele>9</ele>
        <time>2020-02-10T07:47:23Z</time>
      </trkpt>
      <trkpt lat="59.33329" lon="18.076482">
        <ele>9</ele>
        <time>2020-02-10T07:47:24Z</time>
      </trkpt>
      <trkpt lat="59.333247" lon="18.076454">
        <ele>10</ele>
        <time>2020-02-10T07:47:25Z</time>
      </trkpt>
      <trkpt lat="59.333208" lon="18.07642">
        <ele>10</ele>
        <time>2020-02-10T07:47:26Z</time>
      </trkpt>
      <trkpt lat="59.333174" lon="18.076383">
        <ele>10</ele>
        <time>2020-02-10T07:47:27Z</time>
      </trkpt>
      <trkpt lat="59.33314" lon="18.076348">
        <ele>10</ele>
        <time>2020-02-10T07:47:28Z</time>
      </trkpt>
      <trkpt lat="59.333121" lon="18.076297">
        <ele>9</ele>
        <time>2020-02-10T07:47:29Z</time>
      </trkpt>
      <trkpt lat="59.3331" lon="18.076256">
        <ele>9</ele>
        <time>2020-02-10T07:47:30Z</time>
      </trkpt>
      <trkpt lat="59.333091" lon="18.076198">
        <ele>9</ele>
        <time>2020-02-10T07:47:31Z</time>
      </trkpt>
      <trkpt lat="59.333082" lon="18.076155">
        <ele>8</ele>
        <time>2020-02-10T07:47:32Z</time>
      </trkpt>
      <trkpt lat="59.333078" lon="18.076106">
        <ele>8</ele>
        <time>2020-02-10T07:47:34Z</time>
      </trkpt>
      <trkpt lat="59.333063" lon="18.076067">
        <ele>8</ele>
        <time>2020-02-10T07:47:38Z</time>
      </trkpt>
      <trkpt lat="59.33304" lon="18.076047">
        <ele>8</ele>
        <time>2020-02-10T07:47:39Z</time>
      </trkpt>
      <trkpt lat="59.333015" lon="18.076022">
        <ele>7</ele>
        <time>2020-02-10T07:47:40Z</time>
      </trkpt>
      <trkpt lat="59.332992" lon="18.075991">
        <ele>0</ele>
        <time>2020-02-10T07:47:40Z</time>
      </trkpt>
      <trkpt lat="59.332963" lon="18.075962">
        <ele>7</ele>
        <time>2020-02-10T07:47:41Z</time>
      </trkpt>
      <trkpt lat="59.332929" lon="18.075931">
        <ele>7</ele>
        <time>2020-02-10T07:47:43Z</time>
      </trkpt>
      <trkpt lat="59.332892" lon="18.0759">
        <ele>7</ele>
        <time>2020-02-10T07:47:44Z</time>
      </trkpt>
      <trkpt lat="59.332852" lon="18.075869">
        <ele>7</ele>
        <time>2020-02-10T07:47:45Z</time>
      </trkpt>
      <trkpt lat="59.332807" lon="18.07584">
        <ele>7</ele>
        <time>2020-02-10T07:47:46Z</time>
      </trkpt>
      <trkpt lat="59.332763" lon="18.075811">
        <ele>7</ele>
        <time>2020-02-10T07:47:47Z</time>
      </trkpt>
      <trkpt lat="59.33272" lon="18.07578">
        <ele>7</ele>
        <time>2020-02-10T07:47:48Z</time>
      </trkpt>
      <trkpt lat="59.332678" lon="18.07575">
        <ele>7</ele>
        <time>2020-02-10T07:47:49Z</time>
      </trkpt>
      <trkpt lat="59.332636" lon="18.075716">
        <ele>7</ele>
        <time>2020-02-10T07:47:50Z</time>
      </trkpt>
      <trkpt lat="59.332593" lon="18.075681">
        <ele>6</ele>
        <time>2020-02-10T07:47:51Z</time>
      </trkpt>
      <trkpt lat="59.332552" lon="18.075649">
        <ele>0</ele>
        <time>2020-02-10T07:47:51Z</time>
      </trkpt>
      <trkpt lat="59.332509" lon="18.075619">
        <ele>6</ele>
        <time>2020-02-10T07:47:52Z</time>
      </trkpt>
      <trkpt lat="59.332465" lon="18.075585">
        <ele>6</ele>
        <time>2020-02-10T07:47:54Z</time>
      </trkpt>
      <trkpt lat="59.332422" lon="18.075549">
        <ele>6</ele>
        <time>2020-02-10T07:47:55Z</time>
      </trkpt>
      <trkpt lat="59.332377" lon="18.075515">
        <ele>6</ele>
        <time>2020-02-10T07:47:56Z</time>
      </trkpt>
      <trkpt lat="59.332332" lon="18.075479">
        <ele>5</ele>
        <time>2020-02-10T07:47:57Z</time>
      </trkpt>
      <trkpt lat="59.332285" lon="18.075442">
        <ele>5</ele>
        <time>2020-02-10T07:47:58Z</time>
      </trkpt>
      <trkpt lat="59.332238" lon="18.075408">
        <ele>5</ele>
        <time>2020-02-10T07:47:59Z</time>
      </trkpt>
      <trkpt lat="59.33219" lon="18.075375">
        <ele>5</ele>
        <time>2020-02-10T07:48:00Z</time>
      </trkpt>
      <trkpt lat="59.332142" lon="18.075342">
        <ele>5</ele>
        <time>2020-02-10T07:48:01Z</time>
      </trkpt>
      <trkpt lat="59.332097" lon="18.07531">
        <ele>5</ele>
        <time>2020-02-10T07:48:02Z</time>
      </trkpt>
      <trkpt lat="59.332051" lon="18.075278">
        <ele>5</ele>
        <time>2020-02-10T07:48:03Z</time>
      </trkpt>
      <trkpt lat="59.332005" lon="18.075244">
        <ele>5</ele>
        <time>2020-02-10T07:48:04Z</time>
      </trkpt>
      <trkpt lat="59.331959" lon="18.07521">
        <ele>5</ele>
        <time>2020-02-10T07:48:05Z</time>
      </trkpt>
      <trkpt lat="59.33191" lon="18.075178">
        <ele>5</ele>
        <time>2020-02-10T07:48:06Z</time>
      </trkpt>
      <trkpt lat="59.331865" lon="18.075152">
        <ele>5</ele>
        <time>2020-02-10T07:48:07Z</time>
      </trkpt>
      <trkpt lat="59.33182" lon="18.07512">
        <ele>5</ele>
        <time>2020-02-10T07:48:08Z</time>
      </trkpt>
      <trkpt lat="59.331772" lon="18.075088">
        <ele>5</ele>
        <time>2020-02-10T07:48:09Z</time>
      </trkpt>
      <trkpt lat="59.331723" lon="18.075054">
        <ele>5</ele>
        <time>2020-02-10T07:48:10Z</time>
      </trkpt>
      <trkpt lat="59.331677" lon="18.075022">
        <ele>5</ele>
        <time>2020-02-10T07:48:11Z</time>
      </trkpt>
      <trkpt lat="59.331632" lon="18.074992">
        <ele>5</ele>
        <time>2020-02-10T07:48:12Z</time>
      </trkpt>
      <trkpt lat="59.331593" lon="18.074954">
        <ele>5</ele>
        <time>2020-02-10T07:48:13Z</time>
      </trkpt>
      <trkpt lat="59.331548" lon="18.074924">
        <ele>5</ele>
        <time>2020-02-10T07:48:14Z</time>
      </trkpt>
      <trkpt lat="59.331505" lon="18.07489">
        <ele>5</ele>
        <time>2020-02-10T07:48:15Z</time>
      </trkpt>
      <trkpt lat="59.331467" lon="18.074856">
        <ele>5</ele>
        <time>2020-02-10T07:48:16Z</time>
      </trkpt>
      <trkpt lat="59.331425" lon="18.07482">
        <ele>5</ele>
        <time>2020-02-10T07:48:17Z</time>
      </trkpt>
      <trkpt lat="59.331384" lon="18.07479">
        <ele>5</ele>
        <time>2020-02-10T07:48:18Z</time>
      </trkpt>
      <trkpt lat="59.331351" lon="18.074746">
        <ele>5</ele>
        <time>2020-02-10T07:48:19Z</time>
      </trkpt>
      <trkpt lat="59.331328" lon="18.07471">
        <ele>5</ele>
        <time>2020-02-10T07:48:20Z</time>
      </trkpt>
      <trkpt lat="59.331308" lon="18.07467">
        <ele>5</ele>
        <time>2020-02-10T07:48:21Z</time>
      </trkpt>
      <trkpt lat="59.331239" lon="18.074554">
        <ele>5</ele>
        <time>2020-02-10T07:48:24Z</time>
      </trkpt>
      <trkpt lat="59.331156" lon="18.074414">
        <ele>4</ele>
        <time>2020-02-10T07:48:27Z</time>
      </trkpt>
      <trkpt lat="59.331138" lon="18.074338">
        <ele>5</ele>
        <time>2020-02-10T07:48:28Z</time>
      </trkpt>
      <trkpt lat="59.331118" lon="18.074262">
        <ele>5</ele>
        <time>2020-02-10T07:48:29Z</time>
      </trkpt>
      <trkpt lat="59.331074" lon="18.074044">
        <ele>5</ele>
        <time>2020-02-10T07:48:32Z</time>
      </trkpt>
      <trkpt lat="59.331001" lon="18.073892">
        <ele>6</ele>
        <time>2020-02-10T07:48:34Z</time>
      </trkpt>
      <trkpt lat="59.330971" lon="18.07381">
        <ele>6</ele>
        <time>2020-02-10T07:48:35Z</time>
      </trkpt>
      <trkpt lat="59.33095" lon="18.073728">
        <ele>5</ele>
        <time>2020-02-10T07:48:36Z</time>
      </trkpt>
      <trkpt lat="59.330918" lon="18.073652">
        <ele>0</ele>
        <time>2020-02-10T07:48:36Z</time>
      </trkpt>
      <trkpt lat="59.330892" lon="18.07357">
        <ele>6</ele>
        <time>2020-02-10T07:48:37Z</time>
      </trkpt>
      <trkpt lat="59.330872" lon="18.073498">
        <ele>6</ele>
        <time>2020-02-10T07:48:39Z</time>
      </trkpt>
      <trkpt lat="59.330854" lon="18.073442">
        <ele>6</ele>
        <time>2020-02-10T07:48:40Z</time>
      </trkpt>
      <trkpt lat="59.330826" lon="18.073374">
        <ele>6</ele>
        <time>2020-02-10T07:48:41Z</time>
      </trkpt>
      <trkpt lat="59.330793" lon="18.07329">
        <ele>6</ele>
        <time>2020-02-10T07:48:42Z</time>
      </trkpt>
      <trkpt lat="59.33076" lon="18.073196">
        <ele>6</ele>
        <time>2020-02-10T07:48:43Z</time>
      </trkpt>
      <trkpt lat="59.330732" lon="18.073102">
        <ele>6</ele>
        <time>2020-02-10T07:48:44Z</time>
      </trkpt>
      <trkpt lat="59.330701" lon="18.073038">
        <ele>6</ele>
        <time>2020-02-10T07:48:45Z</time>
      </trkpt>
      <trkpt lat="59.330679" lon="18.073008">
        <ele>6</ele>
        <time>2020-02-10T07:48:46Z</time>
      </trkpt>
      <trkpt lat="59.33066" lon="18.072994">
        <ele>6</ele>
        <time>2020-02-10T07:48:47Z</time>
      </trkpt>
      <trkpt lat="59.330637" lon="18.07298">
        <ele>6</ele>
        <time>2020-02-10T07:48:49Z</time>
      </trkpt>
      <trkpt lat="59.330615" lon="18.072946">
        <ele>6</ele>
        <time>2020-02-10T07:48:51Z</time>
      </trkpt>
      <trkpt lat="59.330602" lon="18.072914">
        <ele>6</ele>
        <time>2020-02-10T07:48:52Z</time>
      </trkpt>
      <trkpt lat="59.330587" lon="18.072872">
        <ele>6</ele>
        <time>2020-02-10T07:48:53Z</time>
      </trkpt>
      <trkpt lat="59.330568" lon="18.07282">
        <ele>6</ele>
        <time>2020-02-10T07:48:54Z</time>
      </trkpt>
      <trkpt lat="59.330545" lon="18.072768">
        <ele>6</ele>
        <time>2020-02-10T07:48:55Z</time>
      </trkpt>
      <trkpt lat="59.330508" lon="18.07275">
        <ele>6</ele>
        <time>2020-02-10T07:48:56Z</time>
      </trkpt>
      <trkpt lat="59.330464" lon="18.07277">
        <ele>6</ele>
        <time>2020-02-10T07:48:57Z</time>
      </trkpt>
      <trkpt lat="59.330421" lon="18.072796">
        <ele>7</ele>
        <time>2020-02-10T07:48:58Z</time>
      </trkpt>
      <trkpt lat="59.330374" lon="18.07282">
        <ele>7</ele>
        <time>2020-02-10T07:48:59Z</time>
      </trkpt>
      <trkpt lat="59.330325" lon="18.072852">
        <ele>6</ele>
        <time>2020-02-10T07:49:00Z</time>
      </trkpt>
      <trkpt lat="59.330272" lon="18.072882">
        <ele>6</ele>
        <time>2020-02-10T07:49:01Z</time>
      </trkpt>
      <trkpt lat="59.330221" lon="18.072908">
        <ele>6</ele>
        <time>2020-02-10T07:49:02Z</time>
      </trkpt>
      <trkpt lat="59.330174" lon="18.072933">
        <ele>0</ele>
        <time>2020-02-10T07:49:02Z</time>
      </trkpt>
      <trkpt lat="59.330131" lon="18.072951">
        <ele>6</ele>
        <time>2020-02-10T07:49:03Z</time>
      </trkpt>
      <trkpt lat="59.330088" lon="18.072971">
        <ele>6</ele>
        <time>2020-02-10T07:49:05Z</time>
      </trkpt>
      <trkpt lat="59.330042" lon="18.072998">
        <ele>6</ele>
        <time>2020-02-10T07:49:06Z</time>
      </trkpt>
      <trkpt lat="59.330003" lon="18.073021">
        <ele>6</ele>
        <time>2020-02-10T07:49:07Z</time>
      </trkpt>
      <trkpt lat="59.32997" lon="18.073043">
        <ele>6</ele>
        <time>2020-02-10T07:49:08Z</time>
      </trkpt>
      <trkpt lat="59.329944" lon="18.073056">
        <ele>6</ele>
        <time>2020-02-10T07:49:09Z</time>
      </trkpt>
      <trkpt lat="59.329918" lon="18.073067">
        <ele>6</ele>
        <time>2020-02-10T07:49:10Z</time>
      </trkpt>
      <trkpt lat="59.329897" lon="18.073077">
        <ele>6</ele>
        <time>2020-02-10T07:49:11Z</time>
      </trkpt>
      <trkpt lat="59.329876" lon="18.0731">
        <ele>5</ele>
        <time>2020-02-10T07:49:18Z</time>
      </trkpt>
      <trkpt lat="59.32985" lon="18.073124">
        <ele>5</ele>
        <time>2020-02-10T07:49:20Z</time>
      </trkpt>
      <trkpt lat="59.329825" lon="18.073143">
        <ele>5</ele>
        <time>2020-02-10T07:49:21Z</time>
      </trkpt>
      <trkpt lat="59.329788" lon="18.073169">
        <ele>4</ele>
        <time>2020-02-10T07:49:22Z</time>
      </trkpt>
      <trkpt lat="59.329744" lon="18.073183">
        <ele>4</ele>
        <time>2020-02-10T07:49:23Z</time>
      </trkpt>
      <trkpt lat="59.329694" lon="18.073182">
        <ele>4</ele>
        <time>2020-02-10T07:49:24Z</time>
      </trkpt>
      <trkpt lat="59.329642" lon="18.073174">
        <ele>4</ele>
        <time>2020-02-10T07:49:25Z</time>
      </trkpt>
      <trkpt lat="59.329586" lon="18.073166">
        <ele>4</ele>
        <time>2020-02-10T07:49:26Z</time>
      </trkpt>
      <trkpt lat="59.329523" lon="18.073156">
        <ele>4</ele>
        <time>2020-02-10T07:49:27Z</time>
      </trkpt>
      <trkpt lat="59.329462" lon="18.073147">
        <ele>4</ele>
        <time>2020-02-10T07:49:28Z</time>
      </trkpt>
      <trkpt lat="59.3294" lon="18.073138">
        <ele>4</ele>
        <time>2020-02-10T07:49:29Z</time>
      </trkpt>
      <trkpt lat="59.32934" lon="18.073127">
        <ele>4</ele>
        <time>2020-02-10T07:49:30Z</time>
      </trkpt>
      <trkpt lat="59.32928" lon="18.073111">
        <ele>5</ele>
        <time>2020-02-10T07:49:31Z</time>
      </trkpt>
      <trkpt lat="59.329222" lon="18.073094">
        <ele>5</ele>
        <time>2020-02-10T07:49:32Z</time>
      </trkpt>
      <trkpt lat="59.329162" lon="18.073081">
        <ele>5</ele>
        <time>2020-02-10T07:49:33Z</time>
      </trkpt>
      <trkpt lat="59.329104" lon="18.073066">
        <ele>5</ele>
        <time>2020-02-10T07:49:34Z</time>
      </trkpt>
      <trkpt lat="59.329044" lon="18.07305">
        <ele>5</ele>
        <time>2020-02-10T07:49:35Z</time>
      </trkpt>
      <trkpt lat="59.328986" lon="18.073035">
        <ele>5</ele>
        <time>2020-02-10T07:49:36Z</time>
      </trkpt>
      <trkpt lat="59.328928" lon="18.073021">
        <ele>5</ele>
        <time>2020-02-10T07:49:37Z</time>
      </trkpt>
      <trkpt lat="59.328869" lon="18.073006">
        <ele>5</ele>
        <time>2020-02-10T07:49:38Z</time>
      </trkpt>
      <trkpt lat="59.328814" lon="18.072994">
        <ele>5</ele>
        <time>2020-02-10T07:49:39Z</time>
      </trkpt>
      <trkpt lat="59.328758" lon="18.072981">
        <ele>5</ele>
        <time>2020-02-10T07:49:40Z</time>
      </trkpt>
      <trkpt lat="59.328704" lon="18.072967">
        <ele>5</ele>
        <time>2020-02-10T07:49:41Z</time>
      </trkpt>
      <trkpt lat="59.32865" lon="18.072953">
        <ele>5</ele>
        <time>2020-02-10T07:49:42Z</time>
      </trkpt>
      <trkpt lat="59.328598" lon="18.07294">
        <ele>5</ele>
        <time>2020-02-10T07:49:43Z</time>
      </trkpt>
      <trkpt lat="59.328546" lon="18.072927">
        <ele>5</ele>
        <time>2020-02-10T07:49:44Z</time>
      </trkpt>
      <trkpt lat="59.328497" lon="18.072915">
        <ele>5</ele>
        <time>2020-02-10T07:49:45Z</time>
      </trkpt>
      <trkpt lat="59.328448" lon="18.072903">
        <ele>5</ele>
        <time>2020-02-10T07:49:46Z</time>
      </trkpt>
      <trkpt lat="59.328403" lon="18.072893">
        <ele>5</ele>
        <time>2020-02-10T07:49:47Z</time>
      </trkpt>
      <trkpt lat="59.328363" lon="18.072884">
        <ele>5</ele>
        <time>2020-02-10T07:49:48Z</time>
      </trkpt>
      <trkpt lat="59.328324" lon="18.072874">
        <ele>5</ele>
        <time>2020-02-10T07:49:49Z</time>
      </trkpt>
      <trkpt lat="59.328281" lon="18.072863">
        <ele>5</ele>
        <time>2020-02-10T07:49:50Z</time>
      </trkpt>
      <trkpt lat="59.328234" lon="18.072851">
        <ele>0</ele>
        <time>2020-02-10T07:49:50Z</time>
      </trkpt>
      <trkpt lat="59.328182" lon="18.072839">
        <ele>5</ele>
        <time>2020-02-10T07:49:51Z</time>
      </trkpt>
      <trkpt lat="59.32813" lon="18.072829">
        <ele>5</ele>
        <time>2020-02-10T07:49:53Z</time>
      </trkpt>
      <trkpt lat="59.328076" lon="18.07282">
        <ele>5</ele>
        <time>2020-02-10T07:49:54Z</time>
      </trkpt>
      <trkpt lat="59.32802" lon="18.072814">
        <ele>5</ele>
        <time>2020-02-10T07:49:55Z</time>
      </trkpt>
      <trkpt lat="59.327964" lon="18.07282">
        <ele>5</ele>
        <time>2020-02-10T07:49:56Z</time>
      </trkpt>
      <trkpt lat="59.327908" lon="18.07284">
        <ele>5</ele>
        <time>2020-02-10T07:49:57Z</time>
      </trkpt>
      <trkpt lat="59.327854" lon="18.072873">
        <ele>5</ele>
        <time>2020-02-10T07:49:58Z</time>
      </trkpt>
      <trkpt lat="59.3278" lon="18.072919">
        <ele>5</ele>
        <time>2020-02-10T07:49:59Z</time>
      </trkpt>
      <trkpt lat="59.327746" lon="18.072974">
        <ele>5</ele>
        <time>2020-02-10T07:50:00Z</time>
      </trkpt>
      <trkpt lat="59.327696" lon="18.073033">
        <ele>5</ele>
        <time>2020-02-10T07:50:01Z</time>
      </trkpt>
      <trkpt lat="59.327646" lon="18.073095">
        <ele>5</ele>
        <time>2020-02-10T07:50:02Z</time>
      </trkpt>
      <trkpt lat="59.327597" lon="18.073155">
        <ele>5</ele>
        <time>2020-02-10T07:50:03Z</time>
      </trkpt>
      <trkpt lat="59.327548" lon="18.073215">
        <ele>5</ele>
        <time>2020-02-10T07:50:04Z</time>
      </trkpt>
      <trkpt lat="59.3275" lon="18.073272">
        <ele>5</ele>
        <time>2020-02-10T07:50:05Z</time>
      </trkpt>
      <trkpt lat="59.327454" lon="18.07333">
        <ele>5</ele>
        <time>2020-02-10T07:50:06Z</time>
      </trkpt>
      <trkpt lat="59.327405" lon="18.073384">
        <ele>5</ele>
        <time>2020-02-10T07:50:07Z</time>
      </trkpt>
      <trkpt lat="59.327358" lon="18.07344">
        <ele>4</ele>
        <time>2020-02-10T07:50:08Z</time>
      </trkpt>
      <trkpt lat="59.32731" lon="18.073497">
        <ele>4</ele>
        <time>2020-02-10T07:50:09Z</time>
      </trkpt>
      <trkpt lat="59.327264" lon="18.073553">
        <ele>4</ele>
        <time>2020-02-10T07:50:10Z</time>
      </trkpt>
      <trkpt lat="59.327218" lon="18.07361">
        <ele>4</ele>
        <time>2020-02-10T07:50:11Z</time>
      </trkpt>
      <trkpt lat="59.327173" lon="18.073663">
        <ele>4</ele>
        <time>2020-02-10T07:50:12Z</time>
      </trkpt>
      <trkpt lat="59.327132" lon="18.073713">
        <ele>4</ele>
        <time>2020-02-10T07:50:13Z</time>
      </trkpt>
      <trkpt lat="59.327092" lon="18.073761">
        <ele>4</ele>
        <time>2020-02-10T07:50:14Z</time>
      </trkpt>
      <trkpt lat="59.327054" lon="18.073807">
        <ele>4</ele>
        <time>2020-02-10T07:50:15Z</time>
      </trkpt>
      <trkpt lat="59.327019" lon="18.073848">
        <ele>4</ele>
        <time>2020-02-10T07:50:16Z</time>
      </trkpt>
      <trkpt lat="59.326988" lon="18.073886">
        <ele>4</ele>
        <time>2020-02-10T07:50:17Z</time>
      </trkpt>
      <trkpt lat="59.326962" lon="18.07392">
        <ele>4</ele>
        <time>2020-02-10T07:50:18Z</time>
      </trkpt>
      <trkpt lat="59.326938" lon="18.073951">
        <ele>4</ele>
        <time>2020-02-10T07:50:19Z</time>
      </trkpt>
      <trkpt lat="59.326918" lon="18.073979">
        <ele>4</ele>
        <time>2020-02-10T07:50:20Z</time>
      </trkpt>
      <trkpt lat="59.326899" lon="18.074005">
        <ele>4</ele>
        <time>2020-02-10T07:50:21Z</time>
      </trkpt>
      <trkpt lat="59.326883" lon="18.074029">
        <ele>4</ele>
        <time>2020-02-10T07:50:22Z</time>
      </trkpt>
      <trkpt lat="59.326867" lon="18.074048">
        <ele>4</ele>
        <time>2020-02-10T07:50:23Z</time>
      </trkpt>
      <trkpt lat="59.326839" lon="18.074082">
        <ele>4</ele>
        <time>2020-02-10T07:50:25Z</time>
      </trkpt>
      <trkpt lat="59.326816" lon="18.074109">
        <ele>4</ele>
        <time>2020-02-10T07:50:27Z</time>
      </trkpt>
      <trkpt lat="59.326788" lon="18.074139">
        <ele>4</ele>
        <time>2020-02-10T07:50:29Z</time>
      </trkpt>
      <trkpt lat="59.326768" lon="18.07416">
        <ele>4</ele>
        <time>2020-02-10T07:50:31Z</time>
      </trkpt>
      <trkpt lat="59.326753" lon="18.074184">
        <ele>4</ele>
        <time>2020-02-10T07:50:36Z</time>
      </trkpt>
      <trkpt lat="59.326743" lon="18.074193">
        <ele>0</ele>
        <time>2020-02-10T07:50:42Z</time>
      </trkpt>
      <trkpt lat="59.326674" lon="18.074248">
        <ele>4</ele>
        <time>2020-02-10T07:50:56Z</time>
      </trkpt>
      <trkpt lat="59.326647" lon="18.074283">
        <ele>4</ele>
        <time>2020-02-10T07:50:57Z</time>
      </trkpt>
      <trkpt lat="59.326616" lon="18.074325">
        <ele>4</ele>
        <time>2020-02-10T07:50:58Z</time>
      </trkpt>
      <trkpt lat="59.326583" lon="18.074371">
        <ele>4</ele>
        <time>2020-02-10T07:50:59Z</time>
      </trkpt>
      <trkpt lat="59.326547" lon="18.074422">
        <ele>4</ele>
        <time>2020-02-10T07:51:00Z</time>
      </trkpt>
      <trkpt lat="59.326508" lon="18.074475">
        <ele>4</ele>
        <time>2020-02-10T07:51:01Z</time>
      </trkpt>
      <trkpt lat="59.326466" lon="18.074531">
        <ele>4</ele>
        <time>2020-02-10T07:51:02Z</time>
      </trkpt>
      <trkpt lat="59.326422" lon="18.07459">
        <ele>4</ele>
        <time>2020-02-10T07:51:03Z</time>
      </trkpt>
      <trkpt lat="59.326377" lon="18.074653">
        <ele>0</ele>
        <time>2020-02-10T07:51:03Z</time>
      </trkpt>
      <trkpt lat="59.326331" lon="18.074716">
        <ele>4</ele>
        <time>2020-02-10T07:51:04Z</time>
      </trkpt>
      <trkpt lat="59.326283" lon="18.074778">
        <ele>4</ele>
        <time>2020-02-10T07:51:06Z</time>
      </trkpt>
      <trkpt lat="59.326234" lon="18.074835">
        <ele>4</ele>
        <time>2020-02-10T07:51:07Z</time>
      </trkpt>
      <trkpt lat="59.326184" lon="18.074888">
        <ele>4</ele>
        <time>2020-02-10T07:51:08Z</time>
      </trkpt>
      <trkpt lat="59.326132" lon="18.07494">
        <ele>4</ele>
        <time>2020-02-10T07:51:09Z</time>
      </trkpt>
      <trkpt lat="59.326079" lon="18.074991">
        <ele>4</ele>
        <time>2020-02-10T07:51:10Z</time>
      </trkpt>
      <trkpt lat="59.326026" lon="18.075043">
        <ele>4</ele>
        <time>2020-02-10T07:51:11Z</time>
      </trkpt>
      <trkpt lat="59.325973" lon="18.075096">
        <ele>4</ele>
        <time>2020-02-10T07:51:12Z</time>
      </trkpt>
      <trkpt lat="59.32592" lon="18.07515">
        <ele>0</ele>
        <time>2020-02-10T07:51:12Z</time>
      </trkpt>
      <trkpt lat="59.325868" lon="18.075202">
        <ele>4</ele>
        <time>2020-02-10T07:51:13Z</time>
      </trkpt>
      <trkpt lat="59.325816" lon="18.075252">
        <ele>4</ele>
        <time>2020-02-10T07:51:15Z</time>
      </trkpt>
      <trkpt lat="59.325763" lon="18.075299">
        <ele>4</ele>
        <time>2020-02-10T07:51:16Z</time>
      </trkpt>
      <trkpt lat="59.32571" lon="18.075349">
        <ele>4</ele>
        <time>2020-02-10T07:51:17Z</time>
      </trkpt>
      <trkpt lat="59.325656" lon="18.075402">
        <ele>4</ele>
        <time>2020-02-10T07:51:18Z</time>
      </trkpt>
      <trkpt lat="59.325601" lon="18.075457">
        <ele>4</ele>
        <time>2020-02-10T07:51:19Z</time>
      </trkpt>
      <trkpt lat="59.325546" lon="18.075504">
        <ele>4</ele>
        <time>2020-02-10T07:51:20Z</time>
      </trkpt>
      <trkpt lat="59.325488" lon="18.075534">
        <ele>0</ele>
        <time>2020-02-10T07:51:20Z</time>
      </trkpt>
      <trkpt lat="59.325428" lon="18.075551">
        <ele>4</ele>
        <time>2020-02-10T07:51:21Z</time>
      </trkpt>
      <trkpt lat="59.325368" lon="18.075568">
        <ele>4</ele>
        <time>2020-02-10T07:51:23Z</time>
      </trkpt>
      <trkpt lat="59.325308" lon="18.075582">
        <ele>4</ele>
        <time>2020-02-10T07:51:24Z</time>
      </trkpt>
      <trkpt lat="59.325248" lon="18.075587">
        <ele>4</ele>
        <time>2020-02-10T07:51:25Z</time>
      </trkpt>
      <trkpt lat="59.325189" lon="18.075591">
        <ele>4</ele>
        <time>2020-02-10T07:51:26Z</time>
      </trkpt>
      <trkpt lat="59.325129" lon="18.075596">
        <ele>4</ele>
        <time>2020-02-10T07:51:27Z</time>
      </trkpt>
      <trkpt lat="59.32507" lon="18.075602">
        <ele>4</ele>
        <time>2020-02-10T07:51:28Z</time>
      </trkpt>
      <trkpt lat="59.325011" lon="18.075609">
        <ele>4</ele>
        <time>2020-02-10T07:51:29Z</time>
      </trkpt>
      <trkpt lat="59.324953" lon="18.075611">
        <ele>4</ele>
        <time>2020-02-10T07:51:30Z</time>
      </trkpt>
      <trkpt lat="59.324893" lon="18.07561">
        <ele>4</ele>
        <time>2020-02-10T07:51:31Z</time>
      </trkpt>
      <trkpt lat="59.324835" lon="18.075603">
        <ele>4</ele>
        <time>2020-02-10T07:51:32Z</time>
      </trkpt>
      <trkpt lat="59.324776" lon="18.075591">
        <ele>4</ele>
        <time>2020-02-10T07:51:33Z</time>
      </trkpt>
      <trkpt lat="59.324719" lon="18.075578">
        <ele>4</ele>
        <time>2020-02-10T07:51:34Z</time>
      </trkpt>
      <trkpt lat="59.324663" lon="18.075563">
        <ele>4</ele>
        <time>2020-02-10T07:51:35Z</time>
      </trkpt>
      <trkpt lat="59.324608" lon="18.075542">
        <ele>4</ele>
        <time>2020-02-10T07:51:36Z</time>
      </trkpt>
      <trkpt lat="59.324555" lon="18.075517">
        <ele>4</ele>
        <time>2020-02-10T07:51:37Z</time>
      </trkpt>
      <trkpt lat="59.324501" lon="18.075497">
        <ele>4</ele>
        <time>2020-02-10T07:51:38Z</time>
      </trkpt>
      <trkpt lat="59.324447" lon="18.075481">
        <ele>4</ele>
        <time>2020-02-10T07:51:39Z</time>
      </trkpt>
      <trkpt lat="59.324393" lon="18.075469">
        <ele>4</ele>
        <time>2020-02-10T07:51:40Z</time>
      </trkpt>
      <trkpt lat="59.324341" lon="18.075459">
        <ele>4</ele>
        <time>2020-02-10T07:51:41Z</time>
      </trkpt>
      <trkpt lat="59.324288" lon="18.075447">
        <ele>4</ele>
        <time>2020-02-10T07:51:42Z</time>
      </trkpt>
      <trkpt lat="59.324236" lon="18.075431">
        <ele>4</ele>
        <time>2020-02-10T07:51:43Z</time>
      </trkpt>
      <trkpt lat="59.324184" lon="18.075411">
        <ele>4</ele>
        <time>2020-02-10T07:51:44Z</time>
      </trkpt>
      <trkpt lat="59.324132" lon="18.07539">
        <ele>4</ele>
        <time>2020-02-10T07:51:45Z</time>
      </trkpt>
      <trkpt lat="59.32408" lon="18.075372">
        <ele>4</ele>
        <time>2020-02-10T07:51:46Z</time>
      </trkpt>
      <trkpt lat="59.324028" lon="18.075353">
        <ele>4</ele>
        <time>2020-02-10T07:51:47Z</time>
      </trkpt>
      <trkpt lat="59.323975" lon="18.075336">
        <ele>4</ele>
        <time>2020-02-10T07:51:48Z</time>
      </trkpt>
      <trkpt lat="59.323922" lon="18.075318">
        <ele>4</ele>
        <time>2020-02-10T07:51:49Z</time>
      </trkpt>
      <trkpt lat="59.32387" lon="18.075298">
        <ele>5</ele>
        <time>2020-02-10T07:51:50Z</time>
      </trkpt>
      <trkpt lat="59.323818" lon="18.07528">
        <ele>5</ele>
        <time>2020-02-10T07:51:51Z</time>
      </trkpt>
      <trkpt lat="59.323768" lon="18.075264">
        <ele>5</ele>
        <time>2020-02-10T07:51:52Z</time>
      </trkpt>
      <trkpt lat="59.323718" lon="18.075244">
        <ele>5</ele>
        <time>2020-02-10T07:51:53Z</time>
      </trkpt>
      <trkpt lat="59.323668" lon="18.075226">
        <ele>5</ele>
        <time>2020-02-10T07:51:54Z</time>
      </trkpt>
      <trkpt lat="59.32362" lon="18.075205">
        <ele>5</ele>
        <time>2020-02-10T07:51:55Z</time>
      </trkpt>
      <trkpt lat="59.323571" lon="18.075188">
        <ele>5</ele>
        <time>2020-02-10T07:51:56Z</time>
      </trkpt>
      <trkpt lat="59.323522" lon="18.075171">
        <ele>5</ele>
        <time>2020-02-10T07:51:57Z</time>
      </trkpt>
      <trkpt lat="59.323473" lon="18.075152">
        <ele>5</ele>
        <time>2020-02-10T07:51:58Z</time>
      </trkpt>
      <trkpt lat="59.323424" lon="18.075133">
        <ele>4</ele>
        <time>2020-02-10T07:51:59Z</time>
      </trkpt>
      <trkpt lat="59.323375" lon="18.07512">
        <ele>4</ele>
        <time>2020-02-10T07:52:00Z</time>
      </trkpt>
      <trkpt lat="59.323328" lon="18.075102">
        <ele>4</ele>
        <time>2020-02-10T07:52:01Z</time>
      </trkpt>
      <trkpt lat="59.32328" lon="18.075081">
        <ele>4</ele>
        <time>2020-02-10T07:52:02Z</time>
      </trkpt>
      <trkpt lat="59.323232" lon="18.075061">
        <ele>4</ele>
        <time>2020-02-10T07:52:03Z</time>
      </trkpt>
      <trkpt lat="59.323184" lon="18.07504">
        <ele>4</ele>
        <time>2020-02-10T07:52:04Z</time>
      </trkpt>
      <trkpt lat="59.323137" lon="18.075018">
        <ele>4</ele>
        <time>2020-02-10T07:52:05Z</time>
      </trkpt>
      <trkpt lat="59.32309" lon="18.074997">
        <ele>3</ele>
        <time>2020-02-10T07:52:06Z</time>
      </trkpt>
      <trkpt lat="59.323042" lon="18.074967">
        <ele>3</ele>
        <time>2020-02-10T07:52:07Z</time>
      </trkpt>
      <trkpt lat="59.322994" lon="18.074942">
        <ele>3</ele>
        <time>2020-02-10T07:52:08Z</time>
      </trkpt>
      <trkpt lat="59.322946" lon="18.074916">
        <ele>3</ele>
        <time>2020-02-10T07:52:09Z</time>
      </trkpt>
      <trkpt lat="59.322901" lon="18.074884">
        <ele>3</ele>
        <time>2020-02-10T07:52:10Z</time>
      </trkpt>
      <trkpt lat="59.322857" lon="18.074852">
        <ele>4</ele>
        <time>2020-02-10T07:52:11Z</time>
      </trkpt>
      <trkpt lat="59.322815" lon="18.074813">
        <ele>4</ele>
        <time>2020-02-10T07:52:12Z</time>
      </trkpt>
      <trkpt lat="59.322773" lon="18.074774">
        <ele>4</ele>
        <time>2020-02-10T07:52:13Z</time>
      </trkpt>
      <trkpt lat="59.322732" lon="18.074734">
        <ele>3</ele>
        <time>2020-02-10T07:52:14Z</time>
      </trkpt>
      <trkpt lat="59.322689" lon="18.074691">
        <ele>4</ele>
        <time>2020-02-10T07:52:15Z</time>
      </trkpt>
      <trkpt lat="59.322646" lon="18.074645">
        <ele>4</ele>
        <time>2020-02-10T07:52:16Z</time>
      </trkpt>
      <trkpt lat="59.322604" lon="18.074593">
        <ele>4</ele>
        <time>2020-02-10T07:52:17Z</time>
      </trkpt>
      <trkpt lat="59.322559" lon="18.074546">
        <ele>0</ele>
        <time>2020-02-10T07:52:17Z</time>
      </trkpt>
      <trkpt lat="59.322514" lon="18.074497">
        <ele>4</ele>
        <time>2020-02-10T07:52:18Z</time>
      </trkpt>
      <trkpt lat="59.322467" lon="18.074454">
        <ele>4</ele>
        <time>2020-02-10T07:52:19Z</time>
      </trkpt>
      <trkpt lat="59.322422" lon="18.07441">
        <ele>4</ele>
        <time>2020-02-10T07:52:21Z</time>
      </trkpt>
      <trkpt lat="59.322378" lon="18.074371">
        <ele>4</ele>
        <time>2020-02-10T07:52:22Z</time>
      </trkpt>
      <trkpt lat="59.322335" lon="18.074332">
        <ele>4</ele>
        <time>2020-02-10T07:52:23Z</time>
      </trkpt>
      <trkpt lat="59.322294" lon="18.074295">
        <ele>4</ele>
        <time>2020-02-10T07:52:24Z</time>
      </trkpt>
      <trkpt lat="59.322254" lon="18.074258">
        <ele>4</ele>
        <time>2020-02-10T07:52:25Z</time>
      </trkpt>
      <trkpt lat="59.322213" lon="18.074228">
        <ele>4</ele>
        <time>2020-02-10T07:52:26Z</time>
      </trkpt>
      <trkpt lat="59.322173" lon="18.074194">
        <ele>4</ele>
        <time>2020-02-10T07:52:27Z</time>
      </trkpt>
      <trkpt lat="59.322135" lon="18.074156">
        <ele>4</ele>
        <time>2020-02-10T07:52:28Z</time>
      </trkpt>
      <trkpt lat="59.322098" lon="18.074113">
        <ele>4</ele>
        <time>2020-02-10T07:52:29Z</time>
      </trkpt>
      <trkpt lat="59.322062" lon="18.074067">
        <ele>4</ele>
        <time>2020-02-10T07:52:30Z</time>
      </trkpt>
      <trkpt lat="59.322026" lon="18.074022">
        <ele>4</ele>
        <time>2020-02-10T07:52:31Z</time>
      </trkpt>
      <trkpt lat="59.321992" lon="18.07398">
        <ele>4</ele>
        <time>2020-02-10T07:52:32Z</time>
      </trkpt>
      <trkpt lat="59.32196" lon="18.073948">
        <ele>4</ele>
        <time>2020-02-10T07:52:33Z</time>
      </trkpt>
      <trkpt lat="59.321935" lon="18.073907">
        <ele>4</ele>
        <time>2020-02-10T07:52:34Z</time>
      </trkpt>
      <trkpt lat="59.321923" lon="18.073852">
        <ele>4</ele>
        <time>2020-02-10T07:52:35Z</time>
      </trkpt>
      <trkpt lat="59.321922" lon="18.073785">
        <ele>4</ele>
        <time>2020-02-10T07:52:36Z</time>
      </trkpt>
      <trkpt lat="59.321925" lon="18.073719">
        <ele>4</ele>
        <time>2020-02-10T07:52:37Z</time>
      </trkpt>
      <trkpt lat="59.321934" lon="18.073654">
        <ele>4</ele>
        <time>2020-02-10T07:52:38Z</time>
      </trkpt>
      <trkpt lat="59.321945" lon="18.073587">
        <ele>4</ele>
        <time>2020-02-10T07:52:39Z</time>
      </trkpt>
      <trkpt lat="59.321958" lon="18.07352">
        <ele>4</ele>
        <time>2020-02-10T07:52:40Z</time>
      </trkpt>
      <trkpt lat="59.321971" lon="18.073453">
        <ele>4</ele>
        <time>2020-02-10T07:52:41Z</time>
      </trkpt>
      <trkpt lat="59.321984" lon="18.073388">
        <ele>5</ele>
        <time>2020-02-10T07:52:42Z</time>
      </trkpt>
      <trkpt lat="59.321999" lon="18.073327">
        <ele>5</ele>
        <time>2020-02-10T07:52:43Z</time>
      </trkpt>
      <trkpt lat="59.322013" lon="18.073267">
        <ele>5</ele>
        <time>2020-02-10T07:52:44Z</time>
      </trkpt>
      <trkpt lat="59.322025" lon="18.073213">
        <ele>5</ele>
        <time>2020-02-10T07:52:45Z</time>
      </trkpt>
      <trkpt lat="59.322037" lon="18.073162">
        <ele>5</ele>
        <time>2020-02-10T07:52:46Z</time>
      </trkpt>
      <trkpt lat="59.322048" lon="18.073113">
        <ele>5</ele>
        <time>2020-02-10T07:52:47Z</time>
      </trkpt>
      <trkpt lat="59.322055" lon="18.073071">
        <ele>5</ele>
        <time>2020-02-10T07:52:48Z</time>
      </trkpt>
      <trkpt lat="59.322063" lon="18.073031">
        <ele>5</ele>
        <time>2020-02-10T07:52:49Z</time>
      </trkpt>
      <trkpt lat="59.322071" lon="18.072997">
        <ele>5</ele>
        <time>2020-02-10T07:52:50Z</time>
      </trkpt>
      <trkpt lat="59.322081" lon="18.072947">
        <ele>6</ele>
        <time>2020-02-10T07:52:52Z</time>
      </trkpt>
      <trkpt lat="59.322085" lon="18.072897">
        <ele>6</ele>
        <time>2020-02-10T07:52:55Z</time>
      </trkpt>
      <trkpt lat="59.322087" lon="18.072855">
        <ele>6</ele>
        <time>2020-02-10T07:52:56Z</time>
      </trkpt>
      <trkpt lat="59.322086" lon="18.072798">
        <ele>6</ele>
        <time>2020-02-10T07:52:57Z</time>
      </trkpt>
      <trkpt lat="59.322083" lon="18.072731">
        <ele>6</ele>
        <time>2020-02-10T07:52:58Z</time>
      </trkpt>
      <trkpt lat="59.322077" lon="18.07266">
        <ele>6</ele>
        <time>2020-02-10T07:52:59Z</time>
      </trkpt>
      <trkpt lat="59.322068" lon="18.072584">
        <ele>6</ele>
        <time>2020-02-10T07:53:00Z</time>
      </trkpt>
      <trkpt lat="59.322057" lon="18.072507">
        <ele>6</ele>
        <time>2020-02-10T07:53:01Z</time>
      </trkpt>
      <trkpt lat="59.322046" lon="18.072431">
        <ele>6</ele>
        <time>2020-02-10T07:53:02Z</time>
      </trkpt>
      <trkpt lat="59.322035" lon="18.072358">
        <ele>6</ele>
        <time>2020-02-10T07:53:03Z</time>
      </trkpt>
      <trkpt lat="59.322014" lon="18.072302">
        <ele>6</ele>
        <time>2020-02-10T07:53:04Z</time>
      </trkpt>
      <trkpt lat="59.321983" lon="18.072272">
        <ele>6</ele>
        <time>2020-02-10T07:53:05Z</time>
      </trkpt>
      <trkpt lat="59.321944" lon="18.072261">
        <ele>6</ele>
        <time>2020-02-10T07:53:06Z</time>
      </trkpt>
      <trkpt lat="59.321904" lon="18.072247">
        <ele>6</ele>
        <time>2020-02-10T07:53:07Z</time>
      </trkpt>
      <trkpt lat="59.321865" lon="18.072228">
        <ele>7</ele>
        <time>2020-02-10T07:53:08Z</time>
      </trkpt>
      <trkpt lat="59.321828" lon="18.072209">
        <ele>7</ele>
        <time>2020-02-10T07:53:09Z</time>
      </trkpt>
      <trkpt lat="59.321789" lon="18.072194">
        <ele>7</ele>
        <time>2020-02-10T07:53:10Z</time>
      </trkpt>
      <trkpt lat="59.32175" lon="18.072189">
        <ele>7</ele>
        <time>2020-02-10T07:53:11Z</time>
      </trkpt>
      <trkpt lat="59.321712" lon="18.072195">
        <ele>8</ele>
        <time>2020-02-10T07:53:12Z</time>
      </trkpt>
      <trkpt lat="59.321674" lon="18.0722">
        <ele>8</ele>
        <time>2020-02-10T07:53:13Z</time>
      </trkpt>
      <trkpt lat="59.321637" lon="18.072199">
        <ele>8</ele>
        <time>2020-02-10T07:53:14Z</time>
      </trkpt>
      <trkpt lat="59.321602" lon="18.072185">
        <ele>8</ele>
        <time>2020-02-10T07:53:15Z</time>
      </trkpt>
      <trkpt lat="59.321568" lon="18.072161">
        <ele>8</ele>
        <time>2020-02-10T07:53:16Z</time>
      </trkpt>
      <trkpt lat="59.321533" lon="18.072137">
        <ele>8</ele>
        <time>2020-02-10T07:53:17Z</time>
      </trkpt>
      <trkpt lat="59.321498" lon="18.072112">
        <ele>8</ele>
        <time>2020-02-10T07:53:18Z</time>
      </trkpt>
      <trkpt lat="59.321463" lon="18.072087">
        <ele>8</ele>
        <time>2020-02-10T07:53:19Z</time>
      </trkpt>
      <trkpt lat="59.321428" lon="18.072064">
        <ele>8</ele>
        <time>2020-02-10T07:53:20Z</time>
      </trkpt>
      <trkpt lat="59.321393" lon="18.072041">
        <ele>9</ele>
        <time>2020-02-10T07:53:21Z</time>
      </trkpt>
      <trkpt lat="59.321356" lon="18.072018">
        <ele>9</ele>
        <time>2020-02-10T07:53:22Z</time>
      </trkpt>
      <trkpt lat="59.321322" lon="18.071993">
        <ele>9</ele>
        <time>2020-02-10T07:53:23Z</time>
      </trkpt>
      <trkpt lat="59.321288" lon="18.071967">
        <ele>9</ele>
        <time>2020-02-10T07:53:24Z</time>
      </trkpt>
      <trkpt lat="59.321254" lon="18.07194">
        <ele>9</ele>
        <time>2020-02-10T07:53:25Z</time>
      </trkpt>
      <trkpt lat="59.321219" lon="18.07191">
        <ele>9</ele>
        <time>2020-02-10T07:53:26Z</time>
      </trkpt>
      <trkpt lat="59.321188" lon="18.071874">
        <ele>9</ele>
        <time>2020-02-10T07:53:27Z</time>
      </trkpt>
      <trkpt lat="59.32116" lon="18.071829">
        <ele>9</ele>
        <time>2020-02-10T07:53:28Z</time>
      </trkpt>
      <trkpt lat="59.321137" lon="18.071776">
        <ele>9</ele>
        <time>2020-02-10T07:53:29Z</time>
      </trkpt>
      <trkpt lat="59.32112" lon="18.071718">
        <ele>10</ele>
        <time>2020-02-10T07:53:30Z</time>
      </trkpt>
      <trkpt lat="59.321106" lon="18.071659">
        <ele>10</ele>
        <time>2020-02-10T07:53:31Z</time>
      </trkpt>
      <trkpt lat="59.321096" lon="18.071599">
        <ele>10</ele>
        <time>2020-02-10T07:53:32Z</time>
      </trkpt>
      <trkpt lat="59.321091" lon="18.071538">
        <ele>10</ele>
        <time>2020-02-10T07:53:33Z</time>
      </trkpt>
      <trkpt lat="59.321085" lon="18.071479">
        <ele>10</ele>
        <time>2020-02-10T07:53:34Z</time>
      </trkpt>
      <trkpt lat="59.321078" lon="18.071422">
        <ele>10</ele>
        <time>2020-02-10T07:53:35Z</time>
      </trkpt>
      <trkpt lat="59.321072" lon="18.071367">
        <ele>10</ele>
        <time>2020-02-10T07:53:36Z</time>
      </trkpt>
      <trkpt lat="59.321067" lon="18.071314">
        <ele>10</ele>
        <time>2020-02-10T07:53:37Z</time>
      </trkpt>
      <trkpt lat="59.321061" lon="18.07126">
        <ele>10</ele>
        <time>2020-02-10T07:53:38Z</time>
      </trkpt>
      <trkpt lat="59.321055" lon="18.071207">
        <ele>10</ele>
        <time>2020-02-10T07:53:39Z</time>
      </trkpt>
      <trkpt lat="59.321048" lon="18.071156">
        <ele>10</ele>
        <time>2020-02-10T07:53:40Z</time>
      </trkpt>
      <trkpt lat="59.321034" lon="18.071109">
        <ele>11</ele>
        <time>2020-02-10T07:53:41Z</time>
      </trkpt>
      <trkpt lat="59.321013" lon="18.071071">
        <ele>11</ele>
        <time>2020-02-10T07:53:42Z</time>
      </trkpt>
      <trkpt lat="59.320987" lon="18.071041">
        <ele>11</ele>
        <time>2020-02-10T07:53:43Z</time>
      </trkpt>
      <trkpt lat="59.32096" lon="18.071017">
        <ele>11</ele>
        <time>2020-02-10T07:53:44Z</time>
      </trkpt>
      <trkpt lat="59.320933" lon="18.070994">
        <ele>11</ele>
        <time>2020-02-10T07:53:45Z</time>
      </trkpt>
      <trkpt lat="59.320905" lon="18.070972">
        <ele>12</ele>
        <time>2020-02-10T07:53:46Z</time>
      </trkpt>
      <trkpt lat="59.320878" lon="18.07095">
        <ele>12</ele>
        <time>2020-02-10T07:53:47Z</time>
      </trkpt>
      <trkpt lat="59.32085" lon="18.07093">
        <ele>12</ele>
        <time>2020-02-10T07:53:48Z</time>
      </trkpt>
      <trkpt lat="59.320823" lon="18.070911">
        <ele>12</ele>
        <time>2020-02-10T07:53:49Z</time>
      </trkpt>
      <trkpt lat="59.320795" lon="18.07089">
        <ele>12</ele>
        <time>2020-02-10T07:53:50Z</time>
      </trkpt>
      <trkpt lat="59.320767" lon="18.070871">
        <ele>12</ele>
        <time>2020-02-10T07:53:51Z</time>
      </trkpt>
      <trkpt lat="59.320738" lon="18.070853">
        <ele>13</ele>
        <time>2020-02-10T07:53:52Z</time>
      </trkpt>
      <trkpt lat="59.320709" lon="18.07084">
        <ele>13</ele>
        <time>2020-02-10T07:53:53Z</time>
      </trkpt>
      <trkpt lat="59.320679" lon="18.070831">
        <ele>13</ele>
        <time>2020-02-10T07:53:54Z</time>
      </trkpt>
      <trkpt lat="59.320649" lon="18.070822">
        <ele>13</ele>
        <time>2020-02-10T07:53:55Z</time>
      </trkpt>
      <trkpt lat="59.320621" lon="18.070812">
        <ele>13</ele>
        <time>2020-02-10T07:53:56Z</time>
      </trkpt>
      <trkpt lat="59.320593" lon="18.070794">
        <ele>13</ele>
        <time>2020-02-10T07:53:57Z</time>
      </trkpt>
      <trkpt lat="59.320571" lon="18.070758">
        <ele>13</ele>
        <time>2020-02-10T07:53:58Z</time>
      </trkpt>
      <trkpt lat="59.320555" lon="18.070708">
        <ele>13</ele>
        <time>2020-02-10T07:53:59Z</time>
      </trkpt>
      <trkpt lat="59.320544" lon="18.070642">
        <ele>13</ele>
        <time>2020-02-10T07:54:00Z</time>
      </trkpt>
      <trkpt lat="59.320533" lon="18.070572">
        <ele>14</ele>
        <time>2020-02-10T07:54:01Z</time>
      </trkpt>
      <trkpt lat="59.320521" lon="18.070499">
        <ele>13</ele>
        <time>2020-02-10T07:54:01Z</time>
      </trkpt>
      <trkpt lat="59.320507" lon="18.070428">
        <ele>14</ele>
        <time>2020-02-10T07:54:02Z</time>
      </trkpt>
      <trkpt lat="59.320491" lon="18.070355">
        <ele>14</ele>
        <time>2020-02-10T07:54:04Z</time>
      </trkpt>
      <trkpt lat="59.320475" lon="18.070285">
        <ele>14</ele>
        <time>2020-02-10T07:54:05Z</time>
      </trkpt>
      <trkpt lat="59.320449" lon="18.070241">
        <ele>14</ele>
        <time>2020-02-10T07:54:06Z</time>
      </trkpt>
      <trkpt lat="59.320415" lon="18.070231">
        <ele>14</ele>
        <time>2020-02-10T07:54:07Z</time>
      </trkpt>
      <trkpt lat="59.320382" lon="18.070237">
        <ele>14</ele>
        <time>2020-02-10T07:54:08Z</time>
      </trkpt>
      <trkpt lat="59.32035" lon="18.070248">
        <ele>14</ele>
        <time>2020-02-10T07:54:09Z</time>
      </trkpt>
      <trkpt lat="59.320318" lon="18.070259">
        <ele>15</ele>
        <time>2020-02-10T07:54:10Z</time>
      </trkpt>
      <trkpt lat="59.320287" lon="18.070271">
        <ele>15</ele>
        <time>2020-02-10T07:54:11Z</time>
      </trkpt>
      <trkpt lat="59.32026" lon="18.07028">
        <ele>15</ele>
        <time>2020-02-10T07:54:12Z</time>
      </trkpt>
      <trkpt lat="59.320238" lon="18.070287">
        <ele>15</ele>
        <time>2020-02-10T07:54:13Z</time>
      </trkpt>
      <trkpt lat="59.320216" lon="18.070298">
        <ele>15</ele>
        <time>2020-02-10T07:54:14Z</time>
      </trkpt>
      <trkpt lat="59.320195" lon="18.070305">
        <ele>15</ele>
        <time>2020-02-10T07:54:15Z</time>
      </trkpt>
      <trkpt lat="59.320177" lon="18.070311">
        <ele>15</ele>
        <time>2020-02-10T07:54:16Z</time>
      </trkpt>
      <trkpt lat="59.320152" lon="18.070319">
        <ele>15</ele>
        <time>2020-02-10T07:54:18Z</time>
      </trkpt>
      <trkpt lat="59.320131" lon="18.07033">
        <ele>16</ele>
        <time>2020-02-10T07:54:21Z</time>
      </trkpt>
      <trkpt lat="59.32011" lon="18.070345">
        <ele>16</ele>
        <time>2020-02-10T07:54:25Z</time>
      </trkpt>
      <trkpt lat="59.320103" lon="18.070357">
        <ele>0</ele>
        <time>2020-02-10T07:54:28Z</time>
      </trkpt>
      <trkpt lat="59.320001" lon="18.070401">
        <ele>17</ele>
        <time>2020-02-10T07:55:11Z</time>
      </trkpt>
      <trkpt lat="59.319972" lon="18.070412">
        <ele>18</ele>
        <time>2020-02-10T07:55:12Z</time>
      </trkpt>
      <trkpt lat="59.319939" lon="18.070427">
        <ele>18</ele>
        <time>2020-02-10T07:55:13Z</time>
      </trkpt>
      <trkpt lat="59.319905" lon="18.070441">
        <ele>18</ele>
        <time>2020-02-10T07:55:14Z</time>
      </trkpt>
      <trkpt lat="59.31987" lon="18.070456">
        <ele>18</ele>
        <time>2020-02-10T07:55:15Z</time>
      </trkpt>
      <trkpt lat="59.319835" lon="18.070472">
        <ele>19</ele>
        <time>2020-02-10T07:55:16Z</time>
      </trkpt>
      <trkpt lat="59.319803" lon="18.070494">
        <ele>19</ele>
        <time>2020-02-10T07:55:17Z</time>
      </trkpt>
      <trkpt lat="59.319772" lon="18.070526">
        <ele>19</ele>
        <time>2020-02-10T07:55:18Z</time>
      </trkpt>
      <trkpt lat="59.319741" lon="18.070556">
        <ele>19</ele>
        <time>2020-02-10T07:55:19Z</time>
      </trkpt>
      <trkpt lat="59.319708" lon="18.070593">
        <ele>19</ele>
        <time>2020-02-10T07:55:20Z</time>
      </trkpt>
      <trkpt lat="59.319672" lon="18.070629">
        <ele>19</ele>
        <time>2020-02-10T07:55:21Z</time>
      </trkpt>
      <trkpt lat="59.319636" lon="18.070654">
        <ele>19</ele>
        <time>2020-02-10T07:55:22Z</time>
      </trkpt>
      <trkpt lat="59.319598" lon="18.07066">
        <ele>20</ele>
        <time>2020-02-10T07:55:23Z</time>
      </trkpt>
      <trkpt lat="59.319559" lon="18.070663">
        <ele>20</ele>
        <time>2020-02-10T07:55:24Z</time>
      </trkpt>
      <trkpt lat="59.319524" lon="18.070663">
        <ele>20</ele>
        <time>2020-02-10T07:55:25Z</time>
      </trkpt>
      <trkpt lat="59.319487" lon="18.07068">
        <ele>0</ele>
        <time>2020-02-10T07:55:25Z</time>
      </trkpt>
      <trkpt lat="59.319453" lon="18.070698">
        <ele>20</ele>
        <time>2020-02-10T07:55:26Z</time>
      </trkpt>
      <trkpt lat="59.31941" lon="18.070736">
        <ele>21</ele>
        <time>2020-02-10T07:55:28Z</time>
      </trkpt>
      <trkpt lat="59.319366" lon="18.070764">
        <ele>21</ele>
        <time>2020-02-10T07:55:29Z</time>
      </trkpt>
      <trkpt lat="59.319326" lon="18.0708">
        <ele>22</ele>
        <time>2020-02-10T07:55:30Z</time>
      </trkpt>
      <trkpt lat="59.319279" lon="18.070841">
        <ele>22</ele>
        <time>2020-02-10T07:55:31Z</time>
      </trkpt>
      <trkpt lat="59.31924" lon="18.070864">
        <ele>22</ele>
        <time>2020-02-10T07:55:32Z</time>
      </trkpt>
      <trkpt lat="59.319116" lon="18.070923">
        <ele>23</ele>
        <time>2020-02-10T07:55:35Z</time>
      </trkpt>
      <trkpt lat="59.319046" lon="18.07097">
        <ele>23</ele>
        <time>2020-02-10T07:55:37Z</time>
      </trkpt>
      <trkpt lat="59.319008" lon="18.070989">
        <ele>0</ele>
        <time>2020-02-10T07:55:37Z</time>
      </trkpt>
      <trkpt lat="59.318925" lon="18.071038">
        <ele>24</ele>
        <time>2020-02-10T07:55:40Z</time>
      </trkpt>
      <trkpt lat="59.318871" lon="18.071056">
        <ele>24</ele>
        <time>2020-02-10T07:55:41Z</time>
      </trkpt>
      <trkpt lat="59.318817" lon="18.071077">
        <ele>24</ele>
        <time>2020-02-10T07:55:42Z</time>
      </trkpt>
      <trkpt lat="59.318768" lon="18.071106">
        <ele>25</ele>
        <time>2020-02-10T07:55:43Z</time>
      </trkpt>
      <trkpt lat="59.318722" lon="18.071136">
        <ele>26</ele>
        <time>2020-02-10T07:55:44Z</time>
      </trkpt>
      <trkpt lat="59.318686" lon="18.071165">
        <ele>26</ele>
        <time>2020-02-10T07:55:45Z</time>
      </trkpt>
      <trkpt lat="59.318645" lon="18.071175">
        <ele>27</ele>
        <time>2020-02-10T07:55:46Z</time>
      </trkpt>
      <trkpt lat="59.318605" lon="18.071179">
        <ele>27</ele>
        <time>2020-02-10T07:55:47Z</time>
      </trkpt>
      <trkpt lat="59.31857" lon="18.071202">
        <ele>28</ele>
        <time>2020-02-10T07:55:48Z</time>
      </trkpt>
      <trkpt lat="59.318537" lon="18.071227">
        <ele>28</ele>
        <time>2020-02-10T07:55:49Z</time>
      </trkpt>
      <trkpt lat="59.318504" lon="18.071251">
        <ele>28</ele>
        <time>2020-02-10T07:55:50Z</time>
      </trkpt>
      <trkpt lat="59.31847" lon="18.071273">
        <ele>28</ele>
        <time>2020-02-10T07:55:51Z</time>
      </trkpt>
      <trkpt lat="59.318435" lon="18.071292">
        <ele>28</ele>
        <time>2020-02-10T07:55:52Z</time>
      </trkpt>
      <trkpt lat="59.318402" lon="18.071314">
        <ele>28</ele>
        <time>2020-02-10T07:55:53Z</time>
      </trkpt>
      <trkpt lat="59.318361" lon="18.071339">
        <ele>28</ele>
        <time>2020-02-10T07:55:54Z</time>
      </trkpt>
      <trkpt lat="59.318311" lon="18.071349">
        <ele>28</ele>
        <time>2020-02-10T07:55:55Z</time>
      </trkpt>
      <trkpt lat="59.318271" lon="18.071371">
        <ele>28</ele>
        <time>2020-02-10T07:55:56Z</time>
      </trkpt>
      <trkpt lat="59.318234" lon="18.071396">
        <ele>28</ele>
        <time>2020-02-10T07:55:57Z</time>
      </trkpt>
      <trkpt lat="59.318197" lon="18.071419">
        <ele>28</ele>
        <time>2020-02-10T07:55:58Z</time>
      </trkpt>
      <trkpt lat="59.318158" lon="18.071437">
        <ele>28</ele>
        <time>2020-02-10T07:55:59Z</time>
      </trkpt>
      <trkpt lat="59.318119" lon="18.071459">
        <ele>28</ele>
        <time>2020-02-10T07:56:00Z</time>
      </trkpt>
      <trkpt lat="59.318083" lon="18.071479">
        <ele>28</ele>
        <time>2020-02-10T07:56:01Z</time>
      </trkpt>
      <trkpt lat="59.318042" lon="18.071497">
        <ele>28</ele>
        <time>2020-02-10T07:56:01Z</time>
      </trkpt>
      <trkpt lat="59.318006" lon="18.071523">
        <ele>28</ele>
        <time>2020-02-10T07:56:02Z</time>
      </trkpt>
      <trkpt lat="59.317975" lon="18.071557">
        <ele>29</ele>
        <time>2020-02-10T07:56:04Z</time>
      </trkpt>
      <trkpt lat="59.317948" lon="18.071583">
        <ele>29</ele>
        <time>2020-02-10T07:56:05Z</time>
      </trkpt>
      <trkpt lat="59.317917" lon="18.071607">
        <ele>29</ele>
        <time>2020-02-10T07:56:06Z</time>
      </trkpt>
      <trkpt lat="59.31789" lon="18.071634">
        <ele>30</ele>
        <time>2020-02-10T07:56:07Z</time>
      </trkpt>
      <trkpt lat="59.317869" lon="18.071664">
        <ele>30</ele>
        <time>2020-02-10T07:56:08Z</time>
      </trkpt>
      <trkpt lat="59.317848" lon="18.071687">
        <ele>30</ele>
        <time>2020-02-10T07:56:09Z</time>
      </trkpt>
      <trkpt lat="59.317829" lon="18.071703">
        <ele>31</ele>
        <time>2020-02-10T07:56:10Z</time>
      </trkpt>
      <trkpt lat="59.317801" lon="18.071725">
        <ele>31</ele>
        <time>2020-02-10T07:56:11Z</time>
      </trkpt>
      <trkpt lat="59.317767" lon="18.071758">
        <ele>31</ele>
        <time>2020-02-10T07:56:12Z</time>
      </trkpt>
      <trkpt lat="59.317731" lon="18.071782">
        <ele>32</ele>
        <time>2020-02-10T07:56:13Z</time>
      </trkpt>
      <trkpt lat="59.317693" lon="18.071806">
        <ele>32</ele>
        <time>2020-02-10T07:56:14Z</time>
      </trkpt>
      <trkpt lat="59.317655" lon="18.071822">
        <ele>32</ele>
        <time>2020-02-10T07:56:15Z</time>
      </trkpt>
      <trkpt lat="59.317621" lon="18.071832">
        <ele>33</ele>
        <time>2020-02-10T07:56:16Z</time>
      </trkpt>
      <trkpt lat="59.317589" lon="18.071843">
        <ele>33</ele>
        <time>2020-02-10T07:56:17Z</time>
      </trkpt>
      <trkpt lat="59.317557" lon="18.071856">
        <ele>33</ele>
        <time>2020-02-10T07:56:18Z</time>
      </trkpt>
      <trkpt lat="59.317522" lon="18.071868">
        <ele>33</ele>
        <time>2020-02-10T07:56:19Z</time>
      </trkpt>
      <trkpt lat="59.317479" lon="18.071858">
        <ele>33</ele>
        <time>2020-02-10T07:56:20Z</time>
      </trkpt>
      <trkpt lat="59.317435" lon="18.07186">
        <ele>33</ele>
        <time>2020-02-10T07:56:21Z</time>
      </trkpt>
      <trkpt lat="59.317382" lon="18.071868">
        <ele>33</ele>
        <time>2020-02-10T07:56:22Z</time>
      </trkpt>
      <trkpt lat="59.317332" lon="18.071885">
        <ele>33</ele>
        <time>2020-02-10T07:56:23Z</time>
      </trkpt>
      <trkpt lat="59.317286" lon="18.071895">
        <ele>33</ele>
        <time>2020-02-10T07:56:24Z</time>
      </trkpt>
      <trkpt lat="59.317242" lon="18.071911">
        <ele>33</ele>
        <time>2020-02-10T07:56:25Z</time>
      </trkpt>
      <trkpt lat="59.317198" lon="18.071914">
        <ele>33</ele>
        <time>2020-02-10T07:56:26Z</time>
      </trkpt>
      <trkpt lat="59.317156" lon="18.071923">
        <ele>33</ele>
        <time>2020-02-10T07:56:27Z</time>
      </trkpt>
      <trkpt lat="59.317119" lon="18.07194">
        <ele>33</ele>
        <time>2020-02-10T07:56:28Z</time>
      </trkpt>
      <trkpt lat="59.317083" lon="18.071959">
        <ele>33</ele>
        <time>2020-02-10T07:56:29Z</time>
      </trkpt>
      <trkpt lat="59.317047" lon="18.071988">
        <ele>33</ele>
        <time>2020-02-10T07:56:30Z</time>
      </trkpt>
      <trkpt lat="59.317011" lon="18.072013">
        <ele>33</ele>
        <time>2020-02-10T07:56:31Z</time>
      </trkpt>
      <trkpt lat="59.316978" lon="18.072045">
        <ele>33</ele>
        <time>2020-02-10T07:56:32Z</time>
      </trkpt>
      <trkpt lat="59.316944" lon="18.072068">
        <ele>34</ele>
        <time>2020-02-10T07:56:33Z</time>
      </trkpt>
      <trkpt lat="59.316909" lon="18.072087">
        <ele>34</ele>
        <time>2020-02-10T07:56:34Z</time>
      </trkpt>
      <trkpt lat="59.316872" lon="18.07211">
        <ele>34</ele>
        <time>2020-02-10T07:56:35Z</time>
      </trkpt>
      <trkpt lat="59.316837" lon="18.072132">
        <ele>34</ele>
        <time>2020-02-10T07:56:36Z</time>
      </trkpt>
      <trkpt lat="59.316802" lon="18.072134">
        <ele>34</ele>
        <time>2020-02-10T07:56:37Z</time>
      </trkpt>
      <trkpt lat="59.316755" lon="18.072145">
        <ele>34</ele>
        <time>2020-02-10T07:56:38Z</time>
      </trkpt>
      <trkpt lat="59.316713" lon="18.07217">
        <ele>34</ele>
        <time>2020-02-10T07:56:39Z</time>
      </trkpt>
      <trkpt lat="59.316677" lon="18.072197">
        <ele>35</ele>
        <time>2020-02-10T07:56:40Z</time>
      </trkpt>
      <trkpt lat="59.316641" lon="18.072213">
        <ele>35</ele>
        <time>2020-02-10T07:56:41Z</time>
      </trkpt>
      <trkpt lat="59.316606" lon="18.072223">
        <ele>36</ele>
        <time>2020-02-10T07:56:42Z</time>
      </trkpt>
      <trkpt lat="59.316574" lon="18.072238">
        <ele>36</ele>
        <time>2020-02-10T07:56:43Z</time>
      </trkpt>
      <trkpt lat="59.31654" lon="18.07226">
        <ele>36</ele>
        <time>2020-02-10T07:56:44Z</time>
      </trkpt>
      <trkpt lat="59.316501" lon="18.072282">
        <ele>36</ele>
        <time>2020-02-10T07:56:45Z</time>
      </trkpt>
      <trkpt lat="59.316461" lon="18.072307">
        <ele>36</ele>
        <time>2020-02-10T07:56:46Z</time>
      </trkpt>
      <trkpt lat="59.316423" lon="18.072334">
        <ele>36</ele>
        <time>2020-02-10T07:56:47Z</time>
      </trkpt>
      <trkpt lat="59.316385" lon="18.072366">
        <ele>36</ele>
        <time>2020-02-10T07:56:48Z</time>
      </trkpt>
      <trkpt lat="59.316345" lon="18.072395">
        <ele>35</ele>
        <time>2020-02-10T07:56:49Z</time>
      </trkpt>
      <trkpt lat="59.316294" lon="18.072423">
        <ele>35</ele>
        <time>2020-02-10T07:56:50Z</time>
      </trkpt>
      <trkpt lat="59.316215" lon="18.072439">
        <ele>34</ele>
        <time>2020-02-10T07:56:51Z</time>
      </trkpt>
      <trkpt lat="59.316148" lon="18.072454">
        <ele>34</ele>
        <time>2020-02-10T07:56:52Z</time>
      </trkpt>
      <trkpt lat="59.316084" lon="18.072464">
        <ele>34</ele>
        <time>2020-02-10T07:56:53Z</time>
      </trkpt>
      <trkpt lat="59.316029" lon="18.072482">
        <ele>34</ele>
        <time>2020-02-10T07:56:54Z</time>
      </trkpt>
      <trkpt lat="59.31598" lon="18.072501">
        <ele>34</ele>
        <time>2020-02-10T07:56:55Z</time>
      </trkpt>
      <trkpt lat="59.315938" lon="18.072522">
        <ele>34</ele>
        <time>2020-02-10T07:56:56Z</time>
      </trkpt>
      <trkpt lat="59.315903" lon="18.072544">
        <ele>34</ele>
        <time>2020-02-10T07:56:57Z</time>
      </trkpt>
      <trkpt lat="59.315865" lon="18.072569">
        <ele>33</ele>
        <time>2020-02-10T07:56:58Z</time>
      </trkpt>
      <trkpt lat="59.315814" lon="18.072585">
        <ele>34</ele>
        <time>2020-02-10T07:56:59Z</time>
      </trkpt>
      <trkpt lat="59.315773" lon="18.072585">
        <ele>34</ele>
        <time>2020-02-10T07:57:00Z</time>
      </trkpt>
      <trkpt lat="59.315739" lon="18.072604">
        <ele>34</ele>
        <time>2020-02-10T07:57:01Z</time>
      </trkpt>
      <trkpt lat="59.315705" lon="18.07263">
        <ele>34</ele>
        <time>2020-02-10T07:57:02Z</time>
      </trkpt>
      <trkpt lat="59.315663" lon="18.072671">
        <ele>34</ele>
        <time>2020-02-10T07:57:03Z</time>
      </trkpt>
      <trkpt lat="59.315614" lon="18.072705">
        <ele>34</ele>
        <time>2020-02-10T07:57:04Z</time>
      </trkpt>
      <trkpt lat="59.315553" lon="18.072727">
        <ele>34</ele>
        <time>2020-02-10T07:57:05Z</time>
      </trkpt>
      <trkpt lat="59.315495" lon="18.072744">
        <ele>34</ele>
        <time>2020-02-10T07:57:06Z</time>
      </trkpt>
      <trkpt lat="59.31544" lon="18.072758">
        <ele>34</ele>
        <time>2020-02-10T07:57:07Z</time>
      </trkpt>
      <trkpt lat="59.315389" lon="18.07277">
        <ele>34</ele>
        <time>2020-02-10T07:57:08Z</time>
      </trkpt>
      <trkpt lat="59.315337" lon="18.072783">
        <ele>34</ele>
        <time>2020-02-10T07:57:09Z</time>
      </trkpt>
      <trkpt lat="59.315288" lon="18.072801">
        <ele>34</ele>
        <time>2020-02-10T07:57:10Z</time>
      </trkpt>
      <trkpt lat="59.315232" lon="18.072823">
        <ele>33</ele>
        <time>2020-02-10T07:57:11Z</time>
      </trkpt>
      <trkpt lat="59.315176" lon="18.072847">
        <ele>33</ele>
        <time>2020-02-10T07:57:12Z</time>
      </trkpt>
      <trkpt lat="59.315122" lon="18.072875">
        <ele>33</ele>
        <time>2020-02-10T07:57:13Z</time>
      </trkpt>
      <trkpt lat="59.315067" lon="18.072903">
        <ele>33</ele>
        <time>2020-02-10T07:57:14Z</time>
      </trkpt>
      <trkpt lat="59.315013" lon="18.072927">
        <ele>33</ele>
        <time>2020-02-10T07:57:15Z</time>
      </trkpt>
      <trkpt lat="59.314958" lon="18.072952">
        <ele>33</ele>
        <time>2020-02-10T07:57:16Z</time>
      </trkpt>
      <trkpt lat="59.314907" lon="18.072979">
        <ele>33</ele>
        <time>2020-02-10T07:57:17Z</time>
      </trkpt>
      <trkpt lat="59.314862" lon="18.073011">
        <ele>33</ele>
        <time>2020-02-10T07:57:18Z</time>
      </trkpt>
      <trkpt lat="59.314819" lon="18.073046">
        <ele>33</ele>
        <time>2020-02-10T07:57:19Z</time>
      </trkpt>
      <trkpt lat="59.314779" lon="18.073073">
        <ele>33</ele>
        <time>2020-02-10T07:57:20Z</time>
      </trkpt>
      <trkpt lat="59.314742" lon="18.073091">
        <ele>33</ele>
        <time>2020-02-10T07:57:21Z</time>
      </trkpt>
      <trkpt lat="59.314707" lon="18.073104">
        <ele>33</ele>
        <time>2020-02-10T07:57:22Z</time>
      </trkpt>
      <trkpt lat="59.314672" lon="18.073117">
        <ele>0</ele>
        <time>2020-02-10T07:57:22Z</time>
      </trkpt>
      <trkpt lat="59.314636" lon="18.073132">
        <ele>33</ele>
        <time>2020-02-10T07:57:23Z</time>
      </trkpt>
      <trkpt lat="59.314602" lon="18.073148">
        <ele>34</ele>
        <time>2020-02-10T07:57:25Z</time>
      </trkpt>
      <trkpt lat="59.31457" lon="18.073167">
        <ele>34</ele>
        <time>2020-02-10T07:57:26Z</time>
      </trkpt>
      <trkpt lat="59.314541" lon="18.073185">
        <ele>34</ele>
        <time>2020-02-10T07:57:27Z</time>
      </trkpt>
      <trkpt lat="59.314517" lon="18.0732">
        <ele>34</ele>
        <time>2020-02-10T07:57:28Z</time>
      </trkpt>
      <trkpt lat="59.314496" lon="18.073214">
        <ele>34</ele>
        <time>2020-02-10T07:57:29Z</time>
      </trkpt>
      <trkpt lat="59.314522" lon="18.073202">
        <ele>34</ele>
        <time>2020-02-10T07:57:30Z</time>
      </trkpt>
      <trkpt lat="59.314519" lon="18.073209">
        <ele>0</ele>
        <time>2020-02-10T07:57:34Z</time>
      </trkpt>
      <trkpt lat="59.314455" lon="18.073227">
        <ele>33</ele>
        <time>2020-02-10T07:58:22Z</time>
      </trkpt>
      <trkpt lat="59.314424" lon="18.073232">
        <ele>33</ele>
        <time>2020-02-10T07:58:23Z</time>
      </trkpt>
      <trkpt lat="59.314398" lon="18.073238">
        <ele>33</ele>
        <time>2020-02-10T07:58:24Z</time>
      </trkpt>
      <trkpt lat="59.31437" lon="18.073254">
        <ele>33</ele>
        <time>2020-02-10T07:58:25Z</time>
      </trkpt>
      <trkpt lat="59.31434" lon="18.073269">
        <ele>34</ele>
        <time>2020-02-10T07:58:26Z</time>
      </trkpt>
      <trkpt lat="59.314309" lon="18.073284">
        <ele>34</ele>
        <time>2020-02-10T07:58:27Z</time>
      </trkpt>
      <trkpt lat="59.314276" lon="18.073301">
        <ele>35</ele>
        <time>2020-02-10T07:58:28Z</time>
      </trkpt>
      <trkpt lat="59.314244" lon="18.073327">
        <ele>35</ele>
        <time>2020-02-10T07:58:29Z</time>
      </trkpt>
      <trkpt lat="59.314209" lon="18.073348">
        <ele>35</ele>
        <time>2020-02-10T07:58:30Z</time>
      </trkpt>
      <trkpt lat="59.314171" lon="18.073366">
        <ele>0</ele>
        <time>2020-02-10T07:58:30Z</time>
      </trkpt>
      <trkpt lat="59.314129" lon="18.073377">
        <ele>35</ele>
        <time>2020-02-10T07:58:31Z</time>
      </trkpt>
      <trkpt lat="59.314089" lon="18.073389">
        <ele>35</ele>
        <time>2020-02-10T07:58:33Z</time>
      </trkpt>
      <trkpt lat="59.314054" lon="18.073407">
        <ele>35</ele>
        <time>2020-02-10T07:58:34Z</time>
      </trkpt>
      <trkpt lat="59.314024" lon="18.07342">
        <ele>36</ele>
        <time>2020-02-10T07:58:35Z</time>
      </trkpt>
      <trkpt lat="59.313993" lon="18.073437">
        <ele>36</ele>
        <time>2020-02-10T07:58:36Z</time>
      </trkpt>
      <trkpt lat="59.313968" lon="18.073455">
        <ele>36</ele>
        <time>2020-02-10T07:58:37Z</time>
      </trkpt>
      <trkpt lat="59.313945" lon="18.073476">
        <ele>36</ele>
        <time>2020-02-10T07:58:38Z</time>
      </trkpt>
      <trkpt lat="59.31392" lon="18.073499">
        <ele>36</ele>
        <time>2020-02-10T07:58:39Z</time>
      </trkpt>
      <trkpt lat="59.313897" lon="18.073517">
        <ele>36</ele>
        <time>2020-02-10T07:58:40Z</time>
      </trkpt>
      <trkpt lat="59.313864" lon="18.073536">
        <ele>36</ele>
        <time>2020-02-10T07:58:41Z</time>
      </trkpt>
      <trkpt lat="59.313803" lon="18.07355">
        <ele>36</ele>
        <time>2020-02-10T07:58:42Z</time>
      </trkpt>
      <trkpt lat="59.313755" lon="18.073555">
        <ele>35</ele>
        <time>2020-02-10T07:58:43Z</time>
      </trkpt>
      <trkpt lat="59.31371" lon="18.073564">
        <ele>35</ele>
        <time>2020-02-10T07:58:44Z</time>
      </trkpt>
      <trkpt lat="59.313669" lon="18.073577">
        <ele>35</ele>
        <time>2020-02-10T07:58:45Z</time>
      </trkpt>
      <trkpt lat="59.313632" lon="18.073594">
        <ele>35</ele>
        <time>2020-02-10T07:58:46Z</time>
      </trkpt>
      <trkpt lat="59.313594" lon="18.073604">
        <ele>35</ele>
        <time>2020-02-10T07:58:47Z</time>
      </trkpt>
      <trkpt lat="59.313557" lon="18.073615">
        <ele>35</ele>
        <time>2020-02-10T07:58:48Z</time>
      </trkpt>
      <trkpt lat="59.313523" lon="18.073628">
        <ele>35</ele>
        <time>2020-02-10T07:58:49Z</time>
      </trkpt>
      <trkpt lat="59.313491" lon="18.073637">
        <ele>35</ele>
        <time>2020-02-10T07:58:50Z</time>
      </trkpt>
      <trkpt lat="59.313458" lon="18.073643">
        <ele>35</ele>
        <time>2020-02-10T07:58:51Z</time>
      </trkpt>
      <trkpt lat="59.313426" lon="18.07365">
        <ele>35</ele>
        <time>2020-02-10T07:58:52Z</time>
      </trkpt>
      <trkpt lat="59.313396" lon="18.073654">
        <ele>35</ele>
        <time>2020-02-10T07:58:53Z</time>
      </trkpt>
      <trkpt lat="59.313369" lon="18.073656">
        <ele>35</ele>
        <time>2020-02-10T07:58:54Z</time>
      </trkpt>
      <trkpt lat="59.313341" lon="18.073663">
        <ele>35</ele>
        <time>2020-02-10T07:58:55Z</time>
      </trkpt>
      <trkpt lat="59.31331" lon="18.073681">
        <ele>35</ele>
        <time>2020-02-10T07:58:56Z</time>
      </trkpt>
      <trkpt lat="59.313279" lon="18.073701">
        <ele>35</ele>
        <time>2020-02-10T07:58:57Z</time>
      </trkpt>
      <trkpt lat="59.313253" lon="18.073712">
        <ele>35</ele>
        <time>2020-02-10T07:58:58Z</time>
      </trkpt>
      <trkpt lat="59.313231" lon="18.073714">
        <ele>35</ele>
        <time>2020-02-10T07:58:59Z</time>
      </trkpt>
      <trkpt lat="59.313208" lon="18.073725">
        <ele>35</ele>
        <time>2020-02-10T07:59:00Z</time>
      </trkpt>
      <trkpt lat="59.313172" lon="18.073736">
        <ele>35</ele>
        <time>2020-02-10T07:59:02Z</time>
      </trkpt>
      <trkpt lat="59.313149" lon="18.073747">
        <ele>36</ele>
        <time>2020-02-10T07:59:04Z</time>
      </trkpt>
      <trkpt lat="59.313128" lon="18.073758">
        <ele>36</ele>
        <time>2020-02-10T07:59:06Z</time>
      </trkpt>
      <trkpt lat="59.313098" lon="18.073788">
        <ele>35</ele>
        <time>2020-02-10T07:59:08Z</time>
      </trkpt>
      <trkpt lat="59.313063" lon="18.073798">
        <ele>35</ele>
        <time>2020-02-10T07:59:10Z</time>
      </trkpt>
      <trkpt lat="59.313034" lon="18.073805">
        <ele>35</ele>
        <time>2020-02-10T07:59:11Z</time>
      </trkpt>
      <trkpt lat="59.313001" lon="18.07381">
        <ele>35</ele>
        <time>2020-02-10T07:59:12Z</time>
      </trkpt>
      <trkpt lat="59.312965" lon="18.073819">
        <ele>34</ele>
        <time>2020-02-10T07:59:13Z</time>
      </trkpt>
      <trkpt lat="59.312934" lon="18.073818">
        <ele>34</ele>
        <time>2020-02-10T07:59:14Z</time>
      </trkpt>
      <trkpt lat="59.312897" lon="18.073833">
        <ele>34</ele>
        <time>2020-02-10T07:59:15Z</time>
      </trkpt>
      <trkpt lat="59.31286" lon="18.073842">
        <ele>35</ele>
        <time>2020-02-10T07:59:16Z</time>
      </trkpt>
      <trkpt lat="59.312825" lon="18.073856">
        <ele>35</ele>
        <time>2020-02-10T07:59:17Z</time>
      </trkpt>
      <trkpt lat="59.312797" lon="18.073868">
        <ele>35</ele>
        <time>2020-02-10T07:59:18Z</time>
      </trkpt>
      <trkpt lat="59.312771" lon="18.073887">
        <ele>35</ele>
        <time>2020-02-10T07:59:19Z</time>
      </trkpt>
      <trkpt lat="59.312746" lon="18.07391">
        <ele>35</ele>
        <time>2020-02-10T07:59:20Z</time>
      </trkpt>
      <trkpt lat="59.312711" lon="18.073938">
        <ele>36</ele>
        <time>2020-02-10T07:59:21Z</time>
      </trkpt>
      <trkpt lat="59.312666" lon="18.073965">
        <ele>36</ele>
        <time>2020-02-10T07:59:22Z</time>
      </trkpt>
      <trkpt lat="59.312538" lon="18.07403">
        <ele>36</ele>
        <time>2020-02-10T07:59:24Z</time>
      </trkpt>
      <trkpt lat="59.312466" lon="18.074069">
        <ele>36</ele>
        <time>2020-02-10T07:59:25Z</time>
      </trkpt>
      <trkpt lat="59.312334" lon="18.074132">
        <ele>36</ele>
        <time>2020-02-10T07:59:27Z</time>
      </trkpt>
      <trkpt lat="59.312281" lon="18.074153">
        <ele>35</ele>
        <time>2020-02-10T07:59:28Z</time>
      </trkpt>
      <trkpt lat="59.312233" lon="18.07418">
        <ele>35</ele>
        <time>2020-02-10T07:59:29Z</time>
      </trkpt>
      <trkpt lat="59.312183" lon="18.074208">
        <ele>34</ele>
        <time>2020-02-10T07:59:30Z</time>
      </trkpt>
      <trkpt lat="59.312132" lon="18.074227">
        <ele>34</ele>
        <time>2020-02-10T07:59:31Z</time>
      </trkpt>
      <trkpt lat="59.31208" lon="18.074248">
        <ele>33</ele>
        <time>2020-02-10T07:59:32Z</time>
      </trkpt>
      <trkpt lat="59.312027" lon="18.074276">
        <ele>33</ele>
        <time>2020-02-10T07:59:33Z</time>
      </trkpt>
      <trkpt lat="59.311976" lon="18.074305">
        <ele>33</ele>
        <time>2020-02-10T07:59:34Z</time>
      </trkpt>
      <trkpt lat="59.311927" lon="18.074329">
        <ele>33</ele>
        <time>2020-02-10T07:59:35Z</time>
      </trkpt>
      <trkpt lat="59.311877" lon="18.074351">
        <ele>33</ele>
        <time>2020-02-10T07:59:36Z</time>
      </trkpt>
      <trkpt lat="59.31183" lon="18.074369">
        <ele>32</ele>
        <time>2020-02-10T07:59:37Z</time>
      </trkpt>
      <trkpt lat="59.311782" lon="18.074386">
        <ele>32</ele>
        <time>2020-02-10T07:59:38Z</time>
      </trkpt>
      <trkpt lat="59.311741" lon="18.074406">
        <ele>32</ele>
        <time>2020-02-10T07:59:39Z</time>
      </trkpt>
      <trkpt lat="59.311698" lon="18.074429">
        <ele>32</ele>
        <time>2020-02-10T07:59:40Z</time>
      </trkpt>
      <trkpt lat="59.311649" lon="18.074459">
        <ele>32</ele>
        <time>2020-02-10T07:59:41Z</time>
      </trkpt>
      <trkpt lat="59.3116" lon="18.074485">
        <ele>32</ele>
        <time>2020-02-10T07:59:42Z</time>
      </trkpt>
      <trkpt lat="59.311551" lon="18.074504">
        <ele>31</ele>
        <time>2020-02-10T07:59:43Z</time>
      </trkpt>
      <trkpt lat="59.311501" lon="18.07453">
        <ele>31</ele>
        <time>2020-02-10T07:59:44Z</time>
      </trkpt>
      <trkpt lat="59.311451" lon="18.074559">
        <ele>31</ele>
        <time>2020-02-10T07:59:45Z</time>
      </trkpt>
      <trkpt lat="59.311399" lon="18.074591">
        <ele>31</ele>
        <time>2020-02-10T07:59:46Z</time>
      </trkpt>
      <trkpt lat="59.31135" lon="18.074616">
        <ele>31</ele>
        <time>2020-02-10T07:59:47Z</time>
      </trkpt>
      <trkpt lat="59.311301" lon="18.07464">
        <ele>31</ele>
        <time>2020-02-10T07:59:48Z</time>
      </trkpt>
      <trkpt lat="59.311252" lon="18.074665">
        <ele>0</ele>
        <time>2020-02-10T07:59:48Z</time>
      </trkpt>
      <trkpt lat="59.311203" lon="18.074691">
        <ele>31</ele>
        <time>2020-02-10T07:59:49Z</time>
      </trkpt>
      <trkpt lat="59.311156" lon="18.074717">
        <ele>31</ele>
        <time>2020-02-10T07:59:51Z</time>
      </trkpt>
      <trkpt lat="59.311111" lon="18.074742">
        <ele>30</ele>
        <time>2020-02-10T07:59:52Z</time>
      </trkpt>
      <trkpt lat="59.311066" lon="18.074766">
        <ele>31</ele>
        <time>2020-02-10T07:59:53Z</time>
      </trkpt>
      <trkpt lat="59.311023" lon="18.074787">
        <ele>31</ele>
        <time>2020-02-10T07:59:54Z</time>
      </trkpt>
      <trkpt lat="59.310982" lon="18.074808">
        <ele>30</ele>
        <time>2020-02-10T07:59:55Z</time>
      </trkpt>
      <trkpt lat="59.310943" lon="18.074827">
        <ele>30</ele>
        <time>2020-02-10T07:59:56Z</time>
      </trkpt>
      <trkpt lat="59.310907" lon="18.074842">
        <ele>30</ele>
        <time>2020-02-10T07:59:57Z</time>
      </trkpt>
      <trkpt lat="59.310869" lon="18.074859">
        <ele>31</ele>
        <time>2020-02-10T07:59:58Z</time>
      </trkpt>
      <trkpt lat="59.310835" lon="18.074876">
        <ele>31</ele>
        <time>2020-02-10T07:59:59Z</time>
      </trkpt>
      <trkpt lat="59.310803" lon="18.074894">
        <ele>31</ele>
        <time>2020-02-10T08:00:00Z</time>
      </trkpt>
      <trkpt lat="59.310777" lon="18.074906">
        <ele>31</ele>
        <time>2020-02-10T08:00:01Z</time>
      </trkpt>
      <trkpt lat="59.310752" lon="18.074917">
        <ele>31</ele>
        <time>2020-02-10T08:00:02Z</time>
      </trkpt>
      <trkpt lat="59.310727" lon="18.074929">
        <ele>31</ele>
        <time>2020-02-10T08:00:03Z</time>
      </trkpt>
      <trkpt lat="59.310702" lon="18.074942">
        <ele>31</ele>
        <time>2020-02-10T08:00:04Z</time>
      </trkpt>
      <trkpt lat="59.310675" lon="18.074954">
        <ele>31</ele>
        <time>2020-02-10T08:00:05Z</time>
      </trkpt>
      <trkpt lat="59.310644" lon="18.074968">
        <ele>31</ele>
        <time>2020-02-10T08:00:06Z</time>
      </trkpt>
      <trkpt lat="59.310609" lon="18.074985">
        <ele>31</ele>
        <time>2020-02-10T08:00:07Z</time>
      </trkpt>
      <trkpt lat="59.310569" lon="18.075007">
        <ele>31</ele>
        <time>2020-02-10T08:00:08Z</time>
      </trkpt>
      <trkpt lat="59.310529" lon="18.075026">
        <ele>31</ele>
        <time>2020-02-10T08:00:09Z</time>
      </trkpt>
      <trkpt lat="59.310486" lon="18.075048">
        <ele>31</ele>
        <time>2020-02-10T08:00:10Z</time>
      </trkpt>
      <trkpt lat="59.310442" lon="18.075071">
        <ele>31</ele>
        <time>2020-02-10T08:00:11Z</time>
      </trkpt>
      <trkpt lat="59.310391" lon="18.075104">
        <ele>31</ele>
        <time>2020-02-10T08:00:12Z</time>
      </trkpt>
      <trkpt lat="59.310337" lon="18.075146">
        <ele>31</ele>
        <time>2020-02-10T08:00:13Z</time>
      </trkpt>
      <trkpt lat="59.310288" lon="18.075169">
        <ele>31</ele>
        <time>2020-02-10T08:00:14Z</time>
      </trkpt>
      <trkpt lat="59.310239" lon="18.075192">
        <ele>31</ele>
        <time>2020-02-10T08:00:15Z</time>
      </trkpt>
      <trkpt lat="59.310189" lon="18.075216">
        <ele>31</ele>
        <time>2020-02-10T08:00:16Z</time>
      </trkpt>
      <trkpt lat="59.31014" lon="18.07524">
        <ele>31</ele>
        <time>2020-02-10T08:00:17Z</time>
      </trkpt>
      <trkpt lat="59.310092" lon="18.075265">
        <ele>31</ele>
        <time>2020-02-10T08:00:18Z</time>
      </trkpt>
      <trkpt lat="59.310044" lon="18.075289">
        <ele>31</ele>
        <time>2020-02-10T08:00:19Z</time>
      </trkpt>
      <trkpt lat="59.309993" lon="18.075316">
        <ele>31</ele>
        <time>2020-02-10T08:00:20Z</time>
      </trkpt>
      <trkpt lat="59.309944" lon="18.07534">
        <ele>31</ele>
        <time>2020-02-10T08:00:21Z</time>
      </trkpt>
      <trkpt lat="59.309894" lon="18.075367">
        <ele>31</ele>
        <time>2020-02-10T08:00:22Z</time>
      </trkpt>
      <trkpt lat="59.309842" lon="18.075398">
        <ele>0</ele>
        <time>2020-02-10T08:00:22Z</time>
      </trkpt>
      <trkpt lat="59.30979" lon="18.075426">
        <ele>31</ele>
        <time>2020-02-10T08:00:23Z</time>
      </trkpt>
      <trkpt lat="59.309731" lon="18.075471">
        <ele>31</ele>
        <time>2020-02-10T08:00:25Z</time>
      </trkpt>
      <trkpt lat="59.309679" lon="18.075497">
        <ele>31</ele>
        <time>2020-02-10T08:00:26Z</time>
      </trkpt>
      <trkpt lat="59.309631" lon="18.075525">
        <ele>32</ele>
        <time>2020-02-10T08:00:27Z</time>
      </trkpt>
      <trkpt lat="59.309583" lon="18.075554">
        <ele>32</ele>
        <time>2020-02-10T08:00:28Z</time>
      </trkpt>
      <trkpt lat="59.309529" lon="18.075587">
        <ele>32</ele>
        <time>2020-02-10T08:00:29Z</time>
      </trkpt>
      <trkpt lat="59.30947" lon="18.075627">
        <ele>32</ele>
        <time>2020-02-10T08:00:30Z</time>
      </trkpt>
      <trkpt lat="59.309409" lon="18.075671">
        <ele>32</ele>
        <time>2020-02-10T08:00:31Z</time>
      </trkpt>
      <trkpt lat="59.309354" lon="18.075704">
        <ele>0</ele>
        <time>2020-02-10T08:00:31Z</time>
      </trkpt>
      <trkpt lat="59.309298" lon="18.075742">
        <ele>33</ele>
        <time>2020-02-10T08:00:32Z</time>
      </trkpt>
      <trkpt lat="59.309241" lon="18.075778">
        <ele>33</ele>
        <time>2020-02-10T08:00:34Z</time>
      </trkpt>
      <trkpt lat="59.309186" lon="18.075816">
        <ele>33</ele>
        <time>2020-02-10T08:00:35Z</time>
      </trkpt>
      <trkpt lat="59.309142" lon="18.075849">
        <ele>33</ele>
        <time>2020-02-10T08:00:36Z</time>
      </trkpt>
      <trkpt lat="59.309093" lon="18.075873">
        <ele>33</ele>
        <time>2020-02-10T08:00:37Z</time>
      </trkpt>
      <trkpt lat="59.309037" lon="18.07591">
        <ele>34</ele>
        <time>2020-02-10T08:00:38Z</time>
      </trkpt>
      <trkpt lat="59.308985" lon="18.075944">
        <ele>34</ele>
        <time>2020-02-10T08:00:39Z</time>
      </trkpt>
      <trkpt lat="59.308938" lon="18.075967">
        <ele>34</ele>
        <time>2020-02-10T08:00:40Z</time>
      </trkpt>
      <trkpt lat="59.308886" lon="18.075992">
        <ele>34</ele>
        <time>2020-02-10T08:00:41Z</time>
      </trkpt>
      <trkpt lat="59.308832" lon="18.076026">
        <ele>34</ele>
        <time>2020-02-10T08:00:42Z</time>
      </trkpt>
      <trkpt lat="59.308781" lon="18.076059">
        <ele>34</ele>
        <time>2020-02-10T08:00:43Z</time>
      </trkpt>
      <trkpt lat="59.308731" lon="18.076085">
        <ele>34</ele>
        <time>2020-02-10T08:00:44Z</time>
      </trkpt>
      <trkpt lat="59.308678" lon="18.076118">
        <ele>34</ele>
        <time>2020-02-10T08:00:45Z</time>
      </trkpt>
      <trkpt lat="59.308627" lon="18.076141">
        <ele>34</ele>
        <time>2020-02-10T08:00:46Z</time>
      </trkpt>
      <trkpt lat="59.308578" lon="18.076163">
        <ele>35</ele>
        <time>2020-02-10T08:00:47Z</time>
      </trkpt>
      <trkpt lat="59.30853" lon="18.076184">
        <ele>35</ele>
        <time>2020-02-10T08:00:48Z</time>
      </trkpt>
      <trkpt lat="59.308484" lon="18.076203">
        <ele>35</ele>
        <time>2020-02-10T08:00:49Z</time>
      </trkpt>
      <trkpt lat="59.308441" lon="18.07622">
        <ele>35</ele>
        <time>2020-02-10T08:00:50Z</time>
      </trkpt>
      <trkpt lat="59.3084" lon="18.076237">
        <ele>35</ele>
        <time>2020-02-10T08:00:51Z</time>
      </trkpt>
      <trkpt lat="59.30836" lon="18.07626">
        <ele>35</ele>
        <time>2020-02-10T08:00:52Z</time>
      </trkpt>
      <trkpt lat="59.308315" lon="18.076294">
        <ele>36</ele>
        <time>2020-02-10T08:00:53Z</time>
      </trkpt>
      <trkpt lat="59.308278" lon="18.076328">
        <ele>36</ele>
        <time>2020-02-10T08:00:54Z</time>
      </trkpt>
      <trkpt lat="59.30824" lon="18.076348">
        <ele>36</ele>
        <time>2020-02-10T08:00:55Z</time>
      </trkpt>
      <trkpt lat="59.308201" lon="18.076366">
        <ele>36</ele>
        <time>2020-02-10T08:00:56Z</time>
      </trkpt>
      <trkpt lat="59.308158" lon="18.076383">
        <ele>36</ele>
        <time>2020-02-10T08:00:57Z</time>
      </trkpt>
      <trkpt lat="59.308119" lon="18.076393">
        <ele>36</ele>
        <time>2020-02-10T08:00:58Z</time>
      </trkpt>
      <trkpt lat="59.308085" lon="18.076406">
        <ele>37</ele>
        <time>2020-02-10T08:00:59Z</time>
      </trkpt>
      <trkpt lat="59.308051" lon="18.076418">
        <ele>37</ele>
        <time>2020-02-10T08:01:00Z</time>
      </trkpt>
      <trkpt lat="59.30802" lon="18.076432">
        <ele>37</ele>
        <time>2020-02-10T08:01:01Z</time>
      </trkpt>
      <trkpt lat="59.307994" lon="18.076443">
        <ele>37</ele>
        <time>2020-02-10T08:01:02Z</time>
      </trkpt>
      <trkpt lat="59.307971" lon="18.076454">
        <ele>37</ele>
        <time>2020-02-10T08:01:03Z</time>
      </trkpt>
      <trkpt lat="59.307953" lon="18.076462">
        <ele>37</ele>
        <time>2020-02-10T08:01:04Z</time>
      </trkpt>
      <trkpt lat="59.307934" lon="18.076471">
        <ele>36</ele>
        <time>2020-02-10T08:01:05Z</time>
      </trkpt>
      <trkpt lat="59.307915" lon="18.07648">
        <ele>36</ele>
        <time>2020-02-10T08:01:06Z</time>
      </trkpt>
      <trkpt lat="59.307918" lon="18.076461">
        <ele>0</ele>
        <time>2020-02-10T08:01:09Z</time>
      </trkpt>
      <trkpt lat="59.307849" lon="18.076469">
        <ele>35</ele>
        <time>2020-02-10T08:01:33Z</time>
      </trkpt>
      <trkpt lat="59.30782" lon="18.076482">
        <ele>34</ele>
        <time>2020-02-10T08:01:34Z</time>
      </trkpt>
      <trkpt lat="59.30779" lon="18.076492">
        <ele>34</ele>
        <time>2020-02-10T08:01:35Z</time>
      </trkpt>
      <trkpt lat="59.307757" lon="18.076505">
        <ele>34</ele>
        <time>2020-02-10T08:01:36Z</time>
      </trkpt>
      <trkpt lat="59.307724" lon="18.076527">
        <ele>34</ele>
        <time>2020-02-10T08:01:37Z</time>
      </trkpt>
      <trkpt lat="59.307688" lon="18.076557">
        <ele>33</ele>
        <time>2020-02-10T08:01:38Z</time>
      </trkpt>
      <trkpt lat="59.307649" lon="18.076588">
        <ele>33</ele>
        <time>2020-02-10T08:01:39Z</time>
      </trkpt>
      <trkpt lat="59.307604" lon="18.076617">
        <ele>33</ele>
        <time>2020-02-10T08:01:40Z</time>
      </trkpt>
      <trkpt lat="59.307561" lon="18.076636">
        <ele>33</ele>
        <time>2020-02-10T08:01:41Z</time>
      </trkpt>
      <trkpt lat="59.307515" lon="18.076655">
        <ele>32</ele>
        <time>2020-02-10T08:01:42Z</time>
      </trkpt>
      <trkpt lat="59.307465" lon="18.076677">
        <ele>32</ele>
        <time>2020-02-10T08:01:43Z</time>
      </trkpt>
      <trkpt lat="59.307415" lon="18.076698">
        <ele>32</ele>
        <time>2020-02-10T08:01:44Z</time>
      </trkpt>
      <trkpt lat="59.307364" lon="18.076718">
        <ele>32</ele>
        <time>2020-02-10T08:01:45Z</time>
      </trkpt>
      <trkpt lat="59.307311" lon="18.07674">
        <ele>0</ele>
        <time>2020-02-10T08:01:45Z</time>
      </trkpt>
      <trkpt lat="59.307259" lon="18.076763">
        <ele>32</ele>
        <time>2020-02-10T08:01:46Z</time>
      </trkpt>
      <trkpt lat="59.307212" lon="18.076783">
        <ele>32</ele>
        <time>2020-02-10T08:01:48Z</time>
      </trkpt>
      <trkpt lat="59.307166" lon="18.076803">
        <ele>32</ele>
        <time>2020-02-10T08:01:49Z</time>
      </trkpt>
      <trkpt lat="59.30712" lon="18.076828">
        <ele>32</ele>
        <time>2020-02-10T08:01:50Z</time>
      </trkpt>
      <trkpt lat="59.307076" lon="18.076849">
        <ele>32</ele>
        <time>2020-02-10T08:01:51Z</time>
      </trkpt>
      <trkpt lat="59.307024" lon="18.076884">
        <ele>32</ele>
        <time>2020-02-10T08:01:52Z</time>
      </trkpt>
      <trkpt lat="59.306972" lon="18.076922">
        <ele>33</ele>
        <time>2020-02-10T08:01:53Z</time>
      </trkpt>
      <trkpt lat="59.306917" lon="18.076968">
        <ele>33</ele>
        <time>2020-02-10T08:01:54Z</time>
      </trkpt>
      <trkpt lat="59.306864" lon="18.077002">
        <ele>0</ele>
        <time>2020-02-10T08:01:54Z</time>
      </trkpt>
      <trkpt lat="59.30681" lon="18.07704">
        <ele>33</ele>
        <time>2020-02-10T08:01:55Z</time>
      </trkpt>
      <trkpt lat="59.306765" lon="18.077063">
        <ele>33</ele>
        <time>2020-02-10T08:01:57Z</time>
      </trkpt>
      <trkpt lat="59.306721" lon="18.077082">
        <ele>32</ele>
        <time>2020-02-10T08:01:58Z</time>
      </trkpt>
      <trkpt lat="59.306675" lon="18.077104">
        <ele>32</ele>
        <time>2020-02-10T08:01:59Z</time>
      </trkpt>
      <trkpt lat="59.306627" lon="18.077128">
        <ele>32</ele>
        <time>2020-02-10T08:02:00Z</time>
      </trkpt>
      <trkpt lat="59.306578" lon="18.077152">
        <ele>31</ele>
        <time>2020-02-10T08:02:01Z</time>
      </trkpt>
      <trkpt lat="59.306529" lon="18.077172">
        <ele>31</ele>
        <time>2020-02-10T08:02:02Z</time>
      </trkpt>
      <trkpt lat="59.306479" lon="18.077197">
        <ele>31</ele>
        <time>2020-02-10T08:02:03Z</time>
      </trkpt>
      <trkpt lat="59.306431" lon="18.077229">
        <ele>31</ele>
        <time>2020-02-10T08:02:04Z</time>
      </trkpt>
      <trkpt lat="59.306383" lon="18.077256">
        <ele>30</ele>
        <time>2020-02-10T08:02:05Z</time>
      </trkpt>
      <trkpt lat="59.306336" lon="18.077281">
        <ele>0</ele>
        <time>2020-02-10T08:02:05Z</time>
      </trkpt>
      <trkpt lat="59.306286" lon="18.077309">
        <ele>30</ele>
        <time>2020-02-10T08:02:06Z</time>
      </trkpt>
      <trkpt lat="59.306237" lon="18.077336">
        <ele>30</ele>
        <time>2020-02-10T08:02:08Z</time>
      </trkpt>
      <trkpt lat="59.306188" lon="18.077363">
        <ele>30</ele>
        <time>2020-02-10T08:02:09Z</time>
      </trkpt>
      <trkpt lat="59.30614" lon="18.07739">
        <ele>30</ele>
        <time>2020-02-10T08:02:10Z</time>
      </trkpt>
      <trkpt lat="59.306092" lon="18.077414">
        <ele>30</ele>
        <time>2020-02-10T08:02:11Z</time>
      </trkpt>
      <trkpt lat="59.306046" lon="18.077439">
        <ele>29</ele>
        <time>2020-02-10T08:02:12Z</time>
      </trkpt>
      <trkpt lat="59.306" lon="18.077464">
        <ele>29</ele>
        <time>2020-02-10T08:02:13Z</time>
      </trkpt>
      <trkpt lat="59.305954" lon="18.077491">
        <ele>29</ele>
        <time>2020-02-10T08:02:14Z</time>
      </trkpt>
      <trkpt lat="59.30591" lon="18.077515">
        <ele>29</ele>
        <time>2020-02-10T08:02:15Z</time>
      </trkpt>
      <trkpt lat="59.305868" lon="18.077538">
        <ele>0</ele>
        <time>2020-02-10T08:02:15Z</time>
      </trkpt>
      <trkpt lat="59.305826" lon="18.07756">
        <ele>28</ele>
        <time>2020-02-10T08:02:16Z</time>
      </trkpt>
      <trkpt lat="59.305785" lon="18.077582">
        <ele>28</ele>
        <time>2020-02-10T08:02:18Z</time>
      </trkpt>
      <trkpt lat="59.305745" lon="18.077604">
        <ele>28</ele>
        <time>2020-02-10T08:02:19Z</time>
      </trkpt>
      <trkpt lat="59.305706" lon="18.077624">
        <ele>28</ele>
        <time>2020-02-10T08:02:20Z</time>
      </trkpt>
      <trkpt lat="59.305669" lon="18.077644">
        <ele>27</ele>
        <time>2020-02-10T08:02:21Z</time>
      </trkpt>
      <trkpt lat="59.305632" lon="18.077664">
        <ele>27</ele>
        <time>2020-02-10T08:02:22Z</time>
      </trkpt>
      <trkpt lat="59.305597" lon="18.077685">
        <ele>27</ele>
        <time>2020-02-10T08:02:23Z</time>
      </trkpt>
      <trkpt lat="59.305562" lon="18.077705">
        <ele>27</ele>
        <time>2020-02-10T08:02:24Z</time>
      </trkpt>
      <trkpt lat="59.305525" lon="18.077724">
        <ele>27</ele>
        <time>2020-02-10T08:02:25Z</time>
      </trkpt>
      <trkpt lat="59.305489" lon="18.077744">
        <ele>27</ele>
        <time>2020-02-10T08:02:26Z</time>
      </trkpt>
      <trkpt lat="59.305453" lon="18.077765">
        <ele>27</ele>
        <time>2020-02-10T08:02:27Z</time>
      </trkpt>
      <trkpt lat="59.305417" lon="18.077786">
        <ele>27</ele>
        <time>2020-02-10T08:02:28Z</time>
      </trkpt>
      <trkpt lat="59.305381" lon="18.077807">
        <ele>0</ele>
        <time>2020-02-10T08:02:28Z</time>
      </trkpt>
      <trkpt lat="59.305345" lon="18.077826">
        <ele>26</ele>
        <time>2020-02-10T08:02:29Z</time>
      </trkpt>
      <trkpt lat="59.30531" lon="18.077845">
        <ele>26</ele>
        <time>2020-02-10T08:02:31Z</time>
      </trkpt>
      <trkpt lat="59.305274" lon="18.077866">
        <ele>26</ele>
        <time>2020-02-10T08:02:32Z</time>
      </trkpt>
      <trkpt lat="59.305238" lon="18.077889">
        <ele>26</ele>
        <time>2020-02-10T08:02:33Z</time>
      </trkpt>
      <trkpt lat="59.305204" lon="18.077911">
        <ele>26</ele>
        <time>2020-02-10T08:02:34Z</time>
      </trkpt>
      <trkpt lat="59.305169" lon="18.077931">
        <ele>26</ele>
        <time>2020-02-10T08:02:35Z</time>
      </trkpt>
      <trkpt lat="59.305135" lon="18.07795">
        <ele>26</ele>
        <time>2020-02-10T08:02:36Z</time>
      </trkpt>
      <trkpt lat="59.305102" lon="18.077971">
        <ele>26</ele>
        <time>2020-02-10T08:02:37Z</time>
      </trkpt>
      <trkpt lat="59.305069" lon="18.077991">
        <ele>26</ele>
        <time>2020-02-10T08:02:38Z</time>
      </trkpt>
      <trkpt lat="59.305036" lon="18.078011">
        <ele>26</ele>
        <time>2020-02-10T08:02:39Z</time>
      </trkpt>
      <trkpt lat="59.305003" lon="18.078031">
        <ele>26</ele>
        <time>2020-02-10T08:02:40Z</time>
      </trkpt>
      <trkpt lat="59.304971" lon="18.078049">
        <ele>26</ele>
        <time>2020-02-10T08:02:41Z</time>
      </trkpt>
      <trkpt lat="59.304939" lon="18.078067">
        <ele>26</ele>
        <time>2020-02-10T08:02:42Z</time>
      </trkpt>
      <trkpt lat="59.304908" lon="18.078085">
        <ele>26</ele>
        <time>2020-02-10T08:02:43Z</time>
      </trkpt>
      <trkpt lat="59.304878" lon="18.078103">
        <ele>0</ele>
        <time>2020-02-10T08:02:43Z</time>
      </trkpt>
      <trkpt lat="59.304848" lon="18.078122">
        <ele>26</ele>
        <time>2020-02-10T08:02:44Z</time>
      </trkpt>
      <trkpt lat="59.304818" lon="18.078141">
        <ele>26</ele>
        <time>2020-02-10T08:02:46Z</time>
      </trkpt>
      <trkpt lat="59.304788" lon="18.07816">
        <ele>26</ele>
        <time>2020-02-10T08:02:47Z</time>
      </trkpt>
      <trkpt lat="59.304757" lon="18.078179">
        <ele>26</ele>
        <time>2020-02-10T08:02:48Z</time>
      </trkpt>
      <trkpt lat="59.304726" lon="18.078199">
        <ele>26</ele>
        <time>2020-02-10T08:02:49Z</time>
      </trkpt>
      <trkpt lat="59.304695" lon="18.078218">
        <ele>26</ele>
        <time>2020-02-10T08:02:50Z</time>
      </trkpt>
      <trkpt lat="59.304663" lon="18.078237">
        <ele>26</ele>
        <time>2020-02-10T08:02:51Z</time>
      </trkpt>
      <trkpt lat="59.304632" lon="18.078254">
        <ele>26</ele>
        <time>2020-02-10T08:02:52Z</time>
      </trkpt>
      <trkpt lat="59.304601" lon="18.078273">
        <ele>26</ele>
        <time>2020-02-10T08:02:53Z</time>
      </trkpt>
      <trkpt lat="59.304571" lon="18.078292">
        <ele>26</ele>
        <time>2020-02-10T08:02:54Z</time>
      </trkpt>
      <trkpt lat="59.304542" lon="18.078311">
        <ele>26</ele>
        <time>2020-02-10T08:02:55Z</time>
      </trkpt>
      <trkpt lat="59.304514" lon="18.07833">
        <ele>27</ele>
        <time>2020-02-10T08:02:56Z</time>
      </trkpt>
      <trkpt lat="59.304485" lon="18.078349">
        <ele>27</ele>
        <time>2020-02-10T08:02:57Z</time>
      </trkpt>
      <trkpt lat="59.304456" lon="18.078365">
        <ele>27</ele>
        <time>2020-02-10T08:02:58Z</time>
      </trkpt>
      <trkpt lat="59.304426" lon="18.078383">
        <ele>27</ele>
        <time>2020-02-10T08:02:59Z</time>
      </trkpt>
      <trkpt lat="59.304396" lon="18.078401">
        <ele>27</ele>
        <time>2020-02-10T08:03:00Z</time>
      </trkpt>
      <trkpt lat="59.304365" lon="18.078419">
        <ele>27</ele>
        <time>2020-02-10T08:03:01Z</time>
      </trkpt>
      <trkpt lat="59.304335" lon="18.078437">
        <ele>27</ele>
        <time>2020-02-10T08:03:02Z</time>
      </trkpt>
      <trkpt lat="59.304305" lon="18.078455">
        <ele>27</ele>
        <time>2020-02-10T08:03:03Z</time>
      </trkpt>
      <trkpt lat="59.304276" lon="18.078473">
        <ele>27</ele>
        <time>2020-02-10T08:03:04Z</time>
      </trkpt>
      <trkpt lat="59.304246" lon="18.078491">
        <ele>27</ele>
        <time>2020-02-10T08:03:05Z</time>
      </trkpt>
      <trkpt lat="59.304217" lon="18.078511">
        <ele>27</ele>
        <time>2020-02-10T08:03:06Z</time>
      </trkpt>
      <trkpt lat="59.304187" lon="18.07853">
        <ele>27</ele>
        <time>2020-02-10T08:03:07Z</time>
      </trkpt>
      <trkpt lat="59.304157" lon="18.078547">
        <ele>28</ele>
        <time>2020-02-10T08:03:08Z</time>
      </trkpt>
      <trkpt lat="59.304128" lon="18.078565">
        <ele>28</ele>
        <time>2020-02-10T08:03:09Z</time>
      </trkpt>
      <trkpt lat="59.304098" lon="18.078583">
        <ele>28</ele>
        <time>2020-02-10T08:03:10Z</time>
      </trkpt>
      <trkpt lat="59.304071" lon="18.078602">
        <ele>28</ele>
        <time>2020-02-10T08:03:11Z</time>
      </trkpt>
      <trkpt lat="59.304043" lon="18.078621">
        <ele>28</ele>
        <time>2020-02-10T08:03:12Z</time>
      </trkpt>
      <trkpt lat="59.304015" lon="18.07864">
        <ele>28</ele>
        <time>2020-02-10T08:03:13Z</time>
      </trkpt>
      <trkpt lat="59.303986" lon="18.078657">
        <ele>28</ele>
        <time>2020-02-10T08:03:14Z</time>
      </trkpt>
      <trkpt lat="59.303957" lon="18.078676">
        <ele>28</ele>
        <time>2020-02-10T08:03:15Z</time>
      </trkpt>
      <trkpt lat="59.303928" lon="18.078693">
        <ele>0</ele>
        <time>2020-02-10T08:03:15Z</time>
      </trkpt>
      <trkpt lat="59.303899" lon="18.07871">
        <ele>29</ele>
        <time>2020-02-10T08:03:16Z</time>
      </trkpt>
      <trkpt lat="59.303871" lon="18.078727">
        <ele>29</ele>
        <time>2020-02-10T08:03:18Z</time>
      </trkpt>
      <trkpt lat="59.303842" lon="18.078743">
        <ele>29</ele>
        <time>2020-02-10T08:03:19Z</time>
      </trkpt>
      <trkpt lat="59.303814" lon="18.078761">
        <ele>29</ele>
        <time>2020-02-10T08:03:20Z</time>
      </trkpt>
      <trkpt lat="59.303785" lon="18.07878">
        <ele>29</ele>
        <time>2020-02-10T08:03:21Z</time>
      </trkpt>
      <trkpt lat="59.303756" lon="18.078799">
        <ele>29</ele>
        <time>2020-02-10T08:03:22Z</time>
      </trkpt>
      <trkpt lat="59.303727" lon="18.078819">
        <ele>29</ele>
        <time>2020-02-10T08:03:23Z</time>
      </trkpt>
      <trkpt lat="59.303697" lon="18.078838">
        <ele>29</ele>
        <time>2020-02-10T08:03:24Z</time>
      </trkpt>
      <trkpt lat="59.303666" lon="18.078858">
        <ele>29</ele>
        <time>2020-02-10T08:03:25Z</time>
      </trkpt>
      <trkpt lat="59.303636" lon="18.078876">
        <ele>29</ele>
        <time>2020-02-10T08:03:26Z</time>
      </trkpt>
      <trkpt lat="59.303606" lon="18.078894">
        <ele>29</ele>
        <time>2020-02-10T08:03:27Z</time>
      </trkpt>
      <trkpt lat="59.303576" lon="18.078913">
        <ele>29</ele>
        <time>2020-02-10T08:03:28Z</time>
      </trkpt>
      <trkpt lat="59.303546" lon="18.078931">
        <ele>30</ele>
        <time>2020-02-10T08:03:29Z</time>
      </trkpt>
      <trkpt lat="59.303515" lon="18.078949">
        <ele>30</ele>
        <time>2020-02-10T08:03:30Z</time>
      </trkpt>
      <trkpt lat="59.303485" lon="18.078967">
        <ele>30</ele>
        <time>2020-02-10T08:03:31Z</time>
      </trkpt>
      <trkpt lat="59.303454" lon="18.078985">
        <ele>30</ele>
        <time>2020-02-10T08:03:32Z</time>
      </trkpt>
      <trkpt lat="59.303424" lon="18.079005">
        <ele>30</ele>
        <time>2020-02-10T08:03:33Z</time>
      </trkpt>
      <trkpt lat="59.303395" lon="18.079026">
        <ele>31</ele>
        <time>2020-02-10T08:03:34Z</time>
      </trkpt>
      <trkpt lat="59.303366" lon="18.079046">
        <ele>31</ele>
        <time>2020-02-10T08:03:35Z</time>
      </trkpt>
      <trkpt lat="59.303337" lon="18.079065">
        <ele>31</ele>
        <time>2020-02-10T08:03:36Z</time>
      </trkpt>
      <trkpt lat="59.303307" lon="18.079083">
        <ele>31</ele>
        <time>2020-02-10T08:03:37Z</time>
      </trkpt>
      <trkpt lat="59.303277" lon="18.0791">
        <ele>31</ele>
        <time>2020-02-10T08:03:38Z</time>
      </trkpt>
      <trkpt lat="59.303247" lon="18.079118">
        <ele>31</ele>
        <time>2020-02-10T08:03:39Z</time>
      </trkpt>
      <trkpt lat="59.303216" lon="18.079136">
        <ele>31</ele>
        <time>2020-02-10T08:03:40Z</time>
      </trkpt>
      <trkpt lat="59.303186" lon="18.079156">
        <ele>31</ele>
        <time>2020-02-10T08:03:41Z</time>
      </trkpt>
      <trkpt lat="59.303156" lon="18.079176">
        <ele>31</ele>
        <time>2020-02-10T08:03:42Z</time>
      </trkpt>
      <trkpt lat="59.303125" lon="18.079195">
        <ele>31</ele>
        <time>2020-02-10T08:03:43Z</time>
      </trkpt>
      <trkpt lat="59.303093" lon="18.079213">
        <ele>31</ele>
        <time>2020-02-10T08:03:44Z</time>
      </trkpt>
      <trkpt lat="59.303059" lon="18.079233">
        <ele>31</ele>
        <time>2020-02-10T08:03:45Z</time>
      </trkpt>
      <trkpt lat="59.303026" lon="18.079254">
        <ele>31</ele>
        <time>2020-02-10T08:03:46Z</time>
      </trkpt>
      <trkpt lat="59.302992" lon="18.079276">
        <ele>31</ele>
        <time>2020-02-10T08:03:47Z</time>
      </trkpt>
      <trkpt lat="59.302958" lon="18.079298">
        <ele>31</ele>
        <time>2020-02-10T08:03:48Z</time>
      </trkpt>
      <trkpt lat="59.302922" lon="18.079322">
        <ele>31</ele>
        <time>2020-02-10T08:03:49Z</time>
      </trkpt>
      <trkpt lat="59.302886" lon="18.079345">
        <ele>32</ele>
        <time>2020-02-10T08:03:50Z</time>
      </trkpt>
      <trkpt lat="59.302851" lon="18.079366">
        <ele>32</ele>
        <time>2020-02-10T08:03:51Z</time>
      </trkpt>
      <trkpt lat="59.302815" lon="18.079389">
        <ele>32</ele>
        <time>2020-02-10T08:03:52Z</time>
      </trkpt>
      <trkpt lat="59.302779" lon="18.079411">
        <ele>32</ele>
        <time>2020-02-10T08:03:53Z</time>
      </trkpt>
      <trkpt lat="59.302742" lon="18.079435">
        <ele>32</ele>
        <time>2020-02-10T08:03:54Z</time>
      </trkpt>
      <trkpt lat="59.302706" lon="18.07946">
        <ele>32</ele>
        <time>2020-02-10T08:03:55Z</time>
      </trkpt>
      <trkpt lat="59.302669" lon="18.079484">
        <ele>32</ele>
        <time>2020-02-10T08:03:56Z</time>
      </trkpt>
      <trkpt lat="59.302632" lon="18.079506">
        <ele>32</ele>
        <time>2020-02-10T08:03:57Z</time>
      </trkpt>
      <trkpt lat="59.302595" lon="18.079529">
        <ele>32</ele>
        <time>2020-02-10T08:03:58Z</time>
      </trkpt>
      <trkpt lat="59.302558" lon="18.079553">
        <ele>32</ele>
        <time>2020-02-10T08:03:59Z</time>
      </trkpt>
      <trkpt lat="59.302521" lon="18.079576">
        <ele>0</ele>
        <time>2020-02-10T08:03:59Z</time>
      </trkpt>
      <trkpt lat="59.302484" lon="18.079599">
        <ele>32</ele>
        <time>2020-02-10T08:04:00Z</time>
      </trkpt>
      <trkpt lat="59.302448" lon="18.079622">
        <ele>32</ele>
        <time>2020-02-10T08:04:02Z</time>
      </trkpt>
      <trkpt lat="59.302412" lon="18.079646">
        <ele>32</ele>
        <time>2020-02-10T08:04:03Z</time>
      </trkpt>
      <trkpt lat="59.302375" lon="18.079671">
        <ele>32</ele>
        <time>2020-02-10T08:04:04Z</time>
      </trkpt>
      <trkpt lat="59.302339" lon="18.079697">
        <ele>32</ele>
        <time>2020-02-10T08:04:05Z</time>
      </trkpt>
      <trkpt lat="59.302301" lon="18.079722">
        <ele>33</ele>
        <time>2020-02-10T08:04:06Z</time>
      </trkpt>
      <trkpt lat="59.302262" lon="18.079746">
        <ele>33</ele>
        <time>2020-02-10T08:04:07Z</time>
      </trkpt>
      <trkpt lat="59.302222" lon="18.079769">
        <ele>33</ele>
        <time>2020-02-10T08:04:08Z</time>
      </trkpt>
      <trkpt lat="59.302183" lon="18.079794">
        <ele>33</ele>
        <time>2020-02-10T08:04:09Z</time>
      </trkpt>
      <trkpt lat="59.302144" lon="18.079819">
        <ele>33</ele>
        <time>2020-02-10T08:04:10Z</time>
      </trkpt>
      <trkpt lat="59.302104" lon="18.079845">
        <ele>33</ele>
        <time>2020-02-10T08:04:11Z</time>
      </trkpt>
      <trkpt lat="59.302064" lon="18.079872">
        <ele>33</ele>
        <time>2020-02-10T08:04:12Z</time>
      </trkpt>
      <trkpt lat="59.302023" lon="18.079899">
        <ele>33</ele>
        <time>2020-02-10T08:04:13Z</time>
      </trkpt>
      <trkpt lat="59.301983" lon="18.079924">
        <ele>33</ele>
        <time>2020-02-10T08:04:14Z</time>
      </trkpt>
      <trkpt lat="59.301942" lon="18.079946">
        <ele>33</ele>
        <time>2020-02-10T08:04:15Z</time>
      </trkpt>
      <trkpt lat="59.301902" lon="18.079968">
        <ele>33</ele>
        <time>2020-02-10T08:04:16Z</time>
      </trkpt>
      <trkpt lat="59.301863" lon="18.079991">
        <ele>33</ele>
        <time>2020-02-10T08:04:17Z</time>
      </trkpt>
      <trkpt lat="59.301823" lon="18.080014">
        <ele>33</ele>
        <time>2020-02-10T08:04:18Z</time>
      </trkpt>
      <trkpt lat="59.301783" lon="18.080037">
        <ele>33</ele>
        <time>2020-02-10T08:04:19Z</time>
      </trkpt>
      <trkpt lat="59.301743" lon="18.080061">
        <ele>33</ele>
        <time>2020-02-10T08:04:20Z</time>
      </trkpt>
      <trkpt lat="59.301704" lon="18.080085">
        <ele>34</ele>
        <time>2020-02-10T08:04:21Z</time>
      </trkpt>
      <trkpt lat="59.301665" lon="18.080109">
        <ele>34</ele>
        <time>2020-02-10T08:04:22Z</time>
      </trkpt>
      <trkpt lat="59.301625" lon="18.080134">
        <ele>34</ele>
        <time>2020-02-10T08:04:23Z</time>
      </trkpt>
      <trkpt lat="59.301586" lon="18.08016">
        <ele>34</ele>
        <time>2020-02-10T08:04:24Z</time>
      </trkpt>
      <trkpt lat="59.301547" lon="18.080188">
        <ele>34</ele>
        <time>2020-02-10T08:04:25Z</time>
      </trkpt>
      <trkpt lat="59.301508" lon="18.080219">
        <ele>34</ele>
        <time>2020-02-10T08:04:26Z</time>
      </trkpt>
      <trkpt lat="59.301468" lon="18.080252">
        <ele>34</ele>
        <time>2020-02-10T08:04:27Z</time>
      </trkpt>
      <trkpt lat="59.301429" lon="18.080284">
        <ele>34</ele>
        <time>2020-02-10T08:04:28Z</time>
      </trkpt>
      <trkpt lat="59.301391" lon="18.080315">
        <ele>34</ele>
        <time>2020-02-10T08:04:29Z</time>
      </trkpt>
      <trkpt lat="59.301353" lon="18.080339">
        <ele>34</ele>
        <time>2020-02-10T08:04:30Z</time>
      </trkpt>
      <trkpt lat="59.301314" lon="18.080352">
        <ele>33</ele>
        <time>2020-02-10T08:04:31Z</time>
      </trkpt>
      <trkpt lat="59.301272" lon="18.080363">
        <ele>33</ele>
        <time>2020-02-10T08:04:32Z</time>
      </trkpt>
      <trkpt lat="59.301233" lon="18.080369">
        <ele>33</ele>
        <time>2020-02-10T08:04:33Z</time>
      </trkpt>
      <trkpt lat="59.301198" lon="18.080359">
        <ele>33</ele>
        <time>2020-02-10T08:04:34Z</time>
      </trkpt>
      <trkpt lat="59.301164" lon="18.080341">
        <ele>33</ele>
        <time>2020-02-10T08:04:35Z</time>
      </trkpt>
      <trkpt lat="59.301121" lon="18.080332">
        <ele>33</ele>
        <time>2020-02-10T08:04:36Z</time>
      </trkpt>
      <trkpt lat="59.301077" lon="18.080333">
        <ele>33</ele>
        <time>2020-02-10T08:04:37Z</time>
      </trkpt>
      <trkpt lat="59.301029" lon="18.080339">
        <ele>33</ele>
        <time>2020-02-10T08:04:38Z</time>
      </trkpt>
      <trkpt lat="59.300981" lon="18.080351">
        <ele>33</ele>
        <time>2020-02-10T08:04:39Z</time>
      </trkpt>
      <trkpt lat="59.300933" lon="18.080362">
        <ele>34</ele>
        <time>2020-02-10T08:04:40Z</time>
      </trkpt>
      <trkpt lat="59.300884" lon="18.080376">
        <ele>34</ele>
        <time>2020-02-10T08:04:41Z</time>
      </trkpt>
      <trkpt lat="59.300838" lon="18.080391">
        <ele>34</ele>
        <time>2020-02-10T08:04:42Z</time>
      </trkpt>
      <trkpt lat="59.300795" lon="18.08041">
        <ele>35</ele>
        <time>2020-02-10T08:04:43Z</time>
      </trkpt>
      <trkpt lat="59.300752" lon="18.080429">
        <ele>35</ele>
        <time>2020-02-10T08:04:44Z</time>
      </trkpt>
      <trkpt lat="59.30071" lon="18.080452">
        <ele>35</ele>
        <time>2020-02-10T08:04:45Z</time>
      </trkpt>
      <trkpt lat="59.30067" lon="18.080481">
        <ele>35</ele>
        <time>2020-02-10T08:04:46Z</time>
      </trkpt>
      <trkpt lat="59.300631" lon="18.080514">
        <ele>35</ele>
        <time>2020-02-10T08:04:47Z</time>
      </trkpt>
      <trkpt lat="59.300592" lon="18.080542">
        <ele>0</ele>
        <time>2020-02-10T08:04:47Z</time>
      </trkpt>
      <trkpt lat="59.300553" lon="18.080568">
        <ele>35</ele>
        <time>2020-02-10T08:04:48Z</time>
      </trkpt>
      <trkpt lat="59.300514" lon="18.080593">
        <ele>35</ele>
        <time>2020-02-10T08:04:50Z</time>
      </trkpt>
      <trkpt lat="59.300476" lon="18.080616">
        <ele>35</ele>
        <time>2020-02-10T08:04:51Z</time>
      </trkpt>
      <trkpt lat="59.300439" lon="18.080637">
        <ele>35</ele>
        <time>2020-02-10T08:04:52Z</time>
      </trkpt>
      <trkpt lat="59.3004" lon="18.080658">
        <ele>36</ele>
        <time>2020-02-10T08:04:53Z</time>
      </trkpt>
      <trkpt lat="59.30036" lon="18.08068">
        <ele>36</ele>
        <time>2020-02-10T08:04:54Z</time>
      </trkpt>
      <trkpt lat="59.30032" lon="18.080701">
        <ele>36</ele>
        <time>2020-02-10T08:04:55Z</time>
      </trkpt>
      <trkpt lat="59.30028" lon="18.080724">
        <ele>36</ele>
        <time>2020-02-10T08:04:56Z</time>
      </trkpt>
      <trkpt lat="59.300238" lon="18.080749">
        <ele>36</ele>
        <time>2020-02-10T08:04:57Z</time>
      </trkpt>
      <trkpt lat="59.300195" lon="18.080776">
        <ele>36</ele>
        <time>2020-02-10T08:04:58Z</time>
      </trkpt>
      <trkpt lat="59.300152" lon="18.080803">
        <ele>37</ele>
        <time>2020-02-10T08:04:59Z</time>
      </trkpt>
      <trkpt lat="59.300108" lon="18.08083">
        <ele>37</ele>
        <time>2020-02-10T08:05:00Z</time>
      </trkpt>
      <trkpt lat="59.300062" lon="18.080853">
        <ele>38</ele>
        <time>2020-02-10T08:05:01Z</time>
      </trkpt>
      <trkpt lat="59.300016" lon="18.080873">
        <ele>38</ele>
        <time>2020-02-10T08:05:02Z</time>
      </trkpt>
      <trkpt lat="59.299972" lon="18.080894">
        <ele>38</ele>
        <time>2020-02-10T08:05:03Z</time>
      </trkpt>
      <trkpt lat="59.299929" lon="18.080917">
        <ele>38</ele>
        <time>2020-02-10T08:05:04Z</time>
      </trkpt>
      <trkpt lat="59.299888" lon="18.080942">
        <ele>38</ele>
        <time>2020-02-10T08:05:05Z</time>
      </trkpt>
      <trkpt lat="59.299846" lon="18.080967">
        <ele>38</ele>
        <time>2020-02-10T08:05:06Z</time>
      </trkpt>
      <trkpt lat="59.299806" lon="18.080992">
        <ele>38</ele>
        <time>2020-02-10T08:05:07Z</time>
      </trkpt>
      <trkpt lat="59.299767" lon="18.081018">
        <ele>38</ele>
        <time>2020-02-10T08:05:08Z</time>
      </trkpt>
      <trkpt lat="59.299729" lon="18.081044">
        <ele>39</ele>
        <time>2020-02-10T08:05:09Z</time>
      </trkpt>
      <trkpt lat="59.299691" lon="18.081069">
        <ele>39</ele>
        <time>2020-02-10T08:05:10Z</time>
      </trkpt>
      <trkpt lat="59.299652" lon="18.081093">
        <ele>39</ele>
        <time>2020-02-10T08:05:11Z</time>
      </trkpt>
      <trkpt lat="59.299612" lon="18.081115">
        <ele>39</ele>
        <time>2020-02-10T08:05:12Z</time>
      </trkpt>
      <trkpt lat="59.299571" lon="18.08114">
        <ele>39</ele>
        <time>2020-02-10T08:05:13Z</time>
      </trkpt>
      <trkpt lat="59.29953" lon="18.081166">
        <ele>39</ele>
        <time>2020-02-10T08:05:14Z</time>
      </trkpt>
      <trkpt lat="59.299491" lon="18.08119">
        <ele>39</ele>
        <time>2020-02-10T08:05:15Z</time>
      </trkpt>
      <trkpt lat="59.299457" lon="18.081211">
        <ele>39</ele>
        <time>2020-02-10T08:05:16Z</time>
      </trkpt>
      <trkpt lat="59.299425" lon="18.08124">
        <ele>39</ele>
        <time>2020-02-10T08:05:17Z</time>
      </trkpt>
      <trkpt lat="59.299393" lon="18.081269">
        <ele>39</ele>
        <time>2020-02-10T08:05:18Z</time>
      </trkpt>
      <trkpt lat="59.299364" lon="18.081297">
        <ele>39</ele>
        <time>2020-02-10T08:05:19Z</time>
      </trkpt>
      <trkpt lat="59.299335" lon="18.081324">
        <ele>39</ele>
        <time>2020-02-10T08:05:20Z</time>
      </trkpt>
      <trkpt lat="59.299308" lon="18.08135">
        <ele>39</ele>
        <time>2020-02-10T08:05:21Z</time>
      </trkpt>
      <trkpt lat="59.29928" lon="18.081378">
        <ele>39</ele>
        <time>2020-02-10T08:05:22Z</time>
      </trkpt>
      <trkpt lat="59.299254" lon="18.081404">
        <ele>39</ele>
        <time>2020-02-10T08:05:23Z</time>
      </trkpt>
      <trkpt lat="59.299225" lon="18.081449">
        <ele>39</ele>
        <time>2020-02-10T08:05:24Z</time>
      </trkpt>
      <trkpt lat="59.299197" lon="18.081494">
        <ele>40</ele>
        <time>2020-02-10T08:05:25Z</time>
      </trkpt>
      <trkpt lat="59.299159" lon="18.081541">
        <ele>40</ele>
        <time>2020-02-10T08:05:26Z</time>
      </trkpt>
      <trkpt lat="59.299121" lon="18.081579">
        <ele>40</ele>
        <time>2020-02-10T08:05:27Z</time>
      </trkpt>
      <trkpt lat="59.299079" lon="18.081624">
        <ele>40</ele>
        <time>2020-02-10T08:05:28Z</time>
      </trkpt>
      <trkpt lat="59.299031" lon="18.081676">
        <ele>40</ele>
        <time>2020-02-10T08:05:29Z</time>
      </trkpt>
      <trkpt lat="59.298983" lon="18.081728">
        <ele>40</ele>
        <time>2020-02-10T08:05:30Z</time>
      </trkpt>
      <trkpt lat="59.298925" lon="18.081773">
        <ele>41</ele>
        <time>2020-02-10T08:05:31Z</time>
      </trkpt>
      <trkpt lat="59.298873" lon="18.081814">
        <ele>41</ele>
        <time>2020-02-10T08:05:32Z</time>
      </trkpt>
      <trkpt lat="59.298816" lon="18.081858">
        <ele>41</ele>
        <time>2020-02-10T08:05:33Z</time>
      </trkpt>
      <trkpt lat="59.298764" lon="18.081899">
        <ele>0</ele>
        <time>2020-02-10T08:05:33Z</time>
      </trkpt>
      <trkpt lat="59.298715" lon="18.081932">
        <ele>42</ele>
        <time>2020-02-10T08:05:34Z</time>
      </trkpt>
      <trkpt lat="59.298666" lon="18.081962">
        <ele>42</ele>
        <time>2020-02-10T08:05:36Z</time>
      </trkpt>
      <trkpt lat="59.298619" lon="18.081993">
        <ele>43</ele>
        <time>2020-02-10T08:05:37Z</time>
      </trkpt>
      <trkpt lat="59.298571" lon="18.082031">
        <ele>43</ele>
        <time>2020-02-10T08:05:38Z</time>
      </trkpt>
      <trkpt lat="59.298525" lon="18.08207">
        <ele>43</ele>
        <time>2020-02-10T08:05:39Z</time>
      </trkpt>
      <trkpt lat="59.298478" lon="18.082107">
        <ele>43</ele>
        <time>2020-02-10T08:05:40Z</time>
      </trkpt>
      <trkpt lat="59.298432" lon="18.082142">
        <ele>43</ele>
        <time>2020-02-10T08:05:41Z</time>
      </trkpt>
      <trkpt lat="59.298387" lon="18.082179">
        <ele>43</ele>
        <time>2020-02-10T08:05:42Z</time>
      </trkpt>
      <trkpt lat="59.29834" lon="18.082208">
        <ele>43</ele>
        <time>2020-02-10T08:05:43Z</time>
      </trkpt>
      <trkpt lat="59.298292" lon="18.082233">
        <ele>42</ele>
        <time>2020-02-10T08:05:44Z</time>
      </trkpt>
      <trkpt lat="59.29824" lon="18.082249">
        <ele>42</ele>
        <time>2020-02-10T08:05:45Z</time>
      </trkpt>
      <trkpt lat="59.29819" lon="18.082272">
        <ele>42</ele>
        <time>2020-02-10T08:05:46Z</time>
      </trkpt>
      <trkpt lat="59.298142" lon="18.082298">
        <ele>42</ele>
        <time>2020-02-10T08:05:47Z</time>
      </trkpt>
      <trkpt lat="59.298094" lon="18.082325">
        <ele>41</ele>
        <time>2020-02-10T08:05:48Z</time>
      </trkpt>
      <trkpt lat="59.298048" lon="18.08235">
        <ele>41</ele>
        <time>2020-02-10T08:05:49Z</time>
      </trkpt>
      <trkpt lat="59.298003" lon="18.082376">
        <ele>41</ele>
        <time>2020-02-10T08:05:50Z</time>
      </trkpt>
      <trkpt lat="59.297958" lon="18.082398">
        <ele>41</ele>
        <time>2020-02-10T08:05:51Z</time>
      </trkpt>
      <trkpt lat="59.297913" lon="18.082422">
        <ele>41</ele>
        <time>2020-02-10T08:05:52Z</time>
      </trkpt>
      <trkpt lat="59.297869" lon="18.082447">
        <ele>41</ele>
        <time>2020-02-10T08:05:53Z</time>
      </trkpt>
      <trkpt lat="59.297826" lon="18.08247">
        <ele>41</ele>
        <time>2020-02-10T08:05:54Z</time>
      </trkpt>
      <trkpt lat="59.297783" lon="18.082493">
        <ele>41</ele>
        <time>2020-02-10T08:05:55Z</time>
      </trkpt>
      <trkpt lat="59.297741" lon="18.082517">
        <ele>41</ele>
        <time>2020-02-10T08:05:56Z</time>
      </trkpt>
      <trkpt lat="59.297699" lon="18.082541">
        <ele>41</ele>
        <time>2020-02-10T08:05:57Z</time>
      </trkpt>
      <trkpt lat="59.297656" lon="18.082562">
        <ele>41</ele>
        <time>2020-02-10T08:05:58Z</time>
      </trkpt>
      <trkpt lat="59.297614" lon="18.082585">
        <ele>40</ele>
        <time>2020-02-10T08:05:59Z</time>
      </trkpt>
      <trkpt lat="59.297572" lon="18.082608">
        <ele>40</ele>
        <time>2020-02-10T08:06:00Z</time>
      </trkpt>
      <trkpt lat="59.29753" lon="18.082628">
        <ele>40</ele>
        <time>2020-02-10T08:06:01Z</time>
      </trkpt>
      <trkpt lat="59.297489" lon="18.08265">
        <ele>40</ele>
        <time>2020-02-10T08:06:02Z</time>
      </trkpt>
      <trkpt lat="59.297447" lon="18.082672">
        <ele>40</ele>
        <time>2020-02-10T08:06:03Z</time>
      </trkpt>
      <trkpt lat="59.297406" lon="18.082696">
        <ele>40</ele>
        <time>2020-02-10T08:06:04Z</time>
      </trkpt>
      <trkpt lat="59.297364" lon="18.08272">
        <ele>40</ele>
        <time>2020-02-10T08:06:05Z</time>
      </trkpt>
      <trkpt lat="59.297321" lon="18.082744">
        <ele>40</ele>
        <time>2020-02-10T08:06:06Z</time>
      </trkpt>
      <trkpt lat="59.297277" lon="18.082762">
        <ele>40</ele>
        <time>2020-02-10T08:06:07Z</time>
      </trkpt>
      <trkpt lat="59.297233" lon="18.082774">
        <ele>40</ele>
        <time>2020-02-10T08:06:08Z</time>
      </trkpt>
      <trkpt lat="59.297188" lon="18.082778">
        <ele>40</ele>
        <time>2020-02-10T08:06:09Z</time>
      </trkpt>
      <trkpt lat="59.297145" lon="18.082784">
        <ele>40</ele>
        <time>2020-02-10T08:06:10Z</time>
      </trkpt>
      <trkpt lat="59.297103" lon="18.082796">
        <ele>40</ele>
        <time>2020-02-10T08:06:11Z</time>
      </trkpt>
      <trkpt lat="59.297068" lon="18.082814">
        <ele>40</ele>
        <time>2020-02-10T08:06:12Z</time>
      </trkpt>
      <trkpt lat="59.297038" lon="18.082828">
        <ele>40</ele>
        <time>2020-02-10T08:06:13Z</time>
      </trkpt>
      <trkpt lat="59.297011" lon="18.082838">
        <ele>40</ele>
        <time>2020-02-10T08:06:14Z</time>
      </trkpt>
      <trkpt lat="59.296982" lon="18.082848">
        <ele>40</ele>
        <time>2020-02-10T08:06:15Z</time>
      </trkpt>
      <trkpt lat="59.296949" lon="18.082864">
        <ele>40</ele>
        <time>2020-02-10T08:06:16Z</time>
      </trkpt>
      <trkpt lat="59.296913" lon="18.08289">
        <ele>40</ele>
        <time>2020-02-10T08:06:17Z</time>
      </trkpt>
      <trkpt lat="59.296877" lon="18.082926">
        <ele>40</ele>
        <time>2020-02-10T08:06:18Z</time>
      </trkpt>
      <trkpt lat="59.296839" lon="18.082968">
        <ele>41</ele>
        <time>2020-02-10T08:06:19Z</time>
      </trkpt>
      <trkpt lat="59.296801" lon="18.083008">
        <ele>40</ele>
        <time>2020-02-10T08:06:20Z</time>
      </trkpt>
      <trkpt lat="59.296762" lon="18.083048">
        <ele>41</ele>
        <time>2020-02-10T08:06:21Z</time>
      </trkpt>
      <trkpt lat="59.296723" lon="18.083086">
        <ele>41</ele>
        <time>2020-02-10T08:06:22Z</time>
      </trkpt>
      <trkpt lat="59.296685" lon="18.083126">
        <ele>41</ele>
        <time>2020-02-10T08:06:23Z</time>
      </trkpt>
      <trkpt lat="59.29665" lon="18.083168">
        <ele>41</ele>
        <time>2020-02-10T08:06:24Z</time>
      </trkpt>
      <trkpt lat="59.296612" lon="18.083208">
        <ele>41</ele>
        <time>2020-02-10T08:06:25Z</time>
      </trkpt>
      <trkpt lat="59.296575" lon="18.083244">
        <ele>41</ele>
        <time>2020-02-10T08:06:26Z</time>
      </trkpt>
      <trkpt lat="59.296538" lon="18.083278">
        <ele>41</ele>
        <time>2020-02-10T08:06:27Z</time>
      </trkpt>
      <trkpt lat="59.2965" lon="18.083308">
        <ele>41</ele>
        <time>2020-02-10T08:06:28Z</time>
      </trkpt>
      <trkpt lat="59.296461" lon="18.083334">
        <ele>41</ele>
        <time>2020-02-10T08:06:29Z</time>
      </trkpt>
      <trkpt lat="59.296422" lon="18.083358">
        <ele>42</ele>
        <time>2020-02-10T08:06:30Z</time>
      </trkpt>
      <trkpt lat="59.296383" lon="18.08338">
        <ele>42</ele>
        <time>2020-02-10T08:06:31Z</time>
      </trkpt>
      <trkpt lat="59.296344" lon="18.083406">
        <ele>42</ele>
        <time>2020-02-10T08:06:32Z</time>
      </trkpt>
      <trkpt lat="59.296304" lon="18.08343">
        <ele>42</ele>
        <time>2020-02-10T08:06:33Z</time>
      </trkpt>
      <trkpt lat="59.296264" lon="18.083456">
        <ele>42</ele>
        <time>2020-02-10T08:06:34Z</time>
      </trkpt>
      <trkpt lat="59.296223" lon="18.083482">
        <ele>42</ele>
        <time>2020-02-10T08:06:35Z</time>
      </trkpt>
      <trkpt lat="59.296183" lon="18.083505">
        <ele>42</ele>
        <time>2020-02-10T08:06:36Z</time>
      </trkpt>
      <trkpt lat="59.296143" lon="18.08353">
        <ele>42</ele>
        <time>2020-02-10T08:06:37Z</time>
      </trkpt>
      <trkpt lat="59.296104" lon="18.083554">
        <ele>42</ele>
        <time>2020-02-10T08:06:38Z</time>
      </trkpt>
      <trkpt lat="59.296064" lon="18.08358">
        <ele>42</ele>
        <time>2020-02-10T08:06:39Z</time>
      </trkpt>
      <trkpt lat="59.296025" lon="18.083606">
        <ele>43</ele>
        <time>2020-02-10T08:06:40Z</time>
      </trkpt>
      <trkpt lat="59.295986" lon="18.08363">
        <ele>43</ele>
        <time>2020-02-10T08:06:41Z</time>
      </trkpt>
      <trkpt lat="59.295947" lon="18.08365">
        <ele>43</ele>
        <time>2020-02-10T08:06:42Z</time>
      </trkpt>
      <trkpt lat="59.295908" lon="18.083672">
        <ele>43</ele>
        <time>2020-02-10T08:06:43Z</time>
      </trkpt>
      <trkpt lat="59.295868" lon="18.083694">
        <ele>43</ele>
        <time>2020-02-10T08:06:44Z</time>
      </trkpt>
      <trkpt lat="59.295826" lon="18.083716">
        <ele>43</ele>
        <time>2020-02-10T08:06:45Z</time>
      </trkpt>
      <trkpt lat="59.295784" lon="18.083738">
        <ele>43</ele>
        <time>2020-02-10T08:06:46Z</time>
      </trkpt>
      <trkpt lat="59.295741" lon="18.083764">
        <ele>43</ele>
        <time>2020-02-10T08:06:47Z</time>
      </trkpt>
      <trkpt lat="59.295698" lon="18.083792">
        <ele>43</ele>
        <time>2020-02-10T08:06:48Z</time>
      </trkpt>
      <trkpt lat="59.295652" lon="18.083822">
        <ele>43</ele>
        <time>2020-02-10T08:06:49Z</time>
      </trkpt>
      <trkpt lat="59.295605" lon="18.083852">
        <ele>42</ele>
        <time>2020-02-10T08:06:50Z</time>
      </trkpt>
      <trkpt lat="59.295558" lon="18.083882">
        <ele>43</ele>
        <time>2020-02-10T08:06:51Z</time>
      </trkpt>
      <trkpt lat="59.29551" lon="18.083912">
        <ele>43</ele>
        <time>2020-02-10T08:06:52Z</time>
      </trkpt>
      <trkpt lat="59.295463" lon="18.08394">
        <ele>43</ele>
        <time>2020-02-10T08:06:53Z</time>
      </trkpt>
      <trkpt lat="59.295416" lon="18.083972">
        <ele>43</ele>
        <time>2020-02-10T08:06:54Z</time>
      </trkpt>
      <trkpt lat="59.29537" lon="18.084002">
        <ele>43</ele>
        <time>2020-02-10T08:06:55Z</time>
      </trkpt>
      <trkpt lat="59.295324" lon="18.084028">
        <ele>43</ele>
        <time>2020-02-10T08:06:56Z</time>
      </trkpt>
      <trkpt lat="59.295278" lon="18.084054">
        <ele>43</ele>
        <time>2020-02-10T08:06:57Z</time>
      </trkpt>
      <trkpt lat="59.295232" lon="18.084082">
        <ele>43</ele>
        <time>2020-02-10T08:06:58Z</time>
      </trkpt>
      <trkpt lat="59.295185" lon="18.08411">
        <ele>43</ele>
        <time>2020-02-10T08:06:59Z</time>
      </trkpt>
      <trkpt lat="59.295137" lon="18.08414">
        <ele>43</ele>
        <time>2020-02-10T08:07:00Z</time>
      </trkpt>
      <trkpt lat="59.295088" lon="18.08417">
        <ele>43</ele>
        <time>2020-02-10T08:07:01Z</time>
      </trkpt>
      <trkpt lat="59.295038" lon="18.084198">
        <ele>43</ele>
        <time>2020-02-10T08:07:02Z</time>
      </trkpt>
      <trkpt lat="59.294987" lon="18.084226">
        <ele>43</ele>
        <time>2020-02-10T08:07:03Z</time>
      </trkpt>
      <trkpt lat="59.294937" lon="18.084254">
        <ele>43</ele>
        <time>2020-02-10T08:07:04Z</time>
      </trkpt>
      <trkpt lat="59.294886" lon="18.084283">
        <ele>43</ele>
        <time>2020-02-10T08:07:05Z</time>
      </trkpt>
      <trkpt lat="59.294835" lon="18.084313">
        <ele>43</ele>
        <time>2020-02-10T08:07:06Z</time>
      </trkpt>
      <trkpt lat="59.294782" lon="18.084342">
        <ele>43</ele>
        <time>2020-02-10T08:07:07Z</time>
      </trkpt>
      <trkpt lat="59.294728" lon="18.084371">
        <ele>43</ele>
        <time>2020-02-10T08:07:08Z</time>
      </trkpt>
      <trkpt lat="59.294674" lon="18.084398">
        <ele>43</ele>
        <time>2020-02-10T08:07:09Z</time>
      </trkpt>
      <trkpt lat="59.29462" lon="18.084425">
        <ele>43</ele>
        <time>2020-02-10T08:07:10Z</time>
      </trkpt>
      <trkpt lat="59.294567" lon="18.084451">
        <ele>43</ele>
        <time>2020-02-10T08:07:11Z</time>
      </trkpt>
      <trkpt lat="59.294517" lon="18.084478">
        <ele>43</ele>
        <time>2020-02-10T08:07:12Z</time>
      </trkpt>
      <trkpt lat="59.294467" lon="18.084507">
        <ele>43</ele>
        <time>2020-02-10T08:07:13Z</time>
      </trkpt>
      <trkpt lat="59.294418" lon="18.084533">
        <ele>43</ele>
        <time>2020-02-10T08:07:14Z</time>
      </trkpt>
      <trkpt lat="59.294369" lon="18.084556">
        <ele>43</ele>
        <time>2020-02-10T08:07:15Z</time>
      </trkpt>
      <trkpt lat="59.294318" lon="18.084572">
        <ele>43</ele>
        <time>2020-02-10T08:07:16Z</time>
      </trkpt>
      <trkpt lat="59.294263" lon="18.084606">
        <ele>41</ele>
        <time>2020-02-10T08:07:17Z</time>
      </trkpt>
      <trkpt lat="59.294206" lon="18.084651">
        <ele>40</ele>
        <time>2020-02-10T08:07:18Z</time>
      </trkpt>
      <trkpt lat="59.294134" lon="18.084711">
        <ele>40</ele>
        <time>2020-02-10T08:07:19Z</time>
      </trkpt>
      <trkpt lat="59.294056" lon="18.084783">
        <ele>0</ele>
        <time>2020-02-10T08:07:19Z</time>
      </trkpt>
      <trkpt lat="59.29399" lon="18.084835">
        <ele>41</ele>
        <time>2020-02-10T08:07:20Z</time>
      </trkpt>
      <trkpt lat="59.293929" lon="18.084871">
        <ele>40</ele>
        <time>2020-02-10T08:07:22Z</time>
      </trkpt>
      <trkpt lat="59.293866" lon="18.084899">
        <ele>40</ele>
        <time>2020-02-10T08:07:23Z</time>
      </trkpt>
      <trkpt lat="59.293804" lon="18.084931">
        <ele>40</ele>
        <time>2020-02-10T08:07:24Z</time>
      </trkpt>
      <trkpt lat="59.293742" lon="18.084963">
        <ele>40</ele>
        <time>2020-02-10T08:07:25Z</time>
      </trkpt>
      <trkpt lat="59.293681" lon="18.084999">
        <ele>40</ele>
        <time>2020-02-10T08:07:26Z</time>
      </trkpt>
      <trkpt lat="59.293624" lon="18.085032">
        <ele>40</ele>
        <time>2020-02-10T08:07:27Z</time>
      </trkpt>
      <trkpt lat="59.293566" lon="18.08506">
        <ele>0</ele>
        <time>2020-02-10T08:07:27Z</time>
      </trkpt>
      <trkpt lat="59.293504" lon="18.085079">
        <ele>40</ele>
        <time>2020-02-10T08:07:28Z</time>
      </trkpt>
      <trkpt lat="59.293442" lon="18.085097">
        <ele>40</ele>
        <time>2020-02-10T08:07:30Z</time>
      </trkpt>
      <trkpt lat="59.293386" lon="18.085118">
        <ele>40</ele>
        <time>2020-02-10T08:07:31Z</time>
      </trkpt>
      <trkpt lat="59.29333" lon="18.085139">
        <ele>40</ele>
        <time>2020-02-10T08:07:32Z</time>
      </trkpt>
      <trkpt lat="59.293277" lon="18.085159">
        <ele>40</ele>
        <time>2020-02-10T08:07:33Z</time>
      </trkpt>
      <trkpt lat="59.293222" lon="18.085175">
        <ele>40</ele>
        <time>2020-02-10T08:07:34Z</time>
      </trkpt>
      <trkpt lat="59.293171" lon="18.085184">
        <ele>40</ele>
        <time>2020-02-10T08:07:35Z</time>
      </trkpt>
      <trkpt lat="59.293125" lon="18.085193">
        <ele>40</ele>
        <time>2020-02-10T08:07:36Z</time>
      </trkpt>
      <trkpt lat="59.293081" lon="18.085206">
        <ele>40</ele>
        <time>2020-02-10T08:07:37Z</time>
      </trkpt>
      <trkpt lat="59.293037" lon="18.085218">
        <ele>40</ele>
        <time>2020-02-10T08:07:38Z</time>
      </trkpt>
      <trkpt lat="59.292994" lon="18.085233">
        <ele>40</ele>
        <time>2020-02-10T08:07:39Z</time>
      </trkpt>
      <trkpt lat="59.292953" lon="18.085245">
        <ele>40</ele>
        <time>2020-02-10T08:07:40Z</time>
      </trkpt>
      <trkpt lat="59.292912" lon="18.085248">
        <ele>40</ele>
        <time>2020-02-10T08:07:41Z</time>
      </trkpt>
      <trkpt lat="59.292874" lon="18.08525">
        <ele>40</ele>
        <time>2020-02-10T08:07:42Z</time>
      </trkpt>
      <trkpt lat="59.292836" lon="18.085249">
        <ele>40</ele>
        <time>2020-02-10T08:07:43Z</time>
      </trkpt>
      <trkpt lat="59.292798" lon="18.085242">
        <ele>40</ele>
        <time>2020-02-10T08:07:44Z</time>
      </trkpt>
      <trkpt lat="59.292763" lon="18.085226">
        <ele>40</ele>
        <time>2020-02-10T08:07:45Z</time>
      </trkpt>
      <trkpt lat="59.292729" lon="18.085197">
        <ele>40</ele>
        <time>2020-02-10T08:07:46Z</time>
      </trkpt>
      <trkpt lat="59.292699" lon="18.085152">
        <ele>40</ele>
        <time>2020-02-10T08:07:47Z</time>
      </trkpt>
      <trkpt lat="59.292667" lon="18.085104">
        <ele>40</ele>
        <time>2020-02-10T08:07:48Z</time>
      </trkpt>
      <trkpt lat="59.292629" lon="18.085067">
        <ele>40</ele>
        <time>2020-02-10T08:07:49Z</time>
      </trkpt>
      <trkpt lat="59.292588" lon="18.085033">
        <ele>40</ele>
        <time>2020-02-10T08:07:50Z</time>
      </trkpt>
      <trkpt lat="59.292548" lon="18.085009">
        <ele>0</ele>
        <time>2020-02-10T08:07:50Z</time>
      </trkpt>
      <trkpt lat="59.292513" lon="18.084997">
        <ele>40</ele>
        <time>2020-02-10T08:07:51Z</time>
      </trkpt>
      <trkpt lat="59.292469" lon="18.085018">
        <ele>39</ele>
        <time>2020-02-10T08:07:53Z</time>
      </trkpt>
      <trkpt lat="59.292424" lon="18.085062">
        <ele>39</ele>
        <time>2020-02-10T08:07:54Z</time>
      </trkpt>
      <trkpt lat="59.29238" lon="18.085099">
        <ele>39</ele>
        <time>2020-02-10T08:07:55Z</time>
      </trkpt>
      <trkpt lat="59.292336" lon="18.085138">
        <ele>39</ele>
        <time>2020-02-10T08:07:56Z</time>
      </trkpt>
      <trkpt lat="59.292279" lon="18.085179">
        <ele>39</ele>
        <time>2020-02-10T08:07:57Z</time>
      </trkpt>
      <trkpt lat="59.292225" lon="18.085216">
        <ele>40</ele>
        <time>2020-02-10T08:07:58Z</time>
      </trkpt>
      <trkpt lat="59.29217" lon="18.08525">
        <ele>40</ele>
        <time>2020-02-10T08:07:59Z</time>
      </trkpt>
      <trkpt lat="59.292116" lon="18.085283">
        <ele>0</ele>
        <time>2020-02-10T08:07:59Z</time>
      </trkpt>
      <trkpt lat="59.292061" lon="18.085319">
        <ele>40</ele>
        <time>2020-02-10T08:08:00Z</time>
      </trkpt>
      <trkpt lat="59.292009" lon="18.085366">
        <ele>40</ele>
        <time>2020-02-10T08:08:02Z</time>
      </trkpt>
      <trkpt lat="59.291952" lon="18.085423">
        <ele>40</ele>
        <time>2020-02-10T08:08:03Z</time>
      </trkpt>
      <trkpt lat="59.291894" lon="18.085481">
        <ele>40</ele>
        <time>2020-02-10T08:08:04Z</time>
      </trkpt>
      <trkpt lat="59.291829" lon="18.085549">
        <ele>40</ele>
        <time>2020-02-10T08:08:05Z</time>
      </trkpt>
      <trkpt lat="59.291764" lon="18.085598">
        <ele>39</ele>
        <time>2020-02-10T08:08:06Z</time>
      </trkpt>
      <trkpt lat="59.291703" lon="18.085654">
        <ele>39</ele>
        <time>2020-02-10T08:08:07Z</time>
      </trkpt>
      <trkpt lat="59.291641" lon="18.085705">
        <ele>39</ele>
        <time>2020-02-10T08:08:08Z</time>
      </trkpt>
      <trkpt lat="59.29158" lon="18.085751">
        <ele>39</ele>
        <time>2020-02-10T08:08:09Z</time>
      </trkpt>
      <trkpt lat="59.291521" lon="18.085809">
        <ele>39</ele>
        <time>2020-02-10T08:08:10Z</time>
      </trkpt>
      <trkpt lat="59.291463" lon="18.085871">
        <ele>38</ele>
        <time>2020-02-10T08:08:11Z</time>
      </trkpt>
      <trkpt lat="59.291347" lon="18.086003">
        <ele>38</ele>
        <time>2020-02-10T08:08:13Z</time>
      </trkpt>
      <trkpt lat="59.291232" lon="18.086145">
        <ele>0</ele>
        <time>2020-02-10T08:08:14Z</time>
      </trkpt>
      <trkpt lat="59.291112" lon="18.086246">
        <ele>38</ele>
        <time>2020-02-10T08:08:17Z</time>
      </trkpt>
      <trkpt lat="59.290992" lon="18.086338">
        <ele>38</ele>
        <time>2020-02-10T08:08:19Z</time>
      </trkpt>
      <trkpt lat="59.29087" lon="18.086406">
        <ele>38</ele>
        <time>2020-02-10T08:08:21Z</time>
      </trkpt>
      <trkpt lat="59.290807" lon="18.08643">
        <ele>39</ele>
        <time>2020-02-10T08:08:22Z</time>
      </trkpt>
      <trkpt lat="59.290745" lon="18.086462">
        <ele>0</ele>
        <time>2020-02-10T08:08:22Z</time>
      </trkpt>
      <trkpt lat="59.290682" lon="18.086482">
        <ele>40</ele>
        <time>2020-02-10T08:08:23Z</time>
      </trkpt>
      <trkpt lat="59.290621" lon="18.08649">
        <ele>41</ele>
        <time>2020-02-10T08:08:25Z</time>
      </trkpt>
      <trkpt lat="59.290554" lon="18.086471">
        <ele>40</ele>
        <time>2020-02-10T08:08:26Z</time>
      </trkpt>
      <trkpt lat="59.290498" lon="18.086477">
        <ele>39</ele>
        <time>2020-02-10T08:08:27Z</time>
      </trkpt>
      <trkpt lat="59.290425" lon="18.086425">
        <ele>39</ele>
        <time>2020-02-10T08:08:28Z</time>
      </trkpt>
      <trkpt lat="59.290365" lon="18.086408">
        <ele>39</ele>
        <time>2020-02-10T08:08:29Z</time>
      </trkpt>
      <trkpt lat="59.290311" lon="18.086405">
        <ele>39</ele>
        <time>2020-02-10T08:08:30Z</time>
      </trkpt>
      <trkpt lat="59.290259" lon="18.086406">
        <ele>0</ele>
        <time>2020-02-10T08:08:30Z</time>
      </trkpt>
      <trkpt lat="59.290207" lon="18.086411">
        <ele>38</ele>
        <time>2020-02-10T08:08:31Z</time>
      </trkpt>
      <trkpt lat="59.290154" lon="18.086426">
        <ele>38</ele>
        <time>2020-02-10T08:08:33Z</time>
      </trkpt>
      <trkpt lat="59.290099" lon="18.086446">
        <ele>38</ele>
        <time>2020-02-10T08:08:34Z</time>
      </trkpt>
      <trkpt lat="59.290039" lon="18.086467">
        <ele>38</ele>
        <time>2020-02-10T08:08:35Z</time>
      </trkpt>
      <trkpt lat="59.289976" lon="18.086486">
        <ele>38</ele>
        <time>2020-02-10T08:08:36Z</time>
      </trkpt>
      <trkpt lat="59.289912" lon="18.086513">
        <ele>37</ele>
        <time>2020-02-10T08:08:37Z</time>
      </trkpt>
      <trkpt lat="59.289846" lon="18.086539">
        <ele>37</ele>
        <time>2020-02-10T08:08:38Z</time>
      </trkpt>
      <trkpt lat="59.289779" lon="18.086564">
        <ele>0</ele>
        <time>2020-02-10T08:08:38Z</time>
      </trkpt>
      <trkpt lat="59.28971" lon="18.086584">
        <ele>36</ele>
        <time>2020-02-10T08:08:39Z</time>
      </trkpt>
      <trkpt lat="59.289638" lon="18.086618">
        <ele>35</ele>
        <time>2020-02-10T08:08:41Z</time>
      </trkpt>
      <trkpt lat="59.289564" lon="18.08665">
        <ele>35</ele>
        <time>2020-02-10T08:08:42Z</time>
      </trkpt>
      <trkpt lat="59.289491" lon="18.086682">
        <ele>34</ele>
        <time>2020-02-10T08:08:43Z</time>
      </trkpt>
      <trkpt lat="59.289415" lon="18.08672">
        <ele>34</ele>
        <time>2020-02-10T08:08:44Z</time>
      </trkpt>
      <trkpt lat="59.289339" lon="18.086759">
        <ele>33</ele>
        <time>2020-02-10T08:08:45Z</time>
      </trkpt>
      <trkpt lat="59.289263" lon="18.086803">
        <ele>33</ele>
        <time>2020-02-10T08:08:46Z</time>
      </trkpt>
      <trkpt lat="59.289185" lon="18.086854">
        <ele>33</ele>
        <time>2020-02-10T08:08:47Z</time>
      </trkpt>
      <trkpt lat="59.289106" lon="18.086905">
        <ele>33</ele>
        <time>2020-02-10T08:08:48Z</time>
      </trkpt>
      <trkpt lat="59.289024" lon="18.086955">
        <ele>32</ele>
        <time>2020-02-10T08:08:49Z</time>
      </trkpt>
      <trkpt lat="59.288943" lon="18.087005">
        <ele>32</ele>
        <time>2020-02-10T08:08:50Z</time>
      </trkpt>
      <trkpt lat="59.288859" lon="18.087055">
        <ele>0</ele>
        <time>2020-02-10T08:08:50Z</time>
      </trkpt>
      <trkpt lat="59.288774" lon="18.087098">
        <ele>32</ele>
        <time>2020-02-10T08:08:51Z</time>
      </trkpt>
      <trkpt lat="59.288691" lon="18.087124">
        <ele>32</ele>
        <time>2020-02-10T08:08:53Z</time>
      </trkpt>
      <trkpt lat="59.288611" lon="18.087147">
        <ele>32</ele>
        <time>2020-02-10T08:08:54Z</time>
      </trkpt>
      <trkpt lat="59.288537" lon="18.087164">
        <ele>32</ele>
        <time>2020-02-10T08:08:55Z</time>
      </trkpt>
      <trkpt lat="59.288461" lon="18.087191">
        <ele>32</ele>
        <time>2020-02-10T08:08:56Z</time>
      </trkpt>
      <trkpt lat="59.288386" lon="18.087231">
        <ele>32</ele>
        <time>2020-02-10T08:08:57Z</time>
      </trkpt>
      <trkpt lat="59.288241" lon="18.087322">
        <ele>32</ele>
        <time>2020-02-10T08:08:59Z</time>
      </trkpt>
      <trkpt lat="59.28818" lon="18.087359">
        <ele>32</ele>
        <time>2020-02-10T08:09:00Z</time>
      </trkpt>
      <trkpt lat="59.28811" lon="18.087406">
        <ele>32</ele>
        <time>2020-02-10T08:09:01Z</time>
      </trkpt>
      <trkpt lat="59.288049" lon="18.087443">
        <ele>32</ele>
        <time>2020-02-10T08:09:02Z</time>
      </trkpt>
      <trkpt lat="59.287993" lon="18.087472">
        <ele>32</ele>
        <time>2020-02-10T08:09:03Z</time>
      </trkpt>
      <trkpt lat="59.287935" lon="18.087505">
        <ele>32</ele>
        <time>2020-02-10T08:09:04Z</time>
      </trkpt>
      <trkpt lat="59.287884" lon="18.087534">
        <ele>32</ele>
        <time>2020-02-10T08:09:05Z</time>
      </trkpt>
      <trkpt lat="59.287833" lon="18.087566">
        <ele>32</ele>
        <time>2020-02-10T08:09:06Z</time>
      </trkpt>
      <trkpt lat="59.287786" lon="18.087598">
        <ele>32</ele>
        <time>2020-02-10T08:09:07Z</time>
      </trkpt>
      <trkpt lat="59.287737" lon="18.087632">
        <ele>32</ele>
        <time>2020-02-10T08:09:08Z</time>
      </trkpt>
      <trkpt lat="59.287689" lon="18.087668">
        <ele>32</ele>
        <time>2020-02-10T08:09:09Z</time>
      </trkpt>
      <trkpt lat="59.28764" lon="18.087705">
        <ele>32</ele>
        <time>2020-02-10T08:09:10Z</time>
      </trkpt>
      <trkpt lat="59.287592" lon="18.087738">
        <ele>32</ele>
        <time>2020-02-10T08:09:11Z</time>
      </trkpt>
      <trkpt lat="59.287544" lon="18.087771">
        <ele>32</ele>
        <time>2020-02-10T08:09:12Z</time>
      </trkpt>
      <trkpt lat="59.287498" lon="18.087807">
        <ele>32</ele>
        <time>2020-02-10T08:09:13Z</time>
      </trkpt>
      <trkpt lat="59.287453" lon="18.087843">
        <ele>32</ele>
        <time>2020-02-10T08:09:14Z</time>
      </trkpt>
      <trkpt lat="59.287406" lon="18.087882">
        <ele>32</ele>
        <time>2020-02-10T08:09:15Z</time>
      </trkpt>
      <trkpt lat="59.287362" lon="18.087927">
        <ele>32</ele>
        <time>2020-02-10T08:09:16Z</time>
      </trkpt>
      <trkpt lat="59.287317" lon="18.087966">
        <ele>32</ele>
        <time>2020-02-10T08:09:17Z</time>
      </trkpt>
      <trkpt lat="59.28727" lon="18.088">
        <ele>32</ele>
        <time>2020-02-10T08:09:18Z</time>
      </trkpt>
      <trkpt lat="59.287221" lon="18.088027">
        <ele>32</ele>
        <time>2020-02-10T08:09:19Z</time>
      </trkpt>
      <trkpt lat="59.287171" lon="18.088054">
        <ele>32</ele>
        <time>2020-02-10T08:09:20Z</time>
      </trkpt>
      <trkpt lat="59.28712" lon="18.08808">
        <ele>32</ele>
        <time>2020-02-10T08:09:21Z</time>
      </trkpt>
      <trkpt lat="59.287068" lon="18.088104">
        <ele>32</ele>
        <time>2020-02-10T08:09:22Z</time>
      </trkpt>
      <trkpt lat="59.287017" lon="18.088129">
        <ele>32</ele>
        <time>2020-02-10T08:09:23Z</time>
      </trkpt>
      <trkpt lat="59.286965" lon="18.088156">
        <ele>32</ele>
        <time>2020-02-10T08:09:24Z</time>
      </trkpt>
      <trkpt lat="59.286914" lon="18.088182">
        <ele>32</ele>
        <time>2020-02-10T08:09:25Z</time>
      </trkpt>
      <trkpt lat="59.286864" lon="18.088208">
        <ele>0</ele>
        <time>2020-02-10T08:09:25Z</time>
      </trkpt>
      <trkpt lat="59.286812" lon="18.088233">
        <ele>32</ele>
        <time>2020-02-10T08:09:26Z</time>
      </trkpt>
      <trkpt lat="59.28676" lon="18.088258">
        <ele>32</ele>
        <time>2020-02-10T08:09:28Z</time>
      </trkpt>
      <trkpt lat="59.286708" lon="18.088283">
        <ele>32</ele>
        <time>2020-02-10T08:09:29Z</time>
      </trkpt>
      <trkpt lat="59.286657" lon="18.088308">
        <ele>32</ele>
        <time>2020-02-10T08:09:30Z</time>
      </trkpt>
      <trkpt lat="59.286606" lon="18.088333">
        <ele>32</ele>
        <time>2020-02-10T08:09:31Z</time>
      </trkpt>
      <trkpt lat="59.286553" lon="18.088357">
        <ele>32</ele>
        <time>2020-02-10T08:09:32Z</time>
      </trkpt>
      <trkpt lat="59.286499" lon="18.088385">
        <ele>33</ele>
        <time>2020-02-10T08:09:33Z</time>
      </trkpt>
      <trkpt lat="59.286445" lon="18.088413">
        <ele>33</ele>
        <time>2020-02-10T08:09:34Z</time>
      </trkpt>
      <trkpt lat="59.28639" lon="18.08844">
        <ele>33</ele>
        <time>2020-02-10T08:09:35Z</time>
      </trkpt>
      <trkpt lat="59.286336" lon="18.08847">
        <ele>33</ele>
        <time>2020-02-10T08:09:36Z</time>
      </trkpt>
      <trkpt lat="59.286283" lon="18.088502">
        <ele>33</ele>
        <time>2020-02-10T08:09:37Z</time>
      </trkpt>
      <trkpt lat="59.28623" lon="18.088534">
        <ele>33</ele>
        <time>2020-02-10T08:09:38Z</time>
      </trkpt>
      <trkpt lat="59.286177" lon="18.088567">
        <ele>33</ele>
        <time>2020-02-10T08:09:39Z</time>
      </trkpt>
      <trkpt lat="59.286121" lon="18.088595">
        <ele>33</ele>
        <time>2020-02-10T08:09:40Z</time>
      </trkpt>
      <trkpt lat="59.286066" lon="18.088622">
        <ele>33</ele>
        <time>2020-02-10T08:09:41Z</time>
      </trkpt>
      <trkpt lat="59.28601" lon="18.088647">
        <ele>32</ele>
        <time>2020-02-10T08:09:42Z</time>
      </trkpt>
      <trkpt lat="59.285953" lon="18.088672">
        <ele>32</ele>
        <time>2020-02-10T08:09:43Z</time>
      </trkpt>
      <trkpt lat="59.285897" lon="18.088697">
        <ele>32</ele>
        <time>2020-02-10T08:09:44Z</time>
      </trkpt>
      <trkpt lat="59.285842" lon="18.08872">
        <ele>32</ele>
        <time>2020-02-10T08:09:45Z</time>
      </trkpt>
      <trkpt lat="59.285787" lon="18.088745">
        <ele>32</ele>
        <time>2020-02-10T08:09:46Z</time>
      </trkpt>
      <trkpt lat="59.285733" lon="18.088772">
        <ele>32</ele>
        <time>2020-02-10T08:09:47Z</time>
      </trkpt>
      <trkpt lat="59.285678" lon="18.088799">
        <ele>32</ele>
        <time>2020-02-10T08:09:48Z</time>
      </trkpt>
      <trkpt lat="59.285623" lon="18.088824">
        <ele>32</ele>
        <time>2020-02-10T08:09:49Z</time>
      </trkpt>
      <trkpt lat="59.285567" lon="18.088855">
        <ele>32</ele>
        <time>2020-02-10T08:09:50Z</time>
      </trkpt>
      <trkpt lat="59.285511" lon="18.088881">
        <ele>32</ele>
        <time>2020-02-10T08:09:51Z</time>
      </trkpt>
      <trkpt lat="59.285457" lon="18.088908">
        <ele>32</ele>
        <time>2020-02-10T08:09:52Z</time>
      </trkpt>
      <trkpt lat="59.285401" lon="18.088933">
        <ele>32</ele>
        <time>2020-02-10T08:09:53Z</time>
      </trkpt>
      <trkpt lat="59.285346" lon="18.088958">
        <ele>32</ele>
        <time>2020-02-10T08:09:54Z</time>
      </trkpt>
      <trkpt lat="59.285292" lon="18.088983">
        <ele>32</ele>
        <time>2020-02-10T08:09:55Z</time>
      </trkpt>
      <trkpt lat="59.285238" lon="18.089007">
        <ele>32</ele>
        <time>2020-02-10T08:09:56Z</time>
      </trkpt>
      <trkpt lat="59.285184" lon="18.089033">
        <ele>32</ele>
        <time>2020-02-10T08:09:57Z</time>
      </trkpt>
      <trkpt lat="59.28513" lon="18.089059">
        <ele>32</ele>
        <time>2020-02-10T08:09:58Z</time>
      </trkpt>
      <trkpt lat="59.285076" lon="18.089084">
        <ele>32</ele>
        <time>2020-02-10T08:09:59Z</time>
      </trkpt>
      <trkpt lat="59.285021" lon="18.089112">
        <ele>32</ele>
        <time>2020-02-10T08:10:00Z</time>
      </trkpt>
      <trkpt lat="59.284966" lon="18.08914">
        <ele>32</ele>
        <time>2020-02-10T08:10:01Z</time>
      </trkpt>
      <trkpt lat="59.284911" lon="18.089172">
        <ele>32</ele>
        <time>2020-02-10T08:10:02Z</time>
      </trkpt>
      <trkpt lat="59.284857" lon="18.089196">
        <ele>32</ele>
        <time>2020-02-10T08:10:03Z</time>
      </trkpt>
      <trkpt lat="59.284802" lon="18.089228">
        <ele>32</ele>
        <time>2020-02-10T08:10:04Z</time>
      </trkpt>
      <trkpt lat="59.284748" lon="18.089262">
        <ele>32</ele>
        <time>2020-02-10T08:10:05Z</time>
      </trkpt>
      <trkpt lat="59.284695" lon="18.089294">
        <ele>32</ele>
        <time>2020-02-10T08:10:06Z</time>
      </trkpt>
      <trkpt lat="59.284643" lon="18.089328">
        <ele>32</ele>
        <time>2020-02-10T08:10:07Z</time>
      </trkpt>
      <trkpt lat="59.28459" lon="18.089352">
        <ele>32</ele>
        <time>2020-02-10T08:10:08Z</time>
      </trkpt>
      <trkpt lat="59.284536" lon="18.08937">
        <ele>32</ele>
        <time>2020-02-10T08:10:09Z</time>
      </trkpt>
      <trkpt lat="59.284484" lon="18.089388">
        <ele>32</ele>
        <time>2020-02-10T08:10:10Z</time>
      </trkpt>
      <trkpt lat="59.284432" lon="18.089408">
        <ele>32</ele>
        <time>2020-02-10T08:10:11Z</time>
      </trkpt>
      <trkpt lat="59.284379" lon="18.089432">
        <ele>32</ele>
        <time>2020-02-10T08:10:12Z</time>
      </trkpt>
      <trkpt lat="59.284325" lon="18.089462">
        <ele>32</ele>
        <time>2020-02-10T08:10:13Z</time>
      </trkpt>
      <trkpt lat="59.28427" lon="18.08949">
        <ele>32</ele>
        <time>2020-02-10T08:10:14Z</time>
      </trkpt>
      <trkpt lat="59.284214" lon="18.08952">
        <ele>33</ele>
        <time>2020-02-10T08:10:15Z</time>
      </trkpt>
      <trkpt lat="59.284158" lon="18.089552">
        <ele>33</ele>
        <time>2020-02-10T08:10:16Z</time>
      </trkpt>
      <trkpt lat="59.284103" lon="18.089588">
        <ele>33</ele>
        <time>2020-02-10T08:10:17Z</time>
      </trkpt>
      <trkpt lat="59.284048" lon="18.089616">
        <ele>33</ele>
        <time>2020-02-10T08:10:18Z</time>
      </trkpt>
      <trkpt lat="59.283993" lon="18.089646">
        <ele>33</ele>
        <time>2020-02-10T08:10:19Z</time>
      </trkpt>
      <trkpt lat="59.28394" lon="18.089672">
        <ele>33</ele>
        <time>2020-02-10T08:10:20Z</time>
      </trkpt>
      <trkpt lat="59.283886" lon="18.0897">
        <ele>33</ele>
        <time>2020-02-10T08:10:21Z</time>
      </trkpt>
      <trkpt lat="59.283833" lon="18.089728">
        <ele>33</ele>
        <time>2020-02-10T08:10:22Z</time>
      </trkpt>
      <trkpt lat="59.28378" lon="18.08976">
        <ele>33</ele>
        <time>2020-02-10T08:10:23Z</time>
      </trkpt>
      <trkpt lat="59.283728" lon="18.089788">
        <ele>33</ele>
        <time>2020-02-10T08:10:24Z</time>
      </trkpt>
      <trkpt lat="59.283676" lon="18.089809">
        <ele>33</ele>
        <time>2020-02-10T08:10:25Z</time>
      </trkpt>
      <trkpt lat="59.283621" lon="18.089836">
        <ele>33</ele>
        <time>2020-02-10T08:10:26Z</time>
      </trkpt>
      <trkpt lat="59.283564" lon="18.089858">
        <ele>33</ele>
        <time>2020-02-10T08:10:27Z</time>
      </trkpt>
      <trkpt lat="59.28351" lon="18.089876">
        <ele>33</ele>
        <time>2020-02-10T08:10:28Z</time>
      </trkpt>
      <trkpt lat="59.283454" lon="18.089902">
        <ele>33</ele>
        <time>2020-02-10T08:10:29Z</time>
      </trkpt>
      <trkpt lat="59.283398" lon="18.089926">
        <ele>33</ele>
        <time>2020-02-10T08:10:30Z</time>
      </trkpt>
      <trkpt lat="59.283343" lon="18.089948">
        <ele>33</ele>
        <time>2020-02-10T08:10:31Z</time>
      </trkpt>
      <trkpt lat="59.283286" lon="18.089968">
        <ele>33</ele>
        <time>2020-02-10T08:10:32Z</time>
      </trkpt>
      <trkpt lat="59.283231" lon="18.089986">
        <ele>33</ele>
        <time>2020-02-10T08:10:33Z</time>
      </trkpt>
      <trkpt lat="59.283177" lon="18.090002">
        <ele>33</ele>
        <time>2020-02-10T08:10:34Z</time>
      </trkpt>
      <trkpt lat="59.283121" lon="18.090018">
        <ele>32</ele>
        <time>2020-02-10T08:10:35Z</time>
      </trkpt>
      <trkpt lat="59.283065" lon="18.090038">
        <ele>32</ele>
        <time>2020-02-10T08:10:36Z</time>
      </trkpt>
      <trkpt lat="59.283008" lon="18.09006">
        <ele>32</ele>
        <time>2020-02-10T08:10:37Z</time>
      </trkpt>
      <trkpt lat="59.282952" lon="18.090082">
        <ele>32</ele>
        <time>2020-02-10T08:10:38Z</time>
      </trkpt>
      <trkpt lat="59.282896" lon="18.090102">
        <ele>33</ele>
        <time>2020-02-10T08:10:39Z</time>
      </trkpt>
      <trkpt lat="59.282838" lon="18.090126">
        <ele>32</ele>
        <time>2020-02-10T08:10:40Z</time>
      </trkpt>
      <trkpt lat="59.282783" lon="18.090148">
        <ele>32</ele>
        <time>2020-02-10T08:10:41Z</time>
      </trkpt>
      <trkpt lat="59.282726" lon="18.09017">
        <ele>32</ele>
        <time>2020-02-10T08:10:42Z</time>
      </trkpt>
      <trkpt lat="59.28267" lon="18.090192">
        <ele>32</ele>
        <time>2020-02-10T08:10:43Z</time>
      </trkpt>
      <trkpt lat="59.282611" lon="18.090216">
        <ele>32</ele>
        <time>2020-02-10T08:10:44Z</time>
      </trkpt>
      <trkpt lat="59.282553" lon="18.090238">
        <ele>32</ele>
        <time>2020-02-10T08:10:45Z</time>
      </trkpt>
      <trkpt lat="59.282495" lon="18.090258">
        <ele>0</ele>
        <time>2020-02-10T08:10:45Z</time>
      </trkpt>
      <trkpt lat="59.282437" lon="18.090282">
        <ele>32</ele>
        <time>2020-02-10T08:10:46Z</time>
      </trkpt>
      <trkpt lat="59.282378" lon="18.090304">
        <ele>32</ele>
        <time>2020-02-10T08:10:48Z</time>
      </trkpt>
      <trkpt lat="59.282319" lon="18.090326">
        <ele>32</ele>
        <time>2020-02-10T08:10:49Z</time>
      </trkpt>
      <trkpt lat="59.282259" lon="18.09035">
        <ele>32</ele>
        <time>2020-02-10T08:10:50Z</time>
      </trkpt>
      <trkpt lat="59.2822" lon="18.09037">
        <ele>32</ele>
        <time>2020-02-10T08:10:51Z</time>
      </trkpt>
      <trkpt lat="59.28214" lon="18.090396">
        <ele>31</ele>
        <time>2020-02-10T08:10:52Z</time>
      </trkpt>
      <trkpt lat="59.282083" lon="18.09041">
        <ele>31</ele>
        <time>2020-02-10T08:10:53Z</time>
      </trkpt>
      <trkpt lat="59.282028" lon="18.090422">
        <ele>0</ele>
        <time>2020-02-10T08:10:53Z</time>
      </trkpt>
      <trkpt lat="59.281973" lon="18.09044">
        <ele>31</ele>
        <time>2020-02-10T08:10:54Z</time>
      </trkpt>
      <trkpt lat="59.281918" lon="18.090458">
        <ele>31</ele>
        <time>2020-02-10T08:10:56Z</time>
      </trkpt>
      <trkpt lat="59.281866" lon="18.090478">
        <ele>31</ele>
        <time>2020-02-10T08:10:57Z</time>
      </trkpt>
      <trkpt lat="59.281812" lon="18.090497">
        <ele>31</ele>
        <time>2020-02-10T08:10:58Z</time>
      </trkpt>
      <trkpt lat="59.28176" lon="18.090516">
        <ele>31</ele>
        <time>2020-02-10T08:10:59Z</time>
      </trkpt>
      <trkpt lat="59.281709" lon="18.090534">
        <ele>31</ele>
        <time>2020-02-10T08:11:00Z</time>
      </trkpt>
      <trkpt lat="59.281657" lon="18.090554">
        <ele>31</ele>
        <time>2020-02-10T08:11:01Z</time>
      </trkpt>
      <trkpt lat="59.281606" lon="18.09057">
        <ele>31</ele>
        <time>2020-02-10T08:11:01Z</time>
      </trkpt>
      <trkpt lat="59.281553" lon="18.090592">
        <ele>31</ele>
        <time>2020-02-10T08:11:02Z</time>
      </trkpt>
      <trkpt lat="59.281503" lon="18.090612">
        <ele>31</ele>
        <time>2020-02-10T08:11:04Z</time>
      </trkpt>
      <trkpt lat="59.281452" lon="18.09063">
        <ele>31</ele>
        <time>2020-02-10T08:11:05Z</time>
      </trkpt>
      <trkpt lat="59.2814" lon="18.090649">
        <ele>31</ele>
        <time>2020-02-10T08:11:06Z</time>
      </trkpt>
      <trkpt lat="59.281351" lon="18.090667">
        <ele>31</ele>
        <time>2020-02-10T08:11:07Z</time>
      </trkpt>
      <trkpt lat="59.281301" lon="18.090689">
        <ele>31</ele>
        <time>2020-02-10T08:11:08Z</time>
      </trkpt>
      <trkpt lat="59.281252" lon="18.090705">
        <ele>31</ele>
        <time>2020-02-10T08:11:09Z</time>
      </trkpt>
      <trkpt lat="59.281203" lon="18.090717">
        <ele>31</ele>
        <time>2020-02-10T08:11:10Z</time>
      </trkpt>
      <trkpt lat="59.281154" lon="18.090732">
        <ele>31</ele>
        <time>2020-02-10T08:11:11Z</time>
      </trkpt>
      <trkpt lat="59.281106" lon="18.09075">
        <ele>30</ele>
        <time>2020-02-10T08:11:12Z</time>
      </trkpt>
      <trkpt lat="59.281058" lon="18.09077">
        <ele>30</ele>
        <time>2020-02-10T08:11:13Z</time>
      </trkpt>
      <trkpt lat="59.281011" lon="18.090792">
        <ele>30</ele>
        <time>2020-02-10T08:11:14Z</time>
      </trkpt>
      <trkpt lat="59.280963" lon="18.090811">
        <ele>30</ele>
        <time>2020-02-10T08:11:15Z</time>
      </trkpt>
      <trkpt lat="59.280914" lon="18.090828">
        <ele>30</ele>
        <time>2020-02-10T08:11:16Z</time>
      </trkpt>
      <trkpt lat="59.280867" lon="18.090842">
        <ele>30</ele>
        <time>2020-02-10T08:11:17Z</time>
      </trkpt>
      <trkpt lat="59.28082" lon="18.090856">
        <ele>30</ele>
        <time>2020-02-10T08:11:18Z</time>
      </trkpt>
      <trkpt lat="59.280773" lon="18.090872">
        <ele>30</ele>
        <time>2020-02-10T08:11:19Z</time>
      </trkpt>
      <trkpt lat="59.280726" lon="18.090882">
        <ele>30</ele>
        <time>2020-02-10T08:11:20Z</time>
      </trkpt>
      <trkpt lat="59.280679" lon="18.090899">
        <ele>30</ele>
        <time>2020-02-10T08:11:21Z</time>
      </trkpt>
      <trkpt lat="59.280633" lon="18.090918">
        <ele>30</ele>
        <time>2020-02-10T08:11:22Z</time>
      </trkpt>
      <trkpt lat="59.280588" lon="18.090936">
        <ele>30</ele>
        <time>2020-02-10T08:11:23Z</time>
      </trkpt>
      <trkpt lat="59.280543" lon="18.090954">
        <ele>30</ele>
        <time>2020-02-10T08:11:24Z</time>
      </trkpt>
      <trkpt lat="59.280499" lon="18.090968">
        <ele>30</ele>
        <time>2020-02-10T08:11:25Z</time>
      </trkpt>
      <trkpt lat="59.280453" lon="18.090981">
        <ele>30</ele>
        <time>2020-02-10T08:11:26Z</time>
      </trkpt>
      <trkpt lat="59.280407" lon="18.090996">
        <ele>30</ele>
        <time>2020-02-10T08:11:27Z</time>
      </trkpt>
      <trkpt lat="59.280361" lon="18.091013">
        <ele>30</ele>
        <time>2020-02-10T08:11:28Z</time>
      </trkpt>
      <trkpt lat="59.280315" lon="18.09103">
        <ele>30</ele>
        <time>2020-02-10T08:11:29Z</time>
      </trkpt>
      <trkpt lat="59.280268" lon="18.091045">
        <ele>30</ele>
        <time>2020-02-10T08:11:30Z</time>
      </trkpt>
      <trkpt lat="59.28022" lon="18.091062">
        <ele>29</ele>
        <time>2020-02-10T08:11:31Z</time>
      </trkpt>
      <trkpt lat="59.280172" lon="18.09108">
        <ele>29</ele>
        <time>2020-02-10T08:11:32Z</time>
      </trkpt>
      <trkpt lat="59.280125" lon="18.091095">
        <ele>29</ele>
        <time>2020-02-10T08:11:33Z</time>
      </trkpt>
      <trkpt lat="59.280079" lon="18.091112">
        <ele>29</ele>
        <time>2020-02-10T08:11:34Z</time>
      </trkpt>
      <trkpt lat="59.280033" lon="18.09113">
        <ele>0</ele>
        <time>2020-02-10T08:11:34Z</time>
      </trkpt>
      <trkpt lat="59.279988" lon="18.091147">
        <ele>29</ele>
        <time>2020-02-10T08:11:35Z</time>
      </trkpt>
      <trkpt lat="59.279944" lon="18.091161">
        <ele>29</ele>
        <time>2020-02-10T08:11:37Z</time>
      </trkpt>
      <trkpt lat="59.279902" lon="18.091172">
        <ele>29</ele>
        <time>2020-02-10T08:11:38Z</time>
      </trkpt>
      <trkpt lat="59.27986" lon="18.091186">
        <ele>29</ele>
        <time>2020-02-10T08:11:39Z</time>
      </trkpt>
      <trkpt lat="59.27982" lon="18.091197">
        <ele>29</ele>
        <time>2020-02-10T08:11:40Z</time>
      </trkpt>
      <trkpt lat="59.279782" lon="18.091211">
        <ele>29</ele>
        <time>2020-02-10T08:11:41Z</time>
      </trkpt>
      <trkpt lat="59.279744" lon="18.091228">
        <ele>30</ele>
        <time>2020-02-10T08:11:42Z</time>
      </trkpt>
      <trkpt lat="59.279707" lon="18.091243">
        <ele>30</ele>
        <time>2020-02-10T08:11:43Z</time>
      </trkpt>
      <trkpt lat="59.279673" lon="18.091254">
        <ele>30</ele>
        <time>2020-02-10T08:11:44Z</time>
      </trkpt>
      <trkpt lat="59.279641" lon="18.091261">
        <ele>30</ele>
        <time>2020-02-10T08:11:45Z</time>
      </trkpt>
      <trkpt lat="59.27961" lon="18.091267">
        <ele>30</ele>
        <time>2020-02-10T08:11:46Z</time>
      </trkpt>
      <trkpt lat="59.279581" lon="18.091274">
        <ele>30</ele>
        <time>2020-02-10T08:11:47Z</time>
      </trkpt>
      <trkpt lat="59.27955" lon="18.091284">
        <ele>30</ele>
        <time>2020-02-10T08:11:48Z</time>
      </trkpt>
      <trkpt lat="59.27952" lon="18.091296">
        <ele>30</ele>
        <time>2020-02-10T08:11:49Z</time>
      </trkpt>
      <trkpt lat="59.27949" lon="18.091311">
        <ele>31</ele>
        <time>2020-02-10T08:11:50Z</time>
      </trkpt>
      <trkpt lat="59.279461" lon="18.091321">
        <ele>31</ele>
        <time>2020-02-10T08:11:51Z</time>
      </trkpt>
      <trkpt lat="59.279432" lon="18.091326">
        <ele>31</ele>
        <time>2020-02-10T08:11:52Z</time>
      </trkpt>
      <trkpt lat="59.279404" lon="18.091332">
        <ele>31</ele>
        <time>2020-02-10T08:11:53Z</time>
      </trkpt>
      <trkpt lat="59.279375" lon="18.091338">
        <ele>31</ele>
        <time>2020-02-10T08:11:54Z</time>
      </trkpt>
      <trkpt lat="59.279347" lon="18.091347">
        <ele>31</ele>
        <time>2020-02-10T08:11:55Z</time>
      </trkpt>
      <trkpt lat="59.279321" lon="18.091352">
        <ele>32</ele>
        <time>2020-02-10T08:11:56Z</time>
      </trkpt>
      <trkpt lat="59.279301" lon="18.091353">
        <ele>32</ele>
        <time>2020-02-10T08:11:57Z</time>
      </trkpt>
      <trkpt lat="59.279282" lon="18.091356">
        <ele>31</ele>
        <time>2020-02-10T08:11:58Z</time>
      </trkpt>
      <trkpt lat="59.279255" lon="18.09136">
        <ele>31</ele>
        <time>2020-02-10T08:12:00Z</time>
      </trkpt>
      <trkpt lat="59.279233" lon="18.091369">
        <ele>31</ele>
        <time>2020-02-10T08:12:02Z</time>
      </trkpt>
      <trkpt lat="59.279211" lon="18.091375">
        <ele>31</ele>
        <time>2020-02-10T08:12:03Z</time>
      </trkpt>
      <trkpt lat="59.279183" lon="18.091388">
        <ele>31</ele>
        <time>2020-02-10T08:12:04Z</time>
      </trkpt>
      <trkpt lat="59.279155" lon="18.091406">
        <ele>31</ele>
        <time>2020-02-10T08:12:05Z</time>
      </trkpt>
      <trkpt lat="59.279125" lon="18.091434">
        <ele>31</ele>
        <time>2020-02-10T08:12:06Z</time>
      </trkpt>
      <trkpt lat="59.279094" lon="18.091472">
        <ele>31</ele>
        <time>2020-02-10T08:12:07Z</time>
      </trkpt>
      <trkpt lat="59.279059" lon="18.091507">
        <ele>31</ele>
        <time>2020-02-10T08:12:08Z</time>
      </trkpt>
      <trkpt lat="59.27902" lon="18.091537">
        <ele>31</ele>
        <time>2020-02-10T08:12:09Z</time>
      </trkpt>
      <trkpt lat="59.278978" lon="18.09156">
        <ele>31</ele>
        <time>2020-02-10T08:12:10Z</time>
      </trkpt>
      <trkpt lat="59.278935" lon="18.09158">
        <ele>31</ele>
        <time>2020-02-10T08:12:11Z</time>
      </trkpt>
      <trkpt lat="59.27889" lon="18.091601">
        <ele>31</ele>
        <time>2020-02-10T08:12:12Z</time>
      </trkpt>
      <trkpt lat="59.278845" lon="18.091621">
        <ele>32</ele>
        <time>2020-02-10T08:12:13Z</time>
      </trkpt>
      <trkpt lat="59.278799" lon="18.091637">
        <ele>32</ele>
        <time>2020-02-10T08:12:14Z</time>
      </trkpt>
      <trkpt lat="59.278753" lon="18.091653">
        <ele>32</ele>
        <time>2020-02-10T08:12:15Z</time>
      </trkpt>
      <trkpt lat="59.278706" lon="18.091669">
        <ele>32</ele>
        <time>2020-02-10T08:12:16Z</time>
      </trkpt>
      <trkpt lat="59.278658" lon="18.09169">
        <ele>32</ele>
        <time>2020-02-10T08:12:17Z</time>
      </trkpt>
      <trkpt lat="59.278607" lon="18.091711">
        <ele>0</ele>
        <time>2020-02-10T08:12:17Z</time>
      </trkpt>
      <trkpt lat="59.278555" lon="18.091732">
        <ele>32</ele>
        <time>2020-02-10T08:12:18Z</time>
      </trkpt>
      <trkpt lat="59.278507" lon="18.091737">
        <ele>32</ele>
        <time>2020-02-10T08:12:20Z</time>
      </trkpt>
      <trkpt lat="59.27846" lon="18.091737">
        <ele>33</ele>
        <time>2020-02-10T08:12:21Z</time>
      </trkpt>
      <trkpt lat="59.278414" lon="18.091731">
        <ele>33</ele>
        <time>2020-02-10T08:12:22Z</time>
      </trkpt>
      <trkpt lat="59.278368" lon="18.091721">
        <ele>33</ele>
        <time>2020-02-10T08:12:23Z</time>
      </trkpt>
      <trkpt lat="59.278321" lon="18.091718">
        <ele>33</ele>
        <time>2020-02-10T08:12:24Z</time>
      </trkpt>
      <trkpt lat="59.278275" lon="18.091733">
        <ele>33</ele>
        <time>2020-02-10T08:12:25Z</time>
      </trkpt>
      <trkpt lat="59.278229" lon="18.091764">
        <ele>32</ele>
        <time>2020-02-10T08:12:26Z</time>
      </trkpt>
      <trkpt lat="59.278184" lon="18.091802">
        <ele>32</ele>
        <time>2020-02-10T08:12:27Z</time>
      </trkpt>
      <trkpt lat="59.27814" lon="18.091822">
        <ele>32</ele>
        <time>2020-02-10T08:12:28Z</time>
      </trkpt>
      <trkpt lat="59.278096" lon="18.091826">
        <ele>0</ele>
        <time>2020-02-10T08:12:28Z</time>
      </trkpt>
      <trkpt lat="59.27805" lon="18.091827">
        <ele>32</ele>
        <time>2020-02-10T08:12:29Z</time>
      </trkpt>
      <trkpt lat="59.278006" lon="18.091831">
        <ele>33</ele>
        <time>2020-02-10T08:12:31Z</time>
      </trkpt>
      <trkpt lat="59.277961" lon="18.091833">
        <ele>32</ele>
        <time>2020-02-10T08:12:32Z</time>
      </trkpt>
      <trkpt lat="59.277918" lon="18.091833">
        <ele>32</ele>
        <time>2020-02-10T08:12:33Z</time>
      </trkpt>
      <trkpt lat="59.277873" lon="18.091833">
        <ele>32</ele>
        <time>2020-02-10T08:12:34Z</time>
      </trkpt>
      <trkpt lat="59.277829" lon="18.091834">
        <ele>32</ele>
        <time>2020-02-10T08:12:35Z</time>
      </trkpt>
      <trkpt lat="59.277784" lon="18.091835">
        <ele>32</ele>
        <time>2020-02-10T08:12:36Z</time>
      </trkpt>
      <trkpt lat="59.27774" lon="18.091841">
        <ele>32</ele>
        <time>2020-02-10T08:12:37Z</time>
      </trkpt>
      <trkpt lat="59.277696" lon="18.09185">
        <ele>32</ele>
        <time>2020-02-10T08:12:38Z</time>
      </trkpt>
      <trkpt lat="59.277652" lon="18.091859">
        <ele>32</ele>
        <time>2020-02-10T08:12:39Z</time>
      </trkpt>
      <trkpt lat="59.277609" lon="18.091869">
        <ele>32</ele>
        <time>2020-02-10T08:12:40Z</time>
      </trkpt>
      <trkpt lat="59.277565" lon="18.09188">
        <ele>32</ele>
        <time>2020-02-10T08:12:41Z</time>
      </trkpt>
      <trkpt lat="59.27752" lon="18.091889">
        <ele>32</ele>
        <time>2020-02-10T08:12:42Z</time>
      </trkpt>
      <trkpt lat="59.277475" lon="18.0919">
        <ele>32</ele>
        <time>2020-02-10T08:12:43Z</time>
      </trkpt>
      <trkpt lat="59.27743" lon="18.091913">
        <ele>33</ele>
        <time>2020-02-10T08:12:44Z</time>
      </trkpt>
      <trkpt lat="59.277386" lon="18.091925">
        <ele>33</ele>
        <time>2020-02-10T08:12:45Z</time>
      </trkpt>
      <trkpt lat="59.277342" lon="18.091935">
        <ele>33</ele>
        <time>2020-02-10T08:12:46Z</time>
      </trkpt>
      <trkpt lat="59.277298" lon="18.091944">
        <ele>33</ele>
        <time>2020-02-10T08:12:47Z</time>
      </trkpt>
      <trkpt lat="59.277254" lon="18.091955">
        <ele>33</ele>
        <time>2020-02-10T08:12:48Z</time>
      </trkpt>
      <trkpt lat="59.27721" lon="18.091967">
        <ele>33</ele>
        <time>2020-02-10T08:12:49Z</time>
      </trkpt>
      <trkpt lat="59.277167" lon="18.091978">
        <ele>33</ele>
        <time>2020-02-10T08:12:50Z</time>
      </trkpt>
      <trkpt lat="59.277123" lon="18.091991">
        <ele>33</ele>
        <time>2020-02-10T08:12:51Z</time>
      </trkpt>
      <trkpt lat="59.277078" lon="18.092003">
        <ele>33</ele>
        <time>2020-02-10T08:12:52Z</time>
      </trkpt>
      <trkpt lat="59.277033" lon="18.092014">
        <ele>33</ele>
        <time>2020-02-10T08:12:53Z</time>
      </trkpt>
      <trkpt lat="59.276988" lon="18.092027">
        <ele>33</ele>
        <time>2020-02-10T08:12:54Z</time>
      </trkpt>
      <trkpt lat="59.276943" lon="18.09204">
        <ele>33</ele>
        <time>2020-02-10T08:12:55Z</time>
      </trkpt>
      <trkpt lat="59.276898" lon="18.092053">
        <ele>33</ele>
        <time>2020-02-10T08:12:56Z</time>
      </trkpt>
      <trkpt lat="59.276854" lon="18.09207">
        <ele>33</ele>
        <time>2020-02-10T08:12:57Z</time>
      </trkpt>
      <trkpt lat="59.27681" lon="18.09209">
        <ele>33</ele>
        <time>2020-02-10T08:12:58Z</time>
      </trkpt>
      <trkpt lat="59.276765" lon="18.092108">
        <ele>33</ele>
        <time>2020-02-10T08:12:59Z</time>
      </trkpt>
      <trkpt lat="59.27672" lon="18.092126">
        <ele>33</ele>
        <time>2020-02-10T08:13:00Z</time>
      </trkpt>
      <trkpt lat="59.276675" lon="18.092145">
        <ele>33</ele>
        <time>2020-02-10T08:13:01Z</time>
      </trkpt>
      <trkpt lat="59.276629" lon="18.092168">
        <ele>34</ele>
        <time>2020-02-10T08:13:02Z</time>
      </trkpt>
      <trkpt lat="59.276583" lon="18.092192">
        <ele>34</ele>
        <time>2020-02-10T08:13:03Z</time>
      </trkpt>
      <trkpt lat="59.276537" lon="18.092218">
        <ele>34</ele>
        <time>2020-02-10T08:13:04Z</time>
      </trkpt>
      <trkpt lat="59.276492" lon="18.092242">
        <ele>34</ele>
        <time>2020-02-10T08:13:05Z</time>
      </trkpt>
      <trkpt lat="59.276445" lon="18.092266">
        <ele>34</ele>
        <time>2020-02-10T08:13:06Z</time>
      </trkpt>
      <trkpt lat="59.276398" lon="18.092286">
        <ele>34</ele>
        <time>2020-02-10T08:13:07Z</time>
      </trkpt>
      <trkpt lat="59.27635" lon="18.092306">
        <ele>34</ele>
        <time>2020-02-10T08:13:08Z</time>
      </trkpt>
      <trkpt lat="59.276303" lon="18.092326">
        <ele>34</ele>
        <time>2020-02-10T08:13:09Z</time>
      </trkpt>
      <trkpt lat="59.276256" lon="18.092344">
        <ele>34</ele>
        <time>2020-02-10T08:13:10Z</time>
      </trkpt>
      <trkpt lat="59.276209" lon="18.092364">
        <ele>34</ele>
        <time>2020-02-10T08:13:11Z</time>
      </trkpt>
      <trkpt lat="59.276163" lon="18.092384">
        <ele>34</ele>
        <time>2020-02-10T08:13:12Z</time>
      </trkpt>
      <trkpt lat="59.276117" lon="18.0924">
        <ele>34</ele>
        <time>2020-02-10T08:13:13Z</time>
      </trkpt>
      <trkpt lat="59.27607" lon="18.092412">
        <ele>34</ele>
        <time>2020-02-10T08:13:14Z</time>
      </trkpt>
      <trkpt lat="59.276024" lon="18.092416">
        <ele>34</ele>
        <time>2020-02-10T08:13:15Z</time>
      </trkpt>
      <trkpt lat="59.275977" lon="18.092414">
        <ele>34</ele>
        <time>2020-02-10T08:13:16Z</time>
      </trkpt>
      <trkpt lat="59.275932" lon="18.092418">
        <ele>34</ele>
        <time>2020-02-10T08:13:17Z</time>
      </trkpt>
      <trkpt lat="59.275887" lon="18.092426">
        <ele>35</ele>
        <time>2020-02-10T08:13:18Z</time>
      </trkpt>
      <trkpt lat="59.275843" lon="18.09244">
        <ele>35</ele>
        <time>2020-02-10T08:13:19Z</time>
      </trkpt>
      <trkpt lat="59.2758" lon="18.092456">
        <ele>35</ele>
        <time>2020-02-10T08:13:20Z</time>
      </trkpt>
      <trkpt lat="59.275755" lon="18.09247">
        <ele>35</ele>
        <time>2020-02-10T08:13:21Z</time>
      </trkpt>
      <trkpt lat="59.27571" lon="18.092486">
        <ele>35</ele>
        <time>2020-02-10T08:13:22Z</time>
      </trkpt>
      <trkpt lat="59.275665" lon="18.092504">
        <ele>35</ele>
        <time>2020-02-10T08:13:23Z</time>
      </trkpt>
      <trkpt lat="59.275619" lon="18.092514">
        <ele>35</ele>
        <time>2020-02-10T08:13:24Z</time>
      </trkpt>
      <trkpt lat="59.275572" lon="18.092526">
        <ele>35</ele>
        <time>2020-02-10T08:13:25Z</time>
      </trkpt>
      <trkpt lat="59.275526" lon="18.092536">
        <ele>35</ele>
        <time>2020-02-10T08:13:26Z</time>
      </trkpt>
      <trkpt lat="59.27548" lon="18.09254">
        <ele>35</ele>
        <time>2020-02-10T08:13:27Z</time>
      </trkpt>
      <trkpt lat="59.275435" lon="18.09254">
        <ele>35</ele>
        <time>2020-02-10T08:13:28Z</time>
      </trkpt>
      <trkpt lat="59.275389" lon="18.09254">
        <ele>35</ele>
        <time>2020-02-10T08:13:29Z</time>
      </trkpt>
      <trkpt lat="59.275343" lon="18.092546">
        <ele>35</ele>
        <time>2020-02-10T08:13:30Z</time>
      </trkpt>
      <trkpt lat="59.275297" lon="18.09255">
        <ele>35</ele>
        <time>2020-02-10T08:13:31Z</time>
      </trkpt>
      <trkpt lat="59.275251" lon="18.092554">
        <ele>35</ele>
        <time>2020-02-10T08:13:32Z</time>
      </trkpt>
      <trkpt lat="59.275205" lon="18.09256">
        <ele>35</ele>
        <time>2020-02-10T08:13:33Z</time>
      </trkpt>
      <trkpt lat="59.27516" lon="18.092566">
        <ele>35</ele>
        <time>2020-02-10T08:13:34Z</time>
      </trkpt>
      <trkpt lat="59.275116" lon="18.09257">
        <ele>0</ele>
        <time>2020-02-10T08:13:34Z</time>
      </trkpt>
      <trkpt lat="59.275071" lon="18.092572">
        <ele>34</ele>
        <time>2020-02-10T08:13:35Z</time>
      </trkpt>
      <trkpt lat="59.275026" lon="18.09257">
        <ele>34</ele>
        <time>2020-02-10T08:13:37Z</time>
      </trkpt>
      <trkpt lat="59.274983" lon="18.092566">
        <ele>34</ele>
        <time>2020-02-10T08:13:38Z</time>
      </trkpt>
      <trkpt lat="59.27494" lon="18.092558">
        <ele>34</ele>
        <time>2020-02-10T08:13:39Z</time>
      </trkpt>
      <trkpt lat="59.274899" lon="18.092542">
        <ele>34</ele>
        <time>2020-02-10T08:13:40Z</time>
      </trkpt>
      <trkpt lat="59.27486" lon="18.092518">
        <ele>35</ele>
        <time>2020-02-10T08:13:41Z</time>
      </trkpt>
      <trkpt lat="59.274822" lon="18.092482">
        <ele>35</ele>
        <time>2020-02-10T08:13:42Z</time>
      </trkpt>
      <trkpt lat="59.274786" lon="18.092436">
        <ele>35</ele>
        <time>2020-02-10T08:13:43Z</time>
      </trkpt>
      <trkpt lat="59.274752" lon="18.092384">
        <ele>35</ele>
        <time>2020-02-10T08:13:44Z</time>
      </trkpt>
      <trkpt lat="59.274717" lon="18.092328">
        <ele>35</ele>
        <time>2020-02-10T08:13:45Z</time>
      </trkpt>
      <trkpt lat="59.274681" lon="18.092272">
        <ele>35</ele>
        <time>2020-02-10T08:13:46Z</time>
      </trkpt>
      <trkpt lat="59.274645" lon="18.092218">
        <ele>35</ele>
        <time>2020-02-10T08:13:47Z</time>
      </trkpt>
      <trkpt lat="59.274609" lon="18.092164">
        <ele>35</ele>
        <time>2020-02-10T08:13:48Z</time>
      </trkpt>
      <trkpt lat="59.274571" lon="18.092114">
        <ele>35</ele>
        <time>2020-02-10T08:13:49Z</time>
      </trkpt>
      <trkpt lat="59.274533" lon="18.092066">
        <ele>35</ele>
        <time>2020-02-10T08:13:50Z</time>
      </trkpt>
      <trkpt lat="59.274495" lon="18.092028">
        <ele>35</ele>
        <time>2020-02-10T08:13:51Z</time>
      </trkpt>
      <trkpt lat="59.274457" lon="18.091994">
        <ele>35</ele>
        <time>2020-02-10T08:13:52Z</time>
      </trkpt>
      <trkpt lat="59.27442" lon="18.091966">
        <ele>35</ele>
        <time>2020-02-10T08:13:53Z</time>
      </trkpt>
      <trkpt lat="59.274381" lon="18.091948">
        <ele>35</ele>
        <time>2020-02-10T08:13:54Z</time>
      </trkpt>
      <trkpt lat="59.274346" lon="18.091936">
        <ele>35</ele>
        <time>2020-02-10T08:13:55Z</time>
      </trkpt>
      <trkpt lat="59.274304" lon="18.091918">
        <ele>35</ele>
        <time>2020-02-10T08:13:56Z</time>
      </trkpt>
      <trkpt lat="59.274258" lon="18.091892">
        <ele>35</ele>
        <time>2020-02-10T08:13:57Z</time>
      </trkpt>
      <trkpt lat="59.274213" lon="18.091856">
        <ele>36</ele>
        <time>2020-02-10T08:13:58Z</time>
      </trkpt>
      <trkpt lat="59.274174" lon="18.091804">
        <ele>36</ele>
        <time>2020-02-10T08:13:59Z</time>
      </trkpt>
      <trkpt lat="59.274143" lon="18.091744">
        <ele>36</ele>
        <time>2020-02-10T08:14:00Z</time>
      </trkpt>
      <trkpt lat="59.274113" lon="18.091678">
        <ele>36</ele>
        <time>2020-02-10T08:14:01Z</time>
      </trkpt>
      <trkpt lat="59.274086" lon="18.091611">
        <ele>36</ele>
        <time>2020-02-10T08:14:02Z</time>
      </trkpt>
      <trkpt lat="59.274056" lon="18.091548">
        <ele>36</ele>
        <time>2020-02-10T08:14:03Z</time>
      </trkpt>
      <trkpt lat="59.274028" lon="18.091483">
        <ele>36</ele>
        <time>2020-02-10T08:14:04Z</time>
      </trkpt>
      <trkpt lat="59.274" lon="18.091416">
        <ele>36</ele>
        <time>2020-02-10T08:14:05Z</time>
      </trkpt>
      <trkpt lat="59.273973" lon="18.091349">
        <ele>36</ele>
        <time>2020-02-10T08:14:06Z</time>
      </trkpt>
      <trkpt lat="59.273944" lon="18.091284">
        <ele>36</ele>
        <time>2020-02-10T08:14:07Z</time>
      </trkpt>
      <trkpt lat="59.273916" lon="18.09122">
        <ele>36</ele>
        <time>2020-02-10T08:14:08Z</time>
      </trkpt>
      <trkpt lat="59.27389" lon="18.091155">
        <ele>37</ele>
        <time>2020-02-10T08:14:09Z</time>
      </trkpt>
      <trkpt lat="59.273864" lon="18.091089">
        <ele>37</ele>
        <time>2020-02-10T08:14:10Z</time>
      </trkpt>
      <trkpt lat="59.27384" lon="18.091024">
        <ele>37</ele>
        <time>2020-02-10T08:14:11Z</time>
      </trkpt>
      <trkpt lat="59.273816" lon="18.090961">
        <ele>37</ele>
        <time>2020-02-10T08:14:12Z</time>
      </trkpt>
      <trkpt lat="59.273786" lon="18.090906">
        <ele>37</ele>
        <time>2020-02-10T08:14:13Z</time>
      </trkpt>
      <trkpt lat="59.273749" lon="18.090869">
        <ele>37</ele>
        <time>2020-02-10T08:14:14Z</time>
      </trkpt>
      <trkpt lat="59.273709" lon="18.090859">
        <ele>38</ele>
        <time>2020-02-10T08:14:15Z</time>
      </trkpt>
      <trkpt lat="59.273669" lon="18.090868">
        <ele>38</ele>
        <time>2020-02-10T08:14:16Z</time>
      </trkpt>
      <trkpt lat="59.27363" lon="18.090886">
        <ele>38</ele>
        <time>2020-02-10T08:14:17Z</time>
      </trkpt>
      <trkpt lat="59.273591" lon="18.090906">
        <ele>38</ele>
        <time>2020-02-10T08:14:18Z</time>
      </trkpt>
      <trkpt lat="59.273553" lon="18.090926">
        <ele>38</ele>
        <time>2020-02-10T08:14:19Z</time>
      </trkpt>
      <trkpt lat="59.273514" lon="18.090947">
        <ele>38</ele>
        <time>2020-02-10T08:14:20Z</time>
      </trkpt>
      <trkpt lat="59.273474" lon="18.090969">
        <ele>38</ele>
        <time>2020-02-10T08:14:21Z</time>
      </trkpt>
      <trkpt lat="59.273434" lon="18.090991">
        <ele>39</ele>
        <time>2020-02-10T08:14:22Z</time>
      </trkpt>
      <trkpt lat="59.273393" lon="18.091011">
        <ele>39</ele>
        <time>2020-02-10T08:14:23Z</time>
      </trkpt>
      <trkpt lat="59.273354" lon="18.091035">
        <ele>39</ele>
        <time>2020-02-10T08:14:24Z</time>
      </trkpt>
      <trkpt lat="59.273321" lon="18.091063">
        <ele>39</ele>
        <time>2020-02-10T08:14:25Z</time>
      </trkpt>
      <trkpt lat="59.273285" lon="18.091097">
        <ele>39</ele>
        <time>2020-02-10T08:14:26Z</time>
      </trkpt>
      <trkpt lat="59.273251" lon="18.091128">
        <ele>39</ele>
        <time>2020-02-10T08:14:27Z</time>
      </trkpt>
      <trkpt lat="59.273219" lon="18.09116">
        <ele>39</ele>
        <time>2020-02-10T08:14:28Z</time>
      </trkpt>
      <trkpt lat="59.273185" lon="18.091196">
        <ele>39</ele>
        <time>2020-02-10T08:14:29Z</time>
      </trkpt>
      <trkpt lat="59.273147" lon="18.091221">
        <ele>40</ele>
        <time>2020-02-10T08:14:30Z</time>
      </trkpt>
      <trkpt lat="59.273098" lon="18.091247">
        <ele>40</ele>
        <time>2020-02-10T08:14:31Z</time>
      </trkpt>
      <trkpt lat="59.273048" lon="18.09127">
        <ele>40</ele>
        <time>2020-02-10T08:14:32Z</time>
      </trkpt>
      <trkpt lat="59.273002" lon="18.091292">
        <ele>40</ele>
        <time>2020-02-10T08:14:33Z</time>
      </trkpt>
      <trkpt lat="59.272958" lon="18.091313">
        <ele>40</ele>
        <time>2020-02-10T08:14:34Z</time>
      </trkpt>
      <trkpt lat="59.272916" lon="18.091345">
        <ele>40</ele>
        <time>2020-02-10T08:14:35Z</time>
      </trkpt>
      <trkpt lat="59.272871" lon="18.091387">
        <ele>40</ele>
        <time>2020-02-10T08:14:36Z</time>
      </trkpt>
      <trkpt lat="59.272822" lon="18.091438">
        <ele>40</ele>
        <time>2020-02-10T08:14:37Z</time>
      </trkpt>
      <trkpt lat="59.272781" lon="18.091505">
        <ele>40</ele>
        <time>2020-02-10T08:14:38Z</time>
      </trkpt>
      <trkpt lat="59.272749" lon="18.091583">
        <ele>40</ele>
        <time>2020-02-10T08:14:39Z</time>
      </trkpt>
      <trkpt lat="59.272727" lon="18.091669">
        <ele>41</ele>
        <time>2020-02-10T08:14:40Z</time>
      </trkpt>
      <trkpt lat="59.272712" lon="18.091759">
        <ele>41</ele>
        <time>2020-02-10T08:14:41Z</time>
      </trkpt>
      <trkpt lat="59.272705" lon="18.091845">
        <ele>41</ele>
        <time>2020-02-10T08:14:42Z</time>
      </trkpt>
      <trkpt lat="59.272694" lon="18.091944">
        <ele>41</ele>
        <time>2020-02-10T08:14:43Z</time>
      </trkpt>
      <trkpt lat="59.272683" lon="18.092046">
        <ele>41</ele>
        <time>2020-02-10T08:14:44Z</time>
      </trkpt>
      <trkpt lat="59.272672" lon="18.092149">
        <ele>41</ele>
        <time>2020-02-10T08:14:45Z</time>
      </trkpt>
      <trkpt lat="59.272663" lon="18.092254">
        <ele>41</ele>
        <time>2020-02-10T08:14:46Z</time>
      </trkpt>
      <trkpt lat="59.272652" lon="18.092359">
        <ele>41</ele>
        <time>2020-02-10T08:14:47Z</time>
      </trkpt>
      <trkpt lat="59.27264" lon="18.092464">
        <ele>41</ele>
        <time>2020-02-10T08:14:48Z</time>
      </trkpt>
      <trkpt lat="59.272627" lon="18.092571">
        <ele>41</ele>
        <time>2020-02-10T08:14:49Z</time>
      </trkpt>
      <trkpt lat="59.272613" lon="18.092679">
        <ele>41</ele>
        <time>2020-02-10T08:14:50Z</time>
      </trkpt>
      <trkpt lat="59.272595" lon="18.092787">
        <ele>41</ele>
        <time>2020-02-10T08:14:51Z</time>
      </trkpt>
      <trkpt lat="59.272575" lon="18.092895">
        <ele>41</ele>
        <time>2020-02-10T08:14:52Z</time>
      </trkpt>
      <trkpt lat="59.272556" lon="18.093004">
        <ele>41</ele>
        <time>2020-02-10T08:14:53Z</time>
      </trkpt>
      <trkpt lat="59.272539" lon="18.093109">
        <ele>41</ele>
        <time>2020-02-10T08:14:54Z</time>
      </trkpt>
      <trkpt lat="59.272524" lon="18.093206">
        <ele>41</ele>
        <time>2020-02-10T08:14:55Z</time>
      </trkpt>
      <trkpt lat="59.272512" lon="18.093305">
        <ele>41</ele>
        <time>2020-02-10T08:14:56Z</time>
      </trkpt>
      <trkpt lat="59.272492" lon="18.093388">
        <ele>41</ele>
        <time>2020-02-10T08:14:57Z</time>
      </trkpt>
      <trkpt lat="59.272453" lon="18.09345">
        <ele>41</ele>
        <time>2020-02-10T08:14:58Z</time>
      </trkpt>
      <trkpt lat="59.272403" lon="18.093482">
        <ele>41</ele>
        <time>2020-02-10T08:14:59Z</time>
      </trkpt>
      <trkpt lat="59.272347" lon="18.093498">
        <ele>41</ele>
        <time>2020-02-10T08:15:00Z</time>
      </trkpt>
      <trkpt lat="59.27229" lon="18.093514">
        <ele>0</ele>
        <time>2020-02-10T08:15:00Z</time>
      </trkpt>
      <trkpt lat="59.272233" lon="18.093525">
        <ele>41</ele>
        <time>2020-02-10T08:15:01Z</time>
      </trkpt>
      <trkpt lat="59.272179" lon="18.093538">
        <ele>41</ele>
        <time>2020-02-10T08:15:03Z</time>
      </trkpt>
      <trkpt lat="59.272126" lon="18.093556">
        <ele>41</ele>
        <time>2020-02-10T08:15:04Z</time>
      </trkpt>
      <trkpt lat="59.272074" lon="18.09358">
        <ele>41</ele>
        <time>2020-02-10T08:15:05Z</time>
      </trkpt>
      <trkpt lat="59.272019" lon="18.093605">
        <ele>41</ele>
        <time>2020-02-10T08:15:06Z</time>
      </trkpt>
      <trkpt lat="59.271964" lon="18.093632">
        <ele>41</ele>
        <time>2020-02-10T08:15:07Z</time>
      </trkpt>
      <trkpt lat="59.271908" lon="18.093659">
        <ele>41</ele>
        <time>2020-02-10T08:15:08Z</time>
      </trkpt>
      <trkpt lat="59.271849" lon="18.093685">
        <ele>41</ele>
        <time>2020-02-10T08:15:09Z</time>
      </trkpt>
      <trkpt lat="59.271788" lon="18.093716">
        <ele>41</ele>
        <time>2020-02-10T08:15:10Z</time>
      </trkpt>
      <trkpt lat="59.271727" lon="18.093748">
        <ele>41</ele>
        <time>2020-02-10T08:15:11Z</time>
      </trkpt>
      <trkpt lat="59.271666" lon="18.093782">
        <ele>41</ele>
        <time>2020-02-10T08:15:12Z</time>
      </trkpt>
      <trkpt lat="59.271604" lon="18.093815">
        <ele>40</ele>
        <time>2020-02-10T08:15:13Z</time>
      </trkpt>
      <trkpt lat="59.271541" lon="18.093841">
        <ele>40</ele>
        <time>2020-02-10T08:15:14Z</time>
      </trkpt>
      <trkpt lat="59.271479" lon="18.093866">
        <ele>41</ele>
        <time>2020-02-10T08:15:15Z</time>
      </trkpt>
      <trkpt lat="59.271418" lon="18.093893">
        <ele>40</ele>
        <time>2020-02-10T08:15:16Z</time>
      </trkpt>
      <trkpt lat="59.271356" lon="18.093919">
        <ele>40</ele>
        <time>2020-02-10T08:15:17Z</time>
      </trkpt>
      <trkpt lat="59.271293" lon="18.093938">
        <ele>40</ele>
        <time>2020-02-10T08:15:18Z</time>
      </trkpt>
      <trkpt lat="59.271232" lon="18.09396">
        <ele>40</ele>
        <time>2020-02-10T08:15:19Z</time>
      </trkpt>
      <trkpt lat="59.271172" lon="18.093984">
        <ele>40</ele>
        <time>2020-02-10T08:15:20Z</time>
      </trkpt>
      <trkpt lat="59.271114" lon="18.094011">
        <ele>40</ele>
        <time>2020-02-10T08:15:21Z</time>
      </trkpt>
      <trkpt lat="59.271059" lon="18.094039">
        <ele>40</ele>
        <time>2020-02-10T08:15:22Z</time>
      </trkpt>
      <trkpt lat="59.271006" lon="18.094069">
        <ele>40</ele>
        <time>2020-02-10T08:15:23Z</time>
      </trkpt>
      <trkpt lat="59.270944" lon="18.094102">
        <ele>40</ele>
        <time>2020-02-10T08:15:24Z</time>
      </trkpt>
      <trkpt lat="59.270878" lon="18.094131">
        <ele>40</ele>
        <time>2020-02-10T08:15:25Z</time>
      </trkpt>
      <trkpt lat="59.270813" lon="18.094168">
        <ele>0</ele>
        <time>2020-02-10T08:15:25Z</time>
      </trkpt>
      <trkpt lat="59.270749" lon="18.094206">
        <ele>40</ele>
        <time>2020-02-10T08:15:26Z</time>
      </trkpt>
      <trkpt lat="59.270682" lon="18.09424">
        <ele>39</ele>
        <time>2020-02-10T08:15:28Z</time>
      </trkpt>
      <trkpt lat="59.270612" lon="18.094267">
        <ele>39</ele>
        <time>2020-02-10T08:15:29Z</time>
      </trkpt>
      <trkpt lat="59.270546" lon="18.094291">
        <ele>39</ele>
        <time>2020-02-10T08:15:30Z</time>
      </trkpt>
      <trkpt lat="59.270481" lon="18.094321">
        <ele>39</ele>
        <time>2020-02-10T08:15:31Z</time>
      </trkpt>
      <trkpt lat="59.270415" lon="18.094347">
        <ele>39</ele>
        <time>2020-02-10T08:15:32Z</time>
      </trkpt>
      <trkpt lat="59.270347" lon="18.094367">
        <ele>0</ele>
        <time>2020-02-10T08:15:32Z</time>
      </trkpt>
      <trkpt lat="59.270277" lon="18.094382">
        <ele>38</ele>
        <time>2020-02-10T08:15:33Z</time>
      </trkpt>
      <trkpt lat="59.27021" lon="18.0944">
        <ele>38</ele>
        <time>2020-02-10T08:15:35Z</time>
      </trkpt>
      <trkpt lat="59.270146" lon="18.094423">
        <ele>38</ele>
        <time>2020-02-10T08:15:36Z</time>
      </trkpt>
      <trkpt lat="59.270084" lon="18.094448">
        <ele>38</ele>
        <time>2020-02-10T08:15:37Z</time>
      </trkpt>
      <trkpt lat="59.270023" lon="18.094476">
        <ele>38</ele>
        <time>2020-02-10T08:15:38Z</time>
      </trkpt>
      <trkpt lat="59.269965" lon="18.094507">
        <ele>38</ele>
        <time>2020-02-10T08:15:39Z</time>
      </trkpt>
      <trkpt lat="59.269909" lon="18.094544">
        <ele>38</ele>
        <time>2020-02-10T08:15:40Z</time>
      </trkpt>
      <trkpt lat="59.269855" lon="18.094584">
        <ele>0</ele>
        <time>2020-02-10T08:15:40Z</time>
      </trkpt>
      <trkpt lat="59.269806" lon="18.094627">
        <ele>38</ele>
        <time>2020-02-10T08:15:41Z</time>
      </trkpt>
      <trkpt lat="59.269752" lon="18.094669">
        <ele>39</ele>
        <time>2020-02-10T08:15:43Z</time>
      </trkpt>
      <trkpt lat="59.269697" lon="18.094709">
        <ele>39</ele>
        <time>2020-02-10T08:15:44Z</time>
      </trkpt>
      <trkpt lat="59.26964" lon="18.094747">
        <ele>39</ele>
        <time>2020-02-10T08:15:45Z</time>
      </trkpt>
      <trkpt lat="59.269583" lon="18.094782">
        <ele>39</ele>
        <time>2020-02-10T08:15:46Z</time>
      </trkpt>
      <trkpt lat="59.269527" lon="18.094812">
        <ele>39</ele>
        <time>2020-02-10T08:15:47Z</time>
      </trkpt>
      <trkpt lat="59.269473" lon="18.094832">
        <ele>39</ele>
        <time>2020-02-10T08:15:48Z</time>
      </trkpt>
      <trkpt lat="59.269416" lon="18.09486">
        <ele>39</ele>
        <time>2020-02-10T08:15:49Z</time>
      </trkpt>
      <trkpt lat="59.269361" lon="18.094885">
        <ele>0</ele>
        <time>2020-02-10T08:15:49Z</time>
      </trkpt>
      <trkpt lat="59.269306" lon="18.094912">
        <ele>38</ele>
        <time>2020-02-10T08:15:50Z</time>
      </trkpt>
      <trkpt lat="59.269251" lon="18.094938">
        <ele>38</ele>
        <time>2020-02-10T08:15:52Z</time>
      </trkpt>
      <trkpt lat="59.2692" lon="18.094968">
        <ele>38</ele>
        <time>2020-02-10T08:15:53Z</time>
      </trkpt>
      <trkpt lat="59.26915" lon="18.094992">
        <ele>38</ele>
        <time>2020-02-10T08:15:54Z</time>
      </trkpt>
      <trkpt lat="59.269094" lon="18.095022">
        <ele>38</ele>
        <time>2020-02-10T08:15:55Z</time>
      </trkpt>
      <trkpt lat="59.269042" lon="18.095043">
        <ele>38</ele>
        <time>2020-02-10T08:15:56Z</time>
      </trkpt>
      <trkpt lat="59.268988" lon="18.095072">
        <ele>38</ele>
        <time>2020-02-10T08:15:57Z</time>
      </trkpt>
      <trkpt lat="59.268934" lon="18.095102">
        <ele>38</ele>
        <time>2020-02-10T08:15:58Z</time>
      </trkpt>
      <trkpt lat="59.268874" lon="18.095138">
        <ele>38</ele>
        <time>2020-02-10T08:15:59Z</time>
      </trkpt>
      <trkpt lat="59.268816" lon="18.095171">
        <ele>38</ele>
        <time>2020-02-10T08:16:00Z</time>
      </trkpt>
      <trkpt lat="59.268761" lon="18.0952">
        <ele>38</ele>
        <time>2020-02-10T08:16:01Z</time>
      </trkpt>
      <trkpt lat="59.268706" lon="18.095227">
        <ele>39</ele>
        <time>2020-02-10T08:16:02Z</time>
      </trkpt>
      <trkpt lat="59.268649" lon="18.095258">
        <ele>39</ele>
        <time>2020-02-10T08:16:03Z</time>
      </trkpt>
      <trkpt lat="59.268602" lon="18.095295">
        <ele>39</ele>
        <time>2020-02-10T08:16:04Z</time>
      </trkpt>
      <trkpt lat="59.26855" lon="18.095329">
        <ele>39</ele>
        <time>2020-02-10T08:16:05Z</time>
      </trkpt>
      <trkpt lat="59.268496" lon="18.095365">
        <ele>39</ele>
        <time>2020-02-10T08:16:06Z</time>
      </trkpt>
      <trkpt lat="59.268436" lon="18.095401">
        <ele>0</ele>
        <time>2020-02-10T08:16:06Z</time>
      </trkpt>
      <trkpt lat="59.268374" lon="18.095435">
        <ele>39</ele>
        <time>2020-02-10T08:16:07Z</time>
      </trkpt>
      <trkpt lat="59.268316" lon="18.095477">
        <ele>39</ele>
        <time>2020-02-10T08:16:09Z</time>
      </trkpt>
      <trkpt lat="59.268262" lon="18.095519">
        <ele>39</ele>
        <time>2020-02-10T08:16:10Z</time>
      </trkpt>
      <trkpt lat="59.268204" lon="18.095558">
        <ele>39</ele>
        <time>2020-02-10T08:16:11Z</time>
      </trkpt>
      <trkpt lat="59.268148" lon="18.095596">
        <ele>39</ele>
        <time>2020-02-10T08:16:12Z</time>
      </trkpt>
      <trkpt lat="59.268088" lon="18.095635">
        <ele>39</ele>
        <time>2020-02-10T08:16:13Z</time>
      </trkpt>
      <trkpt lat="59.268033" lon="18.095676">
        <ele>39</ele>
        <time>2020-02-10T08:16:14Z</time>
      </trkpt>
      <trkpt lat="59.26798" lon="18.095713">
        <ele>39</ele>
        <time>2020-02-10T08:16:15Z</time>
      </trkpt>
      <trkpt lat="59.267918" lon="18.095742">
        <ele>39</ele>
        <time>2020-02-10T08:16:16Z</time>
      </trkpt>
      <trkpt lat="59.26786" lon="18.095767">
        <ele>38</ele>
        <time>2020-02-10T08:16:17Z</time>
      </trkpt>
      <trkpt lat="59.267808" lon="18.095787">
        <ele>39</ele>
        <time>2020-02-10T08:16:18Z</time>
      </trkpt>
      <trkpt lat="59.267748" lon="18.095801">
        <ele>38</ele>
        <time>2020-02-10T08:16:19Z</time>
      </trkpt>
      <trkpt lat="59.267687" lon="18.095815">
        <ele>38</ele>
        <time>2020-02-10T08:16:20Z</time>
      </trkpt>
      <trkpt lat="59.267629" lon="18.095828">
        <ele>39</ele>
        <time>2020-02-10T08:16:21Z</time>
      </trkpt>
      <trkpt lat="59.267574" lon="18.095845">
        <ele>39</ele>
        <time>2020-02-10T08:16:22Z</time>
      </trkpt>
      <trkpt lat="59.267516" lon="18.095863">
        <ele>38</ele>
        <time>2020-02-10T08:16:23Z</time>
      </trkpt>
      <trkpt lat="59.267458" lon="18.095878">
        <ele>0</ele>
        <time>2020-02-10T08:16:23Z</time>
      </trkpt>
      <trkpt lat="59.267402" lon="18.095892">
        <ele>38</ele>
        <time>2020-02-10T08:16:24Z</time>
      </trkpt>
      <trkpt lat="59.26735" lon="18.095911">
        <ele>39</ele>
        <time>2020-02-10T08:16:26Z</time>
      </trkpt>
      <trkpt lat="59.267296" lon="18.09593">
        <ele>39</ele>
        <time>2020-02-10T08:16:27Z</time>
      </trkpt>
      <trkpt lat="59.267248" lon="18.09595">
        <ele>39</ele>
        <time>2020-02-10T08:16:28Z</time>
      </trkpt>
      <trkpt lat="59.267202" lon="18.095967">
        <ele>39</ele>
        <time>2020-02-10T08:16:29Z</time>
      </trkpt>
      <trkpt lat="59.267149" lon="18.095982">
        <ele>39</ele>
        <time>2020-02-10T08:16:30Z</time>
      </trkpt>
      <trkpt lat="59.267096" lon="18.09599">
        <ele>38</ele>
        <time>2020-02-10T08:16:31Z</time>
      </trkpt>
      <trkpt lat="59.26703" lon="18.096002">
        <ele>38</ele>
        <time>2020-02-10T08:16:32Z</time>
      </trkpt>
      <trkpt lat="59.266974" lon="18.096019">
        <ele>38</ele>
        <time>2020-02-10T08:16:33Z</time>
      </trkpt>
      <trkpt lat="59.266918" lon="18.096049">
        <ele>0</ele>
        <time>2020-02-10T08:16:33Z</time>
      </trkpt>
      <trkpt lat="59.266864" lon="18.096093">
        <ele>38</ele>
        <time>2020-02-10T08:16:34Z</time>
      </trkpt>
      <trkpt lat="59.266811" lon="18.096146">
        <ele>38</ele>
        <time>2020-02-10T08:16:36Z</time>
      </trkpt>
      <trkpt lat="59.266762" lon="18.096204">
        <ele>38</ele>
        <time>2020-02-10T08:16:37Z</time>
      </trkpt>
      <trkpt lat="59.266714" lon="18.096267">
        <ele>38</ele>
        <time>2020-02-10T08:16:38Z</time>
      </trkpt>
      <trkpt lat="59.266668" lon="18.096335">
        <ele>38</ele>
        <time>2020-02-10T08:16:39Z</time>
      </trkpt>
      <trkpt lat="59.266623" lon="18.096399">
        <ele>39</ele>
        <time>2020-02-10T08:16:40Z</time>
      </trkpt>
      <trkpt lat="59.266576" lon="18.096464">
        <ele>39</ele>
        <time>2020-02-10T08:16:41Z</time>
      </trkpt>
      <trkpt lat="59.266528" lon="18.096527">
        <ele>0</ele>
        <time>2020-02-10T08:16:41Z</time>
      </trkpt>
      <trkpt lat="59.266482" lon="18.096591">
        <ele>39</ele>
        <time>2020-02-10T08:16:42Z</time>
      </trkpt>
      <trkpt lat="59.266434" lon="18.096658">
        <ele>39</ele>
        <time>2020-02-10T08:16:44Z</time>
      </trkpt>
      <trkpt lat="59.266386" lon="18.096724">
        <ele>38</ele>
        <time>2020-02-10T08:16:45Z</time>
      </trkpt>
      <trkpt lat="59.266339" lon="18.09679">
        <ele>38</ele>
        <time>2020-02-10T08:16:46Z</time>
      </trkpt>
      <trkpt lat="59.26629" lon="18.096849">
        <ele>39</ele>
        <time>2020-02-10T08:16:47Z</time>
      </trkpt>
      <trkpt lat="59.266236" lon="18.096896">
        <ele>39</ele>
        <time>2020-02-10T08:16:48Z</time>
      </trkpt>
      <trkpt lat="59.266182" lon="18.09693">
        <ele>39</ele>
        <time>2020-02-10T08:16:49Z</time>
      </trkpt>
      <trkpt lat="59.26613" lon="18.096963">
        <ele>39</ele>
        <time>2020-02-10T08:16:50Z</time>
      </trkpt>
      <trkpt lat="59.266076" lon="18.096997">
        <ele>0</ele>
        <time>2020-02-10T08:16:50Z</time>
      </trkpt>
      <trkpt lat="59.266024" lon="18.09703">
        <ele>39</ele>
        <time>2020-02-10T08:16:51Z</time>
      </trkpt>
      <trkpt lat="59.26597" lon="18.097063">
        <ele>39</ele>
        <time>2020-02-10T08:16:53Z</time>
      </trkpt>
      <trkpt lat="59.265918" lon="18.097094">
        <ele>39</ele>
        <time>2020-02-10T08:16:54Z</time>
      </trkpt>
      <trkpt lat="59.265866" lon="18.097121">
        <ele>39</ele>
        <time>2020-02-10T08:16:55Z</time>
      </trkpt>
      <trkpt lat="59.265814" lon="18.097149">
        <ele>39</ele>
        <time>2020-02-10T08:16:56Z</time>
      </trkpt>
      <trkpt lat="59.265758" lon="18.097176">
        <ele>39</ele>
        <time>2020-02-10T08:16:57Z</time>
      </trkpt>
      <trkpt lat="59.265701" lon="18.097202">
        <ele>38</ele>
        <time>2020-02-10T08:16:58Z</time>
      </trkpt>
      <trkpt lat="59.265642" lon="18.097226">
        <ele>0</ele>
        <time>2020-02-10T08:16:58Z</time>
      </trkpt>
      <trkpt lat="59.26558" lon="18.09725">
        <ele>38</ele>
        <time>2020-02-10T08:16:59Z</time>
      </trkpt>
      <trkpt lat="59.265514" lon="18.097275">
        <ele>38</ele>
        <time>2020-02-10T08:17:01Z</time>
      </trkpt>
      <trkpt lat="59.265444" lon="18.097302">
        <ele>38</ele>
        <time>2020-02-10T08:17:02Z</time>
      </trkpt>
      <trkpt lat="59.265374" lon="18.097324">
        <ele>38</ele>
        <time>2020-02-10T08:17:03Z</time>
      </trkpt>
      <trkpt lat="59.265304" lon="18.097338">
        <ele>38</ele>
        <time>2020-02-10T08:17:04Z</time>
      </trkpt>
      <trkpt lat="59.265237" lon="18.097356">
        <ele>38</ele>
        <time>2020-02-10T08:17:05Z</time>
      </trkpt>
      <trkpt lat="59.265174" lon="18.09738">
        <ele>38</ele>
        <time>2020-02-10T08:17:06Z</time>
      </trkpt>
      <trkpt lat="59.265116" lon="18.097408">
        <ele>0</ele>
        <time>2020-02-10T08:17:06Z</time>
      </trkpt>
      <trkpt lat="59.265059" lon="18.097435">
        <ele>39</ele>
        <time>2020-02-10T08:17:07Z</time>
      </trkpt>
      <trkpt lat="59.265006" lon="18.097456">
        <ele>39</ele>
        <time>2020-02-10T08:17:09Z</time>
      </trkpt>
      <trkpt lat="59.264956" lon="18.097477">
        <ele>38</ele>
        <time>2020-02-10T08:17:10Z</time>
      </trkpt>
      <trkpt lat="59.264908" lon="18.097495">
        <ele>39</ele>
        <time>2020-02-10T08:17:11Z</time>
      </trkpt>
      <trkpt lat="59.26486" lon="18.097523">
        <ele>39</ele>
        <time>2020-02-10T08:17:12Z</time>
      </trkpt>
      <trkpt lat="59.264822" lon="18.097541">
        <ele>39</ele>
        <time>2020-02-10T08:17:13Z</time>
      </trkpt>
      <trkpt lat="59.264782" lon="18.097556">
        <ele>39</ele>
        <time>2020-02-10T08:17:14Z</time>
      </trkpt>
      <trkpt lat="59.264746" lon="18.09757">
        <ele>39</ele>
        <time>2020-02-10T08:17:15Z</time>
      </trkpt>
      <trkpt lat="59.264712" lon="18.097585">
        <ele>39</ele>
        <time>2020-02-10T08:17:16Z</time>
      </trkpt>
      <trkpt lat="59.264667" lon="18.097598">
        <ele>39</ele>
        <time>2020-02-10T08:17:17Z</time>
      </trkpt>
      <trkpt lat="59.264624" lon="18.097616">
        <ele>0</ele>
        <time>2020-02-10T08:17:17Z</time>
      </trkpt>
      <trkpt lat="59.264582" lon="18.097637">
        <ele>39</ele>
        <time>2020-02-10T08:17:18Z</time>
      </trkpt>
      <trkpt lat="59.26454" lon="18.097655">
        <ele>39</ele>
        <time>2020-02-10T08:17:20Z</time>
      </trkpt>
      <trkpt lat="59.2645" lon="18.097673">
        <ele>39</ele>
        <time>2020-02-10T08:17:21Z</time>
      </trkpt>
      <trkpt lat="59.264457" lon="18.097692">
        <ele>39</ele>
        <time>2020-02-10T08:17:22Z</time>
      </trkpt>
      <trkpt lat="59.264416" lon="18.09771">
        <ele>39</ele>
        <time>2020-02-10T08:17:23Z</time>
      </trkpt>
      <trkpt lat="59.264372" lon="18.09773">
        <ele>39</ele>
        <time>2020-02-10T08:17:24Z</time>
      </trkpt>
      <trkpt lat="59.264328" lon="18.097746">
        <ele>39</ele>
        <time>2020-02-10T08:17:25Z</time>
      </trkpt>
      <trkpt lat="59.264283" lon="18.097763">
        <ele>39</ele>
        <time>2020-02-10T08:17:26Z</time>
      </trkpt>
      <trkpt lat="59.264235" lon="18.097781">
        <ele>39</ele>
        <time>2020-02-10T08:17:27Z</time>
      </trkpt>
      <trkpt lat="59.264188" lon="18.097796">
        <ele>39</ele>
        <time>2020-02-10T08:17:28Z</time>
      </trkpt>
      <trkpt lat="59.264141" lon="18.097813">
        <ele>38</ele>
        <time>2020-02-10T08:17:29Z</time>
      </trkpt>
      <trkpt lat="59.264094" lon="18.09783">
        <ele>38</ele>
        <time>2020-02-10T08:17:30Z</time>
      </trkpt>
      <trkpt lat="59.264046" lon="18.097845">
        <ele>38</ele>
        <time>2020-02-10T08:17:31Z</time>
      </trkpt>
      <trkpt lat="59.263997" lon="18.097861">
        <ele>38</ele>
        <time>2020-02-10T08:17:32Z</time>
      </trkpt>
      <trkpt lat="59.263944" lon="18.09788">
        <ele>38</ele>
        <time>2020-02-10T08:17:33Z</time>
      </trkpt>
      <trkpt lat="59.26389" lon="18.097897">
        <ele>38</ele>
        <time>2020-02-10T08:17:34Z</time>
      </trkpt>
      <trkpt lat="59.263832" lon="18.097916">
        <ele>38</ele>
        <time>2020-02-10T08:17:35Z</time>
      </trkpt>
      <trkpt lat="59.263772" lon="18.097937">
        <ele>38</ele>
        <time>2020-02-10T08:17:36Z</time>
      </trkpt>
      <trkpt lat="59.26371" lon="18.097961">
        <ele>38</ele>
        <time>2020-02-10T08:17:37Z</time>
      </trkpt>
      <trkpt lat="59.263646" lon="18.097985">
        <ele>0</ele>
        <time>2020-02-10T08:17:37Z</time>
      </trkpt>
      <trkpt lat="59.263584" lon="18.098004">
        <ele>38</ele>
        <time>2020-02-10T08:17:38Z</time>
      </trkpt>
      <trkpt lat="59.263522" lon="18.098026">
        <ele>38</ele>
        <time>2020-02-10T08:17:40Z</time>
      </trkpt>
      <trkpt lat="59.263454" lon="18.098054">
        <ele>38</ele>
        <time>2020-02-10T08:17:41Z</time>
      </trkpt>
      <trkpt lat="59.263386" lon="18.09808">
        <ele>38</ele>
        <time>2020-02-10T08:17:42Z</time>
      </trkpt>
      <trkpt lat="59.263322" lon="18.098103">
        <ele>38</ele>
        <time>2020-02-10T08:17:43Z</time>
      </trkpt>
      <trkpt lat="59.263258" lon="18.098124">
        <ele>38</ele>
        <time>2020-02-10T08:17:44Z</time>
      </trkpt>
      <trkpt lat="59.263192" lon="18.098136">
        <ele>0</ele>
        <time>2020-02-10T08:17:44Z</time>
      </trkpt>
      <trkpt lat="59.263124" lon="18.098138">
        <ele>38</ele>
        <time>2020-02-10T08:17:45Z</time>
      </trkpt>
      <trkpt lat="59.263056" lon="18.098138">
        <ele>38</ele>
        <time>2020-02-10T08:17:47Z</time>
      </trkpt>
      <trkpt lat="59.262992" lon="18.09814">
        <ele>38</ele>
        <time>2020-02-10T08:17:48Z</time>
      </trkpt>
      <trkpt lat="59.26293" lon="18.098141">
        <ele>38</ele>
        <time>2020-02-10T08:17:49Z</time>
      </trkpt>
      <trkpt lat="59.262868" lon="18.098143">
        <ele>37</ele>
        <time>2020-02-10T08:17:50Z</time>
      </trkpt>
      <trkpt lat="59.262804" lon="18.098143">
        <ele>37</ele>
        <time>2020-02-10T08:17:51Z</time>
      </trkpt>
      <trkpt lat="59.262743" lon="18.098141">
        <ele>36</ele>
        <time>2020-02-10T08:17:52Z</time>
      </trkpt>
      <trkpt lat="59.262683" lon="18.098136">
        <ele>36</ele>
        <time>2020-02-10T08:17:53Z</time>
      </trkpt>
      <trkpt lat="59.262624" lon="18.09813">
        <ele>0</ele>
        <time>2020-02-10T08:17:53Z</time>
      </trkpt>
      <trkpt lat="59.262564" lon="18.098124">
        <ele>36</ele>
        <time>2020-02-10T08:17:54Z</time>
      </trkpt>
      <trkpt lat="59.262508" lon="18.098118">
        <ele>35</ele>
        <time>2020-02-10T08:17:56Z</time>
      </trkpt>
      <trkpt lat="59.26245" lon="18.098108">
        <ele>35</ele>
        <time>2020-02-10T08:17:57Z</time>
      </trkpt>
      <trkpt lat="59.262394" lon="18.09809">
        <ele>35</ele>
        <time>2020-02-10T08:17:58Z</time>
      </trkpt>
      <trkpt lat="59.262338" lon="18.098062">
        <ele>35</ele>
        <time>2020-02-10T08:17:59Z</time>
      </trkpt>
      <trkpt lat="59.262287" lon="18.098023">
        <ele>34</ele>
        <time>2020-02-10T08:18:00Z</time>
      </trkpt>
      <trkpt lat="59.26224" lon="18.097974">
        <ele>34</ele>
        <time>2020-02-10T08:18:01Z</time>
      </trkpt>
      <trkpt lat="59.262194" lon="18.097917">
        <ele>34</ele>
        <time>2020-02-10T08:18:02Z</time>
      </trkpt>
      <trkpt lat="59.26215" lon="18.097856">
        <ele>34</ele>
        <time>2020-02-10T08:18:03Z</time>
      </trkpt>
      <trkpt lat="59.262107" lon="18.097794">
        <ele>34</ele>
        <time>2020-02-10T08:18:04Z</time>
      </trkpt>
      <trkpt lat="59.262063" lon="18.097729">
        <ele>34</ele>
        <time>2020-02-10T08:18:05Z</time>
      </trkpt>
      <trkpt lat="59.262022" lon="18.097661">
        <ele>33</ele>
        <time>2020-02-10T08:18:06Z</time>
      </trkpt>
      <trkpt lat="59.26198" lon="18.097595">
        <ele>33</ele>
        <time>2020-02-10T08:18:07Z</time>
      </trkpt>
      <trkpt lat="59.261939" lon="18.097528">
        <ele>33</ele>
        <time>2020-02-10T08:18:08Z</time>
      </trkpt>
      <trkpt lat="59.261897" lon="18.09746">
        <ele>33</ele>
        <time>2020-02-10T08:18:09Z</time>
      </trkpt>
      <trkpt lat="59.261856" lon="18.097393">
        <ele>33</ele>
        <time>2020-02-10T08:18:10Z</time>
      </trkpt>
      <trkpt lat="59.261814" lon="18.097326">
        <ele>33</ele>
        <time>2020-02-10T08:18:11Z</time>
      </trkpt>
      <trkpt lat="59.261773" lon="18.097258">
        <ele>33</ele>
        <time>2020-02-10T08:18:12Z</time>
      </trkpt>
      <trkpt lat="59.261731" lon="18.09719">
        <ele>32</ele>
        <time>2020-02-10T08:18:13Z</time>
      </trkpt>
      <trkpt lat="59.261689" lon="18.097122">
        <ele>32</ele>
        <time>2020-02-10T08:18:14Z</time>
      </trkpt>
      <trkpt lat="59.261647" lon="18.097055">
        <ele>32</ele>
        <time>2020-02-10T08:18:15Z</time>
      </trkpt>
      <trkpt lat="59.261606" lon="18.096987">
        <ele>32</ele>
        <time>2020-02-10T08:18:16Z</time>
      </trkpt>
      <trkpt lat="59.261565" lon="18.096922">
        <ele>32</ele>
        <time>2020-02-10T08:18:17Z</time>
      </trkpt>
      <trkpt lat="59.261526" lon="18.096859">
        <ele>32</ele>
        <time>2020-02-10T08:18:18Z</time>
      </trkpt>
      <trkpt lat="59.261487" lon="18.0968">
        <ele>32</ele>
        <time>2020-02-10T08:18:19Z</time>
      </trkpt>
      <trkpt lat="59.261448" lon="18.096746">
        <ele>32</ele>
        <time>2020-02-10T08:18:20Z</time>
      </trkpt>
      <trkpt lat="59.261409" lon="18.0967">
        <ele>32</ele>
        <time>2020-02-10T08:18:21Z</time>
      </trkpt>
      <trkpt lat="59.261369" lon="18.09666">
        <ele>0</ele>
        <time>2020-02-10T08:18:21Z</time>
      </trkpt>
      <trkpt lat="59.26133" lon="18.096624">
        <ele>31</ele>
        <time>2020-02-10T08:18:22Z</time>
      </trkpt>
      <trkpt lat="59.261291" lon="18.096589">
        <ele>31</ele>
        <time>2020-02-10T08:18:24Z</time>
      </trkpt>
      <trkpt lat="59.261251" lon="18.096553">
        <ele>31</ele>
        <time>2020-02-10T08:18:25Z</time>
      </trkpt>
      <trkpt lat="59.261211" lon="18.096522">
        <ele>31</ele>
        <time>2020-02-10T08:18:26Z</time>
      </trkpt>
      <trkpt lat="59.26117" lon="18.096495">
        <ele>31</ele>
        <time>2020-02-10T08:18:27Z</time>
      </trkpt>
      <trkpt lat="59.261127" lon="18.096469">
        <ele>31</ele>
        <time>2020-02-10T08:18:28Z</time>
      </trkpt>
      <trkpt lat="59.261085" lon="18.096445">
        <ele>31</ele>
        <time>2020-02-10T08:18:29Z</time>
      </trkpt>
      <trkpt lat="59.261041" lon="18.096424">
        <ele>31</ele>
        <time>2020-02-10T08:18:30Z</time>
      </trkpt>
      <trkpt lat="59.260996" lon="18.096411">
        <ele>31</ele>
        <time>2020-02-10T08:18:31Z</time>
      </trkpt>
      <trkpt lat="59.260949" lon="18.096406">
        <ele>31</ele>
        <time>2020-02-10T08:18:32Z</time>
      </trkpt>
      <trkpt lat="59.260899" lon="18.096411">
        <ele>30</ele>
        <time>2020-02-10T08:18:33Z</time>
      </trkpt>
      <trkpt lat="59.260848" lon="18.09642">
        <ele>30</ele>
        <time>2020-02-10T08:18:34Z</time>
      </trkpt>
      <trkpt lat="59.260794" lon="18.096432">
        <ele>30</ele>
        <time>2020-02-10T08:18:35Z</time>
      </trkpt>
      <trkpt lat="59.260739" lon="18.096445">
        <ele>30</ele>
        <time>2020-02-10T08:18:36Z</time>
      </trkpt>
      <trkpt lat="59.260681" lon="18.096459">
        <ele>29</ele>
        <time>2020-02-10T08:18:37Z</time>
      </trkpt>
      <trkpt lat="59.260621" lon="18.096474">
        <ele>29</ele>
        <time>2020-02-10T08:18:38Z</time>
      </trkpt>
      <trkpt lat="59.260558" lon="18.09649">
        <ele>29</ele>
        <time>2020-02-10T08:18:39Z</time>
      </trkpt>
      <trkpt lat="59.260494" lon="18.096511">
        <ele>29</ele>
        <time>2020-02-10T08:18:40Z</time>
      </trkpt>
      <trkpt lat="59.260431" lon="18.096539">
        <ele>29</ele>
        <time>2020-02-10T08:18:41Z</time>
      </trkpt>
      <trkpt lat="59.26037" lon="18.096572">
        <ele>29</ele>
        <time>2020-02-10T08:18:42Z</time>
      </trkpt>
      <trkpt lat="59.260308" lon="18.096614">
        <ele>29</ele>
        <time>2020-02-10T08:18:43Z</time>
      </trkpt>
      <trkpt lat="59.26024" lon="18.096659">
        <ele>29</ele>
        <time>2020-02-10T08:18:44Z</time>
      </trkpt>
      <trkpt lat="59.26017" lon="18.096704">
        <ele>29</ele>
        <time>2020-02-10T08:18:45Z</time>
      </trkpt>
      <trkpt lat="59.260102" lon="18.096749">
        <ele>29</ele>
        <time>2020-02-10T08:18:46Z</time>
      </trkpt>
      <trkpt lat="59.26004" lon="18.09679">
        <ele>29</ele>
        <time>2020-02-10T08:18:47Z</time>
      </trkpt>
      <trkpt lat="59.259989" lon="18.096847">
        <ele>29</ele>
        <time>2020-02-10T08:18:48Z</time>
      </trkpt>
      <trkpt lat="59.25994" lon="18.096903">
        <ele>0</ele>
        <time>2020-02-10T08:18:48Z</time>
      </trkpt>
      <trkpt lat="59.259895" lon="18.096957">
        <ele>29</ele>
        <time>2020-02-10T08:18:49Z</time>
      </trkpt>
      <trkpt lat="59.259852" lon="18.097011">
        <ele>29</ele>
        <time>2020-02-10T08:18:51Z</time>
      </trkpt>
      <trkpt lat="59.259815" lon="18.09707">
        <ele>29</ele>
        <time>2020-02-10T08:18:52Z</time>
      </trkpt>
      <trkpt lat="59.259783" lon="18.097132">
        <ele>29</ele>
        <time>2020-02-10T08:18:53Z</time>
      </trkpt>
      <trkpt lat="59.259756" lon="18.0972">
        <ele>29</ele>
        <time>2020-02-10T08:18:54Z</time>
      </trkpt>
      <trkpt lat="59.259733" lon="18.097273">
        <ele>29</ele>
        <time>2020-02-10T08:18:55Z</time>
      </trkpt>
      <trkpt lat="59.259714" lon="18.097353">
        <ele>29</ele>
        <time>2020-02-10T08:18:56Z</time>
      </trkpt>
      <trkpt lat="59.259697" lon="18.097437">
        <ele>29</ele>
        <time>2020-02-10T08:18:57Z</time>
      </trkpt>
      <trkpt lat="59.259686" lon="18.097531">
        <ele>29</ele>
        <time>2020-02-10T08:18:58Z</time>
      </trkpt>
      <trkpt lat="59.259676" lon="18.097633">
        <ele>0</ele>
        <time>2020-02-10T08:18:58Z</time>
      </trkpt>
      <trkpt lat="59.259666" lon="18.097739">
        <ele>29</ele>
        <time>2020-02-10T08:18:59Z</time>
      </trkpt>
      <trkpt lat="59.259657" lon="18.097848">
        <ele>29</ele>
        <time>2020-02-10T08:19:01Z</time>
      </trkpt>
      <trkpt lat="59.25965" lon="18.097957">
        <ele>29</ele>
        <time>2020-02-10T08:19:02Z</time>
      </trkpt>
      <trkpt lat="59.259641" lon="18.098065">
        <ele>29</ele>
        <time>2020-02-10T08:19:03Z</time>
      </trkpt>
      <trkpt lat="59.259632" lon="18.098176">
        <ele>29</ele>
        <time>2020-02-10T08:19:04Z</time>
      </trkpt>
      <trkpt lat="59.259622" lon="18.098289">
        <ele>29</ele>
        <time>2020-02-10T08:19:05Z</time>
      </trkpt>
      <trkpt lat="59.259613" lon="18.098403">
        <ele>29</ele>
        <time>2020-02-10T08:19:06Z</time>
      </trkpt>
      <trkpt lat="59.259604" lon="18.098518">
        <ele>29</ele>
        <time>2020-02-10T08:19:07Z</time>
      </trkpt>
      <trkpt lat="59.259592" lon="18.098632">
        <ele>28</ele>
        <time>2020-02-10T08:19:08Z</time>
      </trkpt>
      <trkpt lat="59.259574" lon="18.098739">
        <ele>28</ele>
        <time>2020-02-10T08:19:09Z</time>
      </trkpt>
      <trkpt lat="59.259547" lon="18.098839">
        <ele>28</ele>
        <time>2020-02-10T08:19:10Z</time>
      </trkpt>
      <trkpt lat="59.259514" lon="18.098929">
        <ele>28</ele>
        <time>2020-02-10T08:19:11Z</time>
      </trkpt>
      <trkpt lat="59.259476" lon="18.099007">
        <ele>28</ele>
        <time>2020-02-10T08:19:12Z</time>
      </trkpt>
      <trkpt lat="59.259436" lon="18.099074">
        <ele>28</ele>
        <time>2020-02-10T08:19:13Z</time>
      </trkpt>
      <trkpt lat="59.259393" lon="18.09913">
        <ele>27</ele>
        <time>2020-02-10T08:19:14Z</time>
      </trkpt>
      <trkpt lat="59.259348" lon="18.099177">
        <ele>27</ele>
        <time>2020-02-10T08:19:15Z</time>
      </trkpt>
      <trkpt lat="59.2593" lon="18.099215">
        <ele>27</ele>
        <time>2020-02-10T08:19:16Z</time>
      </trkpt>
      <trkpt lat="59.259252" lon="18.099242">
        <ele>27</ele>
        <time>2020-02-10T08:19:17Z</time>
      </trkpt>
      <trkpt lat="59.259202" lon="18.099259">
        <ele>27</ele>
        <time>2020-02-10T08:19:18Z</time>
      </trkpt>
      <trkpt lat="59.259154" lon="18.099265">
        <ele>28</ele>
        <time>2020-02-10T08:19:19Z</time>
      </trkpt>
      <trkpt lat="59.259105" lon="18.099265">
        <ele>28</ele>
        <time>2020-02-10T08:19:20Z</time>
      </trkpt>
      <trkpt lat="59.259059" lon="18.099265">
        <ele>28</ele>
        <time>2020-02-10T08:19:21Z</time>
      </trkpt>
      <trkpt lat="59.259013" lon="18.099266">
        <ele>28</ele>
        <time>2020-02-10T08:19:22Z</time>
      </trkpt>
      <trkpt lat="59.258968" lon="18.099267">
        <ele>28</ele>
        <time>2020-02-10T08:19:23Z</time>
      </trkpt>
      <trkpt lat="59.258921" lon="18.099267">
        <ele>28</ele>
        <time>2020-02-10T08:19:24Z</time>
      </trkpt>
      <trkpt lat="59.258874" lon="18.099268">
        <ele>28</ele>
        <time>2020-02-10T08:19:25Z</time>
      </trkpt>
      <trkpt lat="59.258826" lon="18.099269">
        <ele>28</ele>
        <time>2020-02-10T08:19:26Z</time>
      </trkpt>
      <trkpt lat="59.258777" lon="18.09927">
        <ele>28</ele>
        <time>2020-02-10T08:19:27Z</time>
      </trkpt>
      <trkpt lat="59.258727" lon="18.099273">
        <ele>28</ele>
        <time>2020-02-10T08:19:28Z</time>
      </trkpt>
      <trkpt lat="59.258676" lon="18.099274">
        <ele>29</ele>
        <time>2020-02-10T08:19:29Z</time>
      </trkpt>
      <trkpt lat="59.258626" lon="18.099274">
        <ele>29</ele>
        <time>2020-02-10T08:19:30Z</time>
      </trkpt>
      <trkpt lat="59.258578" lon="18.099273">
        <ele>29</ele>
        <time>2020-02-10T08:19:31Z</time>
      </trkpt>
      <trkpt lat="59.25853" lon="18.099273">
        <ele>29</ele>
        <time>2020-02-10T08:19:32Z</time>
      </trkpt>
      <trkpt lat="59.258482" lon="18.09927">
        <ele>29</ele>
        <time>2020-02-10T08:19:33Z</time>
      </trkpt>
      <trkpt lat="59.258433" lon="18.099264">
        <ele>29</ele>
        <time>2020-02-10T08:19:34Z</time>
      </trkpt>
      <trkpt lat="59.258385" lon="18.099259">
        <ele>30</ele>
        <time>2020-02-10T08:19:35Z</time>
      </trkpt>
      <trkpt lat="59.258337" lon="18.099255">
        <ele>30</ele>
        <time>2020-02-10T08:19:36Z</time>
      </trkpt>
      <trkpt lat="59.258288" lon="18.099251">
        <ele>30</ele>
        <time>2020-02-10T08:19:37Z</time>
      </trkpt>
      <trkpt lat="59.258242" lon="18.099246">
        <ele>30</ele>
        <time>2020-02-10T08:19:38Z</time>
      </trkpt>
      <trkpt lat="59.258197" lon="18.099239">
        <ele>30</ele>
        <time>2020-02-10T08:19:39Z</time>
      </trkpt>
      <trkpt lat="59.258148" lon="18.099239">
        <ele>30</ele>
        <time>2020-02-10T08:19:40Z</time>
      </trkpt>
      <trkpt lat="59.258095" lon="18.099238">
        <ele>30</ele>
        <time>2020-02-10T08:19:41Z</time>
      </trkpt>
      <trkpt lat="59.258039" lon="18.099234">
        <ele>31</ele>
        <time>2020-02-10T08:19:42Z</time>
      </trkpt>
      <trkpt lat="59.25798" lon="18.099227">
        <ele>31</ele>
        <time>2020-02-10T08:19:43Z</time>
      </trkpt>
      <trkpt lat="59.257923" lon="18.099218">
        <ele>31</ele>
        <time>2020-02-10T08:19:44Z</time>
      </trkpt>
      <trkpt lat="59.257867" lon="18.099203">
        <ele>31</ele>
        <time>2020-02-10T08:19:45Z</time>
      </trkpt>
      <trkpt lat="59.257812" lon="18.099189">
        <ele>31</ele>
        <time>2020-02-10T08:19:46Z</time>
      </trkpt>
      <trkpt lat="59.257752" lon="18.099196">
        <ele>0</ele>
        <time>2020-02-10T08:19:46Z</time>
      </trkpt>
      <trkpt lat="59.257691" lon="18.099219">
        <ele>31</ele>
        <time>2020-02-10T08:19:47Z</time>
      </trkpt>
      <trkpt lat="59.257634" lon="18.099248">
        <ele>31</ele>
        <time>2020-02-10T08:19:49Z</time>
      </trkpt>
      <trkpt lat="59.257577" lon="18.099289">
        <ele>31</ele>
        <time>2020-02-10T08:19:50Z</time>
      </trkpt>
      <trkpt lat="59.257521" lon="18.099346">
        <ele>31</ele>
        <time>2020-02-10T08:19:51Z</time>
      </trkpt>
      <trkpt lat="59.25747" lon="18.099419">
        <ele>30</ele>
        <time>2020-02-10T08:19:52Z</time>
      </trkpt>
      <trkpt lat="59.257425" lon="18.099512">
        <ele>30</ele>
        <time>2020-02-10T08:19:53Z</time>
      </trkpt>
      <trkpt lat="59.257383" lon="18.099621">
        <ele>0</ele>
        <time>2020-02-10T08:19:53Z</time>
      </trkpt>
      <trkpt lat="59.257343" lon="18.09974">
        <ele>30</ele>
        <time>2020-02-10T08:19:54Z</time>
      </trkpt>
      <trkpt lat="59.257304" lon="18.099858">
        <ele>30</ele>
        <time>2020-02-10T08:19:56Z</time>
      </trkpt>
      <trkpt lat="59.257267" lon="18.099976">
        <ele>30</ele>
        <time>2020-02-10T08:19:57Z</time>
      </trkpt>
      <trkpt lat="59.257236" lon="18.10009">
        <ele>30</ele>
        <time>2020-02-10T08:19:58Z</time>
      </trkpt>
      <trkpt lat="59.25721" lon="18.100199">
        <ele>30</ele>
        <time>2020-02-10T08:19:59Z</time>
      </trkpt>
      <trkpt lat="59.257066" lon="18.100764">
        <ele>30</ele>
        <time>2020-02-10T08:20:04Z</time>
      </trkpt>
      <trkpt lat="59.257013" lon="18.100985">
        <ele>29</ele>
        <time>2020-02-10T08:20:07Z</time>
      </trkpt>
      <trkpt lat="59.256936" lon="18.101076">
        <ele>28</ele>
        <time>2020-02-10T08:20:09Z</time>
      </trkpt>
      <trkpt lat="59.256884" lon="18.101084">
        <ele>29</ele>
        <time>2020-02-10T08:20:10Z</time>
      </trkpt>
      <trkpt lat="59.256837" lon="18.101077">
        <ele>29</ele>
        <time>2020-02-10T08:20:11Z</time>
      </trkpt>
      <trkpt lat="59.25679" lon="18.101074">
        <ele>29</ele>
        <time>2020-02-10T08:20:12Z</time>
      </trkpt>
      <trkpt lat="59.256744" lon="18.101074">
        <ele>0</ele>
        <time>2020-02-10T08:20:12Z</time>
      </trkpt>
      <trkpt lat="59.256696" lon="18.101075">
        <ele>29</ele>
        <time>2020-02-10T08:20:13Z</time>
      </trkpt>
      <trkpt lat="59.256649" lon="18.101073">
        <ele>28</ele>
        <time>2020-02-10T08:20:15Z</time>
      </trkpt>
      <trkpt lat="59.2566" lon="18.10107">
        <ele>28</ele>
        <time>2020-02-10T08:20:16Z</time>
      </trkpt>
      <trkpt lat="59.25655" lon="18.101067">
        <ele>28</ele>
        <time>2020-02-10T08:20:17Z</time>
      </trkpt>
      <trkpt lat="59.256499" lon="18.101067">
        <ele>28</ele>
        <time>2020-02-10T08:20:18Z</time>
      </trkpt>
      <trkpt lat="59.256446" lon="18.101067">
        <ele>28</ele>
        <time>2020-02-10T08:20:19Z</time>
      </trkpt>
      <trkpt lat="59.256397" lon="18.101065">
        <ele>27</ele>
        <time>2020-02-10T08:20:20Z</time>
      </trkpt>
      <trkpt lat="59.256344" lon="18.101065">
        <ele>27</ele>
        <time>2020-02-10T08:20:21Z</time>
      </trkpt>
      <trkpt lat="59.256293" lon="18.10106">
        <ele>27</ele>
        <time>2020-02-10T08:20:22Z</time>
      </trkpt>
      <trkpt lat="59.256244" lon="18.101054">
        <ele>27</ele>
        <time>2020-02-10T08:20:23Z</time>
      </trkpt>
      <trkpt lat="59.256196" lon="18.101049">
        <ele>28</ele>
        <time>2020-02-10T08:20:24Z</time>
      </trkpt>
      <trkpt lat="59.256146" lon="18.101042">
        <ele>28</ele>
        <time>2020-02-10T08:20:25Z</time>
      </trkpt>
      <trkpt lat="59.256098" lon="18.101036">
        <ele>28</ele>
        <time>2020-02-10T08:20:26Z</time>
      </trkpt>
      <trkpt lat="59.25605" lon="18.10103">
        <ele>28</ele>
        <time>2020-02-10T08:20:27Z</time>
      </trkpt>
      <trkpt lat="59.256003" lon="18.101025">
        <ele>28</ele>
        <time>2020-02-10T08:20:28Z</time>
      </trkpt>
      <trkpt lat="59.255955" lon="18.101023">
        <ele>29</ele>
        <time>2020-02-10T08:20:29Z</time>
      </trkpt>
      <trkpt lat="59.255906" lon="18.101021">
        <ele>29</ele>
        <time>2020-02-10T08:20:30Z</time>
      </trkpt>
      <trkpt lat="59.255858" lon="18.101019">
        <ele>29</ele>
        <time>2020-02-10T08:20:31Z</time>
      </trkpt>
      <trkpt lat="59.255814" lon="18.101016">
        <ele>30</ele>
        <time>2020-02-10T08:20:32Z</time>
      </trkpt>
      <trkpt lat="59.255766" lon="18.101016">
        <ele>29</ele>
        <time>2020-02-10T08:20:33Z</time>
      </trkpt>
      <trkpt lat="59.255716" lon="18.101015">
        <ele>29</ele>
        <time>2020-02-10T08:20:34Z</time>
      </trkpt>
      <trkpt lat="59.255666" lon="18.10101">
        <ele>29</ele>
        <time>2020-02-10T08:20:35Z</time>
      </trkpt>
      <trkpt lat="59.255613" lon="18.101004">
        <ele>28</ele>
        <time>2020-02-10T08:20:36Z</time>
      </trkpt>
      <trkpt lat="59.25556" lon="18.10099">
        <ele>28</ele>
        <time>2020-02-10T08:20:37Z</time>
      </trkpt>
      <trkpt lat="59.255501" lon="18.100977">
        <ele>28</ele>
        <time>2020-02-10T08:20:38Z</time>
      </trkpt>
      <trkpt lat="59.255445" lon="18.100964">
        <ele>28</ele>
        <time>2020-02-10T08:20:39Z</time>
      </trkpt>
      <trkpt lat="59.255389" lon="18.100952">
        <ele>28</ele>
        <time>2020-02-10T08:20:40Z</time>
      </trkpt>
      <trkpt lat="59.255335" lon="18.100938">
        <ele>28</ele>
        <time>2020-02-10T08:20:41Z</time>
      </trkpt>
      <trkpt lat="59.255281" lon="18.100927">
        <ele>28</ele>
        <time>2020-02-10T08:20:42Z</time>
      </trkpt>
      <trkpt lat="59.25523" lon="18.100913">
        <ele>28</ele>
        <time>2020-02-10T08:20:43Z</time>
      </trkpt>
      <trkpt lat="59.255177" lon="18.100899">
        <ele>28</ele>
        <time>2020-02-10T08:20:44Z</time>
      </trkpt>
      <trkpt lat="59.255124" lon="18.100888">
        <ele>28</ele>
        <time>2020-02-10T08:20:45Z</time>
      </trkpt>
      <trkpt lat="59.255071" lon="18.100878">
        <ele>28</ele>
        <time>2020-02-10T08:20:46Z</time>
      </trkpt>
      <trkpt lat="59.25502" lon="18.100864">
        <ele>28</ele>
        <time>2020-02-10T08:20:47Z</time>
      </trkpt>
      <trkpt lat="59.254967" lon="18.100853">
        <ele>28</ele>
        <time>2020-02-10T08:20:48Z</time>
      </trkpt>
      <trkpt lat="59.254914" lon="18.100841">
        <ele>28</ele>
        <time>2020-02-10T08:20:49Z</time>
      </trkpt>
      <trkpt lat="59.254863" lon="18.100828">
        <ele>27</ele>
        <time>2020-02-10T08:20:50Z</time>
      </trkpt>
      <trkpt lat="59.254812" lon="18.100812">
        <ele>27</ele>
        <time>2020-02-10T08:20:51Z</time>
      </trkpt>
      <trkpt lat="59.254759" lon="18.100796">
        <ele>27</ele>
        <time>2020-02-10T08:20:52Z</time>
      </trkpt>
      <trkpt lat="59.254704" lon="18.10078">
        <ele>27</ele>
        <time>2020-02-10T08:20:53Z</time>
      </trkpt>
      <trkpt lat="59.254652" lon="18.100763">
        <ele>27</ele>
        <time>2020-02-10T08:20:54Z</time>
      </trkpt>
      <trkpt lat="59.254601" lon="18.100744">
        <ele>27</ele>
        <time>2020-02-10T08:20:55Z</time>
      </trkpt>
      <trkpt lat="59.25455" lon="18.100721">
        <ele>27</ele>
        <time>2020-02-10T08:20:56Z</time>
      </trkpt>
      <trkpt lat="59.254501" lon="18.100697">
        <ele>28</ele>
        <time>2020-02-10T08:20:57Z</time>
      </trkpt>
      <trkpt lat="59.254455" lon="18.100675">
        <ele>28</ele>
        <time>2020-02-10T08:20:58Z</time>
      </trkpt>
      <trkpt lat="59.254405" lon="18.100657">
        <ele>27</ele>
        <time>2020-02-10T08:20:59Z</time>
      </trkpt>
      <trkpt lat="59.254349" lon="18.100639">
        <ele>27</ele>
        <time>2020-02-10T08:21:00Z</time>
      </trkpt>
      <trkpt lat="59.254293" lon="18.100619">
        <ele>0</ele>
        <time>2020-02-10T08:21:00Z</time>
      </trkpt>
      <trkpt lat="59.254237" lon="18.100599">
        <ele>27</ele>
        <time>2020-02-10T08:21:01Z</time>
      </trkpt>
      <trkpt lat="59.25418" lon="18.100592">
        <ele>27</ele>
        <time>2020-02-10T08:21:03Z</time>
      </trkpt>
      <trkpt lat="59.254126" lon="18.100597">
        <ele>27</ele>
        <time>2020-02-10T08:21:04Z</time>
      </trkpt>
      <trkpt lat="59.254075" lon="18.100601">
        <ele>27</ele>
        <time>2020-02-10T08:21:05Z</time>
      </trkpt>
      <trkpt lat="59.254021" lon="18.100599">
        <ele>27</ele>
        <time>2020-02-10T08:21:06Z</time>
      </trkpt>
      <trkpt lat="59.253967" lon="18.100594">
        <ele>27</ele>
        <time>2020-02-10T08:21:07Z</time>
      </trkpt>
      <trkpt lat="59.253916" lon="18.10058">
        <ele>27</ele>
        <time>2020-02-10T08:21:08Z</time>
      </trkpt>
      <trkpt lat="59.253862" lon="18.100558">
        <ele>26</ele>
        <time>2020-02-10T08:21:09Z</time>
      </trkpt>
      <trkpt lat="59.253806" lon="18.100536">
        <ele>0</ele>
        <time>2020-02-10T08:21:09Z</time>
      </trkpt>
      <trkpt lat="59.25375" lon="18.100515">
        <ele>26</ele>
        <time>2020-02-10T08:21:10Z</time>
      </trkpt>
      <trkpt lat="59.253694" lon="18.100491">
        <ele>26</ele>
        <time>2020-02-10T08:21:12Z</time>
      </trkpt>
      <trkpt lat="59.253638" lon="18.100464">
        <ele>26</ele>
        <time>2020-02-10T08:21:13Z</time>
      </trkpt>
      <trkpt lat="59.253582" lon="18.100437">
        <ele>26</ele>
        <time>2020-02-10T08:21:14Z</time>
      </trkpt>
      <trkpt lat="59.253525" lon="18.100405">
        <ele>26</ele>
        <time>2020-02-10T08:21:15Z</time>
      </trkpt>
      <trkpt lat="59.253468" lon="18.10037">
        <ele>25</ele>
        <time>2020-02-10T08:21:16Z</time>
      </trkpt>
      <trkpt lat="59.253413" lon="18.10033">
        <ele>25</ele>
        <time>2020-02-10T08:21:17Z</time>
      </trkpt>
      <trkpt lat="59.253361" lon="18.100288">
        <ele>25</ele>
        <time>2020-02-10T08:21:18Z</time>
      </trkpt>
      <trkpt lat="59.253311" lon="18.100248">
        <ele>0</ele>
        <time>2020-02-10T08:21:18Z</time>
      </trkpt>
      <trkpt lat="59.253261" lon="18.100212">
        <ele>25</ele>
        <time>2020-02-10T08:21:19Z</time>
      </trkpt>
      <trkpt lat="59.253208" lon="18.100179">
        <ele>25</ele>
        <time>2020-02-10T08:21:21Z</time>
      </trkpt>
      <trkpt lat="59.253157" lon="18.100153">
        <ele>25</ele>
        <time>2020-02-10T08:21:22Z</time>
      </trkpt>
      <trkpt lat="59.253104" lon="18.100137">
        <ele>25</ele>
        <time>2020-02-10T08:21:23Z</time>
      </trkpt>
      <trkpt lat="59.25305" lon="18.100133">
        <ele>25</ele>
        <time>2020-02-10T08:21:24Z</time>
      </trkpt>
      <trkpt lat="59.252995" lon="18.100137">
        <ele>25</ele>
        <time>2020-02-10T08:21:25Z</time>
      </trkpt>
      <trkpt lat="59.25294" lon="18.100144">
        <ele>25</ele>
        <time>2020-02-10T08:21:26Z</time>
      </trkpt>
      <trkpt lat="59.252887" lon="18.100155">
        <ele>24</ele>
        <time>2020-02-10T08:21:27Z</time>
      </trkpt>
      <trkpt lat="59.252836" lon="18.100169">
        <ele>0</ele>
        <time>2020-02-10T08:21:27Z</time>
      </trkpt>
      <trkpt lat="59.252782" lon="18.100185">
        <ele>24</ele>
        <time>2020-02-10T08:21:28Z</time>
      </trkpt>
      <trkpt lat="59.252729" lon="18.100201">
        <ele>24</ele>
        <time>2020-02-10T08:21:30Z</time>
      </trkpt>
      <trkpt lat="59.252678" lon="18.100213">
        <ele>24</ele>
        <time>2020-02-10T08:21:31Z</time>
      </trkpt>
      <trkpt lat="59.252628" lon="18.100227">
        <ele>24</ele>
        <time>2020-02-10T08:21:32Z</time>
      </trkpt>
      <trkpt lat="59.252579" lon="18.100246">
        <ele>23</ele>
        <time>2020-02-10T08:21:33Z</time>
      </trkpt>
      <trkpt lat="59.252531" lon="18.100269">
        <ele>23</ele>
        <time>2020-02-10T08:21:34Z</time>
      </trkpt>
      <trkpt lat="59.252484" lon="18.100293">
        <ele>23</ele>
        <time>2020-02-10T08:21:35Z</time>
      </trkpt>
      <trkpt lat="59.252437" lon="18.100318">
        <ele>23</ele>
        <time>2020-02-10T08:21:36Z</time>
      </trkpt>
      <trkpt lat="59.252391" lon="18.100343">
        <ele>23</ele>
        <time>2020-02-10T08:21:37Z</time>
      </trkpt>
      <trkpt lat="59.252345" lon="18.100369">
        <ele>23</ele>
        <time>2020-02-10T08:21:38Z</time>
      </trkpt>
      <trkpt lat="59.252303" lon="18.100394">
        <ele>0</ele>
        <time>2020-02-10T08:21:38Z</time>
      </trkpt>
      <trkpt lat="59.252264" lon="18.100419">
        <ele>23</ele>
        <time>2020-02-10T08:21:39Z</time>
      </trkpt>
      <trkpt lat="59.252225" lon="18.100443">
        <ele>23</ele>
        <time>2020-02-10T08:21:41Z</time>
      </trkpt>
      <trkpt lat="59.252186" lon="18.100468">
        <ele>23</ele>
        <time>2020-02-10T08:21:42Z</time>
      </trkpt>
      <trkpt lat="59.252149" lon="18.100493">
        <ele>24</ele>
        <time>2020-02-10T08:21:43Z</time>
      </trkpt>
      <trkpt lat="59.252112" lon="18.100515">
        <ele>24</ele>
        <time>2020-02-10T08:21:44Z</time>
      </trkpt>
      <trkpt lat="59.252077" lon="18.100537">
        <ele>24</ele>
        <time>2020-02-10T08:21:45Z</time>
      </trkpt>
      <trkpt lat="59.252041" lon="18.100558">
        <ele>24</ele>
        <time>2020-02-10T08:21:46Z</time>
      </trkpt>
      <trkpt lat="59.252006" lon="18.10058">
        <ele>24</ele>
        <time>2020-02-10T08:21:47Z</time>
      </trkpt>
      <trkpt lat="59.251971" lon="18.100601">
        <ele>24</ele>
        <time>2020-02-10T08:21:48Z</time>
      </trkpt>
      <trkpt lat="59.251936" lon="18.100623">
        <ele>24</ele>
        <time>2020-02-10T08:21:49Z</time>
      </trkpt>
      <trkpt lat="59.251902" lon="18.100646">
        <ele>25</ele>
        <time>2020-02-10T08:21:50Z</time>
      </trkpt>
      <trkpt lat="59.251869" lon="18.100669">
        <ele>25</ele>
        <time>2020-02-10T08:21:51Z</time>
      </trkpt>
      <trkpt lat="59.251835" lon="18.100693">
        <ele>25</ele>
        <time>2020-02-10T08:21:52Z</time>
      </trkpt>
      <trkpt lat="59.2518" lon="18.100715">
        <ele>25</ele>
        <time>2020-02-10T08:21:53Z</time>
      </trkpt>
      <trkpt lat="59.251766" lon="18.100735">
        <ele>25</ele>
        <time>2020-02-10T08:21:54Z</time>
      </trkpt>
      <trkpt lat="59.251733" lon="18.100755">
        <ele>25</ele>
        <time>2020-02-10T08:21:55Z</time>
      </trkpt>
      <trkpt lat="59.251701" lon="18.100776">
        <ele>25</ele>
        <time>2020-02-10T08:21:56Z</time>
      </trkpt>
      <trkpt lat="59.251669" lon="18.100797">
        <ele>25</ele>
        <time>2020-02-10T08:21:57Z</time>
      </trkpt>
      <trkpt lat="59.251637" lon="18.100818">
        <ele>25</ele>
        <time>2020-02-10T08:21:58Z</time>
      </trkpt>
      <trkpt lat="59.251605" lon="18.100837">
        <ele>25</ele>
        <time>2020-02-10T08:21:59Z</time>
      </trkpt>
      <trkpt lat="59.251572" lon="18.100857">
        <ele>25</ele>
        <time>2020-02-10T08:22:00Z</time>
      </trkpt>
      <trkpt lat="59.25154" lon="18.100876">
        <ele>25</ele>
        <time>2020-02-10T08:22:01Z</time>
      </trkpt>
      <trkpt lat="59.251506" lon="18.100896">
        <ele>25</ele>
        <time>2020-02-10T08:22:02Z</time>
      </trkpt>
      <trkpt lat="59.251472" lon="18.100914">
        <ele>25</ele>
        <time>2020-02-10T08:22:03Z</time>
      </trkpt>
      <trkpt lat="59.251438" lon="18.100928">
        <ele>25</ele>
        <time>2020-02-10T08:22:04Z</time>
      </trkpt>
      <trkpt lat="59.251403" lon="18.100937">
        <ele>26</ele>
        <time>2020-02-10T08:22:05Z</time>
      </trkpt>
      <trkpt lat="59.251369" lon="18.100942">
        <ele>26</ele>
        <time>2020-02-10T08:22:06Z</time>
      </trkpt>
      <trkpt lat="59.251335" lon="18.100939">
        <ele>0</ele>
        <time>2020-02-10T08:22:06Z</time>
      </trkpt>
      <trkpt lat="59.251301" lon="18.100929">
        <ele>26</ele>
        <time>2020-02-10T08:22:07Z</time>
      </trkpt>
      <trkpt lat="59.251268" lon="18.100912">
        <ele>26</ele>
        <time>2020-02-10T08:22:09Z</time>
      </trkpt>
      <trkpt lat="59.251235" lon="18.100891">
        <ele>27</ele>
        <time>2020-02-10T08:22:10Z</time>
      </trkpt>
      <trkpt lat="59.251203" lon="18.100868">
        <ele>27</ele>
        <time>2020-02-10T08:22:11Z</time>
      </trkpt>
      <trkpt lat="59.251171" lon="18.100846">
        <ele>27</ele>
        <time>2020-02-10T08:22:12Z</time>
      </trkpt>
      <trkpt lat="59.251139" lon="18.100822">
        <ele>27</ele>
        <time>2020-02-10T08:22:13Z</time>
      </trkpt>
      <trkpt lat="59.251107" lon="18.100797">
        <ele>28</ele>
        <time>2020-02-10T08:22:14Z</time>
      </trkpt>
      <trkpt lat="59.251077" lon="18.100772">
        <ele>28</ele>
        <time>2020-02-10T08:22:15Z</time>
      </trkpt>
      <trkpt lat="59.251048" lon="18.100746">
        <ele>28</ele>
        <time>2020-02-10T08:22:16Z</time>
      </trkpt>
      <trkpt lat="59.251019" lon="18.100719">
        <ele>28</ele>
        <time>2020-02-10T08:22:17Z</time>
      </trkpt>
      <trkpt lat="59.250991" lon="18.100689">
        <ele>28</ele>
        <time>2020-02-10T08:22:18Z</time>
      </trkpt>
      <trkpt lat="59.250962" lon="18.100656">
        <ele>29</ele>
        <time>2020-02-10T08:22:19Z</time>
      </trkpt>
      <trkpt lat="59.250936" lon="18.10062">
        <ele>29</ele>
        <time>2020-02-10T08:22:20Z</time>
      </trkpt>
      <trkpt lat="59.25091" lon="18.100582">
        <ele>29</ele>
        <time>2020-02-10T08:22:21Z</time>
      </trkpt>
      <trkpt lat="59.250883" lon="18.100539">
        <ele>29</ele>
        <time>2020-02-10T08:22:22Z</time>
      </trkpt>
      <trkpt lat="59.25086" lon="18.100493">
        <ele>30</ele>
        <time>2020-02-10T08:22:23Z</time>
      </trkpt>
      <trkpt lat="59.250842" lon="18.100447">
        <ele>30</ele>
        <time>2020-02-10T08:22:24Z</time>
      </trkpt>
      <trkpt lat="59.250826" lon="18.1004">
        <ele>30</ele>
        <time>2020-02-10T08:22:25Z</time>
      </trkpt>
      <trkpt lat="59.25081" lon="18.100353">
        <ele>30</ele>
        <time>2020-02-10T08:22:26Z</time>
      </trkpt>
      <trkpt lat="59.250795" lon="18.100306">
        <ele>30</ele>
        <time>2020-02-10T08:22:27Z</time>
      </trkpt>
      <trkpt lat="59.250777" lon="18.100257">
        <ele>30</ele>
        <time>2020-02-10T08:22:28Z</time>
      </trkpt>
      <trkpt lat="59.250759" lon="18.100208">
        <ele>30</ele>
        <time>2020-02-10T08:22:29Z</time>
      </trkpt>
      <trkpt lat="59.250733" lon="18.100155">
        <ele>30</ele>
        <time>2020-02-10T08:22:30Z</time>
      </trkpt>
      <trkpt lat="59.250708" lon="18.100104">
        <ele>30</ele>
        <time>2020-02-10T08:22:31Z</time>
      </trkpt>
      <trkpt lat="59.250679" lon="18.100055">
        <ele>30</ele>
        <time>2020-02-10T08:22:32Z</time>
      </trkpt>
      <trkpt lat="59.250649" lon="18.10001">
        <ele>30</ele>
        <time>2020-02-10T08:22:33Z</time>
      </trkpt>
      <trkpt lat="59.250617" lon="18.099963">
        <ele>29</ele>
        <time>2020-02-10T08:22:34Z</time>
      </trkpt>
      <trkpt lat="59.250584" lon="18.09992">
        <ele>29</ele>
        <time>2020-02-10T08:22:35Z</time>
      </trkpt>
      <trkpt lat="59.250548" lon="18.099875">
        <ele>29</ele>
        <time>2020-02-10T08:22:36Z</time>
      </trkpt>
      <trkpt lat="59.25051" lon="18.099832">
        <ele>29</ele>
        <time>2020-02-10T08:22:37Z</time>
      </trkpt>
      <trkpt lat="59.250467" lon="18.099796">
        <ele>29</ele>
        <time>2020-02-10T08:22:38Z</time>
      </trkpt>
      <trkpt lat="59.250421" lon="18.099771">
        <ele>29</ele>
        <time>2020-02-10T08:22:39Z</time>
      </trkpt>
      <trkpt lat="59.250372" lon="18.099745">
        <ele>29</ele>
        <time>2020-02-10T08:22:40Z</time>
      </trkpt>
      <trkpt lat="59.250319" lon="18.09972">
        <ele>29</ele>
        <time>2020-02-10T08:22:41Z</time>
      </trkpt>
      <trkpt lat="59.250266" lon="18.099699">
        <ele>29</ele>
        <time>2020-02-10T08:22:42Z</time>
      </trkpt>
      <trkpt lat="59.250212" lon="18.099675">
        <ele>29</ele>
        <time>2020-02-10T08:22:43Z</time>
      </trkpt>
      <trkpt lat="59.250157" lon="18.099652">
        <ele>29</ele>
        <time>2020-02-10T08:22:44Z</time>
      </trkpt>
      <trkpt lat="59.2501" lon="18.09963">
        <ele>0</ele>
        <time>2020-02-10T08:22:44Z</time>
      </trkpt>
      <trkpt lat="59.250042" lon="18.099606">
        <ele>29</ele>
        <time>2020-02-10T08:22:45Z</time>
      </trkpt>
      <trkpt lat="59.249984" lon="18.099581">
        <ele>30</ele>
        <time>2020-02-10T08:22:47Z</time>
      </trkpt>
      <trkpt lat="59.249925" lon="18.099554">
        <ele>30</ele>
        <time>2020-02-10T08:22:48Z</time>
      </trkpt>
      <trkpt lat="59.249865" lon="18.099526">
        <ele>30</ele>
        <time>2020-02-10T08:22:49Z</time>
      </trkpt>
      <trkpt lat="59.249804" lon="18.099503">
        <ele>30</ele>
        <time>2020-02-10T08:22:50Z</time>
      </trkpt>
      <trkpt lat="59.249741" lon="18.099485">
        <ele>29</ele>
        <time>2020-02-10T08:22:51Z</time>
      </trkpt>
      <trkpt lat="59.249675" lon="18.099475">
        <ele>29</ele>
        <time>2020-02-10T08:22:52Z</time>
      </trkpt>
      <trkpt lat="59.24961" lon="18.099476">
        <ele>0</ele>
        <time>2020-02-10T08:22:52Z</time>
      </trkpt>
      <trkpt lat="59.249547" lon="18.099486">
        <ele>29</ele>
        <time>2020-02-10T08:22:53Z</time>
      </trkpt>
      <trkpt lat="59.249487" lon="18.099507">
        <ele>29</ele>
        <time>2020-02-10T08:22:55Z</time>
      </trkpt>
      <trkpt lat="59.249431" lon="18.09953">
        <ele>29</ele>
        <time>2020-02-10T08:22:56Z</time>
      </trkpt>
      <trkpt lat="59.249377" lon="18.099553">
        <ele>29</ele>
        <time>2020-02-10T08:22:57Z</time>
      </trkpt>
      <trkpt lat="59.249326" lon="18.099576">
        <ele>29</ele>
        <time>2020-02-10T08:22:58Z</time>
      </trkpt>
      <trkpt lat="59.249276" lon="18.099598">
        <ele>29</ele>
        <time>2020-02-10T08:22:59Z</time>
      </trkpt>
      <trkpt lat="59.249227" lon="18.099618">
        <ele>29</ele>
        <time>2020-02-10T08:23:00Z</time>
      </trkpt>
      <trkpt lat="59.249178" lon="18.099636">
        <ele>29</ele>
        <time>2020-02-10T08:23:01Z</time>
      </trkpt>
      <trkpt lat="59.249131" lon="18.099658">
        <ele>29</ele>
        <time>2020-02-10T08:23:02Z</time>
      </trkpt>
      <trkpt lat="59.249087" lon="18.099682">
        <ele>29</ele>
        <time>2020-02-10T08:23:03Z</time>
      </trkpt>
      <trkpt lat="59.249047" lon="18.099709">
        <ele>29</ele>
        <time>2020-02-10T08:23:04Z</time>
      </trkpt>
      <trkpt lat="59.249008" lon="18.09974">
        <ele>30</ele>
        <time>2020-02-10T08:23:05Z</time>
      </trkpt>
      <trkpt lat="59.248971" lon="18.099774">
        <ele>30</ele>
        <time>2020-02-10T08:23:06Z</time>
      </trkpt>
      <trkpt lat="59.248933" lon="18.099809">
        <ele>30</ele>
        <time>2020-02-10T08:23:07Z</time>
      </trkpt>
      <trkpt lat="59.248894" lon="18.099846">
        <ele>30</ele>
        <time>2020-02-10T08:23:08Z</time>
      </trkpt>
      <trkpt lat="59.248856" lon="18.099886">
        <ele>30</ele>
        <time>2020-02-10T08:23:09Z</time>
      </trkpt>
      <trkpt lat="59.248819" lon="18.09993">
        <ele>30</ele>
        <time>2020-02-10T08:23:10Z</time>
      </trkpt>
      <trkpt lat="59.248784" lon="18.099978">
        <ele>31</ele>
        <time>2020-02-10T08:23:11Z</time>
      </trkpt>
      <trkpt lat="59.24875" lon="18.100029">
        <ele>31</ele>
        <time>2020-02-10T08:23:12Z</time>
      </trkpt>
      <trkpt lat="59.248716" lon="18.100083">
        <ele>31</ele>
        <time>2020-02-10T08:23:13Z</time>
      </trkpt>
      <trkpt lat="59.24868" lon="18.100141">
        <ele>31</ele>
        <time>2020-02-10T08:23:14Z</time>
      </trkpt>
      <trkpt lat="59.24864" lon="18.100198">
        <ele>31</ele>
        <time>2020-02-10T08:23:15Z</time>
      </trkpt>
      <trkpt lat="59.248598" lon="18.100253">
        <ele>31</ele>
        <time>2020-02-10T08:23:16Z</time>
      </trkpt>
      <trkpt lat="59.248557" lon="18.100305">
        <ele>30</ele>
        <time>2020-02-10T08:23:17Z</time>
      </trkpt>
      <trkpt lat="59.248516" lon="18.100359">
        <ele>30</ele>
        <time>2020-02-10T08:23:18Z</time>
      </trkpt>
      <trkpt lat="59.248471" lon="18.10041">
        <ele>30</ele>
        <time>2020-02-10T08:23:19Z</time>
      </trkpt>
      <trkpt lat="59.248425" lon="18.100454">
        <ele>30</ele>
        <time>2020-02-10T08:23:20Z</time>
      </trkpt>
      <trkpt lat="59.24838" lon="18.100492">
        <ele>30</ele>
        <time>2020-02-10T08:23:21Z</time>
      </trkpt>
      <trkpt lat="59.248339" lon="18.100529">
        <ele>30</ele>
        <time>2020-02-10T08:23:22Z</time>
      </trkpt>
      <trkpt lat="59.2483" lon="18.100564">
        <ele>31</ele>
        <time>2020-02-10T08:23:23Z</time>
      </trkpt>
      <trkpt lat="59.248264" lon="18.100599">
        <ele>30</ele>
        <time>2020-02-10T08:23:24Z</time>
      </trkpt>
      <trkpt lat="59.248231" lon="18.100633">
        <ele>31</ele>
        <time>2020-02-10T08:23:25Z</time>
      </trkpt>
      <trkpt lat="59.248198" lon="18.10067">
        <ele>31</ele>
        <time>2020-02-10T08:23:26Z</time>
      </trkpt>
      <trkpt lat="59.248167" lon="18.100713">
        <ele>31</ele>
        <time>2020-02-10T08:23:27Z</time>
      </trkpt>
      <trkpt lat="59.248136" lon="18.10076">
        <ele>31</ele>
        <time>2020-02-10T08:23:28Z</time>
      </trkpt>
      <trkpt lat="59.248103" lon="18.100813">
        <ele>31</ele>
        <time>2020-02-10T08:23:29Z</time>
      </trkpt>
      <trkpt lat="59.248073" lon="18.10087">
        <ele>31</ele>
        <time>2020-02-10T08:23:30Z</time>
      </trkpt>
      <trkpt lat="59.248043" lon="18.100932">
        <ele>32</ele>
        <time>2020-02-10T08:23:31Z</time>
      </trkpt>
      <trkpt lat="59.248015" lon="18.100997">
        <ele>32</ele>
        <time>2020-02-10T08:23:32Z</time>
      </trkpt>
      <trkpt lat="59.24799" lon="18.101065">
        <ele>32</ele>
        <time>2020-02-10T08:23:33Z</time>
      </trkpt>
      <trkpt lat="59.247963" lon="18.101135">
        <ele>33</ele>
        <time>2020-02-10T08:23:34Z</time>
      </trkpt>
      <trkpt lat="59.247941" lon="18.101209">
        <ele>33</ele>
        <time>2020-02-10T08:23:35Z</time>
      </trkpt>
      <trkpt lat="59.247918" lon="18.101283">
        <ele>34</ele>
        <time>2020-02-10T08:23:36Z</time>
      </trkpt>
      <trkpt lat="59.247895" lon="18.101355">
        <ele>0</ele>
        <time>2020-02-10T08:23:36Z</time>
      </trkpt>
      <trkpt lat="59.247874" lon="18.101431">
        <ele>35</ele>
        <time>2020-02-10T08:23:37Z</time>
      </trkpt>
      <trkpt lat="59.247851" lon="18.101507">
        <ele>35</ele>
        <time>2020-02-10T08:23:39Z</time>
      </trkpt>
      <trkpt lat="59.247824" lon="18.101583">
        <ele>35</ele>
        <time>2020-02-10T08:23:40Z</time>
      </trkpt>
      <trkpt lat="59.2478" lon="18.101662">
        <ele>35</ele>
        <time>2020-02-10T08:23:41Z</time>
      </trkpt>
      <trkpt lat="59.247777" lon="18.101742">
        <ele>36</ele>
        <time>2020-02-10T08:23:42Z</time>
      </trkpt>
      <trkpt lat="59.247754" lon="18.101822">
        <ele>36</ele>
        <time>2020-02-10T08:23:43Z</time>
      </trkpt>
      <trkpt lat="59.247731" lon="18.101901">
        <ele>36</ele>
        <time>2020-02-10T08:23:44Z</time>
      </trkpt>
      <trkpt lat="59.24771" lon="18.101984">
        <ele>36</ele>
        <time>2020-02-10T08:23:45Z</time>
      </trkpt>
      <trkpt lat="59.247689" lon="18.102071">
        <ele>36</ele>
        <time>2020-02-10T08:23:46Z</time>
      </trkpt>
      <trkpt lat="59.247675" lon="18.10216">
        <ele>36</ele>
        <time>2020-02-10T08:23:47Z</time>
      </trkpt>
      <trkpt lat="59.247659" lon="18.102247">
        <ele>36</ele>
        <time>2020-02-10T08:23:48Z</time>
      </trkpt>
      <trkpt lat="59.24764" lon="18.10233">
        <ele>36</ele>
        <time>2020-02-10T08:23:49Z</time>
      </trkpt>
      <trkpt lat="59.24762" lon="18.102413">
        <ele>36</ele>
        <time>2020-02-10T08:23:50Z</time>
      </trkpt>
      <trkpt lat="59.247599" lon="18.102496">
        <ele>36</ele>
        <time>2020-02-10T08:23:51Z</time>
      </trkpt>
      <trkpt lat="59.247577" lon="18.10258">
        <ele>36</ele>
        <time>2020-02-10T08:23:52Z</time>
      </trkpt>
      <trkpt lat="59.247556" lon="18.102665">
        <ele>36</ele>
        <time>2020-02-10T08:23:53Z</time>
      </trkpt>
      <trkpt lat="59.247537" lon="18.102754">
        <ele>36</ele>
        <time>2020-02-10T08:23:54Z</time>
      </trkpt>
      <trkpt lat="59.247514" lon="18.102842">
        <ele>36</ele>
        <time>2020-02-10T08:23:55Z</time>
      </trkpt>
      <trkpt lat="59.247485" lon="18.102927">
        <ele>37</ele>
        <time>2020-02-10T08:23:56Z</time>
      </trkpt>
      <trkpt lat="59.247451" lon="18.103005">
        <ele>37</ele>
        <time>2020-02-10T08:23:57Z</time>
      </trkpt>
      <trkpt lat="59.24742" lon="18.103083">
        <ele>37</ele>
        <time>2020-02-10T08:23:58Z</time>
      </trkpt>
      <trkpt lat="59.247382" lon="18.103161">
        <ele>37</ele>
        <time>2020-02-10T08:23:59Z</time>
      </trkpt>
      <trkpt lat="59.247336" lon="18.103242">
        <ele>37</ele>
        <time>2020-02-10T08:24:00Z</time>
      </trkpt>
      <trkpt lat="59.247283" lon="18.103323">
        <ele>36</ele>
        <time>2020-02-10T08:24:01Z</time>
      </trkpt>
      <trkpt lat="59.247229" lon="18.103406">
        <ele>36</ele>
        <time>2020-02-10T08:24:02Z</time>
      </trkpt>
      <trkpt lat="59.247174" lon="18.1035">
        <ele>36</ele>
        <time>2020-02-10T08:24:03Z</time>
      </trkpt>
      <trkpt lat="59.247122" lon="18.103608">
        <ele>36</ele>
        <time>2020-02-10T08:24:04Z</time>
      </trkpt>
      <trkpt lat="59.247075" lon="18.10373">
        <ele>35</ele>
        <time>2020-02-10T08:24:05Z</time>
      </trkpt>
      <trkpt lat="59.247035" lon="18.103872">
        <ele>35</ele>
        <time>2020-02-10T08:24:06Z</time>
      </trkpt>
      <trkpt lat="59.247002" lon="18.104018">
        <ele>35</ele>
        <time>2020-02-10T08:24:07Z</time>
      </trkpt>
      <trkpt lat="59.24698" lon="18.104172">
        <ele>35</ele>
        <time>2020-02-10T08:24:08Z</time>
      </trkpt>
      <trkpt lat="59.246974" lon="18.104316">
        <ele>35</ele>
        <time>2020-02-10T08:24:09Z</time>
      </trkpt>
      <trkpt lat="59.246976" lon="18.104452">
        <ele>34</ele>
        <time>2020-02-10T08:24:10Z</time>
      </trkpt>
      <trkpt lat="59.246981" lon="18.104586">
        <ele>34</ele>
        <time>2020-02-10T08:24:11Z</time>
      </trkpt>
      <trkpt lat="59.246975" lon="18.104708">
        <ele>34</ele>
        <time>2020-02-10T08:24:12Z</time>
      </trkpt>
      <trkpt lat="59.246953" lon="18.104808">
        <ele>33</ele>
        <time>2020-02-10T08:24:13Z</time>
      </trkpt>
      <trkpt lat="59.246914" lon="18.10489">
        <ele>33</ele>
        <time>2020-02-10T08:24:14Z</time>
      </trkpt>
      <trkpt lat="59.246871" lon="18.104952">
        <ele>33</ele>
        <time>2020-02-10T08:24:15Z</time>
      </trkpt>
      <trkpt lat="59.246827" lon="18.105008">
        <ele>33</ele>
        <time>2020-02-10T08:24:16Z</time>
      </trkpt>
      <trkpt lat="59.246784" lon="18.10506">
        <ele>33</ele>
        <time>2020-02-10T08:24:17Z</time>
      </trkpt>
      <trkpt lat="59.246742" lon="18.105114">
        <ele>32</ele>
        <time>2020-02-10T08:24:18Z</time>
      </trkpt>
      <trkpt lat="59.2467" lon="18.105164">
        <ele>32</ele>
        <time>2020-02-10T08:24:19Z</time>
      </trkpt>
      <trkpt lat="59.246659" lon="18.105216">
        <ele>32</ele>
        <time>2020-02-10T08:24:20Z</time>
      </trkpt>
      <trkpt lat="59.246619" lon="18.105266">
        <ele>32</ele>
        <time>2020-02-10T08:24:21Z</time>
      </trkpt>
      <trkpt lat="59.246579" lon="18.105312">
        <ele>32</ele>
        <time>2020-02-10T08:24:22Z</time>
      </trkpt>
      <trkpt lat="59.246541" lon="18.10535">
        <ele>32</ele>
        <time>2020-02-10T08:24:23Z</time>
      </trkpt>
      <trkpt lat="59.2465" lon="18.10537">
        <ele>32</ele>
        <time>2020-02-10T08:24:24Z</time>
      </trkpt>
      <trkpt lat="59.24646" lon="18.105382">
        <ele>32</ele>
        <time>2020-02-10T08:24:25Z</time>
      </trkpt>
      <trkpt lat="59.246422" lon="18.105388">
        <ele>32</ele>
        <time>2020-02-10T08:24:26Z</time>
      </trkpt>
      <trkpt lat="59.246388" lon="18.105396">
        <ele>32</ele>
        <time>2020-02-10T08:24:27Z</time>
      </trkpt>
      <trkpt lat="59.246354" lon="18.105406">
        <ele>31</ele>
        <time>2020-02-10T08:24:28Z</time>
      </trkpt>
      <trkpt lat="59.246319" lon="18.10541">
        <ele>31</ele>
        <time>2020-02-10T08:24:29Z</time>
      </trkpt>
      <trkpt lat="59.246282" lon="18.105418">
        <ele>31</ele>
        <time>2020-02-10T08:24:30Z</time>
      </trkpt>
      <trkpt lat="59.246247" lon="18.105434">
        <ele>31</ele>
        <time>2020-02-10T08:24:31Z</time>
      </trkpt>
      <trkpt lat="59.246213" lon="18.105454">
        <ele>31</ele>
        <time>2020-02-10T08:24:32Z</time>
      </trkpt>
      <trkpt lat="59.246181" lon="18.105478">
        <ele>31</ele>
        <time>2020-02-10T08:24:33Z</time>
      </trkpt>
      <trkpt lat="59.246152" lon="18.105514">
        <ele>32</ele>
        <time>2020-02-10T08:24:34Z</time>
      </trkpt>
      <trkpt lat="59.246125" lon="18.105552">
        <ele>32</ele>
        <time>2020-02-10T08:24:35Z</time>
      </trkpt>
      <trkpt lat="59.2461" lon="18.105592">
        <ele>32</ele>
        <time>2020-02-10T08:24:36Z</time>
      </trkpt>
      <trkpt lat="59.246072" lon="18.10563">
        <ele>32</ele>
        <time>2020-02-10T08:24:37Z</time>
      </trkpt>
      <trkpt lat="59.246044" lon="18.10567">
        <ele>32</ele>
        <time>2020-02-10T08:24:38Z</time>
      </trkpt>
      <trkpt lat="59.246017" lon="18.105716">
        <ele>32</ele>
        <time>2020-02-10T08:24:39Z</time>
      </trkpt>
      <trkpt lat="59.245989" lon="18.10576">
        <ele>32</ele>
        <time>2020-02-10T08:24:40Z</time>
      </trkpt>
      <trkpt lat="59.245962" lon="18.105804">
        <ele>32</ele>
        <time>2020-02-10T08:24:41Z</time>
      </trkpt>
      <trkpt lat="59.245934" lon="18.105848">
        <ele>32</ele>
        <time>2020-02-10T08:24:42Z</time>
      </trkpt>
      <trkpt lat="59.245905" lon="18.10589">
        <ele>32</ele>
        <time>2020-02-10T08:24:43Z</time>
      </trkpt>
      <trkpt lat="59.245878" lon="18.105932">
        <ele>32</ele>
        <time>2020-02-10T08:24:44Z</time>
      </trkpt>
      <trkpt lat="59.245848" lon="18.105968">
        <ele>32</ele>
        <time>2020-02-10T08:24:45Z</time>
      </trkpt>
      <trkpt lat="59.24582" lon="18.106006">
        <ele>32</ele>
        <time>2020-02-10T08:24:46Z</time>
      </trkpt>
      <trkpt lat="59.245794" lon="18.106044">
        <ele>32</ele>
        <time>2020-02-10T08:24:47Z</time>
      </trkpt>
      <trkpt lat="59.245769" lon="18.106082">
        <ele>32</ele>
        <time>2020-02-10T08:24:48Z</time>
      </trkpt>
      <trkpt lat="59.245744" lon="18.106116">
        <ele>32</ele>
        <time>2020-02-10T08:24:49Z</time>
      </trkpt>
      <trkpt lat="59.24572" lon="18.10615">
        <ele>32</ele>
        <time>2020-02-10T08:24:50Z</time>
      </trkpt>
      <trkpt lat="59.245695" lon="18.106186">
        <ele>32</ele>
        <time>2020-02-10T08:24:51Z</time>
      </trkpt>
      <trkpt lat="59.245666" lon="18.106228">
        <ele>32</ele>
        <time>2020-02-10T08:24:52Z</time>
      </trkpt>
      <trkpt lat="59.245637" lon="18.106272">
        <ele>32</ele>
        <time>2020-02-10T08:24:53Z</time>
      </trkpt>
      <trkpt lat="59.24561" lon="18.106314">
        <ele>32</ele>
        <time>2020-02-10T08:24:54Z</time>
      </trkpt>
      <trkpt lat="59.245584" lon="18.106356">
        <ele>32</ele>
        <time>2020-02-10T08:24:55Z</time>
      </trkpt>
      <trkpt lat="59.245559" lon="18.106398">
        <ele>32</ele>
        <time>2020-02-10T08:24:56Z</time>
      </trkpt>
      <trkpt lat="59.245534" lon="18.10644">
        <ele>32</ele>
        <time>2020-02-10T08:24:57Z</time>
      </trkpt>
      <trkpt lat="59.24551" lon="18.106484">
        <ele>32</ele>
        <time>2020-02-10T08:24:58Z</time>
      </trkpt>
      <trkpt lat="59.245485" lon="18.106532">
        <ele>33</ele>
        <time>2020-02-10T08:24:59Z</time>
      </trkpt>
      <trkpt lat="59.245458" lon="18.106578">
        <ele>33</ele>
        <time>2020-02-10T08:25:00Z</time>
      </trkpt>
      <trkpt lat="59.245432" lon="18.106622">
        <ele>33</ele>
        <time>2020-02-10T08:25:01Z</time>
      </trkpt>
      <trkpt lat="59.245407" lon="18.106668">
        <ele>34</ele>
        <time>2020-02-10T08:25:02Z</time>
      </trkpt>
      <trkpt lat="59.245383" lon="18.106712">
        <ele>34</ele>
        <time>2020-02-10T08:25:03Z</time>
      </trkpt>
      <trkpt lat="59.24536" lon="18.106758">
        <ele>34</ele>
        <time>2020-02-10T08:25:04Z</time>
      </trkpt>
      <trkpt lat="59.245337" lon="18.106802">
        <ele>34</ele>
        <time>2020-02-10T08:25:05Z</time>
      </trkpt>
      <trkpt lat="59.245313" lon="18.106848">
        <ele>34</ele>
        <time>2020-02-10T08:25:06Z</time>
      </trkpt>
      <trkpt lat="59.245291" lon="18.106896">
        <ele>34</ele>
        <time>2020-02-10T08:25:07Z</time>
      </trkpt>
      <trkpt lat="59.245266" lon="18.106942">
        <ele>34</ele>
        <time>2020-02-10T08:25:08Z</time>
      </trkpt>
      <trkpt lat="59.24524" lon="18.106988">
        <ele>34</ele>
        <time>2020-02-10T08:25:09Z</time>
      </trkpt>
      <trkpt lat="59.245214" lon="18.107034">
        <ele>34</ele>
        <time>2020-02-10T08:25:10Z</time>
      </trkpt>
      <trkpt lat="59.245186" lon="18.10708">
        <ele>34</ele>
        <time>2020-02-10T08:25:11Z</time>
      </trkpt>
      <trkpt lat="59.24516" lon="18.107128">
        <ele>34</ele>
        <time>2020-02-10T08:25:12Z</time>
      </trkpt>
      <trkpt lat="59.245134" lon="18.107174">
        <ele>35</ele>
        <time>2020-02-10T08:25:13Z</time>
      </trkpt>
      <trkpt lat="59.24511" lon="18.10722">
        <ele>35</ele>
        <time>2020-02-10T08:25:14Z</time>
      </trkpt>
      <trkpt lat="59.245085" lon="18.107264">
        <ele>35</ele>
        <time>2020-02-10T08:25:15Z</time>
      </trkpt>
      <trkpt lat="59.24506" lon="18.107308">
        <ele>35</ele>
        <time>2020-02-10T08:25:16Z</time>
      </trkpt>
      <trkpt lat="59.245034" lon="18.107352">
        <ele>35</ele>
        <time>2020-02-10T08:25:17Z</time>
      </trkpt>
      <trkpt lat="59.245007" lon="18.107394">
        <ele>35</ele>
        <time>2020-02-10T08:25:18Z</time>
      </trkpt>
      <trkpt lat="59.24498" lon="18.107436">
        <ele>35</ele>
        <time>2020-02-10T08:25:19Z</time>
      </trkpt>
      <trkpt lat="59.244951" lon="18.107478">
        <ele>35</ele>
        <time>2020-02-10T08:25:20Z</time>
      </trkpt>
      <trkpt lat="59.244925" lon="18.107518">
        <ele>35</ele>
        <time>2020-02-10T08:25:21Z</time>
      </trkpt>
      <trkpt lat="59.244898" lon="18.10756">
        <ele>35</ele>
        <time>2020-02-10T08:25:22Z</time>
      </trkpt>
      <trkpt lat="59.244872" lon="18.107604">
        <ele>35</ele>
        <time>2020-02-10T08:25:23Z</time>
      </trkpt>
      <trkpt lat="59.244846" lon="18.10765">
        <ele>35</ele>
        <time>2020-02-10T08:25:24Z</time>
      </trkpt>
      <trkpt lat="59.24482" lon="18.107698">
        <ele>35</ele>
        <time>2020-02-10T08:25:25Z</time>
      </trkpt>
      <trkpt lat="59.244794" lon="18.107746">
        <ele>35</ele>
        <time>2020-02-10T08:25:26Z</time>
      </trkpt>
      <trkpt lat="59.244768" lon="18.1078">
        <ele>36</ele>
        <time>2020-02-10T08:25:27Z</time>
      </trkpt>
      <trkpt lat="59.244739" lon="18.107856">
        <ele>36</ele>
        <time>2020-02-10T08:25:28Z</time>
      </trkpt>
      <trkpt lat="59.244712" lon="18.107912">
        <ele>36</ele>
        <time>2020-02-10T08:25:29Z</time>
      </trkpt>
      <trkpt lat="59.244681" lon="18.10797">
        <ele>36</ele>
        <time>2020-02-10T08:25:30Z</time>
      </trkpt>
      <trkpt lat="59.244651" lon="18.10803">
        <ele>36</ele>
        <time>2020-02-10T08:25:31Z</time>
      </trkpt>
      <trkpt lat="59.244621" lon="18.108092">
        <ele>0</ele>
        <time>2020-02-10T08:25:31Z</time>
      </trkpt>
      <trkpt lat="59.244592" lon="18.108152">
        <ele>36</ele>
        <time>2020-02-10T08:25:32Z</time>
      </trkpt>
      <trkpt lat="59.244562" lon="18.10821">
        <ele>36</ele>
        <time>2020-02-10T08:25:34Z</time>
      </trkpt>
      <trkpt lat="59.244531" lon="18.108272">
        <ele>36</ele>
        <time>2020-02-10T08:25:35Z</time>
      </trkpt>
      <trkpt lat="59.244497" lon="18.108336">
        <ele>36</ele>
        <time>2020-02-10T08:25:36Z</time>
      </trkpt>
      <trkpt lat="59.244465" lon="18.108402">
        <ele>36</ele>
        <time>2020-02-10T08:25:37Z</time>
      </trkpt>
      <trkpt lat="59.24443" lon="18.10847">
        <ele>36</ele>
        <time>2020-02-10T08:25:38Z</time>
      </trkpt>
      <trkpt lat="59.244393" lon="18.108538">
        <ele>36</ele>
        <time>2020-02-10T08:25:39Z</time>
      </trkpt>
      <trkpt lat="59.244356" lon="18.108606">
        <ele>36</ele>
        <time>2020-02-10T08:25:40Z</time>
      </trkpt>
      <trkpt lat="59.24432" lon="18.108678">
        <ele>36</ele>
        <time>2020-02-10T08:25:41Z</time>
      </trkpt>
      <trkpt lat="59.244284" lon="18.10875">
        <ele>0</ele>
        <time>2020-02-10T08:25:41Z</time>
      </trkpt>
      <trkpt lat="59.244248" lon="18.108822">
        <ele>36</ele>
        <time>2020-02-10T08:25:42Z</time>
      </trkpt>
      <trkpt lat="59.244211" lon="18.108892">
        <ele>36</ele>
        <time>2020-02-10T08:25:44Z</time>
      </trkpt>
      <trkpt lat="59.244173" lon="18.108968">
        <ele>36</ele>
        <time>2020-02-10T08:25:45Z</time>
      </trkpt>
      <trkpt lat="59.244136" lon="18.10905">
        <ele>36</ele>
        <time>2020-02-10T08:25:46Z</time>
      </trkpt>
      <trkpt lat="59.244103" lon="18.10913">
        <ele>36</ele>
        <time>2020-02-10T08:25:47Z</time>
      </trkpt>
      <trkpt lat="59.244072" lon="18.109214">
        <ele>36</ele>
        <time>2020-02-10T08:25:48Z</time>
      </trkpt>
      <trkpt lat="59.244044" lon="18.109304">
        <ele>36</ele>
        <time>2020-02-10T08:25:49Z</time>
      </trkpt>
      <trkpt lat="59.244019" lon="18.1094">
        <ele>36</ele>
        <time>2020-02-10T08:25:50Z</time>
      </trkpt>
      <trkpt lat="59.243998" lon="18.109502">
        <ele>0</ele>
        <time>2020-02-10T08:25:50Z</time>
      </trkpt>
      <trkpt lat="59.243979" lon="18.109608">
        <ele>36</ele>
        <time>2020-02-10T08:25:51Z</time>
      </trkpt>
      <trkpt lat="59.243963" lon="18.10972">
        <ele>35</ele>
        <time>2020-02-10T08:25:53Z</time>
      </trkpt>
      <trkpt lat="59.24395" lon="18.109834">
        <ele>35</ele>
        <time>2020-02-10T08:25:54Z</time>
      </trkpt>
      <trkpt lat="59.243941" lon="18.10995">
        <ele>35</ele>
        <time>2020-02-10T08:25:55Z</time>
      </trkpt>
      <trkpt lat="59.243936" lon="18.110064">
        <ele>35</ele>
        <time>2020-02-10T08:25:56Z</time>
      </trkpt>
      <trkpt lat="59.243931" lon="18.110184">
        <ele>34</ele>
        <time>2020-02-10T08:25:57Z</time>
      </trkpt>
      <trkpt lat="59.243929" lon="18.11031">
        <ele>34</ele>
        <time>2020-02-10T08:25:58Z</time>
      </trkpt>
      <trkpt lat="59.243928" lon="18.11044">
        <ele>0</ele>
        <time>2020-02-10T08:25:58Z</time>
      </trkpt>
      <trkpt lat="59.243928" lon="18.110574">
        <ele>34</ele>
        <time>2020-02-10T08:25:59Z</time>
      </trkpt>
      <trkpt lat="59.243928" lon="18.110714">
        <ele>33</ele>
        <time>2020-02-10T08:26:01Z</time>
      </trkpt>
      <trkpt lat="59.243926" lon="18.110857">
        <ele>33</ele>
        <time>2020-02-10T08:26:02Z</time>
      </trkpt>
      <trkpt lat="59.243926" lon="18.110997">
        <ele>32</ele>
        <time>2020-02-10T08:26:03Z</time>
      </trkpt>
      <trkpt lat="59.243925" lon="18.111136">
        <ele>32</ele>
        <time>2020-02-10T08:26:04Z</time>
      </trkpt>
      <trkpt lat="59.243924" lon="18.111278">
        <ele>31</ele>
        <time>2020-02-10T08:26:05Z</time>
      </trkpt>
      <trkpt lat="59.24392" lon="18.111419">
        <ele>0</ele>
        <time>2020-02-10T08:26:05Z</time>
      </trkpt>
      <trkpt lat="59.243918" lon="18.111561">
        <ele>31</ele>
        <time>2020-02-10T08:26:06Z</time>
      </trkpt>
      <trkpt lat="59.243916" lon="18.111707">
        <ele>30</ele>
        <time>2020-02-10T08:26:08Z</time>
      </trkpt>
      <trkpt lat="59.243914" lon="18.111854">
        <ele>30</ele>
        <time>2020-02-10T08:26:09Z</time>
      </trkpt>
      <trkpt lat="59.243913" lon="18.112002">
        <ele>30</ele>
        <time>2020-02-10T08:26:10Z</time>
      </trkpt>
      <trkpt lat="59.243911" lon="18.112151">
        <ele>30</ele>
        <time>2020-02-10T08:26:11Z</time>
      </trkpt>
      <trkpt lat="59.243908" lon="18.112301">
        <ele>30</ele>
        <time>2020-02-10T08:26:12Z</time>
      </trkpt>
      <trkpt lat="59.243904" lon="18.11245">
        <ele>0</ele>
        <time>2020-02-10T08:26:12Z</time>
      </trkpt>
      <trkpt lat="59.2439" lon="18.112597">
        <ele>29</ele>
        <time>2020-02-10T08:26:13Z</time>
      </trkpt>
      <trkpt lat="59.243895" lon="18.112744">
        <ele>29</ele>
        <time>2020-02-10T08:26:15Z</time>
      </trkpt>
      <trkpt lat="59.243889" lon="18.112889">
        <ele>29</ele>
        <time>2020-02-10T08:26:16Z</time>
      </trkpt>
      <trkpt lat="59.243881" lon="18.113031">
        <ele>29</ele>
        <time>2020-02-10T08:26:17Z</time>
      </trkpt>
      <trkpt lat="59.243871" lon="18.11317">
        <ele>29</ele>
        <time>2020-02-10T08:26:18Z</time>
      </trkpt>
      <trkpt lat="59.24386" lon="18.113307">
        <ele>29</ele>
        <time>2020-02-10T08:26:19Z</time>
      </trkpt>
      <trkpt lat="59.243849" lon="18.113441">
        <ele>0</ele>
        <time>2020-02-10T08:26:19Z</time>
      </trkpt>
      <trkpt lat="59.243837" lon="18.113573">
        <ele>29</ele>
        <time>2020-02-10T08:26:20Z</time>
      </trkpt>
      <trkpt lat="59.243826" lon="18.113702">
        <ele>29</ele>
        <time>2020-02-10T08:26:22Z</time>
      </trkpt>
      <trkpt lat="59.243811" lon="18.113829">
        <ele>29</ele>
        <time>2020-02-10T08:26:23Z</time>
      </trkpt>
      <trkpt lat="59.243795" lon="18.113954">
        <ele>29</ele>
        <time>2020-02-10T08:26:24Z</time>
      </trkpt>
      <trkpt lat="59.243778" lon="18.114079">
        <ele>29</ele>
        <time>2020-02-10T08:26:25Z</time>
      </trkpt>
      <trkpt lat="59.243761" lon="18.114202">
        <ele>29</ele>
        <time>2020-02-10T08:26:26Z</time>
      </trkpt>
      <trkpt lat="59.243744" lon="18.114324">
        <ele>0</ele>
        <time>2020-02-10T08:26:26Z</time>
      </trkpt>
      <trkpt lat="59.243726" lon="18.114447">
        <ele>29</ele>
        <time>2020-02-10T08:26:27Z</time>
      </trkpt>
      <trkpt lat="59.243706" lon="18.114567">
        <ele>29</ele>
        <time>2020-02-10T08:26:29Z</time>
      </trkpt>
      <trkpt lat="59.243685" lon="18.114687">
        <ele>29</ele>
        <time>2020-02-10T08:26:30Z</time>
      </trkpt>
      <trkpt lat="59.243666" lon="18.114805">
        <ele>29</ele>
        <time>2020-02-10T08:26:31Z</time>
      </trkpt>
      <trkpt lat="59.243646" lon="18.114919">
        <ele>29</ele>
        <time>2020-02-10T08:26:32Z</time>
      </trkpt>
      <trkpt lat="59.243627" lon="18.115036">
        <ele>29</ele>
        <time>2020-02-10T08:26:33Z</time>
      </trkpt>
      <trkpt lat="59.24361" lon="18.115158">
        <ele>29</ele>
        <time>2020-02-10T08:26:34Z</time>
      </trkpt>
      <trkpt lat="59.2436" lon="18.115284">
        <ele>0</ele>
        <time>2020-02-10T08:26:34Z</time>
      </trkpt>
      <trkpt lat="59.243589" lon="18.115412">
        <ele>29</ele>
        <time>2020-02-10T08:26:35Z</time>
      </trkpt>
      <trkpt lat="59.243572" lon="18.115543">
        <ele>28</ele>
        <time>2020-02-10T08:26:37Z</time>
      </trkpt>
      <trkpt lat="59.243547" lon="18.115671">
        <ele>28</ele>
        <time>2020-02-10T08:26:38Z</time>
      </trkpt>
      <trkpt lat="59.243514" lon="18.115794">
        <ele>28</ele>
        <time>2020-02-10T08:26:39Z</time>
      </trkpt>
      <trkpt lat="59.243478" lon="18.11591">
        <ele>28</ele>
        <time>2020-02-10T08:26:40Z</time>
      </trkpt>
      <trkpt lat="59.243441" lon="18.116025">
        <ele>28</ele>
        <time>2020-02-10T08:26:41Z</time>
      </trkpt>
      <trkpt lat="59.243405" lon="18.116139">
        <ele>27</ele>
        <time>2020-02-10T08:26:42Z</time>
      </trkpt>
      <trkpt lat="59.243368" lon="18.116252">
        <ele>27</ele>
        <time>2020-02-10T08:26:43Z</time>
      </trkpt>
      <trkpt lat="59.243332" lon="18.116365">
        <ele>27</ele>
        <time>2020-02-10T08:26:44Z</time>
      </trkpt>
      <trkpt lat="59.243295" lon="18.116477">
        <ele>27</ele>
        <time>2020-02-10T08:26:45Z</time>
      </trkpt>
      <trkpt lat="59.24326" lon="18.116588">
        <ele>26</ele>
        <time>2020-02-10T08:26:46Z</time>
      </trkpt>
      <trkpt lat="59.243226" lon="18.116699">
        <ele>26</ele>
        <time>2020-02-10T08:26:47Z</time>
      </trkpt>
      <trkpt lat="59.243191" lon="18.116809">
        <ele>26</ele>
        <time>2020-02-10T08:26:48Z</time>
      </trkpt>
      <trkpt lat="59.243153" lon="18.11692">
        <ele>26</ele>
        <time>2020-02-10T08:26:49Z</time>
      </trkpt>
      <trkpt lat="59.243117" lon="18.117032">
        <ele>26</ele>
        <time>2020-02-10T08:26:50Z</time>
      </trkpt>
      <trkpt lat="59.243079" lon="18.117144">
        <ele>26</ele>
        <time>2020-02-10T08:26:51Z</time>
      </trkpt>
      <trkpt lat="59.243041" lon="18.117254">
        <ele>26</ele>
        <time>2020-02-10T08:26:52Z</time>
      </trkpt>
      <trkpt lat="59.243005" lon="18.117366">
        <ele>25</ele>
        <time>2020-02-10T08:26:53Z</time>
      </trkpt>
      <trkpt lat="59.242973" lon="18.11748">
        <ele>25</ele>
        <time>2020-02-10T08:26:54Z</time>
      </trkpt>
      <trkpt lat="59.242939" lon="18.117592">
        <ele>25</ele>
        <time>2020-02-10T08:26:55Z</time>
      </trkpt>
      <trkpt lat="59.242905" lon="18.117702">
        <ele>25</ele>
        <time>2020-02-10T08:26:56Z</time>
      </trkpt>
      <trkpt lat="59.242871" lon="18.117808">
        <ele>0</ele>
        <time>2020-02-10T08:26:56Z</time>
      </trkpt>
      <trkpt lat="59.24284" lon="18.117914">
        <ele>25</ele>
        <time>2020-02-10T08:26:57Z</time>
      </trkpt>
      <trkpt lat="59.242809" lon="18.118017">
        <ele>25</ele>
        <time>2020-02-10T08:26:59Z</time>
      </trkpt>
      <trkpt lat="59.242779" lon="18.118115">
        <ele>25</ele>
        <time>2020-02-10T08:27:00Z</time>
      </trkpt>
      <trkpt lat="59.242748" lon="18.118208">
        <ele>25</ele>
        <time>2020-02-10T08:27:01Z</time>
      </trkpt>
      <trkpt lat="59.242716" lon="18.118303">
        <ele>25</ele>
        <time>2020-02-10T08:27:02Z</time>
      </trkpt>
      <trkpt lat="59.242686" lon="18.118398">
        <ele>25</ele>
        <time>2020-02-10T08:27:03Z</time>
      </trkpt>
      <trkpt lat="59.242656" lon="18.118491">
        <ele>25</ele>
        <time>2020-02-10T08:27:04Z</time>
      </trkpt>
      <trkpt lat="59.242624" lon="18.118584">
        <ele>25</ele>
        <time>2020-02-10T08:27:05Z</time>
      </trkpt>
      <trkpt lat="59.242592" lon="18.118677">
        <ele>0</ele>
        <time>2020-02-10T08:27:05Z</time>
      </trkpt>
      <trkpt lat="59.242557" lon="18.118765">
        <ele>25</ele>
        <time>2020-02-10T08:27:06Z</time>
      </trkpt>
      <trkpt lat="59.24252" lon="18.118847">
        <ele>25</ele>
        <time>2020-02-10T08:27:08Z</time>
      </trkpt>
      <trkpt lat="59.242481" lon="18.118925">
        <ele>25</ele>
        <time>2020-02-10T08:27:09Z</time>
      </trkpt>
      <trkpt lat="59.242442" lon="18.118994">
        <ele>26</ele>
        <time>2020-02-10T08:27:10Z</time>
      </trkpt>
      <trkpt lat="59.242401" lon="18.119053">
        <ele>26</ele>
        <time>2020-02-10T08:27:11Z</time>
      </trkpt>
      <trkpt lat="59.242355" lon="18.119103">
        <ele>26</ele>
        <time>2020-02-10T08:27:12Z</time>
      </trkpt>
      <trkpt lat="59.242307" lon="18.119147">
        <ele>26</ele>
        <time>2020-02-10T08:27:13Z</time>
      </trkpt>
      <trkpt lat="59.242258" lon="18.119184">
        <ele>26</ele>
        <time>2020-02-10T08:27:14Z</time>
      </trkpt>
      <trkpt lat="59.242211" lon="18.11922">
        <ele>0</ele>
        <time>2020-02-10T08:27:14Z</time>
      </trkpt>
      <trkpt lat="59.242164" lon="18.119254">
        <ele>26</ele>
        <time>2020-02-10T08:27:15Z</time>
      </trkpt>
      <trkpt lat="59.242117" lon="18.119289">
        <ele>26</ele>
        <time>2020-02-10T08:27:17Z</time>
      </trkpt>
      <trkpt lat="59.24207" lon="18.119317">
        <ele>26</ele>
        <time>2020-02-10T08:27:18Z</time>
      </trkpt>
      <trkpt lat="59.242022" lon="18.119341">
        <ele>25</ele>
        <time>2020-02-10T08:27:19Z</time>
      </trkpt>
      <trkpt lat="59.241974" lon="18.119366">
        <ele>25</ele>
        <time>2020-02-10T08:27:20Z</time>
      </trkpt>
      <trkpt lat="59.241928" lon="18.1194">
        <ele>26</ele>
        <time>2020-02-10T08:27:21Z</time>
      </trkpt>
      <trkpt lat="59.241889" lon="18.119456">
        <ele>26</ele>
        <time>2020-02-10T08:27:22Z</time>
      </trkpt>
      <trkpt lat="59.24186" lon="18.119529">
        <ele>26</ele>
        <time>2020-02-10T08:27:23Z</time>
      </trkpt>
      <trkpt lat="59.241835" lon="18.119607">
        <ele>26</ele>
        <time>2020-02-10T08:27:24Z</time>
      </trkpt>
      <trkpt lat="59.241817" lon="18.119694">
        <ele>25</ele>
        <time>2020-02-10T08:27:25Z</time>
      </trkpt>
      <trkpt lat="59.241801" lon="18.119784">
        <ele>26</ele>
        <time>2020-02-10T08:27:26Z</time>
      </trkpt>
      <trkpt lat="59.241781" lon="18.119868">
        <ele>26</ele>
        <time>2020-02-10T08:27:27Z</time>
      </trkpt>
      <trkpt lat="59.241757" lon="18.119945">
        <ele>26</ele>
        <time>2020-02-10T08:27:28Z</time>
      </trkpt>
      <trkpt lat="59.241729" lon="18.120016">
        <ele>26</ele>
        <time>2020-02-10T08:27:29Z</time>
      </trkpt>
      <trkpt lat="59.241701" lon="18.12009">
        <ele>26</ele>
        <time>2020-02-10T08:27:30Z</time>
      </trkpt>
      <trkpt lat="59.241664" lon="18.120155">
        <ele>26</ele>
        <time>2020-02-10T08:27:31Z</time>
      </trkpt>
      <trkpt lat="59.24162" lon="18.120186">
        <ele>26</ele>
        <time>2020-02-10T08:27:32Z</time>
      </trkpt>
      <trkpt lat="59.241568" lon="18.120187">
        <ele>26</ele>
        <time>2020-02-10T08:27:33Z</time>
      </trkpt>
      <trkpt lat="59.241514" lon="18.12017">
        <ele>26</ele>
        <time>2020-02-10T08:27:34Z</time>
      </trkpt>
      <trkpt lat="59.24146" lon="18.120143">
        <ele>26</ele>
        <time>2020-02-10T08:27:35Z</time>
      </trkpt>
      <trkpt lat="59.241404" lon="18.120115">
        <ele>26</ele>
        <time>2020-02-10T08:27:36Z</time>
      </trkpt>
      <trkpt lat="59.241345" lon="18.12009">
        <ele>26</ele>
        <time>2020-02-10T08:27:37Z</time>
      </trkpt>
      <trkpt lat="59.241292" lon="18.120067">
        <ele>27</ele>
        <time>2020-02-10T08:27:38Z</time>
      </trkpt>
      <trkpt lat="59.241245" lon="18.120054">
        <ele>27</ele>
        <time>2020-02-10T08:27:39Z</time>
      </trkpt>
      <trkpt lat="59.2412" lon="18.12003">
        <ele>27</ele>
        <time>2020-02-10T08:27:40Z</time>
      </trkpt>
      <trkpt lat="59.241152" lon="18.120011">
        <ele>26</ele>
        <time>2020-02-10T08:27:41Z</time>
      </trkpt>
      <trkpt lat="59.241104" lon="18.119985">
        <ele>26</ele>
        <time>2020-02-10T08:27:42Z</time>
      </trkpt>
      <trkpt lat="59.241049" lon="18.119922">
        <ele>26</ele>
        <time>2020-02-10T08:27:43Z</time>
      </trkpt>
      <trkpt lat="59.24099" lon="18.119824">
        <ele>26</ele>
        <time>2020-02-10T08:27:44Z</time>
      </trkpt>
      <trkpt lat="59.240932" lon="18.119736">
        <ele>26</ele>
        <time>2020-02-10T08:27:45Z</time>
      </trkpt>
      <trkpt lat="59.240876" lon="18.119669">
        <ele>26</ele>
        <time>2020-02-10T08:27:46Z</time>
      </trkpt>
      <trkpt lat="59.240822" lon="18.119612">
        <ele>26</ele>
        <time>2020-02-10T08:27:47Z</time>
      </trkpt>
      <trkpt lat="59.240766" lon="18.119578">
        <ele>26</ele>
        <time>2020-02-10T08:27:48Z</time>
      </trkpt>
      <trkpt lat="59.240708" lon="18.119559">
        <ele>26</ele>
        <time>2020-02-10T08:27:49Z</time>
      </trkpt>
      <trkpt lat="59.240652" lon="18.119558">
        <ele>26</ele>
        <time>2020-02-10T08:27:50Z</time>
      </trkpt>
      <trkpt lat="59.240599" lon="18.119567">
        <ele>26</ele>
        <time>2020-02-10T08:27:51Z</time>
      </trkpt>
      <trkpt lat="59.240547" lon="18.119563">
        <ele>26</ele>
        <time>2020-02-10T08:27:52Z</time>
      </trkpt>
      <trkpt lat="59.2405" lon="18.119535">
        <ele>26</ele>
        <time>2020-02-10T08:27:53Z</time>
      </trkpt>
      <trkpt lat="59.240462" lon="18.119485">
        <ele>26</ele>
        <time>2020-02-10T08:27:54Z</time>
      </trkpt>
      <trkpt lat="59.240426" lon="18.119434">
        <ele>26</ele>
        <time>2020-02-10T08:27:55Z</time>
      </trkpt>
      <trkpt lat="59.240386" lon="18.119406">
        <ele>26</ele>
        <time>2020-02-10T08:27:56Z</time>
      </trkpt>
      <trkpt lat="59.240339" lon="18.119408">
        <ele>26</ele>
        <time>2020-02-10T08:27:57Z</time>
      </trkpt>
      <trkpt lat="59.24029" lon="18.119423">
        <ele>26</ele>
        <time>2020-02-10T08:27:58Z</time>
      </trkpt>
      <trkpt lat="59.240241" lon="18.119443">
        <ele>27</ele>
        <time>2020-02-10T08:27:59Z</time>
      </trkpt>
      <trkpt lat="59.240192" lon="18.119463">
        <ele>27</ele>
        <time>2020-02-10T08:28:00Z</time>
      </trkpt>
      <trkpt lat="59.240142" lon="18.119484">
        <ele>27</ele>
        <time>2020-02-10T08:28:01Z</time>
      </trkpt>
      <trkpt lat="59.240094" lon="18.119505">
        <ele>27</ele>
        <time>2020-02-10T08:28:02Z</time>
      </trkpt>
      <trkpt lat="59.240046" lon="18.119525">
        <ele>27</ele>
        <time>2020-02-10T08:28:03Z</time>
      </trkpt>
      <trkpt lat="59.239997" lon="18.119547">
        <ele>27</ele>
        <time>2020-02-10T08:28:04Z</time>
      </trkpt>
      <trkpt lat="59.239949" lon="18.119568">
        <ele>27</ele>
        <time>2020-02-10T08:28:05Z</time>
      </trkpt>
      <trkpt lat="59.2399" lon="18.119591">
        <ele>27</ele>
        <time>2020-02-10T08:28:06Z</time>
      </trkpt>
      <trkpt lat="59.239853" lon="18.119609">
        <ele>27</ele>
        <time>2020-02-10T08:28:07Z</time>
      </trkpt>
      <trkpt lat="59.239807" lon="18.119625">
        <ele>27</ele>
        <time>2020-02-10T08:28:08Z</time>
      </trkpt>
      <trkpt lat="59.23976" lon="18.119646">
        <ele>27</ele>
        <time>2020-02-10T08:28:09Z</time>
      </trkpt>
      <trkpt lat="59.239713" lon="18.119664">
        <ele>28</ele>
        <time>2020-02-10T08:28:10Z</time>
      </trkpt>
      <trkpt lat="59.239665" lon="18.119687">
        <ele>28</ele>
        <time>2020-02-10T08:28:11Z</time>
      </trkpt>
      <trkpt lat="59.23962" lon="18.119711">
        <ele>28</ele>
        <time>2020-02-10T08:28:12Z</time>
      </trkpt>
      <trkpt lat="59.239575" lon="18.119728">
        <ele>28</ele>
        <time>2020-02-10T08:28:13Z</time>
      </trkpt>
      <trkpt lat="59.239528" lon="18.119748">
        <ele>28</ele>
        <time>2020-02-10T08:28:14Z</time>
      </trkpt>
      <trkpt lat="59.239482" lon="18.119768">
        <ele>28</ele>
        <time>2020-02-10T08:28:15Z</time>
      </trkpt>
      <trkpt lat="59.239435" lon="18.119788">
        <ele>28</ele>
        <time>2020-02-10T08:28:16Z</time>
      </trkpt>
      <trkpt lat="59.239387" lon="18.119803">
        <ele>28</ele>
        <time>2020-02-10T08:28:17Z</time>
      </trkpt>
      <trkpt lat="59.239341" lon="18.119816">
        <ele>28</ele>
        <time>2020-02-10T08:28:18Z</time>
      </trkpt>
      <trkpt lat="59.239296" lon="18.119826">
        <ele>28</ele>
        <time>2020-02-10T08:28:19Z</time>
      </trkpt>
      <trkpt lat="59.239251" lon="18.119836">
        <ele>28</ele>
        <time>2020-02-10T08:28:20Z</time>
      </trkpt>
      <trkpt lat="59.239205" lon="18.119848">
        <ele>28</ele>
        <time>2020-02-10T08:28:21Z</time>
      </trkpt>
      <trkpt lat="59.23916" lon="18.119856">
        <ele>28</ele>
        <time>2020-02-10T08:28:22Z</time>
      </trkpt>
      <trkpt lat="59.239116" lon="18.119857">
        <ele>28</ele>
        <time>2020-02-10T08:28:23Z</time>
      </trkpt>
      <trkpt lat="59.239071" lon="18.119858">
        <ele>28</ele>
        <time>2020-02-10T08:28:24Z</time>
      </trkpt>
      <trkpt lat="59.239024" lon="18.119861">
        <ele>0</ele>
        <time>2020-02-10T08:28:24Z</time>
      </trkpt>
      <trkpt lat="59.238979" lon="18.119864">
        <ele>28</ele>
        <time>2020-02-10T08:28:25Z</time>
      </trkpt>
      <trkpt lat="59.238936" lon="18.119864">
        <ele>28</ele>
        <time>2020-02-10T08:28:27Z</time>
      </trkpt>
      <trkpt lat="59.238894" lon="18.119864">
        <ele>28</ele>
        <time>2020-02-10T08:28:28Z</time>
      </trkpt>
      <trkpt lat="59.238853" lon="18.119862">
        <ele>28</ele>
        <time>2020-02-10T08:28:29Z</time>
      </trkpt>
      <trkpt lat="59.238812" lon="18.119857">
        <ele>28</ele>
        <time>2020-02-10T08:28:30Z</time>
      </trkpt>
      <trkpt lat="59.23877" lon="18.119853">
        <ele>29</ele>
        <time>2020-02-10T08:28:31Z</time>
      </trkpt>
      <trkpt lat="59.238728" lon="18.11985">
        <ele>29</ele>
        <time>2020-02-10T08:28:32Z</time>
      </trkpt>
      <trkpt lat="59.238685" lon="18.119843">
        <ele>29</ele>
        <time>2020-02-10T08:28:33Z</time>
      </trkpt>
      <trkpt lat="59.238641" lon="18.119835">
        <ele>29</ele>
        <time>2020-02-10T08:28:34Z</time>
      </trkpt>
      <trkpt lat="59.238598" lon="18.119829">
        <ele>29</ele>
        <time>2020-02-10T08:28:35Z</time>
      </trkpt>
      <trkpt lat="59.238554" lon="18.119822">
        <ele>29</ele>
        <time>2020-02-10T08:28:36Z</time>
      </trkpt>
      <trkpt lat="59.238511" lon="18.119816">
        <ele>29</ele>
        <time>2020-02-10T08:28:37Z</time>
      </trkpt>
      <trkpt lat="59.238468" lon="18.11981">
        <ele>29</ele>
        <time>2020-02-10T08:28:38Z</time>
      </trkpt>
      <trkpt lat="59.238429" lon="18.119805">
        <ele>29</ele>
        <time>2020-02-10T08:28:39Z</time>
      </trkpt>
      <trkpt lat="59.238391" lon="18.119801">
        <ele>30</ele>
        <time>2020-02-10T08:28:40Z</time>
      </trkpt>
      <trkpt lat="59.238352" lon="18.119794">
        <ele>30</ele>
        <time>2020-02-10T08:28:41Z</time>
      </trkpt>
      <trkpt lat="59.238314" lon="18.119786">
        <ele>30</ele>
        <time>2020-02-10T08:28:42Z</time>
      </trkpt>
      <trkpt lat="59.238278" lon="18.119777">
        <ele>30</ele>
        <time>2020-02-10T08:28:43Z</time>
      </trkpt>
      <trkpt lat="59.238243" lon="18.119771">
        <ele>30</ele>
        <time>2020-02-10T08:28:44Z</time>
      </trkpt>
      <trkpt lat="59.238212" lon="18.119764">
        <ele>31</ele>
        <time>2020-02-10T08:28:45Z</time>
      </trkpt>
      <trkpt lat="59.238183" lon="18.119755">
        <ele>30</ele>
        <time>2020-02-10T08:28:46Z</time>
      </trkpt>
      <trkpt lat="59.238153" lon="18.119747">
        <ele>30</ele>
        <time>2020-02-10T08:28:47Z</time>
      </trkpt>
      <trkpt lat="59.238119" lon="18.119739">
        <ele>30</ele>
        <time>2020-02-10T08:28:48Z</time>
      </trkpt>
      <trkpt lat="59.238083" lon="18.119732">
        <ele>31</ele>
        <time>2020-02-10T08:28:49Z</time>
      </trkpt>
      <trkpt lat="59.238044" lon="18.119722">
        <ele>31</ele>
        <time>2020-02-10T08:28:50Z</time>
      </trkpt>
      <trkpt lat="59.238008" lon="18.119712">
        <ele>31</ele>
        <time>2020-02-10T08:28:51Z</time>
      </trkpt>
      <trkpt lat="59.237973" lon="18.119705">
        <ele>31</ele>
        <time>2020-02-10T08:28:52Z</time>
      </trkpt>
      <trkpt lat="59.237941" lon="18.119698">
        <ele>31</ele>
        <time>2020-02-10T08:28:53Z</time>
      </trkpt>
      <trkpt lat="59.237908" lon="18.119691">
        <ele>31</ele>
        <time>2020-02-10T08:28:54Z</time>
      </trkpt>
      <trkpt lat="59.237874" lon="18.119687">
        <ele>31</ele>
        <time>2020-02-10T08:28:55Z</time>
      </trkpt>
      <trkpt lat="59.237837" lon="18.119682">
        <ele>31</ele>
        <time>2020-02-10T08:28:56Z</time>
      </trkpt>
      <trkpt lat="59.237801" lon="18.119677">
        <ele>31</ele>
        <time>2020-02-10T08:28:57Z</time>
      </trkpt>
      <trkpt lat="59.237764" lon="18.119673">
        <ele>31</ele>
        <time>2020-02-10T08:28:58Z</time>
      </trkpt>
      <trkpt lat="59.237725" lon="18.119669">
        <ele>31</ele>
        <time>2020-02-10T08:28:59Z</time>
      </trkpt>
      <trkpt lat="59.237686" lon="18.119664">
        <ele>31</ele>
        <time>2020-02-10T08:29:00Z</time>
      </trkpt>
      <trkpt lat="59.237646" lon="18.119656">
        <ele>31</ele>
        <time>2020-02-10T08:29:01Z</time>
      </trkpt>
      <trkpt lat="59.237606" lon="18.119648">
        <ele>31</ele>
        <time>2020-02-10T08:29:02Z</time>
      </trkpt>
      <trkpt lat="59.237566" lon="18.11964">
        <ele>31</ele>
        <time>2020-02-10T08:29:03Z</time>
      </trkpt>
      <trkpt lat="59.237525" lon="18.119632">
        <ele>31</ele>
        <time>2020-02-10T08:29:04Z</time>
      </trkpt>
      <trkpt lat="59.237483" lon="18.119623">
        <ele>31</ele>
        <time>2020-02-10T08:29:05Z</time>
      </trkpt>
      <trkpt lat="59.237439" lon="18.119614">
        <ele>31</ele>
        <time>2020-02-10T08:29:06Z</time>
      </trkpt>
      <trkpt lat="59.237394" lon="18.119605">
        <ele>31</ele>
        <time>2020-02-10T08:29:07Z</time>
      </trkpt>
      <trkpt lat="59.237351" lon="18.119596">
        <ele>31</ele>
        <time>2020-02-10T08:29:08Z</time>
      </trkpt>
      <trkpt lat="59.23731" lon="18.119587">
        <ele>31</ele>
        <time>2020-02-10T08:29:09Z</time>
      </trkpt>
      <trkpt lat="59.237269" lon="18.119581">
        <ele>31</ele>
        <time>2020-02-10T08:29:10Z</time>
      </trkpt>
      <trkpt lat="59.237228" lon="18.119575">
        <ele>31</ele>
        <time>2020-02-10T08:29:11Z</time>
      </trkpt>
      <trkpt lat="59.237186" lon="18.11957">
        <ele>32</ele>
        <time>2020-02-10T08:29:12Z</time>
      </trkpt>
      <trkpt lat="59.237145" lon="18.119563">
        <ele>32</ele>
        <time>2020-02-10T08:29:13Z</time>
      </trkpt>
      <trkpt lat="59.237101" lon="18.119558">
        <ele>32</ele>
        <time>2020-02-10T08:29:14Z</time>
      </trkpt>
      <trkpt lat="59.23706" lon="18.119553">
        <ele>32</ele>
        <time>2020-02-10T08:29:15Z</time>
      </trkpt>
      <trkpt lat="59.23702" lon="18.119547">
        <ele>31</ele>
        <time>2020-02-10T08:29:16Z</time>
      </trkpt>
      <trkpt lat="59.23698" lon="18.119542">
        <ele>31</ele>
        <time>2020-02-10T08:29:17Z</time>
      </trkpt>
      <trkpt lat="59.236939" lon="18.119539">
        <ele>31</ele>
        <time>2020-02-10T08:29:18Z</time>
      </trkpt>
      <trkpt lat="59.236898" lon="18.119535">
        <ele>31</ele>
        <time>2020-02-10T08:29:19Z</time>
      </trkpt>
      <trkpt lat="59.236858" lon="18.119533">
        <ele>31</ele>
        <time>2020-02-10T08:29:20Z</time>
      </trkpt>
      <trkpt lat="59.236818" lon="18.119531">
        <ele>31</ele>
        <time>2020-02-10T08:29:21Z</time>
      </trkpt>
      <trkpt lat="59.236779" lon="18.119532">
        <ele>31</ele>
        <time>2020-02-10T08:29:22Z</time>
      </trkpt>
      <trkpt lat="59.236741" lon="18.119531">
        <ele>31</ele>
        <time>2020-02-10T08:29:23Z</time>
      </trkpt>
      <trkpt lat="59.236703" lon="18.119529">
        <ele>31</ele>
        <time>2020-02-10T08:29:24Z</time>
      </trkpt>
      <trkpt lat="59.236665" lon="18.119533">
        <ele>31</ele>
        <time>2020-02-10T08:29:25Z</time>
      </trkpt>
      <trkpt lat="59.236626" lon="18.119535">
        <ele>30</ele>
        <time>2020-02-10T08:29:26Z</time>
      </trkpt>
      <trkpt lat="59.236586" lon="18.119537">
        <ele>30</ele>
        <time>2020-02-10T08:29:27Z</time>
      </trkpt>
      <trkpt lat="59.236546" lon="18.119541">
        <ele>30</ele>
        <time>2020-02-10T08:29:28Z</time>
      </trkpt>
      <trkpt lat="59.236506" lon="18.119545">
        <ele>30</ele>
        <time>2020-02-10T08:29:29Z</time>
      </trkpt>
      <trkpt lat="59.236466" lon="18.119549">
        <ele>30</ele>
        <time>2020-02-10T08:29:30Z</time>
      </trkpt>
      <trkpt lat="59.236426" lon="18.119554">
        <ele>30</ele>
        <time>2020-02-10T08:29:31Z</time>
      </trkpt>
      <trkpt lat="59.236387" lon="18.11956">
        <ele>30</ele>
        <time>2020-02-10T08:29:32Z</time>
      </trkpt>
      <trkpt lat="59.236347" lon="18.119565">
        <ele>29</ele>
        <time>2020-02-10T08:29:33Z</time>
      </trkpt>
      <trkpt lat="59.236307" lon="18.11957">
        <ele>29</ele>
        <time>2020-02-10T08:29:34Z</time>
      </trkpt>
      <trkpt lat="59.236266" lon="18.119577">
        <ele>29</ele>
        <time>2020-02-10T08:29:35Z</time>
      </trkpt>
      <trkpt lat="59.236225" lon="18.119581">
        <ele>29</ele>
        <time>2020-02-10T08:29:36Z</time>
      </trkpt>
      <trkpt lat="59.236183" lon="18.119588">
        <ele>29</ele>
        <time>2020-02-10T08:29:37Z</time>
      </trkpt>
      <trkpt lat="59.23614" lon="18.119598">
        <ele>29</ele>
        <time>2020-02-10T08:29:38Z</time>
      </trkpt>
      <trkpt lat="59.236096" lon="18.11961">
        <ele>29</ele>
        <time>2020-02-10T08:29:39Z</time>
      </trkpt>
      <trkpt lat="59.236052" lon="18.119625">
        <ele>29</ele>
        <time>2020-02-10T08:29:40Z</time>
      </trkpt>
      <trkpt lat="59.236008" lon="18.119639">
        <ele>29</ele>
        <time>2020-02-10T08:29:41Z</time>
      </trkpt>
      <trkpt lat="59.235964" lon="18.119652">
        <ele>29</ele>
        <time>2020-02-10T08:29:42Z</time>
      </trkpt>
      <trkpt lat="59.23592" lon="18.11967">
        <ele>29</ele>
        <time>2020-02-10T08:29:43Z</time>
      </trkpt>
      <trkpt lat="59.235877" lon="18.119688">
        <ele>29</ele>
        <time>2020-02-10T08:29:44Z</time>
      </trkpt>
      <trkpt lat="59.235834" lon="18.119704">
        <ele>29</ele>
        <time>2020-02-10T08:29:45Z</time>
      </trkpt>
      <trkpt lat="59.235794" lon="18.119719">
        <ele>29</ele>
        <time>2020-02-10T08:29:46Z</time>
      </trkpt>
      <trkpt lat="59.235755" lon="18.119736">
        <ele>29</ele>
        <time>2020-02-10T08:29:47Z</time>
      </trkpt>
      <trkpt lat="59.235718" lon="18.119759">
        <ele>29</ele>
        <time>2020-02-10T08:29:48Z</time>
      </trkpt>
      <trkpt lat="59.235682" lon="18.119783">
        <ele>29</ele>
        <time>2020-02-10T08:29:49Z</time>
      </trkpt>
      <trkpt lat="59.235647" lon="18.119807">
        <ele>29</ele>
        <time>2020-02-10T08:29:50Z</time>
      </trkpt>
      <trkpt lat="59.235612" lon="18.119832">
        <ele>29</ele>
        <time>2020-02-10T08:29:51Z</time>
      </trkpt>
      <trkpt lat="59.235575" lon="18.119857">
        <ele>29</ele>
        <time>2020-02-10T08:29:52Z</time>
      </trkpt>
      <trkpt lat="59.235537" lon="18.11988">
        <ele>29</ele>
        <time>2020-02-10T08:29:53Z</time>
      </trkpt>
      <trkpt lat="59.235497" lon="18.119904">
        <ele>29</ele>
        <time>2020-02-10T08:29:54Z</time>
      </trkpt>
      <trkpt lat="59.235455" lon="18.119929">
        <ele>29</ele>
        <time>2020-02-10T08:29:55Z</time>
      </trkpt>
      <trkpt lat="59.235413" lon="18.119956">
        <ele>29</ele>
        <time>2020-02-10T08:29:56Z</time>
      </trkpt>
      <trkpt lat="59.235371" lon="18.11998">
        <ele>29</ele>
        <time>2020-02-10T08:29:57Z</time>
      </trkpt>
      <trkpt lat="59.235328" lon="18.120001">
        <ele>29</ele>
        <time>2020-02-10T08:29:58Z</time>
      </trkpt>
      <trkpt lat="59.235285" lon="18.120019">
        <ele>29</ele>
        <time>2020-02-10T08:29:59Z</time>
      </trkpt>
      <trkpt lat="59.235241" lon="18.120033">
        <ele>29</ele>
        <time>2020-02-10T08:30:00Z</time>
      </trkpt>
      <trkpt lat="59.235198" lon="18.120046">
        <ele>29</ele>
        <time>2020-02-10T08:30:01Z</time>
      </trkpt>
      <trkpt lat="59.235156" lon="18.12006">
        <ele>29</ele>
        <time>2020-02-10T08:30:02Z</time>
      </trkpt>
      <trkpt lat="59.235115" lon="18.12007">
        <ele>29</ele>
        <time>2020-02-10T08:30:03Z</time>
      </trkpt>
      <trkpt lat="59.235076" lon="18.120076">
        <ele>29</ele>
        <time>2020-02-10T08:30:04Z</time>
      </trkpt>
      <trkpt lat="59.235038" lon="18.120084">
        <ele>29</ele>
        <time>2020-02-10T08:30:05Z</time>
      </trkpt>
      <trkpt lat="59.235" lon="18.120098">
        <ele>29</ele>
        <time>2020-02-10T08:30:06Z</time>
      </trkpt>
      <trkpt lat="59.234963" lon="18.120114">
        <ele>29</ele>
        <time>2020-02-10T08:30:07Z</time>
      </trkpt>
      <trkpt lat="59.234927" lon="18.120132">
        <ele>29</ele>
        <time>2020-02-10T08:30:08Z</time>
      </trkpt>
      <trkpt lat="59.234892" lon="18.120156">
        <ele>29</ele>
        <time>2020-02-10T08:30:09Z</time>
      </trkpt>
      <trkpt lat="59.234858" lon="18.12018">
        <ele>29</ele>
        <time>2020-02-10T08:30:10Z</time>
      </trkpt>
      <trkpt lat="59.234825" lon="18.1202">
        <ele>29</ele>
        <time>2020-02-10T08:30:11Z</time>
      </trkpt>
      <trkpt lat="59.234793" lon="18.120222">
        <ele>29</ele>
        <time>2020-02-10T08:30:12Z</time>
      </trkpt>
      <trkpt lat="59.234763" lon="18.120244">
        <ele>29</ele>
        <time>2020-02-10T08:30:13Z</time>
      </trkpt>
      <trkpt lat="59.234733" lon="18.120266">
        <ele>29</ele>
        <time>2020-02-10T08:30:14Z</time>
      </trkpt>
      <trkpt lat="59.234702" lon="18.120288">
        <ele>29</ele>
        <time>2020-02-10T08:30:15Z</time>
      </trkpt>
      <trkpt lat="59.234672" lon="18.120308">
        <ele>29</ele>
        <time>2020-02-10T08:30:16Z</time>
      </trkpt>
      <trkpt lat="59.234642" lon="18.120326">
        <ele>30</ele>
        <time>2020-02-10T08:30:17Z</time>
      </trkpt>
      <trkpt lat="59.234612" lon="18.120346">
        <ele>30</ele>
        <time>2020-02-10T08:30:18Z</time>
      </trkpt>
      <trkpt lat="59.234583" lon="18.120368">
        <ele>0</ele>
        <time>2020-02-10T08:30:18Z</time>
      </trkpt>
      <trkpt lat="59.234554" lon="18.12039">
        <ele>30</ele>
        <time>2020-02-10T08:30:19Z</time>
      </trkpt>
      <trkpt lat="59.234523" lon="18.120412">
        <ele>30</ele>
        <time>2020-02-10T08:30:21Z</time>
      </trkpt>
      <trkpt lat="59.234493" lon="18.120432">
        <ele>30</ele>
        <time>2020-02-10T08:30:22Z</time>
      </trkpt>
      <trkpt lat="59.234462" lon="18.12045">
        <ele>30</ele>
        <time>2020-02-10T08:30:23Z</time>
      </trkpt>
      <trkpt lat="59.234433" lon="18.12047">
        <ele>30</ele>
        <time>2020-02-10T08:30:24Z</time>
      </trkpt>
      <trkpt lat="59.234402" lon="18.12049">
        <ele>30</ele>
        <time>2020-02-10T08:30:25Z</time>
      </trkpt>
      <trkpt lat="59.234372" lon="18.12051">
        <ele>30</ele>
        <time>2020-02-10T08:30:26Z</time>
      </trkpt>
      <trkpt lat="59.234342" lon="18.120532">
        <ele>30</ele>
        <time>2020-02-10T08:30:27Z</time>
      </trkpt>
      <trkpt lat="59.234312" lon="18.120554">
        <ele>30</ele>
        <time>2020-02-10T08:30:28Z</time>
      </trkpt>
      <trkpt lat="59.234281" lon="18.120576">
        <ele>30</ele>
        <time>2020-02-10T08:30:29Z</time>
      </trkpt>
      <trkpt lat="59.234252" lon="18.120598">
        <ele>30</ele>
        <time>2020-02-10T08:30:30Z</time>
      </trkpt>
      <trkpt lat="59.234224" lon="18.12062">
        <ele>31</ele>
        <time>2020-02-10T08:30:31Z</time>
      </trkpt>
      <trkpt lat="59.234196" lon="18.120644">
        <ele>31</ele>
        <time>2020-02-10T08:30:32Z</time>
      </trkpt>
      <trkpt lat="59.234169" lon="18.120666">
        <ele>31</ele>
        <time>2020-02-10T08:30:33Z</time>
      </trkpt>
      <trkpt lat="59.234142" lon="18.120686">
        <ele>31</ele>
        <time>2020-02-10T08:30:34Z</time>
      </trkpt>
      <trkpt lat="59.234115" lon="18.120706">
        <ele>0</ele>
        <time>2020-02-10T08:30:34Z</time>
      </trkpt>
      <trkpt lat="59.234086" lon="18.12073">
        <ele>32</ele>
        <time>2020-02-10T08:30:35Z</time>
      </trkpt>
      <trkpt lat="59.234056" lon="18.120748">
        <ele>32</ele>
        <time>2020-02-10T08:30:37Z</time>
      </trkpt>
      <trkpt lat="59.234026" lon="18.120768">
        <ele>32</ele>
        <time>2020-02-10T08:30:38Z</time>
      </trkpt>
      <trkpt lat="59.233995" lon="18.120788">
        <ele>32</ele>
        <time>2020-02-10T08:30:39Z</time>
      </trkpt>
      <trkpt lat="59.233964" lon="18.120808">
        <ele>32</ele>
        <time>2020-02-10T08:30:40Z</time>
      </trkpt>
      <trkpt lat="59.233934" lon="18.120826">
        <ele>33</ele>
        <time>2020-02-10T08:30:41Z</time>
      </trkpt>
      <trkpt lat="59.233904" lon="18.120842">
        <ele>33</ele>
        <time>2020-02-10T08:30:42Z</time>
      </trkpt>
      <trkpt lat="59.233875" lon="18.120862">
        <ele>33</ele>
        <time>2020-02-10T08:30:43Z</time>
      </trkpt>
      <trkpt lat="59.233848" lon="18.120882">
        <ele>33</ele>
        <time>2020-02-10T08:30:44Z</time>
      </trkpt>
      <trkpt lat="59.233823" lon="18.120898">
        <ele>34</ele>
        <time>2020-02-10T08:30:45Z</time>
      </trkpt>
      <trkpt lat="59.233799" lon="18.12091">
        <ele>34</ele>
        <time>2020-02-10T08:30:46Z</time>
      </trkpt>
      <trkpt lat="59.233774" lon="18.120918">
        <ele>34</ele>
        <time>2020-02-10T08:30:47Z</time>
      </trkpt>
      <trkpt lat="59.233746" lon="18.120936">
        <ele>34</ele>
        <time>2020-02-10T08:30:48Z</time>
      </trkpt>
      <trkpt lat="59.233721" lon="18.120956">
        <ele>34</ele>
        <time>2020-02-10T08:30:49Z</time>
      </trkpt>
      <trkpt lat="59.233696" lon="18.120976">
        <ele>34</ele>
        <time>2020-02-10T08:30:50Z</time>
      </trkpt>
      <trkpt lat="59.233668" lon="18.120998">
        <ele>34</ele>
        <time>2020-02-10T08:30:51Z</time>
      </trkpt>
      <trkpt lat="59.233642" lon="18.121022">
        <ele>34</ele>
        <time>2020-02-10T08:30:52Z</time>
      </trkpt>
      <trkpt lat="59.233617" lon="18.121036">
        <ele>34</ele>
        <time>2020-02-10T08:30:53Z</time>
      </trkpt>
      <trkpt lat="59.233596" lon="18.121062">
        <ele>35</ele>
        <time>2020-02-10T08:30:54Z</time>
      </trkpt>
      <trkpt lat="59.233571" lon="18.121082">
        <ele>35</ele>
        <time>2020-02-10T08:30:55Z</time>
      </trkpt>
      <trkpt lat="59.233548" lon="18.121104">
        <ele>35</ele>
        <time>2020-02-10T08:30:56Z</time>
      </trkpt>
      <trkpt lat="59.233522" lon="18.121114">
        <ele>35</ele>
        <time>2020-02-10T08:30:57Z</time>
      </trkpt>
      <trkpt lat="59.233499" lon="18.121124">
        <ele>35</ele>
        <time>2020-02-10T08:30:58Z</time>
      </trkpt>
      <trkpt lat="59.233472" lon="18.12114">
        <ele>36</ele>
        <time>2020-02-10T08:30:59Z</time>
      </trkpt>
      <trkpt lat="59.233444" lon="18.121164">
        <ele>36</ele>
        <time>2020-02-10T08:31:00Z</time>
      </trkpt>
      <trkpt lat="59.233413" lon="18.121187">
        <ele>36</ele>
        <time>2020-02-10T08:31:01Z</time>
      </trkpt>
      <trkpt lat="59.233383" lon="18.12121">
        <ele>36</ele>
        <time>2020-02-10T08:31:02Z</time>
      </trkpt>
      <trkpt lat="59.233354" lon="18.121232">
        <ele>36</ele>
        <time>2020-02-10T08:31:03Z</time>
      </trkpt>
      <trkpt lat="59.233326" lon="18.121252">
        <ele>36</ele>
        <time>2020-02-10T08:31:04Z</time>
      </trkpt>
      <trkpt lat="59.233299" lon="18.121276">
        <ele>37</ele>
        <time>2020-02-10T08:31:05Z</time>
      </trkpt>
      <trkpt lat="59.233269" lon="18.121299">
        <ele>37</ele>
        <time>2020-02-10T08:31:06Z</time>
      </trkpt>
      <trkpt lat="59.23324" lon="18.121321">
        <ele>37</ele>
        <time>2020-02-10T08:31:07Z</time>
      </trkpt>
      <trkpt lat="59.233213" lon="18.121338">
        <ele>37</ele>
        <time>2020-02-10T08:31:08Z</time>
      </trkpt>
      <trkpt lat="59.233185" lon="18.121355">
        <ele>37</ele>
        <time>2020-02-10T08:31:09Z</time>
      </trkpt>
      <trkpt lat="59.233157" lon="18.121372">
        <ele>37</ele>
        <time>2020-02-10T08:31:10Z</time>
      </trkpt>
      <trkpt lat="59.233129" lon="18.121386">
        <ele>37</ele>
        <time>2020-02-10T08:31:11Z</time>
      </trkpt>
      <trkpt lat="59.2331" lon="18.121394">
        <ele>37</ele>
        <time>2020-02-10T08:31:12Z</time>
      </trkpt>
      <trkpt lat="59.233069" lon="18.121403">
        <ele>38</ele>
        <time>2020-02-10T08:31:13Z</time>
      </trkpt>
      <trkpt lat="59.23304" lon="18.121407">
        <ele>38</ele>
        <time>2020-02-10T08:31:14Z</time>
      </trkpt>
      <trkpt lat="59.233012" lon="18.121402">
        <ele>38</ele>
        <time>2020-02-10T08:31:15Z</time>
      </trkpt>
      <trkpt lat="59.232986" lon="18.121398">
        <ele>38</ele>
        <time>2020-02-10T08:31:16Z</time>
      </trkpt>
      <trkpt lat="59.23296" lon="18.12139">
        <ele>38</ele>
        <time>2020-02-10T08:31:17Z</time>
      </trkpt>
      <trkpt lat="59.232935" lon="18.121375">
        <ele>38</ele>
        <time>2020-02-10T08:31:18Z</time>
      </trkpt>
      <trkpt lat="59.232915" lon="18.121359">
        <ele>39</ele>
        <time>2020-02-10T08:31:19Z</time>
      </trkpt>
      <trkpt lat="59.232894" lon="18.121335">
        <ele>39</ele>
        <time>2020-02-10T08:31:20Z</time>
      </trkpt>
      <trkpt lat="59.232869" lon="18.121304">
        <ele>39</ele>
        <time>2020-02-10T08:31:21Z</time>
      </trkpt>
      <trkpt lat="59.232845" lon="18.121268">
        <ele>39</ele>
        <time>2020-02-10T08:31:22Z</time>
      </trkpt>
      <trkpt lat="59.232817" lon="18.121228">
        <ele>39</ele>
        <time>2020-02-10T08:31:23Z</time>
      </trkpt>
      <trkpt lat="59.232789" lon="18.121189">
        <ele>39</ele>
        <time>2020-02-10T08:31:24Z</time>
      </trkpt>
      <trkpt lat="59.23276" lon="18.12115">
        <ele>39</ele>
        <time>2020-02-10T08:31:25Z</time>
      </trkpt>
      <trkpt lat="59.232731" lon="18.121115">
        <ele>39</ele>
        <time>2020-02-10T08:31:26Z</time>
      </trkpt>
      <trkpt lat="59.232703" lon="18.121085">
        <ele>39</ele>
        <time>2020-02-10T08:31:27Z</time>
      </trkpt>
      <trkpt lat="59.232677" lon="18.121066">
        <ele>39</ele>
        <time>2020-02-10T08:31:28Z</time>
      </trkpt>
      <trkpt lat="59.232655" lon="18.121057">
        <ele>39</ele>
        <time>2020-02-10T08:31:29Z</time>
      </trkpt>
      <trkpt lat="59.232637" lon="18.121046">
        <ele>40</ele>
        <time>2020-02-10T08:31:30Z</time>
      </trkpt>
      <trkpt lat="59.232633" lon="18.121033">
        <ele>0</ele>
        <time>2020-02-10T08:31:34Z</time>
      </trkpt>
      <trkpt lat="59.232569" lon="18.12089">
        <ele>39</ele>
        <time>2020-02-10T08:32:02Z</time>
      </trkpt>
      <trkpt lat="59.232546" lon="18.120821">
        <ele>39</ele>
        <time>2020-02-10T08:32:03Z</time>
      </trkpt>
      <trkpt lat="59.23252" lon="18.120748">
        <ele>39</ele>
        <time>2020-02-10T08:32:04Z</time>
      </trkpt>
      <trkpt lat="59.232494" lon="18.120669">
        <ele>39</ele>
        <time>2020-02-10T08:32:05Z</time>
      </trkpt>
      <trkpt lat="59.232471" lon="18.120585">
        <ele>39</ele>
        <time>2020-02-10T08:32:06Z</time>
      </trkpt>
      <trkpt lat="59.232446" lon="18.120501">
        <ele>39</ele>
        <time>2020-02-10T08:32:07Z</time>
      </trkpt>
      <trkpt lat="59.232419" lon="18.120428">
        <ele>39</ele>
        <time>2020-02-10T08:32:08Z</time>
      </trkpt>
      <trkpt lat="59.232384" lon="18.120371">
        <ele>39</ele>
        <time>2020-02-10T08:32:09Z</time>
      </trkpt>
      <trkpt lat="59.23234" lon="18.120332">
        <ele>40</ele>
        <time>2020-02-10T08:32:10Z</time>
      </trkpt>
      <trkpt lat="59.232293" lon="18.120311">
        <ele>0</ele>
        <time>2020-02-10T08:32:10Z</time>
      </trkpt>
      <trkpt lat="59.232246" lon="18.120311">
        <ele>40</ele>
        <time>2020-02-10T08:32:11Z</time>
      </trkpt>
      <trkpt lat="59.232187" lon="18.120308">
        <ele>40</ele>
        <time>2020-02-10T08:32:13Z</time>
      </trkpt>
      <trkpt lat="59.232125" lon="18.120303">
        <ele>40</ele>
        <time>2020-02-10T08:32:14Z</time>
      </trkpt>
      <trkpt lat="59.232069" lon="18.120306">
        <ele>40</ele>
        <time>2020-02-10T08:32:15Z</time>
      </trkpt>
      <trkpt lat="59.232017" lon="18.120313">
        <ele>40</ele>
        <time>2020-02-10T08:32:16Z</time>
      </trkpt>
      <trkpt lat="59.231969" lon="18.120324">
        <ele>40</ele>
        <time>2020-02-10T08:32:17Z</time>
      </trkpt>
      <trkpt lat="59.231923" lon="18.120336">
        <ele>40</ele>
        <time>2020-02-10T08:32:18Z</time>
      </trkpt>
      <trkpt lat="59.231881" lon="18.120351">
        <ele>40</ele>
        <time>2020-02-10T08:32:19Z</time>
      </trkpt>
      <trkpt lat="59.23184" lon="18.120369">
        <ele>40</ele>
        <time>2020-02-10T08:32:20Z</time>
      </trkpt>
      <trkpt lat="59.2318" lon="18.120387">
        <ele>40</ele>
        <time>2020-02-10T08:32:21Z</time>
      </trkpt>
      <trkpt lat="59.231765" lon="18.120406">
        <ele>40</ele>
        <time>2020-02-10T08:32:22Z</time>
      </trkpt>
      <trkpt lat="59.231732" lon="18.120429">
        <ele>41</ele>
        <time>2020-02-10T08:32:23Z</time>
      </trkpt>
      <trkpt lat="59.231695" lon="18.120451">
        <ele>41</ele>
        <time>2020-02-10T08:32:24Z</time>
      </trkpt>
      <trkpt lat="59.231655" lon="18.120466">
        <ele>41</ele>
        <time>2020-02-10T08:32:25Z</time>
      </trkpt>
      <trkpt lat="59.231612" lon="18.120483">
        <ele>41</ele>
        <time>2020-02-10T08:32:26Z</time>
      </trkpt>
      <trkpt lat="59.23157" lon="18.120508">
        <ele>41</ele>
        <time>2020-02-10T08:32:27Z</time>
      </trkpt>
      <trkpt lat="59.231528" lon="18.120535">
        <ele>41</ele>
        <time>2020-02-10T08:32:28Z</time>
      </trkpt>
      <trkpt lat="59.231484" lon="18.120565">
        <ele>41</ele>
        <time>2020-02-10T08:32:29Z</time>
      </trkpt>
      <trkpt lat="59.231441" lon="18.120594">
        <ele>42</ele>
        <time>2020-02-10T08:32:30Z</time>
      </trkpt>
      <trkpt lat="59.231394" lon="18.120634">
        <ele>42</ele>
        <time>2020-02-10T08:32:31Z</time>
      </trkpt>
      <trkpt lat="59.231347" lon="18.120673">
        <ele>42</ele>
        <time>2020-02-10T08:32:32Z</time>
      </trkpt>
      <trkpt lat="59.231301" lon="18.120709">
        <ele>42</ele>
        <time>2020-02-10T08:32:33Z</time>
      </trkpt>
      <trkpt lat="59.231253" lon="18.120741">
        <ele>42</ele>
        <time>2020-02-10T08:32:34Z</time>
      </trkpt>
      <trkpt lat="59.2312" lon="18.120778">
        <ele>42</ele>
        <time>2020-02-10T08:32:35Z</time>
      </trkpt>
      <trkpt lat="59.231146" lon="18.12082">
        <ele>42</ele>
        <time>2020-02-10T08:32:36Z</time>
      </trkpt>
      <trkpt lat="59.231093" lon="18.120863">
        <ele>42</ele>
        <time>2020-02-10T08:32:37Z</time>
      </trkpt>
      <trkpt lat="59.231037" lon="18.120901">
        <ele>42</ele>
        <time>2020-02-10T08:32:38Z</time>
      </trkpt>
      <trkpt lat="59.230981" lon="18.120941">
        <ele>42</ele>
        <time>2020-02-10T08:32:39Z</time>
      </trkpt>
      <trkpt lat="59.230922" lon="18.12098">
        <ele>42</ele>
        <time>2020-02-10T08:32:40Z</time>
      </trkpt>
      <trkpt lat="59.230864" lon="18.121017">
        <ele>42</ele>
        <time>2020-02-10T08:32:41Z</time>
      </trkpt>
      <trkpt lat="59.230808" lon="18.121053">
        <ele>42</ele>
        <time>2020-02-10T08:32:42Z</time>
      </trkpt>
      <trkpt lat="59.230751" lon="18.121087">
        <ele>42</ele>
        <time>2020-02-10T08:32:43Z</time>
      </trkpt>
      <trkpt lat="59.230692" lon="18.121116">
        <ele>42</ele>
        <time>2020-02-10T08:32:44Z</time>
      </trkpt>
      <trkpt lat="59.230632" lon="18.121139">
        <ele>42</ele>
        <time>2020-02-10T08:32:45Z</time>
      </trkpt>
      <trkpt lat="59.230573" lon="18.121148">
        <ele>42</ele>
        <time>2020-02-10T08:32:46Z</time>
      </trkpt>
      <trkpt lat="59.230512" lon="18.12115">
        <ele>41</ele>
        <time>2020-02-10T08:32:47Z</time>
      </trkpt>
      <trkpt lat="59.230449" lon="18.121149">
        <ele>41</ele>
        <time>2020-02-10T08:32:48Z</time>
      </trkpt>
      <trkpt lat="59.230383" lon="18.121149">
        <ele>0</ele>
        <time>2020-02-10T08:32:48Z</time>
      </trkpt>
      <trkpt lat="59.23032" lon="18.121166">
        <ele>41</ele>
        <time>2020-02-10T08:32:49Z</time>
      </trkpt>
      <trkpt lat="59.230257" lon="18.121197">
        <ele>40</ele>
        <time>2020-02-10T08:32:51Z</time>
      </trkpt>
      <trkpt lat="59.230197" lon="18.121236">
        <ele>40</ele>
        <time>2020-02-10T08:32:52Z</time>
      </trkpt>
      <trkpt lat="59.23014" lon="18.121283">
        <ele>40</ele>
        <time>2020-02-10T08:32:53Z</time>
      </trkpt>
      <trkpt lat="59.230083" lon="18.121336">
        <ele>40</ele>
        <time>2020-02-10T08:32:54Z</time>
      </trkpt>
      <trkpt lat="59.230026" lon="18.121393">
        <ele>40</ele>
        <time>2020-02-10T08:32:55Z</time>
      </trkpt>
      <trkpt lat="59.229971" lon="18.121449">
        <ele>40</ele>
        <time>2020-02-10T08:32:56Z</time>
      </trkpt>
      <trkpt lat="59.229913" lon="18.121507">
        <ele>0</ele>
        <time>2020-02-10T08:32:56Z</time>
      </trkpt>
      <trkpt lat="59.229856" lon="18.121569">
        <ele>40</ele>
        <time>2020-02-10T08:32:57Z</time>
      </trkpt>
      <trkpt lat="59.229807" lon="18.121644">
        <ele>39</ele>
        <time>2020-02-10T08:32:59Z</time>
      </trkpt>
      <trkpt lat="59.229774" lon="18.121744">
        <ele>39</ele>
        <time>2020-02-10T08:33:00Z</time>
      </trkpt>
      <trkpt lat="59.229761" lon="18.121863">
        <ele>39</ele>
        <time>2020-02-10T08:33:01Z</time>
      </trkpt>
      <trkpt lat="59.229767" lon="18.121985">
        <ele>39</ele>
        <time>2020-02-10T08:33:02Z</time>
      </trkpt>
      <trkpt lat="59.229792" lon="18.122094">
        <ele>39</ele>
        <time>2020-02-10T08:33:03Z</time>
      </trkpt>
      <trkpt lat="59.229822" lon="18.122204">
        <ele>39</ele>
        <time>2020-02-10T08:33:04Z</time>
      </trkpt>
      <trkpt lat="59.229854" lon="18.122311">
        <ele>0</ele>
        <time>2020-02-10T08:33:04Z</time>
      </trkpt>
      <trkpt lat="59.229885" lon="18.122417">
        <ele>39</ele>
        <time>2020-02-10T08:33:05Z</time>
      </trkpt>
      <trkpt lat="59.229917" lon="18.122524">
        <ele>39</ele>
        <time>2020-02-10T08:33:07Z</time>
      </trkpt>
      <trkpt lat="59.229947" lon="18.122628">
        <ele>39</ele>
        <time>2020-02-10T08:33:08Z</time>
      </trkpt>
      <trkpt lat="59.229978" lon="18.122731">
        <ele>39</ele>
        <time>2020-02-10T08:33:09Z</time>
      </trkpt>
      <trkpt lat="59.230004" lon="18.122836">
        <ele>39</ele>
        <time>2020-02-10T08:33:10Z</time>
      </trkpt>
      <trkpt lat="59.230022" lon="18.122944">
        <ele>39</ele>
        <time>2020-02-10T08:33:11Z</time>
      </trkpt>
      <trkpt lat="59.230034" lon="18.123055">
        <ele>39</ele>
        <time>2020-02-10T08:33:12Z</time>
      </trkpt>
      <trkpt lat="59.230035" lon="18.123161">
        <ele>39</ele>
        <time>2020-02-10T08:33:13Z</time>
      </trkpt>
      <trkpt lat="59.230027" lon="18.123261">
        <ele>0</ele>
        <time>2020-02-10T08:33:13Z</time>
      </trkpt>
      <trkpt lat="59.23001" lon="18.123354">
        <ele>39</ele>
        <time>2020-02-10T08:33:14Z</time>
      </trkpt>
      <trkpt lat="59.229986" lon="18.123438">
        <ele>39</ele>
        <time>2020-02-10T08:33:16Z</time>
      </trkpt>
      <trkpt lat="59.229953" lon="18.123505">
        <ele>39</ele>
        <time>2020-02-10T08:33:17Z</time>
      </trkpt>
      <trkpt lat="59.229914" lon="18.123559">
        <ele>39</ele>
        <time>2020-02-10T08:33:18Z</time>
      </trkpt>
      <trkpt lat="59.229874" lon="18.123603">
        <ele>39</ele>
        <time>2020-02-10T08:33:19Z</time>
      </trkpt>
      <trkpt lat="59.229832" lon="18.123642">
        <ele>39</ele>
        <time>2020-02-10T08:33:20Z</time>
      </trkpt>
      <trkpt lat="59.229789" lon="18.12368">
        <ele>39</ele>
        <time>2020-02-10T08:33:21Z</time>
      </trkpt>
      <trkpt lat="59.229747" lon="18.12372">
        <ele>39</ele>
        <time>2020-02-10T08:33:22Z</time>
      </trkpt>
      <trkpt lat="59.229705" lon="18.123764">
        <ele>39</ele>
        <time>2020-02-10T08:33:23Z</time>
      </trkpt>
      <trkpt lat="59.229662" lon="18.123808">
        <ele>39</ele>
        <time>2020-02-10T08:33:24Z</time>
      </trkpt>
      <trkpt lat="59.229617" lon="18.123851">
        <ele>39</ele>
        <time>2020-02-10T08:33:25Z</time>
      </trkpt>
      <trkpt lat="59.229572" lon="18.123896">
        <ele>39</ele>
        <time>2020-02-10T08:33:26Z</time>
      </trkpt>
      <trkpt lat="59.229526" lon="18.123941">
        <ele>39</ele>
        <time>2020-02-10T08:33:27Z</time>
      </trkpt>
      <trkpt lat="59.229479" lon="18.123986">
        <ele>39</ele>
        <time>2020-02-10T08:33:28Z</time>
      </trkpt>
      <trkpt lat="59.229432" lon="18.124035">
        <ele>39</ele>
        <time>2020-02-10T08:33:29Z</time>
      </trkpt>
      <trkpt lat="59.229385" lon="18.124088">
        <ele>39</ele>
        <time>2020-02-10T08:33:30Z</time>
      </trkpt>
      <trkpt lat="59.229342" lon="18.124151">
        <ele>40</ele>
        <time>2020-02-10T08:33:31Z</time>
      </trkpt>
      <trkpt lat="59.229307" lon="18.124225">
        <ele>40</ele>
        <time>2020-02-10T08:33:32Z</time>
      </trkpt>
      <trkpt lat="59.229283" lon="18.124315">
        <ele>0</ele>
        <time>2020-02-10T08:33:32Z</time>
      </trkpt>
      <trkpt lat="59.229273" lon="18.12442">
        <ele>39</ele>
        <time>2020-02-10T08:33:33Z</time>
      </trkpt>
      <trkpt lat="59.229271" lon="18.124536">
        <ele>39</ele>
        <time>2020-02-10T08:33:35Z</time>
      </trkpt>
      <trkpt lat="59.229267" lon="18.124654">
        <ele>39</ele>
        <time>2020-02-10T08:33:36Z</time>
      </trkpt>
      <trkpt lat="59.22926" lon="18.124765">
        <ele>39</ele>
        <time>2020-02-10T08:33:37Z</time>
      </trkpt>
      <trkpt lat="59.229245" lon="18.124871">
        <ele>39</ele>
        <time>2020-02-10T08:33:38Z</time>
      </trkpt>
      <trkpt lat="59.229218" lon="18.124967">
        <ele>39</ele>
        <time>2020-02-10T08:33:39Z</time>
      </trkpt>
      <trkpt lat="59.229181" lon="18.125058">
        <ele>39</ele>
        <time>2020-02-10T08:33:40Z</time>
      </trkpt>
      <trkpt lat="59.229145" lon="18.125153">
        <ele>38</ele>
        <time>2020-02-10T08:33:41Z</time>
      </trkpt>
      <trkpt lat="59.229106" lon="18.125254">
        <ele>38</ele>
        <time>2020-02-10T08:33:42Z</time>
      </trkpt>
      <trkpt lat="59.229066" lon="18.12536">
        <ele>38</ele>
        <time>2020-02-10T08:33:43Z</time>
      </trkpt>
      <trkpt lat="59.229024" lon="18.12547">
        <ele>38</ele>
        <time>2020-02-10T08:33:44Z</time>
      </trkpt>
      <trkpt lat="59.228981" lon="18.125578">
        <ele>38</ele>
        <time>2020-02-10T08:33:45Z</time>
      </trkpt>
      <trkpt lat="59.22894" lon="18.125674">
        <ele>39</ele>
        <time>2020-02-10T08:33:46Z</time>
      </trkpt>
      <trkpt lat="59.228904" lon="18.125773">
        <ele>39</ele>
        <time>2020-02-10T08:33:47Z</time>
      </trkpt>
      <trkpt lat="59.228868" lon="18.125858">
        <ele>39</ele>
        <time>2020-02-10T08:33:48Z</time>
      </trkpt>
      <trkpt lat="59.228832" lon="18.125927">
        <ele>39</ele>
        <time>2020-02-10T08:33:49Z</time>
      </trkpt>
      <trkpt lat="59.228798" lon="18.125992">
        <ele>38</ele>
        <time>2020-02-10T08:33:50Z</time>
      </trkpt>
      <trkpt lat="59.228767" lon="18.126057">
        <ele>38</ele>
        <time>2020-02-10T08:33:51Z</time>
      </trkpt>
      <trkpt lat="59.228737" lon="18.126128">
        <ele>38</ele>
        <time>2020-02-10T08:33:52Z</time>
      </trkpt>
      <trkpt lat="59.228708" lon="18.1262">
        <ele>38</ele>
        <time>2020-02-10T08:33:53Z</time>
      </trkpt>
      <trkpt lat="59.228679" lon="18.126266">
        <ele>38</ele>
        <time>2020-02-10T08:33:54Z</time>
      </trkpt>
      <trkpt lat="59.228648" lon="18.126328">
        <ele>38</ele>
        <time>2020-02-10T08:33:55Z</time>
      </trkpt>
      <trkpt lat="59.228612" lon="18.126377">
        <ele>38</ele>
        <time>2020-02-10T08:33:56Z</time>
      </trkpt>
      <trkpt lat="59.228574" lon="18.126408">
        <ele>38</ele>
        <time>2020-02-10T08:33:57Z</time>
      </trkpt>
      <trkpt lat="59.228538" lon="18.126422">
        <ele>38</ele>
        <time>2020-02-10T08:33:58Z</time>
      </trkpt>
      <trkpt lat="59.228504" lon="18.126422">
        <ele>38</ele>
        <time>2020-02-10T08:33:59Z</time>
      </trkpt>
      <trkpt lat="59.22847" lon="18.126415">
        <ele>39</ele>
        <time>2020-02-10T08:34:00Z</time>
      </trkpt>
      <trkpt lat="59.228435" lon="18.126404">
        <ele>39</ele>
        <time>2020-02-10T08:34:01Z</time>
      </trkpt>
      <trkpt lat="59.228399" lon="18.126397">
        <ele>39</ele>
        <time>2020-02-10T08:34:02Z</time>
      </trkpt>
      <trkpt lat="59.228364" lon="18.126393">
        <ele>39</ele>
        <time>2020-02-10T08:34:03Z</time>
      </trkpt>
      <trkpt lat="59.228329" lon="18.126395">
        <ele>39</ele>
        <time>2020-02-10T08:34:04Z</time>
      </trkpt>
      <trkpt lat="59.228294" lon="18.1264">
        <ele>39</ele>
        <time>2020-02-10T08:34:05Z</time>
      </trkpt>
      <trkpt lat="59.228259" lon="18.126406">
        <ele>39</ele>
        <time>2020-02-10T08:34:06Z</time>
      </trkpt>
      <trkpt lat="59.228224" lon="18.126413">
        <ele>39</ele>
        <time>2020-02-10T08:34:07Z</time>
      </trkpt>
      <trkpt lat="59.228188" lon="18.126419">
        <ele>39</ele>
        <time>2020-02-10T08:34:08Z</time>
      </trkpt>
      <trkpt lat="59.228152" lon="18.126427">
        <ele>39</ele>
        <time>2020-02-10T08:34:09Z</time>
      </trkpt>
      <trkpt lat="59.228116" lon="18.126433">
        <ele>39</ele>
        <time>2020-02-10T08:34:10Z</time>
      </trkpt>
      <trkpt lat="59.22808" lon="18.12644">
        <ele>39</ele>
        <time>2020-02-10T08:34:11Z</time>
      </trkpt>
      <trkpt lat="59.228043" lon="18.126447">
        <ele>40</ele>
        <time>2020-02-10T08:34:12Z</time>
      </trkpt>
      <trkpt lat="59.228006" lon="18.126454">
        <ele>40</ele>
        <time>2020-02-10T08:34:13Z</time>
      </trkpt>
      <trkpt lat="59.227968" lon="18.126462">
        <ele>40</ele>
        <time>2020-02-10T08:34:14Z</time>
      </trkpt>
      <trkpt lat="59.227931" lon="18.126469">
        <ele>40</ele>
        <time>2020-02-10T08:34:15Z</time>
      </trkpt>
      <trkpt lat="59.227894" lon="18.126477">
        <ele>40</ele>
        <time>2020-02-10T08:34:16Z</time>
      </trkpt>
      <trkpt lat="59.22786" lon="18.12649">
        <ele>40</ele>
        <time>2020-02-10T08:34:17Z</time>
      </trkpt>
      <trkpt lat="59.227827" lon="18.12651">
        <ele>40</ele>
        <time>2020-02-10T08:34:18Z</time>
      </trkpt>
      <trkpt lat="59.227798" lon="18.126546">
        <ele>40</ele>
        <time>2020-02-10T08:34:19Z</time>
      </trkpt>
      <trkpt lat="59.227774" lon="18.126594">
        <ele>40</ele>
        <time>2020-02-10T08:34:20Z</time>
      </trkpt>
      <trkpt lat="59.227754" lon="18.126651">
        <ele>40</ele>
        <time>2020-02-10T08:34:21Z</time>
      </trkpt>
      <trkpt lat="59.227738" lon="18.126718">
        <ele>40</ele>
        <time>2020-02-10T08:34:22Z</time>
      </trkpt>
      <trkpt lat="59.227727" lon="18.126792">
        <ele>41</ele>
        <time>2020-02-10T08:34:23Z</time>
      </trkpt>
      <trkpt lat="59.227718" lon="18.126867">
        <ele>41</ele>
        <time>2020-02-10T08:34:24Z</time>
      </trkpt>
      <trkpt lat="59.227707" lon="18.12694">
        <ele>42</ele>
        <time>2020-02-10T08:34:25Z</time>
      </trkpt>
      <trkpt lat="59.227694" lon="18.127015">
        <ele>42</ele>
        <time>2020-02-10T08:34:26Z</time>
      </trkpt>
      <trkpt lat="59.22768" lon="18.127091">
        <ele>42</ele>
        <time>2020-02-10T08:34:27Z</time>
      </trkpt>
      <trkpt lat="59.22766" lon="18.127165">
        <ele>42</ele>
        <time>2020-02-10T08:34:28Z</time>
      </trkpt>
      <trkpt lat="59.227637" lon="18.127241">
        <ele>42</ele>
        <time>2020-02-10T08:34:29Z</time>
      </trkpt>
      <trkpt lat="59.22761" lon="18.127317">
        <ele>42</ele>
        <time>2020-02-10T08:34:30Z</time>
      </trkpt>
      <trkpt lat="59.227581" lon="18.127395">
        <ele>42</ele>
        <time>2020-02-10T08:34:31Z</time>
      </trkpt>
      <trkpt lat="59.227552" lon="18.127476">
        <ele>42</ele>
        <time>2020-02-10T08:34:32Z</time>
      </trkpt>
      <trkpt lat="59.227524" lon="18.127559">
        <ele>42</ele>
        <time>2020-02-10T08:34:33Z</time>
      </trkpt>
      <trkpt lat="59.227493" lon="18.127644">
        <ele>42</ele>
        <time>2020-02-10T08:34:34Z</time>
      </trkpt>
      <trkpt lat="59.227462" lon="18.127731">
        <ele>42</ele>
        <time>2020-02-10T08:34:35Z</time>
      </trkpt>
      <trkpt lat="59.227431" lon="18.127822">
        <ele>42</ele>
        <time>2020-02-10T08:34:36Z</time>
      </trkpt>
      <trkpt lat="59.227398" lon="18.127914">
        <ele>42</ele>
        <time>2020-02-10T08:34:37Z</time>
      </trkpt>
      <trkpt lat="59.227366" lon="18.128003">
        <ele>42</ele>
        <time>2020-02-10T08:34:38Z</time>
      </trkpt>
      <trkpt lat="59.227334" lon="18.128089">
        <ele>42</ele>
        <time>2020-02-10T08:34:39Z</time>
      </trkpt>
      <trkpt lat="59.227303" lon="18.128174">
        <ele>43</ele>
        <time>2020-02-10T08:34:40Z</time>
      </trkpt>
      <trkpt lat="59.227271" lon="18.128262">
        <ele>43</ele>
        <time>2020-02-10T08:34:41Z</time>
      </trkpt>
      <trkpt lat="59.22724" lon="18.128351">
        <ele>43</ele>
        <time>2020-02-10T08:34:42Z</time>
      </trkpt>
      <trkpt lat="59.227209" lon="18.128441">
        <ele>43</ele>
        <time>2020-02-10T08:34:43Z</time>
      </trkpt>
      <trkpt lat="59.227178" lon="18.128529">
        <ele>43</ele>
        <time>2020-02-10T08:34:44Z</time>
      </trkpt>
      <trkpt lat="59.227148" lon="18.128611">
        <ele>43</ele>
        <time>2020-02-10T08:34:45Z</time>
      </trkpt>
      <trkpt lat="59.227121" lon="18.128688">
        <ele>43</ele>
        <time>2020-02-10T08:34:46Z</time>
      </trkpt>
      <trkpt lat="59.227095" lon="18.128765">
        <ele>43</ele>
        <time>2020-02-10T08:34:47Z</time>
      </trkpt>
      <trkpt lat="59.227068" lon="18.128853">
        <ele>0</ele>
        <time>2020-02-10T08:34:47Z</time>
      </trkpt>
      <trkpt lat="59.227037" lon="18.128952">
        <ele>43</ele>
        <time>2020-02-10T08:34:48Z</time>
      </trkpt>
      <trkpt lat="59.227009" lon="18.129049">
        <ele>43</ele>
        <time>2020-02-10T08:34:50Z</time>
      </trkpt>
      <trkpt lat="59.226977" lon="18.129145">
        <ele>43</ele>
        <time>2020-02-10T08:34:51Z</time>
      </trkpt>
      <trkpt lat="59.226938" lon="18.129248">
        <ele>43</ele>
        <time>2020-02-10T08:34:52Z</time>
      </trkpt>
      <trkpt lat="59.226901" lon="18.129347">
        <ele>43</ele>
        <time>2020-02-10T08:34:53Z</time>
      </trkpt>
      <trkpt lat="59.226864" lon="18.129448">
        <ele>43</ele>
        <time>2020-02-10T08:34:54Z</time>
      </trkpt>
      <trkpt lat="59.226829" lon="18.129543">
        <ele>43</ele>
        <time>2020-02-10T08:34:55Z</time>
      </trkpt>
      <trkpt lat="59.226793" lon="18.129635">
        <ele>43</ele>
        <time>2020-02-10T08:34:56Z</time>
      </trkpt>
      <trkpt lat="59.226756" lon="18.12973">
        <ele>43</ele>
        <time>2020-02-10T08:34:57Z</time>
      </trkpt>
      <trkpt lat="59.226721" lon="18.129825">
        <ele>43</ele>
        <time>2020-02-10T08:34:58Z</time>
      </trkpt>
      <trkpt lat="59.226686" lon="18.129918">
        <ele>43</ele>
        <time>2020-02-10T08:34:59Z</time>
      </trkpt>
      <trkpt lat="59.226652" lon="18.130008">
        <ele>43</ele>
        <time>2020-02-10T08:35:00Z</time>
      </trkpt>
      <trkpt lat="59.226617" lon="18.130099">
        <ele>43</ele>
        <time>2020-02-10T08:35:01Z</time>
      </trkpt>
      <trkpt lat="59.226586" lon="18.130185">
        <ele>43</ele>
        <time>2020-02-10T08:35:02Z</time>
      </trkpt>
      <trkpt lat="59.226553" lon="18.130264">
        <ele>44</ele>
        <time>2020-02-10T08:35:03Z</time>
      </trkpt>
      <trkpt lat="59.226521" lon="18.130342">
        <ele>44</ele>
        <time>2020-02-10T08:35:04Z</time>
      </trkpt>
      <trkpt lat="59.22649" lon="18.130417">
        <ele>44</ele>
        <time>2020-02-10T08:35:05Z</time>
      </trkpt>
      <trkpt lat="59.226455" lon="18.130486">
        <ele>44</ele>
        <time>2020-02-10T08:35:06Z</time>
      </trkpt>
      <trkpt lat="59.226414" lon="18.130554">
        <ele>44</ele>
        <time>2020-02-10T08:35:07Z</time>
      </trkpt>
      <trkpt lat="59.226372" lon="18.130623">
        <ele>44</ele>
        <time>2020-02-10T08:35:08Z</time>
      </trkpt>
      <trkpt lat="59.226332" lon="18.130687">
        <ele>44</ele>
        <time>2020-02-10T08:35:09Z</time>
      </trkpt>
      <trkpt lat="59.226289" lon="18.13075">
        <ele>44</ele>
        <time>2020-02-10T08:35:10Z</time>
      </trkpt>
      <trkpt lat="59.226245" lon="18.130809">
        <ele>44</ele>
        <time>2020-02-10T08:35:11Z</time>
      </trkpt>
      <trkpt lat="59.226199" lon="18.130878">
        <ele>44</ele>
        <time>2020-02-10T08:35:12Z</time>
      </trkpt>
      <trkpt lat="59.226155" lon="18.13095">
        <ele>44</ele>
        <time>2020-02-10T08:35:13Z</time>
      </trkpt>
      <trkpt lat="59.226111" lon="18.131021">
        <ele>44</ele>
        <time>2020-02-10T08:35:14Z</time>
      </trkpt>
      <trkpt lat="59.226064" lon="18.13109">
        <ele>44</ele>
        <time>2020-02-10T08:35:15Z</time>
      </trkpt>
      <trkpt lat="59.226015" lon="18.131155">
        <ele>43</ele>
        <time>2020-02-10T08:35:16Z</time>
      </trkpt>
      <trkpt lat="59.225964" lon="18.13122">
        <ele>43</ele>
        <time>2020-02-10T08:35:17Z</time>
      </trkpt>
      <trkpt lat="59.225917" lon="18.13129">
        <ele>43</ele>
        <time>2020-02-10T08:35:18Z</time>
      </trkpt>
      <trkpt lat="59.225873" lon="18.131363">
        <ele>43</ele>
        <time>2020-02-10T08:35:19Z</time>
      </trkpt>
      <trkpt lat="59.225831" lon="18.131443">
        <ele>43</ele>
        <time>2020-02-10T08:35:20Z</time>
      </trkpt>
      <trkpt lat="59.225799" lon="18.131539">
        <ele>42</ele>
        <time>2020-02-10T08:35:21Z</time>
      </trkpt>
      <trkpt lat="59.225776" lon="18.131648">
        <ele>42</ele>
        <time>2020-02-10T08:35:22Z</time>
      </trkpt>
      <trkpt lat="59.22576" lon="18.131763">
        <ele>41</ele>
        <time>2020-02-10T08:35:23Z</time>
      </trkpt>
      <trkpt lat="59.225743" lon="18.131872">
        <ele>41</ele>
        <time>2020-02-10T08:35:24Z</time>
      </trkpt>
      <trkpt lat="59.225719" lon="18.131973">
        <ele>41</ele>
        <time>2020-02-10T08:35:25Z</time>
      </trkpt>
      <trkpt lat="59.225689" lon="18.132064">
        <ele>40</ele>
        <time>2020-02-10T08:35:26Z</time>
      </trkpt>
      <trkpt lat="59.225653" lon="18.132145">
        <ele>40</ele>
        <time>2020-02-10T08:35:27Z</time>
      </trkpt>
      <trkpt lat="59.225613" lon="18.132212">
        <ele>40</ele>
        <time>2020-02-10T08:35:28Z</time>
      </trkpt>
      <trkpt lat="59.225569" lon="18.132265">
        <ele>40</ele>
        <time>2020-02-10T08:35:29Z</time>
      </trkpt>
      <trkpt lat="59.225522" lon="18.13231">
        <ele>40</ele>
        <time>2020-02-10T08:35:30Z</time>
      </trkpt>
      <trkpt lat="59.225475" lon="18.132364">
        <ele>40</ele>
        <time>2020-02-10T08:35:31Z</time>
      </trkpt>
      <trkpt lat="59.225429" lon="18.132425">
        <ele>0</ele>
        <time>2020-02-10T08:35:31Z</time>
      </trkpt>
      <trkpt lat="59.225383" lon="18.132493">
        <ele>40</ele>
        <time>2020-02-10T08:35:32Z</time>
      </trkpt>
      <trkpt lat="59.225334" lon="18.132559">
        <ele>40</ele>
        <time>2020-02-10T08:35:34Z</time>
      </trkpt>
      <trkpt lat="59.225283" lon="18.132632">
        <ele>40</ele>
        <time>2020-02-10T08:35:35Z</time>
      </trkpt>
      <trkpt lat="59.225228" lon="18.132713">
        <ele>40</ele>
        <time>2020-02-10T08:35:36Z</time>
      </trkpt>
      <trkpt lat="59.225175" lon="18.132797">
        <ele>40</ele>
        <time>2020-02-10T08:35:37Z</time>
      </trkpt>
      <trkpt lat="59.225123" lon="18.132883">
        <ele>40</ele>
        <time>2020-02-10T08:35:38Z</time>
      </trkpt>
      <trkpt lat="59.225071" lon="18.13297">
        <ele>0</ele>
        <time>2020-02-10T08:35:38Z</time>
      </trkpt>
      <trkpt lat="59.225024" lon="18.133059">
        <ele>40</ele>
        <time>2020-02-10T08:35:39Z</time>
      </trkpt>
      <trkpt lat="59.224971" lon="18.133161">
        <ele>38</ele>
        <time>2020-02-10T08:35:41Z</time>
      </trkpt>
      <trkpt lat="59.224913" lon="18.133271">
        <ele>38</ele>
        <time>2020-02-10T08:35:42Z</time>
      </trkpt>
      <trkpt lat="59.224855" lon="18.133381">
        <ele>37</ele>
        <time>2020-02-10T08:35:43Z</time>
      </trkpt>
      <trkpt lat="59.224799" lon="18.133495">
        <ele>37</ele>
        <time>2020-02-10T08:35:44Z</time>
      </trkpt>
      <trkpt lat="59.224739" lon="18.133619">
        <ele>0</ele>
        <time>2020-02-10T08:35:44Z</time>
      </trkpt>
      <trkpt lat="59.224679" lon="18.133749">
        <ele>36</ele>
        <time>2020-02-10T08:35:45Z</time>
      </trkpt>
      <trkpt lat="59.224619" lon="18.133878">
        <ele>36</ele>
        <time>2020-02-10T08:35:47Z</time>
      </trkpt>
      <trkpt lat="59.224566" lon="18.134003">
        <ele>36</ele>
        <time>2020-02-10T08:35:48Z</time>
      </trkpt>
      <trkpt lat="59.224513" lon="18.134129">
        <ele>36</ele>
        <time>2020-02-10T08:35:49Z</time>
      </trkpt>
      <trkpt lat="59.224462" lon="18.134255">
        <ele>36</ele>
        <time>2020-02-10T08:35:50Z</time>
      </trkpt>
      <trkpt lat="59.224413" lon="18.134379">
        <ele>0</ele>
        <time>2020-02-10T08:35:50Z</time>
      </trkpt>
      <trkpt lat="59.224367" lon="18.134499">
        <ele>36</ele>
        <time>2020-02-10T08:35:51Z</time>
      </trkpt>
      <trkpt lat="59.22432" lon="18.134619">
        <ele>36</ele>
        <time>2020-02-10T08:35:53Z</time>
      </trkpt>
      <trkpt lat="59.224274" lon="18.134737">
        <ele>36</ele>
        <time>2020-02-10T08:35:54Z</time>
      </trkpt>
      <trkpt lat="59.224228" lon="18.134857">
        <ele>37</ele>
        <time>2020-02-10T08:35:55Z</time>
      </trkpt>
      <trkpt lat="59.224183" lon="18.13497">
        <ele>37</ele>
        <time>2020-02-10T08:35:56Z</time>
      </trkpt>
      <trkpt lat="59.224141" lon="18.135077">
        <ele>37</ele>
        <time>2020-02-10T08:35:57Z</time>
      </trkpt>
      <trkpt lat="59.2241" lon="18.135185">
        <ele>0</ele>
        <time>2020-02-10T08:35:57Z</time>
      </trkpt>
      <trkpt lat="59.22406" lon="18.135295">
        <ele>37</ele>
        <time>2020-02-10T08:35:58Z</time>
      </trkpt>
      <trkpt lat="59.224019" lon="18.135404">
        <ele>37</ele>
        <time>2020-02-10T08:36:00Z</time>
      </trkpt>
      <trkpt lat="59.22398" lon="18.135502">
        <ele>37</ele>
        <time>2020-02-10T08:36:01Z</time>
      </trkpt>
      <trkpt lat="59.223941" lon="18.135601">
        <ele>37</ele>
        <time>2020-02-10T08:36:02Z</time>
      </trkpt>
      <trkpt lat="59.223902" lon="18.135704">
        <ele>37</ele>
        <time>2020-02-10T08:36:03Z</time>
      </trkpt>
      <trkpt lat="59.223864" lon="18.135805">
        <ele>37</ele>
        <time>2020-02-10T08:36:04Z</time>
      </trkpt>
      <trkpt lat="59.223825" lon="18.135906">
        <ele>37</ele>
        <time>2020-02-10T08:36:05Z</time>
      </trkpt>
      <trkpt lat="59.223786" lon="18.136004">
        <ele>0</ele>
        <time>2020-02-10T08:36:05Z</time>
      </trkpt>
      <trkpt lat="59.223748" lon="18.13609">
        <ele>37</ele>
        <time>2020-02-10T08:36:06Z</time>
      </trkpt>
      <trkpt lat="59.22371" lon="18.136176">
        <ele>37</ele>
        <time>2020-02-10T08:36:08Z</time>
      </trkpt>
      <trkpt lat="59.223671" lon="18.136263">
        <ele>37</ele>
        <time>2020-02-10T08:36:09Z</time>
      </trkpt>
      <trkpt lat="59.223629" lon="18.136358">
        <ele>37</ele>
        <time>2020-02-10T08:36:10Z</time>
      </trkpt>
      <trkpt lat="59.223586" lon="18.136452">
        <ele>37</ele>
        <time>2020-02-10T08:36:11Z</time>
      </trkpt>
      <trkpt lat="59.223544" lon="18.136542">
        <ele>37</ele>
        <time>2020-02-10T08:36:12Z</time>
      </trkpt>
      <trkpt lat="59.2235" lon="18.13663">
        <ele>37</ele>
        <time>2020-02-10T08:36:13Z</time>
      </trkpt>
      <trkpt lat="59.223455" lon="18.136716">
        <ele>37</ele>
        <time>2020-02-10T08:36:14Z</time>
      </trkpt>
      <trkpt lat="59.223409" lon="18.136796">
        <ele>0</ele>
        <time>2020-02-10T08:36:14Z</time>
      </trkpt>
      <trkpt lat="59.223366" lon="18.13687">
        <ele>37</ele>
        <time>2020-02-10T08:36:15Z</time>
      </trkpt>
      <trkpt lat="59.223322" lon="18.136942">
        <ele>37</ele>
        <time>2020-02-10T08:36:17Z</time>
      </trkpt>
      <trkpt lat="59.223276" lon="18.137012">
        <ele>37</ele>
        <time>2020-02-10T08:36:18Z</time>
      </trkpt>
      <trkpt lat="59.223229" lon="18.137081">
        <ele>37</ele>
        <time>2020-02-10T08:36:19Z</time>
      </trkpt>
      <trkpt lat="59.223182" lon="18.137151">
        <ele>37</ele>
        <time>2020-02-10T08:36:20Z</time>
      </trkpt>
      <trkpt lat="59.223134" lon="18.137219">
        <ele>37</ele>
        <time>2020-02-10T08:36:21Z</time>
      </trkpt>
      <trkpt lat="59.223085" lon="18.137285">
        <ele>37</ele>
        <time>2020-02-10T08:36:22Z</time>
      </trkpt>
      <trkpt lat="59.223036" lon="18.137342">
        <ele>37</ele>
        <time>2020-02-10T08:36:23Z</time>
      </trkpt>
      <trkpt lat="59.222986" lon="18.137396">
        <ele>37</ele>
        <time>2020-02-10T08:36:24Z</time>
      </trkpt>
      <trkpt lat="59.222935" lon="18.137449">
        <ele>37</ele>
        <time>2020-02-10T08:36:25Z</time>
      </trkpt>
      <trkpt lat="59.222883" lon="18.137502">
        <ele>37</ele>
        <time>2020-02-10T08:36:26Z</time>
      </trkpt>
      <trkpt lat="59.22283" lon="18.137551">
        <ele>37</ele>
        <time>2020-02-10T08:36:27Z</time>
      </trkpt>
      <trkpt lat="59.222778" lon="18.137599">
        <ele>37</ele>
        <time>2020-02-10T08:36:28Z</time>
      </trkpt>
      <trkpt lat="59.222726" lon="18.137646">
        <ele>36</ele>
        <time>2020-02-10T08:36:29Z</time>
      </trkpt>
      <trkpt lat="59.222672" lon="18.137687">
        <ele>36</ele>
        <time>2020-02-10T08:36:30Z</time>
      </trkpt>
      <trkpt lat="59.222619" lon="18.137725">
        <ele>36</ele>
        <time>2020-02-10T08:36:31Z</time>
      </trkpt>
      <trkpt lat="59.222567" lon="18.137761">
        <ele>0</ele>
        <time>2020-02-10T08:36:31Z</time>
      </trkpt>
      <trkpt lat="59.222514" lon="18.137796">
        <ele>36</ele>
        <time>2020-02-10T08:36:32Z</time>
      </trkpt>
      <trkpt lat="59.222463" lon="18.137832">
        <ele>36</ele>
        <time>2020-02-10T08:36:34Z</time>
      </trkpt>
      <trkpt lat="59.222412" lon="18.137864">
        <ele>36</ele>
        <time>2020-02-10T08:36:35Z</time>
      </trkpt>
      <trkpt lat="59.222363" lon="18.137892">
        <ele>36</ele>
        <time>2020-02-10T08:36:36Z</time>
      </trkpt>
      <trkpt lat="59.222313" lon="18.137918">
        <ele>36</ele>
        <time>2020-02-10T08:36:37Z</time>
      </trkpt>
      <trkpt lat="59.222263" lon="18.137945">
        <ele>36</ele>
        <time>2020-02-10T08:36:38Z</time>
      </trkpt>
      <trkpt lat="59.222213" lon="18.13797">
        <ele>36</ele>
        <time>2020-02-10T08:36:39Z</time>
      </trkpt>
      <trkpt lat="59.222164" lon="18.137997">
        <ele>37</ele>
        <time>2020-02-10T08:36:40Z</time>
      </trkpt>
      <trkpt lat="59.222116" lon="18.138021">
        <ele>37</ele>
        <time>2020-02-10T08:36:41Z</time>
      </trkpt>
      <trkpt lat="59.222071" lon="18.138048">
        <ele>36</ele>
        <time>2020-02-10T08:36:42Z</time>
      </trkpt>
      <trkpt lat="59.222022" lon="18.138075">
        <ele>36</ele>
        <time>2020-02-10T08:36:43Z</time>
      </trkpt>
      <trkpt lat="59.221973" lon="18.138091">
        <ele>36</ele>
        <time>2020-02-10T08:36:44Z</time>
      </trkpt>
      <trkpt lat="59.221928" lon="18.138102">
        <ele>36</ele>
        <time>2020-02-10T08:36:45Z</time>
      </trkpt>
      <trkpt lat="59.221883" lon="18.138117">
        <ele>36</ele>
        <time>2020-02-10T08:36:46Z</time>
      </trkpt>
      <trkpt lat="59.221835" lon="18.138137">
        <ele>36</ele>
        <time>2020-02-10T08:36:47Z</time>
      </trkpt>
      <trkpt lat="59.221784" lon="18.138159">
        <ele>36</ele>
        <time>2020-02-10T08:36:48Z</time>
      </trkpt>
      <trkpt lat="59.221734" lon="18.138181">
        <ele>36</ele>
        <time>2020-02-10T08:36:49Z</time>
      </trkpt>
      <trkpt lat="59.221683" lon="18.138201">
        <ele>36</ele>
        <time>2020-02-10T08:36:50Z</time>
      </trkpt>
      <trkpt lat="59.221631" lon="18.138222">
        <ele>0</ele>
        <time>2020-02-10T08:36:50Z</time>
      </trkpt>
      <trkpt lat="59.22158" lon="18.138245">
        <ele>36</ele>
        <time>2020-02-10T08:36:51Z</time>
      </trkpt>
      <trkpt lat="59.221528" lon="18.138271">
        <ele>36</ele>
        <time>2020-02-10T08:36:53Z</time>
      </trkpt>
      <trkpt lat="59.221476" lon="18.138294">
        <ele>36</ele>
        <time>2020-02-10T08:36:54Z</time>
      </trkpt>
      <trkpt lat="59.221425" lon="18.138314">
        <ele>36</ele>
        <time>2020-02-10T08:36:55Z</time>
      </trkpt>
      <trkpt lat="59.221374" lon="18.138331">
        <ele>36</ele>
        <time>2020-02-10T08:36:56Z</time>
      </trkpt>
      <trkpt lat="59.221319" lon="18.138347">
        <ele>36</ele>
        <time>2020-02-10T08:36:57Z</time>
      </trkpt>
      <trkpt lat="59.221264" lon="18.138368">
        <ele>36</ele>
        <time>2020-02-10T08:36:58Z</time>
      </trkpt>
      <trkpt lat="59.221209" lon="18.138389">
        <ele>35</ele>
        <time>2020-02-10T08:36:59Z</time>
      </trkpt>
      <trkpt lat="59.221152" lon="18.138413">
        <ele>35</ele>
        <time>2020-02-10T08:37:00Z</time>
      </trkpt>
      <trkpt lat="59.221095" lon="18.138434">
        <ele>35</ele>
        <time>2020-02-10T08:37:01Z</time>
      </trkpt>
      <trkpt lat="59.221039" lon="18.138454">
        <ele>35</ele>
        <time>2020-02-10T08:37:02Z</time>
      </trkpt>
      <trkpt lat="59.220984" lon="18.138476">
        <ele>35</ele>
        <time>2020-02-10T08:37:03Z</time>
      </trkpt>
      <trkpt lat="59.220929" lon="18.138499">
        <ele>35</ele>
        <time>2020-02-10T08:37:04Z</time>
      </trkpt>
      <trkpt lat="59.220874" lon="18.138521">
        <ele>35</ele>
        <time>2020-02-10T08:37:05Z</time>
      </trkpt>
      <trkpt lat="59.220822" lon="18.138544">
        <ele>35</ele>
        <time>2020-02-10T08:37:06Z</time>
      </trkpt>
      <trkpt lat="59.220772" lon="18.138567">
        <ele>35</ele>
        <time>2020-02-10T08:37:07Z</time>
      </trkpt>
      <trkpt lat="59.220725" lon="18.13859">
        <ele>35</ele>
        <time>2020-02-10T08:37:08Z</time>
      </trkpt>
      <trkpt lat="59.220678" lon="18.138612">
        <ele>35</ele>
        <time>2020-02-10T08:37:09Z</time>
      </trkpt>
      <trkpt lat="59.22063" lon="18.138634">
        <ele>35</ele>
        <time>2020-02-10T08:37:10Z</time>
      </trkpt>
      <trkpt lat="59.220582" lon="18.13866">
        <ele>35</ele>
        <time>2020-02-10T08:37:11Z</time>
      </trkpt>
      <trkpt lat="59.220532" lon="18.138689">
        <ele>35</ele>
        <time>2020-02-10T08:37:12Z</time>
      </trkpt>
      <trkpt lat="59.220483" lon="18.138721">
        <ele>35</ele>
        <time>2020-02-10T08:37:13Z</time>
      </trkpt>
      <trkpt lat="59.220431" lon="18.138756">
        <ele>35</ele>
        <time>2020-02-10T08:37:14Z</time>
      </trkpt>
      <trkpt lat="59.220379" lon="18.138795">
        <ele>35</ele>
        <time>2020-02-10T08:37:15Z</time>
      </trkpt>
      <trkpt lat="59.220325" lon="18.138838">
        <ele>35</ele>
        <time>2020-02-10T08:37:16Z</time>
      </trkpt>
      <trkpt lat="59.220269" lon="18.138886">
        <ele>35</ele>
        <time>2020-02-10T08:37:17Z</time>
      </trkpt>
      <trkpt lat="59.220213" lon="18.138938">
        <ele>35</ele>
        <time>2020-02-10T08:37:18Z</time>
      </trkpt>
      <trkpt lat="59.220155" lon="18.138989">
        <ele>35</ele>
        <time>2020-02-10T08:37:19Z</time>
      </trkpt>
      <trkpt lat="59.220096" lon="18.139044">
        <ele>35</ele>
        <time>2020-02-10T08:37:20Z</time>
      </trkpt>
      <trkpt lat="59.220036" lon="18.139104">
        <ele>34</ele>
        <time>2020-02-10T08:37:21Z</time>
      </trkpt>
      <trkpt lat="59.219978" lon="18.139189">
        <ele>35</ele>
        <time>2020-02-10T08:37:22Z</time>
      </trkpt>
      <trkpt lat="59.21992" lon="18.139276">
        <ele>35</ele>
        <time>2020-02-10T08:37:23Z</time>
      </trkpt>
      <trkpt lat="59.219863" lon="18.139353">
        <ele>35</ele>
        <time>2020-02-10T08:37:24Z</time>
      </trkpt>
      <trkpt lat="59.219803" lon="18.139433">
        <ele>35</ele>
        <time>2020-02-10T08:37:25Z</time>
      </trkpt>
      <trkpt lat="59.219743" lon="18.139515">
        <ele>34</ele>
        <time>2020-02-10T08:37:26Z</time>
      </trkpt>
      <trkpt lat="59.219683" lon="18.139599">
        <ele>34</ele>
        <time>2020-02-10T08:37:27Z</time>
      </trkpt>
      <trkpt lat="59.21962" lon="18.139697">
        <ele>33</ele>
        <time>2020-02-10T08:37:28Z</time>
      </trkpt>
      <trkpt lat="59.219556" lon="18.139784">
        <ele>32</ele>
        <time>2020-02-10T08:37:29Z</time>
      </trkpt>
      <trkpt lat="59.219492" lon="18.139861">
        <ele>32</ele>
        <time>2020-02-10T08:37:30Z</time>
      </trkpt>
      <trkpt lat="59.219424" lon="18.139934">
        <ele>31</ele>
        <time>2020-02-10T08:37:31Z</time>
      </trkpt>
      <trkpt lat="59.219361" lon="18.140007">
        <ele>31</ele>
        <time>2020-02-10T08:37:32Z</time>
      </trkpt>
      <trkpt lat="59.219298" lon="18.140079">
        <ele>30</ele>
        <time>2020-02-10T08:37:33Z</time>
      </trkpt>
      <trkpt lat="59.219236" lon="18.140148">
        <ele>30</ele>
        <time>2020-02-10T08:37:34Z</time>
      </trkpt>
      <trkpt lat="59.219176" lon="18.140214">
        <ele>29</ele>
        <time>2020-02-10T08:37:35Z</time>
      </trkpt>
      <trkpt lat="59.219119" lon="18.14028">
        <ele>29</ele>
        <time>2020-02-10T08:37:36Z</time>
      </trkpt>
      <trkpt lat="59.219062" lon="18.140346">
        <ele>29</ele>
        <time>2020-02-10T08:37:37Z</time>
      </trkpt>
      <trkpt lat="59.219006" lon="18.140412">
        <ele>28</ele>
        <time>2020-02-10T08:37:38Z</time>
      </trkpt>
      <trkpt lat="59.21895" lon="18.140477">
        <ele>28</ele>
        <time>2020-02-10T08:37:39Z</time>
      </trkpt>
      <trkpt lat="59.218896" lon="18.14054">
        <ele>0</ele>
        <time>2020-02-10T08:37:39Z</time>
      </trkpt>
      <trkpt lat="59.218843" lon="18.140601">
        <ele>28</ele>
        <time>2020-02-10T08:37:40Z</time>
      </trkpt>
      <trkpt lat="59.218792" lon="18.140665">
        <ele>27</ele>
        <time>2020-02-10T08:37:42Z</time>
      </trkpt>
      <trkpt lat="59.218746" lon="18.140736">
        <ele>27</ele>
        <time>2020-02-10T08:37:43Z</time>
      </trkpt>
      <trkpt lat="59.218706" lon="18.140818">
        <ele>27</ele>
        <time>2020-02-10T08:37:44Z</time>
      </trkpt>
      <trkpt lat="59.218673" lon="18.14091">
        <ele>27</ele>
        <time>2020-02-10T08:37:45Z</time>
      </trkpt>
      <trkpt lat="59.21865" lon="18.141013">
        <ele>26</ele>
        <time>2020-02-10T08:37:46Z</time>
      </trkpt>
      <trkpt lat="59.218634" lon="18.141123">
        <ele>26</ele>
        <time>2020-02-10T08:37:47Z</time>
      </trkpt>
      <trkpt lat="59.21862" lon="18.141236">
        <ele>26</ele>
        <time>2020-02-10T08:37:48Z</time>
      </trkpt>
      <trkpt lat="59.218611" lon="18.141347">
        <ele>26</ele>
        <time>2020-02-10T08:37:49Z</time>
      </trkpt>
      <trkpt lat="59.2186" lon="18.141451">
        <ele>25</ele>
        <time>2020-02-10T08:37:50Z</time>
      </trkpt>
      <trkpt lat="59.218572" lon="18.141535">
        <ele>25</ele>
        <time>2020-02-10T08:37:51Z</time>
      </trkpt>
      <trkpt lat="59.21853" lon="18.141579">
        <ele>26</ele>
        <time>2020-02-10T08:37:52Z</time>
      </trkpt>
      <trkpt lat="59.218482" lon="18.141595">
        <ele>26</ele>
        <time>2020-02-10T08:37:53Z</time>
      </trkpt>
      <trkpt lat="59.218434" lon="18.141614">
        <ele>25</ele>
        <time>2020-02-10T08:37:54Z</time>
      </trkpt>
      <trkpt lat="59.218386" lon="18.141638">
        <ele>25</ele>
        <time>2020-02-10T08:37:55Z</time>
      </trkpt>
      <trkpt lat="59.218338" lon="18.141652">
        <ele>26</ele>
        <time>2020-02-10T08:37:56Z</time>
      </trkpt>
      <trkpt lat="59.218293" lon="18.141633">
        <ele>26</ele>
        <time>2020-02-10T08:37:57Z</time>
      </trkpt>
      <trkpt lat="59.218254" lon="18.141583">
        <ele>26</ele>
        <time>2020-02-10T08:37:58Z</time>
      </trkpt>
      <trkpt lat="59.218215" lon="18.14153">
        <ele>26</ele>
        <time>2020-02-10T08:37:59Z</time>
      </trkpt>
      <trkpt lat="59.218171" lon="18.141499">
        <ele>26</ele>
        <time>2020-02-10T08:38:00Z</time>
      </trkpt>
      <trkpt lat="59.218123" lon="18.141506">
        <ele>26</ele>
        <time>2020-02-10T08:38:01Z</time>
      </trkpt>
      <trkpt lat="59.218077" lon="18.141538">
        <ele>26</ele>
        <time>2020-02-10T08:38:02Z</time>
      </trkpt>
      <trkpt lat="59.218032" lon="18.14158">
        <ele>26</ele>
        <time>2020-02-10T08:38:03Z</time>
      </trkpt>
      <trkpt lat="59.217987" lon="18.141627">
        <ele>26</ele>
        <time>2020-02-10T08:38:04Z</time>
      </trkpt>
      <trkpt lat="59.217942" lon="18.141677">
        <ele>26</ele>
        <time>2020-02-10T08:38:05Z</time>
      </trkpt>
      <trkpt lat="59.217898" lon="18.14173">
        <ele>26</ele>
        <time>2020-02-10T08:38:06Z</time>
      </trkpt>
      <trkpt lat="59.217854" lon="18.141783">
        <ele>26</ele>
        <time>2020-02-10T08:38:07Z</time>
      </trkpt>
      <trkpt lat="59.217808" lon="18.141832">
        <ele>0</ele>
        <time>2020-02-10T08:38:07Z</time>
      </trkpt>
      <trkpt lat="59.217761" lon="18.14188">
        <ele>26</ele>
        <time>2020-02-10T08:38:08Z</time>
      </trkpt>
      <trkpt lat="59.217714" lon="18.141926">
        <ele>26</ele>
        <time>2020-02-10T08:38:10Z</time>
      </trkpt>
      <trkpt lat="59.217668" lon="18.141973">
        <ele>25</ele>
        <time>2020-02-10T08:38:11Z</time>
      </trkpt>
      <trkpt lat="59.217624" lon="18.142021">
        <ele>25</ele>
        <time>2020-02-10T08:38:12Z</time>
      </trkpt>
      <trkpt lat="59.21758" lon="18.142069">
        <ele>25</ele>
        <time>2020-02-10T08:38:13Z</time>
      </trkpt>
      <trkpt lat="59.217535" lon="18.142114">
        <ele>25</ele>
        <time>2020-02-10T08:38:14Z</time>
      </trkpt>
      <trkpt lat="59.217491" lon="18.14216">
        <ele>25</ele>
        <time>2020-02-10T08:38:15Z</time>
      </trkpt>
      <trkpt lat="59.217448" lon="18.14221">
        <ele>25</ele>
        <time>2020-02-10T08:38:16Z</time>
      </trkpt>
      <trkpt lat="59.217404" lon="18.142262">
        <ele>25</ele>
        <time>2020-02-10T08:38:17Z</time>
      </trkpt>
      <trkpt lat="59.217359" lon="18.142315">
        <ele>0</ele>
        <time>2020-02-10T08:38:17Z</time>
      </trkpt>
      <trkpt lat="59.217313" lon="18.14237">
        <ele>25</ele>
        <time>2020-02-10T08:38:18Z</time>
      </trkpt>
      <trkpt lat="59.217267" lon="18.142426">
        <ele>25</ele>
        <time>2020-02-10T08:38:20Z</time>
      </trkpt>
      <trkpt lat="59.217221" lon="18.142481">
        <ele>25</ele>
        <time>2020-02-10T08:38:21Z</time>
      </trkpt>
      <trkpt lat="59.217173" lon="18.142539">
        <ele>25</ele>
        <time>2020-02-10T08:38:22Z</time>
      </trkpt>
      <trkpt lat="59.217124" lon="18.142598">
        <ele>26</ele>
        <time>2020-02-10T08:38:23Z</time>
      </trkpt>
      <trkpt lat="59.217075" lon="18.142657">
        <ele>26</ele>
        <time>2020-02-10T08:38:24Z</time>
      </trkpt>
      <trkpt lat="59.217027" lon="18.142715">
        <ele>26</ele>
        <time>2020-02-10T08:38:25Z</time>
      </trkpt>
      <trkpt lat="59.216977" lon="18.142774">
        <ele>25</ele>
        <time>2020-02-10T08:38:26Z</time>
      </trkpt>
      <trkpt lat="59.216927" lon="18.142833">
        <ele>25</ele>
        <time>2020-02-10T08:38:27Z</time>
      </trkpt>
      <trkpt lat="59.216876" lon="18.142891">
        <ele>25</ele>
        <time>2020-02-10T08:38:28Z</time>
      </trkpt>
      <trkpt lat="59.216824" lon="18.142951">
        <ele>25</ele>
        <time>2020-02-10T08:38:29Z</time>
      </trkpt>
      <trkpt lat="59.216773" lon="18.143009">
        <ele>25</ele>
        <time>2020-02-10T08:38:30Z</time>
      </trkpt>
      <trkpt lat="59.216722" lon="18.143068">
        <ele>25</ele>
        <time>2020-02-10T08:38:31Z</time>
      </trkpt>
      <trkpt lat="59.216671" lon="18.143129">
        <ele>25</ele>
        <time>2020-02-10T08:38:32Z</time>
      </trkpt>
      <trkpt lat="59.21662" lon="18.143188">
        <ele>25</ele>
        <time>2020-02-10T08:38:33Z</time>
      </trkpt>
      <trkpt lat="59.216567" lon="18.143247">
        <ele>25</ele>
        <time>2020-02-10T08:38:34Z</time>
      </trkpt>
      <trkpt lat="59.216516" lon="18.143306">
        <ele>25</ele>
        <time>2020-02-10T08:38:35Z</time>
      </trkpt>
      <trkpt lat="59.216464" lon="18.143363">
        <ele>25</ele>
        <time>2020-02-10T08:38:36Z</time>
      </trkpt>
      <trkpt lat="59.216414" lon="18.143421">
        <ele>25</ele>
        <time>2020-02-10T08:38:37Z</time>
      </trkpt>
      <trkpt lat="59.216364" lon="18.143479">
        <ele>26</ele>
        <time>2020-02-10T08:38:38Z</time>
      </trkpt>
      <trkpt lat="59.216316" lon="18.143537">
        <ele>26</ele>
        <time>2020-02-10T08:38:39Z</time>
      </trkpt>
      <trkpt lat="59.216269" lon="18.143594">
        <ele>26</ele>
        <time>2020-02-10T08:38:40Z</time>
      </trkpt>
      <trkpt lat="59.216221" lon="18.14365">
        <ele>26</ele>
        <time>2020-02-10T08:38:41Z</time>
      </trkpt>
      <trkpt lat="59.216174" lon="18.143705">
        <ele>26</ele>
        <time>2020-02-10T08:38:42Z</time>
      </trkpt>
      <trkpt lat="59.216127" lon="18.14376">
        <ele>26</ele>
        <time>2020-02-10T08:38:43Z</time>
      </trkpt>
      <trkpt lat="59.216083" lon="18.143814">
        <ele>27</ele>
        <time>2020-02-10T08:38:44Z</time>
      </trkpt>
      <trkpt lat="59.216038" lon="18.143867">
        <ele>27</ele>
        <time>2020-02-10T08:38:45Z</time>
      </trkpt>
      <trkpt lat="59.215996" lon="18.143918">
        <ele>27</ele>
        <time>2020-02-10T08:38:46Z</time>
      </trkpt>
      <trkpt lat="59.215955" lon="18.143968">
        <ele>27</ele>
        <time>2020-02-10T08:38:47Z</time>
      </trkpt>
      <trkpt lat="59.215919" lon="18.144019">
        <ele>27</ele>
        <time>2020-02-10T08:38:48Z</time>
      </trkpt>
      <trkpt lat="59.215878" lon="18.144067">
        <ele>27</ele>
        <time>2020-02-10T08:38:49Z</time>
      </trkpt>
      <trkpt lat="59.215839" lon="18.144116">
        <ele>27</ele>
        <time>2020-02-10T08:38:50Z</time>
      </trkpt>
      <trkpt lat="59.215799" lon="18.144161">
        <ele>28</ele>
        <time>2020-02-10T08:38:51Z</time>
      </trkpt>
      <trkpt lat="59.21576" lon="18.144206">
        <ele>28</ele>
        <time>2020-02-10T08:38:52Z</time>
      </trkpt>
      <trkpt lat="59.215724" lon="18.144256">
        <ele>28</ele>
        <time>2020-02-10T08:38:53Z</time>
      </trkpt>
      <trkpt lat="59.215686" lon="18.144304">
        <ele>28</ele>
        <time>2020-02-10T08:38:54Z</time>
      </trkpt>
      <trkpt lat="59.215649" lon="18.144348">
        <ele>28</ele>
        <time>2020-02-10T08:38:55Z</time>
      </trkpt>
      <trkpt lat="59.215612" lon="18.144389">
        <ele>28</ele>
        <time>2020-02-10T08:38:56Z</time>
      </trkpt>
      <trkpt lat="59.215576" lon="18.144432">
        <ele>28</ele>
        <time>2020-02-10T08:38:57Z</time>
      </trkpt>
      <trkpt lat="59.215539" lon="18.144472">
        <ele>28</ele>
        <time>2020-02-10T08:38:58Z</time>
      </trkpt>
      <trkpt lat="59.215503" lon="18.144512">
        <ele>28</ele>
        <time>2020-02-10T08:38:59Z</time>
      </trkpt>
      <trkpt lat="59.215469" lon="18.144551">
        <ele>28</ele>
        <time>2020-02-10T08:39:00Z</time>
      </trkpt>
      <trkpt lat="59.215435" lon="18.144589">
        <ele>28</ele>
        <time>2020-02-10T08:39:01Z</time>
      </trkpt>
      <trkpt lat="59.215401" lon="18.144629">
        <ele>28</ele>
        <time>2020-02-10T08:39:02Z</time>
      </trkpt>
      <trkpt lat="59.215368" lon="18.14467">
        <ele>28</ele>
        <time>2020-02-10T08:39:03Z</time>
      </trkpt>
      <trkpt lat="59.215332" lon="18.144709">
        <ele>28</ele>
        <time>2020-02-10T08:39:04Z</time>
      </trkpt>
      <trkpt lat="59.215299" lon="18.144751">
        <ele>28</ele>
        <time>2020-02-10T08:39:05Z</time>
      </trkpt>
      <trkpt lat="59.215266" lon="18.144792">
        <ele>28</ele>
        <time>2020-02-10T08:39:06Z</time>
      </trkpt>
      <trkpt lat="59.215228" lon="18.144833">
        <ele>28</ele>
        <time>2020-02-10T08:39:07Z</time>
      </trkpt>
      <trkpt lat="59.215192" lon="18.144876">
        <ele>0</ele>
        <time>2020-02-10T08:39:07Z</time>
      </trkpt>
      <trkpt lat="59.215156" lon="18.144915">
        <ele>28</ele>
        <time>2020-02-10T08:39:08Z</time>
      </trkpt>
      <trkpt lat="59.215118" lon="18.144953">
        <ele>28</ele>
        <time>2020-02-10T08:39:10Z</time>
      </trkpt>
      <trkpt lat="59.21508" lon="18.144994">
        <ele>28</ele>
        <time>2020-02-10T08:39:11Z</time>
      </trkpt>
      <trkpt lat="59.215044" lon="18.145036">
        <ele>28</ele>
        <time>2020-02-10T08:39:12Z</time>
      </trkpt>
      <trkpt lat="59.215006" lon="18.145079">
        <ele>28</ele>
        <time>2020-02-10T08:39:13Z</time>
      </trkpt>
      <trkpt lat="59.21497" lon="18.145121">
        <ele>28</ele>
        <time>2020-02-10T08:39:14Z</time>
      </trkpt>
      <trkpt lat="59.214935" lon="18.14516">
        <ele>28</ele>
        <time>2020-02-10T08:39:15Z</time>
      </trkpt>
      <trkpt lat="59.214903" lon="18.145201">
        <ele>28</ele>
        <time>2020-02-10T08:39:16Z</time>
      </trkpt>
      <trkpt lat="59.21487" lon="18.145238">
        <ele>29</ele>
        <time>2020-02-10T08:39:17Z</time>
      </trkpt>
      <trkpt lat="59.214836" lon="18.145277">
        <ele>29</ele>
        <time>2020-02-10T08:39:18Z</time>
      </trkpt>
      <trkpt lat="59.214803" lon="18.145314">
        <ele>29</ele>
        <time>2020-02-10T08:39:19Z</time>
      </trkpt>
      <trkpt lat="59.214768" lon="18.145352">
        <ele>29</ele>
        <time>2020-02-10T08:39:20Z</time>
      </trkpt>
      <trkpt lat="59.214735" lon="18.145394">
        <ele>29</ele>
        <time>2020-02-10T08:39:21Z</time>
      </trkpt>
      <trkpt lat="59.214702" lon="18.145434">
        <ele>29</ele>
        <time>2020-02-10T08:39:22Z</time>
      </trkpt>
      <trkpt lat="59.214669" lon="18.145474">
        <ele>29</ele>
        <time>2020-02-10T08:39:23Z</time>
      </trkpt>
      <trkpt lat="59.214634" lon="18.145515">
        <ele>30</ele>
        <time>2020-02-10T08:39:24Z</time>
      </trkpt>
      <trkpt lat="59.2146" lon="18.145555">
        <ele>30</ele>
        <time>2020-02-10T08:39:25Z</time>
      </trkpt>
      <trkpt lat="59.214564" lon="18.145597">
        <ele>30</ele>
        <time>2020-02-10T08:39:26Z</time>
      </trkpt>
      <trkpt lat="59.214528" lon="18.145639">
        <ele>30</ele>
        <time>2020-02-10T08:39:27Z</time>
      </trkpt>
      <trkpt lat="59.214495" lon="18.145683">
        <ele>30</ele>
        <time>2020-02-10T08:39:28Z</time>
      </trkpt>
      <trkpt lat="59.214462" lon="18.145724">
        <ele>30</ele>
        <time>2020-02-10T08:39:29Z</time>
      </trkpt>
      <trkpt lat="59.214426" lon="18.145761">
        <ele>30</ele>
        <time>2020-02-10T08:39:30Z</time>
      </trkpt>
      <trkpt lat="59.214392" lon="18.145798">
        <ele>30</ele>
        <time>2020-02-10T08:39:31Z</time>
      </trkpt>
      <trkpt lat="59.21436" lon="18.145836">
        <ele>30</ele>
        <time>2020-02-10T08:39:32Z</time>
      </trkpt>
      <trkpt lat="59.214326" lon="18.145872">
        <ele>30</ele>
        <time>2020-02-10T08:39:33Z</time>
      </trkpt>
      <trkpt lat="59.214294" lon="18.145909">
        <ele>30</ele>
        <time>2020-02-10T08:39:34Z</time>
      </trkpt>
      <trkpt lat="59.214262" lon="18.145947">
        <ele>30</ele>
        <time>2020-02-10T08:39:35Z</time>
      </trkpt>
      <trkpt lat="59.214231" lon="18.145984">
        <ele>30</ele>
        <time>2020-02-10T08:39:36Z</time>
      </trkpt>
      <trkpt lat="59.214198" lon="18.146021">
        <ele>31</ele>
        <time>2020-02-10T08:39:37Z</time>
      </trkpt>
      <trkpt lat="59.214167" lon="18.146058">
        <ele>31</ele>
        <time>2020-02-10T08:39:38Z</time>
      </trkpt>
      <trkpt lat="59.214134" lon="18.146095">
        <ele>31</ele>
        <time>2020-02-10T08:39:39Z</time>
      </trkpt>
      <trkpt lat="59.214099" lon="18.14613">
        <ele>31</ele>
        <time>2020-02-10T08:39:40Z</time>
      </trkpt>
      <trkpt lat="59.214066" lon="18.146169">
        <ele>31</ele>
        <time>2020-02-10T08:39:41Z</time>
      </trkpt>
      <trkpt lat="59.214032" lon="18.146211">
        <ele>31</ele>
        <time>2020-02-10T08:39:42Z</time>
      </trkpt>
      <trkpt lat="59.213998" lon="18.146255">
        <ele>31</ele>
        <time>2020-02-10T08:39:43Z</time>
      </trkpt>
      <trkpt lat="59.213966" lon="18.146299">
        <ele>31</ele>
        <time>2020-02-10T08:39:44Z</time>
      </trkpt>
      <trkpt lat="59.213935" lon="18.146342">
        <ele>31</ele>
        <time>2020-02-10T08:39:45Z</time>
      </trkpt>
      <trkpt lat="59.2139" lon="18.146382">
        <ele>31</ele>
        <time>2020-02-10T08:39:46Z</time>
      </trkpt>
      <trkpt lat="59.213868" lon="18.146421">
        <ele>31</ele>
        <time>2020-02-10T08:39:47Z</time>
      </trkpt>
      <trkpt lat="59.213834" lon="18.14646">
        <ele>32</ele>
        <time>2020-02-10T08:39:48Z</time>
      </trkpt>
      <trkpt lat="59.2138" lon="18.146496">
        <ele>32</ele>
        <time>2020-02-10T08:39:49Z</time>
      </trkpt>
      <trkpt lat="59.213765" lon="18.14653">
        <ele>32</ele>
        <time>2020-02-10T08:39:50Z</time>
      </trkpt>
      <trkpt lat="59.213728" lon="18.146562">
        <ele>32</ele>
        <time>2020-02-10T08:39:51Z</time>
      </trkpt>
      <trkpt lat="59.213692" lon="18.146595">
        <ele>32</ele>
        <time>2020-02-10T08:39:52Z</time>
      </trkpt>
      <trkpt lat="59.213657" lon="18.146628">
        <ele>32</ele>
        <time>2020-02-10T08:39:53Z</time>
      </trkpt>
      <trkpt lat="59.213621" lon="18.146659">
        <ele>32</ele>
        <time>2020-02-10T08:39:54Z</time>
      </trkpt>
      <trkpt lat="59.213586" lon="18.14669">
        <ele>32</ele>
        <time>2020-02-10T08:39:55Z</time>
      </trkpt>
      <trkpt lat="59.21355" lon="18.146718">
        <ele>32</ele>
        <time>2020-02-10T08:39:56Z</time>
      </trkpt>
      <trkpt lat="59.213514" lon="18.146744">
        <ele>32</ele>
        <time>2020-02-10T08:39:57Z</time>
      </trkpt>
      <trkpt lat="59.213477" lon="18.146774">
        <ele>32</ele>
        <time>2020-02-10T08:39:58Z</time>
      </trkpt>
      <trkpt lat="59.213442" lon="18.146803">
        <ele>32</ele>
        <time>2020-02-10T08:39:59Z</time>
      </trkpt>
      <trkpt lat="59.213405" lon="18.146829">
        <ele>32</ele>
        <time>2020-02-10T08:40:00Z</time>
      </trkpt>
      <trkpt lat="59.21337" lon="18.146853">
        <ele>32</ele>
        <time>2020-02-10T08:40:01Z</time>
      </trkpt>
      <trkpt lat="59.213332" lon="18.146878">
        <ele>32</ele>
        <time>2020-02-10T08:40:02Z</time>
      </trkpt>
      <trkpt lat="59.213295" lon="18.146901">
        <ele>32</ele>
        <time>2020-02-10T08:40:03Z</time>
      </trkpt>
      <trkpt lat="59.213259" lon="18.146921">
        <ele>32</ele>
        <time>2020-02-10T08:40:04Z</time>
      </trkpt>
      <trkpt lat="59.213224" lon="18.146941">
        <ele>32</ele>
        <time>2020-02-10T08:40:05Z</time>
      </trkpt>
      <trkpt lat="59.213189" lon="18.146958">
        <ele>32</ele>
        <time>2020-02-10T08:40:06Z</time>
      </trkpt>
      <trkpt lat="59.213154" lon="18.146974">
        <ele>32</ele>
        <time>2020-02-10T08:40:07Z</time>
      </trkpt>
      <trkpt lat="59.21312" lon="18.146992">
        <ele>32</ele>
        <time>2020-02-10T08:40:08Z</time>
      </trkpt>
      <trkpt lat="59.213086" lon="18.147008">
        <ele>33</ele>
        <time>2020-02-10T08:40:09Z</time>
      </trkpt>
      <trkpt lat="59.213053" lon="18.147023">
        <ele>33</ele>
        <time>2020-02-10T08:40:10Z</time>
      </trkpt>
      <trkpt lat="59.21302" lon="18.147038">
        <ele>33</ele>
        <time>2020-02-10T08:40:11Z</time>
      </trkpt>
      <trkpt lat="59.212986" lon="18.147052">
        <ele>33</ele>
        <time>2020-02-10T08:40:12Z</time>
      </trkpt>
      <trkpt lat="59.212954" lon="18.147065">
        <ele>33</ele>
        <time>2020-02-10T08:40:13Z</time>
      </trkpt>
      <trkpt lat="59.212921" lon="18.147075">
        <ele>33</ele>
        <time>2020-02-10T08:40:14Z</time>
      </trkpt>
      <trkpt lat="59.212891" lon="18.147085">
        <ele>33</ele>
        <time>2020-02-10T08:40:15Z</time>
      </trkpt>
      <trkpt lat="59.212861" lon="18.147096">
        <ele>34</ele>
        <time>2020-02-10T08:40:16Z</time>
      </trkpt>
      <trkpt lat="59.212832" lon="18.147106">
        <ele>34</ele>
        <time>2020-02-10T08:40:17Z</time>
      </trkpt>
      <trkpt lat="59.212805" lon="18.147113">
        <ele>34</ele>
        <time>2020-02-10T08:40:18Z</time>
      </trkpt>
      <trkpt lat="59.212778" lon="18.14712">
        <ele>34</ele>
        <time>2020-02-10T08:40:19Z</time>
      </trkpt>
      <trkpt lat="59.212753" lon="18.147127">
        <ele>34</ele>
        <time>2020-02-10T08:40:20Z</time>
      </trkpt>
      <trkpt lat="59.212726" lon="18.147133">
        <ele>35</ele>
        <time>2020-02-10T08:40:21Z</time>
      </trkpt>
      <trkpt lat="59.212699" lon="18.14714">
        <ele>35</ele>
        <time>2020-02-10T08:40:22Z</time>
      </trkpt>
      <trkpt lat="59.212671" lon="18.147148">
        <ele>35</ele>
        <time>2020-02-10T08:40:23Z</time>
      </trkpt>
      <trkpt lat="59.212643" lon="18.147155">
        <ele>35</ele>
        <time>2020-02-10T08:40:24Z</time>
      </trkpt>
      <trkpt lat="59.212615" lon="18.147161">
        <ele>35</ele>
        <time>2020-02-10T08:40:25Z</time>
      </trkpt>
      <trkpt lat="59.212587" lon="18.147167">
        <ele>35</ele>
        <time>2020-02-10T08:40:26Z</time>
      </trkpt>
      <trkpt lat="59.212559" lon="18.147174">
        <ele>35</ele>
        <time>2020-02-10T08:40:27Z</time>
      </trkpt>
      <trkpt lat="59.212531" lon="18.147179">
        <ele>36</ele>
        <time>2020-02-10T08:40:28Z</time>
      </trkpt>
      <trkpt lat="59.212502" lon="18.147183">
        <ele>36</ele>
        <time>2020-02-10T08:40:29Z</time>
      </trkpt>
      <trkpt lat="59.212473" lon="18.147188">
        <ele>36</ele>
        <time>2020-02-10T08:40:30Z</time>
      </trkpt>
      <trkpt lat="59.212445" lon="18.147196">
        <ele>36</ele>
        <time>2020-02-10T08:40:31Z</time>
      </trkpt>
      <trkpt lat="59.212417" lon="18.147199">
        <ele>36</ele>
        <time>2020-02-10T08:40:32Z</time>
      </trkpt>
      <trkpt lat="59.212388" lon="18.147201">
        <ele>37</ele>
        <time>2020-02-10T08:40:33Z</time>
      </trkpt>
      <trkpt lat="59.21236" lon="18.147204">
        <ele>37</ele>
        <time>2020-02-10T08:40:34Z</time>
      </trkpt>
      <trkpt lat="59.212332" lon="18.147206">
        <ele>37</ele>
        <time>2020-02-10T08:40:35Z</time>
      </trkpt>
      <trkpt lat="59.212304" lon="18.147206">
        <ele>37</ele>
        <time>2020-02-10T08:40:36Z</time>
      </trkpt>
      <trkpt lat="59.212275" lon="18.147207">
        <ele>37</ele>
        <time>2020-02-10T08:40:37Z</time>
      </trkpt>
      <trkpt lat="59.212247" lon="18.147207">
        <ele>37</ele>
        <time>2020-02-10T08:40:38Z</time>
      </trkpt>
      <trkpt lat="59.212219" lon="18.147206">
        <ele>37</ele>
        <time>2020-02-10T08:40:39Z</time>
      </trkpt>
      <trkpt lat="59.212191" lon="18.147205">
        <ele>38</ele>
        <time>2020-02-10T08:40:40Z</time>
      </trkpt>
      <trkpt lat="59.212163" lon="18.147205">
        <ele>38</ele>
        <time>2020-02-10T08:40:41Z</time>
      </trkpt>
      <trkpt lat="59.212134" lon="18.147206">
        <ele>38</ele>
        <time>2020-02-10T08:40:42Z</time>
      </trkpt>
      <trkpt lat="59.212105" lon="18.147206">
        <ele>38</ele>
        <time>2020-02-10T08:40:43Z</time>
      </trkpt>
      <trkpt lat="59.212075" lon="18.147205">
        <ele>38</ele>
        <time>2020-02-10T08:40:44Z</time>
      </trkpt>
      <trkpt lat="59.212046" lon="18.147203">
        <ele>38</ele>
        <time>2020-02-10T08:40:45Z</time>
      </trkpt>
      <trkpt lat="59.212018" lon="18.1472">
        <ele>39</ele>
        <time>2020-02-10T08:40:46Z</time>
      </trkpt>
      <trkpt lat="59.21199" lon="18.147197">
        <ele>39</ele>
        <time>2020-02-10T08:40:47Z</time>
      </trkpt>
      <trkpt lat="59.211962" lon="18.147195">
        <ele>39</ele>
        <time>2020-02-10T08:40:48Z</time>
      </trkpt>
      <trkpt lat="59.211933" lon="18.147193">
        <ele>39</ele>
        <time>2020-02-10T08:40:49Z</time>
      </trkpt>
      <trkpt lat="59.211902" lon="18.147189">
        <ele>39</ele>
        <time>2020-02-10T08:40:50Z</time>
      </trkpt>
      <trkpt lat="59.211873" lon="18.147187">
        <ele>40</ele>
        <time>2020-02-10T08:40:51Z</time>
      </trkpt>
      <trkpt lat="59.211844" lon="18.147185">
        <ele>40</ele>
        <time>2020-02-10T08:40:52Z</time>
      </trkpt>
      <trkpt lat="59.211816" lon="18.147179">
        <ele>40</ele>
        <time>2020-02-10T08:40:53Z</time>
      </trkpt>
      <trkpt lat="59.211788" lon="18.14717">
        <ele>40</ele>
        <time>2020-02-10T08:40:54Z</time>
      </trkpt>
      <trkpt lat="59.211761" lon="18.14716">
        <ele>40</ele>
        <time>2020-02-10T08:40:55Z</time>
      </trkpt>
      <trkpt lat="59.211733" lon="18.14715">
        <ele>41</ele>
        <time>2020-02-10T08:40:56Z</time>
      </trkpt>
      <trkpt lat="59.211705" lon="18.147139">
        <ele>41</ele>
        <time>2020-02-10T08:40:57Z</time>
      </trkpt>
      <trkpt lat="59.211676" lon="18.147131">
        <ele>41</ele>
        <time>2020-02-10T08:40:58Z</time>
      </trkpt>
      <trkpt lat="59.211647" lon="18.147121">
        <ele>41</ele>
        <time>2020-02-10T08:40:59Z</time>
      </trkpt>
      <trkpt lat="59.211618" lon="18.147112">
        <ele>41</ele>
        <time>2020-02-10T08:41:00Z</time>
      </trkpt>
      <trkpt lat="59.211589" lon="18.1471">
        <ele>41</ele>
        <time>2020-02-10T08:41:01Z</time>
      </trkpt>
      <trkpt lat="59.21156" lon="18.147084">
        <ele>42</ele>
        <time>2020-02-10T08:41:02Z</time>
      </trkpt>
      <trkpt lat="59.211532" lon="18.147071">
        <ele>42</ele>
        <time>2020-02-10T08:41:03Z</time>
      </trkpt>
      <trkpt lat="59.211504" lon="18.14706">
        <ele>42</ele>
        <time>2020-02-10T08:41:04Z</time>
      </trkpt>
      <trkpt lat="59.211478" lon="18.147051">
        <ele>42</ele>
        <time>2020-02-10T08:41:05Z</time>
      </trkpt>
      <trkpt lat="59.211447" lon="18.147038">
        <ele>43</ele>
        <time>2020-02-10T08:41:06Z</time>
      </trkpt>
      <trkpt lat="59.211417" lon="18.147022">
        <ele>43</ele>
        <time>2020-02-10T08:41:07Z</time>
      </trkpt>
      <trkpt lat="59.211387" lon="18.147005">
        <ele>43</ele>
        <time>2020-02-10T08:41:08Z</time>
      </trkpt>
      <trkpt lat="59.211358" lon="18.146988">
        <ele>43</ele>
        <time>2020-02-10T08:41:09Z</time>
      </trkpt>
      <trkpt lat="59.211329" lon="18.146971">
        <ele>43</ele>
        <time>2020-02-10T08:41:10Z</time>
      </trkpt>
      <trkpt lat="59.2113" lon="18.146953">
        <ele>44</ele>
        <time>2020-02-10T08:41:11Z</time>
      </trkpt>
      <trkpt lat="59.211271" lon="18.146935">
        <ele>44</ele>
        <time>2020-02-10T08:41:12Z</time>
      </trkpt>
      <trkpt lat="59.211243" lon="18.146917">
        <ele>44</ele>
        <time>2020-02-10T08:41:13Z</time>
      </trkpt>
      <trkpt lat="59.211216" lon="18.146899">
        <ele>45</ele>
        <time>2020-02-10T08:41:14Z</time>
      </trkpt>
      <trkpt lat="59.21119" lon="18.146885">
        <ele>45</ele>
        <time>2020-02-10T08:41:15Z</time>
      </trkpt>
      <trkpt lat="59.211165" lon="18.146869">
        <ele>45</ele>
        <time>2020-02-10T08:41:16Z</time>
      </trkpt>
      <trkpt lat="59.211141" lon="18.146849">
        <ele>45</ele>
        <time>2020-02-10T08:41:17Z</time>
      </trkpt>
      <trkpt lat="59.211113" lon="18.14683">
        <ele>46</ele>
        <time>2020-02-10T08:41:18Z</time>
      </trkpt>
      <trkpt lat="59.211088" lon="18.146808">
        <ele>46</ele>
        <time>2020-02-10T08:41:19Z</time>
      </trkpt>
      <trkpt lat="59.211061" lon="18.146784">
        <ele>46</ele>
        <time>2020-02-10T08:41:20Z</time>
      </trkpt>
      <trkpt lat="59.211032" lon="18.146761">
        <ele>46</ele>
        <time>2020-02-10T08:41:21Z</time>
      </trkpt>
      <trkpt lat="59.211003" lon="18.146736">
        <ele>46</ele>
        <time>2020-02-10T08:41:22Z</time>
      </trkpt>
      <trkpt lat="59.210976" lon="18.146711">
        <ele>46</ele>
        <time>2020-02-10T08:41:23Z</time>
      </trkpt>
      <trkpt lat="59.210948" lon="18.146684">
        <ele>46</ele>
        <time>2020-02-10T08:41:24Z</time>
      </trkpt>
      <trkpt lat="59.21092" lon="18.146657">
        <ele>46</ele>
        <time>2020-02-10T08:41:25Z</time>
      </trkpt>
      <trkpt lat="59.210891" lon="18.146631">
        <ele>46</ele>
        <time>2020-02-10T08:41:26Z</time>
      </trkpt>
      <trkpt lat="59.210865" lon="18.146605">
        <ele>46</ele>
        <time>2020-02-10T08:41:27Z</time>
      </trkpt>
      <trkpt lat="59.21084" lon="18.146579">
        <ele>46</ele>
        <time>2020-02-10T08:41:28Z</time>
      </trkpt>
      <trkpt lat="59.210814" lon="18.146551">
        <ele>46</ele>
        <time>2020-02-10T08:41:29Z</time>
      </trkpt>
      <trkpt lat="59.210786" lon="18.146524">
        <ele>46</ele>
        <time>2020-02-10T08:41:30Z</time>
      </trkpt>
      <trkpt lat="59.21076" lon="18.146498">
        <ele>46</ele>
        <time>2020-02-10T08:41:31Z</time>
      </trkpt>
      <trkpt lat="59.210734" lon="18.146472">
        <ele>46</ele>
        <time>2020-02-10T08:41:32Z</time>
      </trkpt>
      <trkpt lat="59.210706" lon="18.146445">
        <ele>46</ele>
        <time>2020-02-10T08:41:33Z</time>
      </trkpt>
      <trkpt lat="59.210678" lon="18.146415">
        <ele>47</ele>
        <time>2020-02-10T08:41:34Z</time>
      </trkpt>
      <trkpt lat="59.210651" lon="18.146387">
        <ele>47</ele>
        <time>2020-02-10T08:41:35Z</time>
      </trkpt>
      <trkpt lat="59.210625" lon="18.146359">
        <ele>47</ele>
        <time>2020-02-10T08:41:36Z</time>
      </trkpt>
      <trkpt lat="59.210597" lon="18.146329">
        <ele>47</ele>
        <time>2020-02-10T08:41:37Z</time>
      </trkpt>
      <trkpt lat="59.21057" lon="18.146298">
        <ele>0</ele>
        <time>2020-02-10T08:41:37Z</time>
      </trkpt>
      <trkpt lat="59.210543" lon="18.146268">
        <ele>47</ele>
        <time>2020-02-10T08:41:38Z</time>
      </trkpt>
      <trkpt lat="59.210515" lon="18.146239">
        <ele>47</ele>
        <time>2020-02-10T08:41:40Z</time>
      </trkpt>
      <trkpt lat="59.210487" lon="18.146209">
        <ele>47</ele>
        <time>2020-02-10T08:41:41Z</time>
      </trkpt>
      <trkpt lat="59.210462" lon="18.146179">
        <ele>47</ele>
        <time>2020-02-10T08:41:42Z</time>
      </trkpt>
      <trkpt lat="59.210435" lon="18.146147">
        <ele>47</ele>
        <time>2020-02-10T08:41:43Z</time>
      </trkpt>
      <trkpt lat="59.210409" lon="18.146116">
        <ele>47</ele>
        <time>2020-02-10T08:41:44Z</time>
      </trkpt>
      <trkpt lat="59.210382" lon="18.146086">
        <ele>48</ele>
        <time>2020-02-10T08:41:45Z</time>
      </trkpt>
      <trkpt lat="59.210355" lon="18.146056">
        <ele>48</ele>
        <time>2020-02-10T08:41:46Z</time>
      </trkpt>
      <trkpt lat="59.210329" lon="18.146027">
        <ele>48</ele>
        <time>2020-02-10T08:41:47Z</time>
      </trkpt>
      <trkpt lat="59.210303" lon="18.145998">
        <ele>48</ele>
        <time>2020-02-10T08:41:48Z</time>
      </trkpt>
      <trkpt lat="59.210276" lon="18.145972">
        <ele>48</ele>
        <time>2020-02-10T08:41:49Z</time>
      </trkpt>
      <trkpt lat="59.210248" lon="18.145948">
        <ele>48</ele>
        <time>2020-02-10T08:41:50Z</time>
      </trkpt>
      <trkpt lat="59.210219" lon="18.145925">
        <ele>48</ele>
        <time>2020-02-10T08:41:51Z</time>
      </trkpt>
      <trkpt lat="59.210191" lon="18.145904">
        <ele>49</ele>
        <time>2020-02-10T08:41:52Z</time>
      </trkpt>
      <trkpt lat="59.210164" lon="18.14588">
        <ele>49</ele>
        <time>2020-02-10T08:41:53Z</time>
      </trkpt>
      <trkpt lat="59.210137" lon="18.145853">
        <ele>49</ele>
        <time>2020-02-10T08:41:54Z</time>
      </trkpt>
      <trkpt lat="59.210112" lon="18.145822">
        <ele>49</ele>
        <time>2020-02-10T08:41:55Z</time>
      </trkpt>
      <trkpt lat="59.210088" lon="18.145785">
        <ele>50</ele>
        <time>2020-02-10T08:41:56Z</time>
      </trkpt>
      <trkpt lat="59.210065" lon="18.145745">
        <ele>50</ele>
        <time>2020-02-10T08:41:57Z</time>
      </trkpt>
      <trkpt lat="59.210042" lon="18.145705">
        <ele>50</ele>
        <time>2020-02-10T08:41:58Z</time>
      </trkpt>
      <trkpt lat="59.210019" lon="18.145662">
        <ele>50</ele>
        <time>2020-02-10T08:41:59Z</time>
      </trkpt>
      <trkpt lat="59.209998" lon="18.145613">
        <ele>50</ele>
        <time>2020-02-10T08:42:00Z</time>
      </trkpt>
      <trkpt lat="59.20998" lon="18.145562">
        <ele>50</ele>
        <time>2020-02-10T08:42:01Z</time>
      </trkpt>
      <trkpt lat="59.20996" lon="18.145509">
        <ele>50</ele>
        <time>2020-02-10T08:42:02Z</time>
      </trkpt>
      <trkpt lat="59.209941" lon="18.145456">
        <ele>51</ele>
        <time>2020-02-10T08:42:03Z</time>
      </trkpt>
      <trkpt lat="59.209921" lon="18.145404">
        <ele>51</ele>
        <time>2020-02-10T08:42:04Z</time>
      </trkpt>
      <trkpt lat="59.209902" lon="18.145348">
        <ele>51</ele>
        <time>2020-02-10T08:42:05Z</time>
      </trkpt>
      <trkpt lat="59.209883" lon="18.145291">
        <ele>51</ele>
        <time>2020-02-10T08:42:06Z</time>
      </trkpt>
      <trkpt lat="59.209862" lon="18.145236">
        <ele>51</ele>
        <time>2020-02-10T08:42:07Z</time>
      </trkpt>
      <trkpt lat="59.20984" lon="18.145185">
        <ele>52</ele>
        <time>2020-02-10T08:42:08Z</time>
      </trkpt>
      <trkpt lat="59.209815" lon="18.145136">
        <ele>52</ele>
        <time>2020-02-10T08:42:09Z</time>
      </trkpt>
      <trkpt lat="59.209788" lon="18.14509">
        <ele>0</ele>
        <time>2020-02-10T08:42:09Z</time>
      </trkpt>
      <trkpt lat="59.209759" lon="18.145046">
        <ele>52</ele>
        <time>2020-02-10T08:42:10Z</time>
      </trkpt>
      <trkpt lat="59.209728" lon="18.145006">
        <ele>52</ele>
        <time>2020-02-10T08:42:12Z</time>
      </trkpt>
      <trkpt lat="59.209697" lon="18.144968">
        <ele>52</ele>
        <time>2020-02-10T08:42:13Z</time>
      </trkpt>
      <trkpt lat="59.209663" lon="18.144937">
        <ele>52</ele>
        <time>2020-02-10T08:42:14Z</time>
      </trkpt>
      <trkpt lat="59.209629" lon="18.144913">
        <ele>52</ele>
        <time>2020-02-10T08:42:15Z</time>
      </trkpt>
      <trkpt lat="59.209594" lon="18.144881">
        <ele>52</ele>
        <time>2020-02-10T08:42:16Z</time>
      </trkpt>
      <trkpt lat="59.209562" lon="18.144834">
        <ele>53</ele>
        <time>2020-02-10T08:42:17Z</time>
      </trkpt>
      <trkpt lat="59.209535" lon="18.144782">
        <ele>53</ele>
        <time>2020-02-10T08:42:18Z</time>
      </trkpt>
      <trkpt lat="59.209513" lon="18.144721">
        <ele>53</ele>
        <time>2020-02-10T08:42:19Z</time>
      </trkpt>
      <trkpt lat="59.209502" lon="18.144652">
        <ele>53</ele>
        <time>2020-02-10T08:42:20Z</time>
      </trkpt>
      <trkpt lat="59.2095" lon="18.144579">
        <ele>53</ele>
        <time>2020-02-10T08:42:21Z</time>
      </trkpt>
      <trkpt lat="59.209497" lon="18.144506">
        <ele>53</ele>
        <time>2020-02-10T08:42:22Z</time>
      </trkpt>
      <trkpt lat="59.209489" lon="18.144435">
        <ele>53</ele>
        <time>2020-02-10T08:42:23Z</time>
      </trkpt>
      <trkpt lat="59.209475" lon="18.144362">
        <ele>53</ele>
        <time>2020-02-10T08:42:24Z</time>
      </trkpt>
      <trkpt lat="59.209459" lon="18.144291">
        <ele>53</ele>
        <time>2020-02-10T08:42:25Z</time>
      </trkpt>
      <trkpt lat="59.209441" lon="18.144221">
        <ele>53</ele>
        <time>2020-02-10T08:42:26Z</time>
      </trkpt>
      <trkpt lat="59.209419" lon="18.144152">
        <ele>53</ele>
        <time>2020-02-10T08:42:27Z</time>
      </trkpt>
      <trkpt lat="59.209395" lon="18.144086">
        <ele>54</ele>
        <time>2020-02-10T08:42:28Z</time>
      </trkpt>
      <trkpt lat="59.209372" lon="18.144021">
        <ele>54</ele>
        <time>2020-02-10T08:42:29Z</time>
      </trkpt>
      <trkpt lat="59.209346" lon="18.143957">
        <ele>54</ele>
        <time>2020-02-10T08:42:30Z</time>
      </trkpt>
      <trkpt lat="59.209321" lon="18.143893">
        <ele>54</ele>
        <time>2020-02-10T08:42:31Z</time>
      </trkpt>
      <trkpt lat="59.209296" lon="18.143828">
        <ele>54</ele>
        <time>2020-02-10T08:42:32Z</time>
      </trkpt>
      <trkpt lat="59.209271" lon="18.143763">
        <ele>54</ele>
        <time>2020-02-10T08:42:33Z</time>
      </trkpt>
      <trkpt lat="59.209245" lon="18.143697">
        <ele>54</ele>
        <time>2020-02-10T08:42:34Z</time>
      </trkpt>
      <trkpt lat="59.209219" lon="18.143633">
        <ele>54</ele>
        <time>2020-02-10T08:42:35Z</time>
      </trkpt>
      <trkpt lat="59.209191" lon="18.143568">
        <ele>54</ele>
        <time>2020-02-10T08:42:36Z</time>
      </trkpt>
      <trkpt lat="59.209166" lon="18.143504">
        <ele>55</ele>
        <time>2020-02-10T08:42:37Z</time>
      </trkpt>
      <trkpt lat="59.209139" lon="18.14344">
        <ele>55</ele>
        <time>2020-02-10T08:42:38Z</time>
      </trkpt>
      <trkpt lat="59.209114" lon="18.143374">
        <ele>55</ele>
        <time>2020-02-10T08:42:39Z</time>
      </trkpt>
      <trkpt lat="59.209089" lon="18.143309">
        <ele>55</ele>
        <time>2020-02-10T08:42:40Z</time>
      </trkpt>
      <trkpt lat="59.209062" lon="18.143243">
        <ele>55</ele>
        <time>2020-02-10T08:42:41Z</time>
      </trkpt>
      <trkpt lat="59.209035" lon="18.143178">
        <ele>55</ele>
        <time>2020-02-10T08:42:42Z</time>
      </trkpt>
      <trkpt lat="59.209006" lon="18.143114">
        <ele>55</ele>
        <time>2020-02-10T08:42:43Z</time>
      </trkpt>
      <trkpt lat="59.208978" lon="18.14305">
        <ele>55</ele>
        <time>2020-02-10T08:42:44Z</time>
      </trkpt>
      <trkpt lat="59.208953" lon="18.142986">
        <ele>55</ele>
        <time>2020-02-10T08:42:45Z</time>
      </trkpt>
      <trkpt lat="59.208927" lon="18.142919">
        <ele>55</ele>
        <time>2020-02-10T08:42:46Z</time>
      </trkpt>
      <trkpt lat="59.208899" lon="18.142852">
        <ele>0</ele>
        <time>2020-02-10T08:42:46Z</time>
      </trkpt>
      <trkpt lat="59.208871" lon="18.142785">
        <ele>55</ele>
        <time>2020-02-10T08:42:47Z</time>
      </trkpt>
      <trkpt lat="59.208844" lon="18.142714">
        <ele>56</ele>
        <time>2020-02-10T08:42:49Z</time>
      </trkpt>
      <trkpt lat="59.208817" lon="18.142642">
        <ele>56</ele>
        <time>2020-02-10T08:42:50Z</time>
      </trkpt>
      <trkpt lat="59.20879" lon="18.142569">
        <ele>56</ele>
        <time>2020-02-10T08:42:51Z</time>
      </trkpt>
      <trkpt lat="59.208761" lon="18.142496">
        <ele>56</ele>
        <time>2020-02-10T08:42:52Z</time>
      </trkpt>
      <trkpt lat="59.208732" lon="18.142424">
        <ele>56</ele>
        <time>2020-02-10T08:42:53Z</time>
      </trkpt>
      <trkpt lat="59.208702" lon="18.142351">
        <ele>56</ele>
        <time>2020-02-10T08:42:54Z</time>
      </trkpt>
      <trkpt lat="59.208672" lon="18.142279">
        <ele>56</ele>
        <time>2020-02-10T08:42:55Z</time>
      </trkpt>
      <trkpt lat="59.208641" lon="18.142207">
        <ele>56</ele>
        <time>2020-02-10T08:42:56Z</time>
      </trkpt>
      <trkpt lat="59.208609" lon="18.142136">
        <ele>56</ele>
        <time>2020-02-10T08:42:57Z</time>
      </trkpt>
      <trkpt lat="59.208574" lon="18.142062">
        <ele>56</ele>
        <time>2020-02-10T08:42:58Z</time>
      </trkpt>
      <trkpt lat="59.208537" lon="18.141986">
        <ele>56</ele>
        <time>2020-02-10T08:42:59Z</time>
      </trkpt>
      <trkpt lat="59.208499" lon="18.141909">
        <ele>56</ele>
        <time>2020-02-10T08:43:00Z</time>
      </trkpt>
      <trkpt lat="59.208461" lon="18.141828">
        <ele>56</ele>
        <time>2020-02-10T08:43:01Z</time>
      </trkpt>
      <trkpt lat="59.20842" lon="18.141743">
        <ele>55</ele>
        <time>2020-02-10T08:43:02Z</time>
      </trkpt>
      <trkpt lat="59.208375" lon="18.141661">
        <ele>55</ele>
        <time>2020-02-10T08:43:03Z</time>
      </trkpt>
      <trkpt lat="59.208322" lon="18.141579">
        <ele>55</ele>
        <time>2020-02-10T08:43:04Z</time>
      </trkpt>
      <trkpt lat="59.208273" lon="18.141498">
        <ele>0</ele>
        <time>2020-02-10T08:43:04Z</time>
      </trkpt>
      <trkpt lat="59.208223" lon="18.141423">
        <ele>55</ele>
        <time>2020-02-10T08:43:05Z</time>
      </trkpt>
      <trkpt lat="59.208172" lon="18.141348">
        <ele>54</ele>
        <time>2020-02-10T08:43:07Z</time>
      </trkpt>
      <trkpt lat="59.208118" lon="18.141273">
        <ele>54</ele>
        <time>2020-02-10T08:43:08Z</time>
      </trkpt>
      <trkpt lat="59.208062" lon="18.141198">
        <ele>54</ele>
        <time>2020-02-10T08:43:09Z</time>
      </trkpt>
      <trkpt lat="59.208007" lon="18.141124">
        <ele>54</ele>
        <time>2020-02-10T08:43:10Z</time>
      </trkpt>
      <trkpt lat="59.20795" lon="18.141054">
        <ele>54</ele>
        <time>2020-02-10T08:43:11Z</time>
      </trkpt>
      <trkpt lat="59.20789" lon="18.140989">
        <ele>54</ele>
        <time>2020-02-10T08:43:12Z</time>
      </trkpt>
      <trkpt lat="59.207826" lon="18.140926">
        <ele>54</ele>
        <time>2020-02-10T08:43:13Z</time>
      </trkpt>
      <trkpt lat="59.207759" lon="18.140869">
        <ele>54</ele>
        <time>2020-02-10T08:43:14Z</time>
      </trkpt>
      <trkpt lat="59.207695" lon="18.140809">
        <ele>53</ele>
        <time>2020-02-10T08:43:15Z</time>
      </trkpt>
      <trkpt lat="59.207625" lon="18.14075">
        <ele>54</ele>
        <time>2020-02-10T08:43:16Z</time>
      </trkpt>
      <trkpt lat="59.207559" lon="18.140697">
        <ele>54</ele>
        <time>2020-02-10T08:43:17Z</time>
      </trkpt>
      <trkpt lat="59.207491" lon="18.140647">
        <ele>54</ele>
        <time>2020-02-10T08:43:18Z</time>
      </trkpt>
      <trkpt lat="59.207422" lon="18.140601">
        <ele>0</ele>
        <time>2020-02-10T08:43:18Z</time>
      </trkpt>
      <trkpt lat="59.20735" lon="18.140563">
        <ele>54</ele>
        <time>2020-02-10T08:43:19Z</time>
      </trkpt>
      <trkpt lat="59.207281" lon="18.140525">
        <ele>54</ele>
        <time>2020-02-10T08:43:21Z</time>
      </trkpt>
      <trkpt lat="59.207211" lon="18.140488">
        <ele>54</ele>
        <time>2020-02-10T08:43:22Z</time>
      </trkpt>
      <trkpt lat="59.207144" lon="18.140461">
        <ele>54</ele>
        <time>2020-02-10T08:43:23Z</time>
      </trkpt>
      <trkpt lat="59.207077" lon="18.140439">
        <ele>53</ele>
        <time>2020-02-10T08:43:24Z</time>
      </trkpt>
      <trkpt lat="59.207011" lon="18.14042">
        <ele>52</ele>
        <time>2020-02-10T08:43:25Z</time>
      </trkpt>
      <trkpt lat="59.206942" lon="18.140399">
        <ele>0</ele>
        <time>2020-02-10T08:43:25Z</time>
      </trkpt>
      <trkpt lat="59.206871" lon="18.140382">
        <ele>52</ele>
        <time>2020-02-10T08:43:26Z</time>
      </trkpt>
      <trkpt lat="59.2068" lon="18.140367">
        <ele>51</ele>
        <time>2020-02-10T08:43:28Z</time>
      </trkpt>
      <trkpt lat="59.206731" lon="18.140359">
        <ele>51</ele>
        <time>2020-02-10T08:43:29Z</time>
      </trkpt>
      <trkpt lat="59.20666" lon="18.140354">
        <ele>50</ele>
        <time>2020-02-10T08:43:30Z</time>
      </trkpt>
      <trkpt lat="59.20659" lon="18.140353">
        <ele>49</ele>
        <time>2020-02-10T08:43:31Z</time>
      </trkpt>
      <trkpt lat="59.206522" lon="18.140362">
        <ele>49</ele>
        <time>2020-02-10T08:43:32Z</time>
      </trkpt>
      <trkpt lat="59.206454" lon="18.140385">
        <ele>48</ele>
        <time>2020-02-10T08:43:33Z</time>
      </trkpt>
      <trkpt lat="59.20639" lon="18.140425">
        <ele>0</ele>
        <time>2020-02-10T08:43:33Z</time>
      </trkpt>
      <trkpt lat="59.206336" lon="18.140491">
        <ele>48</ele>
        <time>2020-02-10T08:43:34Z</time>
      </trkpt>
      <trkpt lat="59.206287" lon="18.140574">
        <ele>48</ele>
        <time>2020-02-10T08:43:36Z</time>
      </trkpt>
      <trkpt lat="59.206241" lon="18.140666">
        <ele>47</ele>
        <time>2020-02-10T08:43:37Z</time>
      </trkpt>
      <trkpt lat="59.20619" lon="18.140752">
        <ele>47</ele>
        <time>2020-02-10T08:43:38Z</time>
      </trkpt>
      <trkpt lat="59.20613" lon="18.14082">
        <ele>47</ele>
        <time>2020-02-10T08:43:39Z</time>
      </trkpt>
      <trkpt lat="59.206067" lon="18.140867">
        <ele>46</ele>
        <time>2020-02-10T08:43:40Z</time>
      </trkpt>
      <trkpt lat="59.206003" lon="18.140904">
        <ele>46</ele>
        <time>2020-02-10T08:43:41Z</time>
      </trkpt>
      <trkpt lat="59.205939" lon="18.140943">
        <ele>46</ele>
        <time>2020-02-10T08:43:42Z</time>
      </trkpt>
      <trkpt lat="59.205875" lon="18.140983">
        <ele>46</ele>
        <time>2020-02-10T08:43:43Z</time>
      </trkpt>
      <trkpt lat="59.205814" lon="18.141026">
        <ele>46</ele>
        <time>2020-02-10T08:43:44Z</time>
      </trkpt>
      <trkpt lat="59.205753" lon="18.14107">
        <ele>45</ele>
        <time>2020-02-10T08:43:45Z</time>
      </trkpt>
      <trkpt lat="59.205695" lon="18.141115">
        <ele>45</ele>
        <time>2020-02-10T08:43:46Z</time>
      </trkpt>
      <trkpt lat="59.205639" lon="18.141162">
        <ele>45</ele>
        <time>2020-02-10T08:43:47Z</time>
      </trkpt>
      <trkpt lat="59.205583" lon="18.141212">
        <ele>45</ele>
        <time>2020-02-10T08:43:48Z</time>
      </trkpt>
      <trkpt lat="59.205528" lon="18.141256">
        <ele>0</ele>
        <time>2020-02-10T08:43:48Z</time>
      </trkpt>
      <trkpt lat="59.205473" lon="18.141302">
        <ele>45</ele>
        <time>2020-02-10T08:43:49Z</time>
      </trkpt>
      <trkpt lat="59.205421" lon="18.14135">
        <ele>44</ele>
        <time>2020-02-10T08:43:51Z</time>
      </trkpt>
      <trkpt lat="59.205366" lon="18.141396">
        <ele>44</ele>
        <time>2020-02-10T08:43:52Z</time>
      </trkpt>
      <trkpt lat="59.205308" lon="18.141442">
        <ele>44</ele>
        <time>2020-02-10T08:43:53Z</time>
      </trkpt>
      <trkpt lat="59.205247" lon="18.141489">
        <ele>44</ele>
        <time>2020-02-10T08:43:54Z</time>
      </trkpt>
      <trkpt lat="59.205182" lon="18.141536">
        <ele>44</ele>
        <time>2020-02-10T08:43:55Z</time>
      </trkpt>
      <trkpt lat="59.205116" lon="18.141588">
        <ele>43</ele>
        <time>2020-02-10T08:43:56Z</time>
      </trkpt>
      <trkpt lat="59.20505" lon="18.141637">
        <ele>0</ele>
        <time>2020-02-10T08:43:56Z</time>
      </trkpt>
      <trkpt lat="59.204983" lon="18.141687">
        <ele>43</ele>
        <time>2020-02-10T08:43:57Z</time>
      </trkpt>
      <trkpt lat="59.204918" lon="18.141739">
        <ele>43</ele>
        <time>2020-02-10T08:43:59Z</time>
      </trkpt>
      <trkpt lat="59.204855" lon="18.141789">
        <ele>43</ele>
        <time>2020-02-10T08:44:00Z</time>
      </trkpt>
      <trkpt lat="59.204792" lon="18.141834">
        <ele>42</ele>
        <time>2020-02-10T08:44:01Z</time>
      </trkpt>
      <trkpt lat="59.204731" lon="18.141872">
        <ele>42</ele>
        <time>2020-02-10T08:44:02Z</time>
      </trkpt>
      <trkpt lat="59.20467" lon="18.141902">
        <ele>42</ele>
        <time>2020-02-10T08:44:03Z</time>
      </trkpt>
      <trkpt lat="59.204608" lon="18.141932">
        <ele>0</ele>
        <time>2020-02-10T08:44:03Z</time>
      </trkpt>
      <trkpt lat="59.204546" lon="18.141962">
        <ele>42</ele>
        <time>2020-02-10T08:44:04Z</time>
      </trkpt>
      <trkpt lat="59.204484" lon="18.141991">
        <ele>42</ele>
        <time>2020-02-10T08:44:06Z</time>
      </trkpt>
      <trkpt lat="59.204422" lon="18.142016">
        <ele>41</ele>
        <time>2020-02-10T08:44:07Z</time>
      </trkpt>
      <trkpt lat="59.20436" lon="18.142037">
        <ele>41</ele>
        <time>2020-02-10T08:44:08Z</time>
      </trkpt>
      <trkpt lat="59.204299" lon="18.142057">
        <ele>40</ele>
        <time>2020-02-10T08:44:09Z</time>
      </trkpt>
      <trkpt lat="59.204238" lon="18.142077">
        <ele>40</ele>
        <time>2020-02-10T08:44:10Z</time>
      </trkpt>
      <trkpt lat="59.204178" lon="18.142097">
        <ele>39</ele>
        <time>2020-02-10T08:44:11Z</time>
      </trkpt>
      <trkpt lat="59.204117" lon="18.142117">
        <ele>0</ele>
        <time>2020-02-10T08:44:11Z</time>
      </trkpt>
      <trkpt lat="59.204057" lon="18.142136">
        <ele>39</ele>
        <time>2020-02-10T08:44:12Z</time>
      </trkpt>
      <trkpt lat="59.203997" lon="18.142156">
        <ele>39</ele>
        <time>2020-02-10T08:44:14Z</time>
      </trkpt>
      <trkpt lat="59.203939" lon="18.142175">
        <ele>39</ele>
        <time>2020-02-10T08:44:15Z</time>
      </trkpt>
      <trkpt lat="59.203883" lon="18.142195">
        <ele>39</ele>
        <time>2020-02-10T08:44:16Z</time>
      </trkpt>
      <trkpt lat="59.203827" lon="18.142219">
        <ele>39</ele>
        <time>2020-02-10T08:44:17Z</time>
      </trkpt>
      <trkpt lat="59.203771" lon="18.142237">
        <ele>39</ele>
        <time>2020-02-10T08:44:18Z</time>
      </trkpt>
      <trkpt lat="59.203715" lon="18.142251">
        <ele>39</ele>
        <time>2020-02-10T08:44:19Z</time>
      </trkpt>
      <trkpt lat="59.203659" lon="18.142264">
        <ele>39</ele>
        <time>2020-02-10T08:44:20Z</time>
      </trkpt>
      <trkpt lat="59.203603" lon="18.142273">
        <ele>0</ele>
        <time>2020-02-10T08:44:20Z</time>
      </trkpt>
      <trkpt lat="59.203549" lon="18.142279">
        <ele>39</ele>
        <time>2020-02-10T08:44:21Z</time>
      </trkpt>
      <trkpt lat="59.203495" lon="18.142283">
        <ele>39</ele>
        <time>2020-02-10T08:44:23Z</time>
      </trkpt>
      <trkpt lat="59.203442" lon="18.142285">
        <ele>39</ele>
        <time>2020-02-10T08:44:24Z</time>
      </trkpt>
      <trkpt lat="59.203391" lon="18.142284">
        <ele>39</ele>
        <time>2020-02-10T08:44:25Z</time>
      </trkpt>
      <trkpt lat="59.203342" lon="18.142278">
        <ele>39</ele>
        <time>2020-02-10T08:44:26Z</time>
      </trkpt>
      <trkpt lat="59.203291" lon="18.14227">
        <ele>39</ele>
        <time>2020-02-10T08:44:27Z</time>
      </trkpt>
      <trkpt lat="59.203239" lon="18.142262">
        <ele>39</ele>
        <time>2020-02-10T08:44:28Z</time>
      </trkpt>
      <trkpt lat="59.203188" lon="18.142252">
        <ele>39</ele>
        <time>2020-02-10T08:44:29Z</time>
      </trkpt>
      <trkpt lat="59.203136" lon="18.142244">
        <ele>39</ele>
        <time>2020-02-10T08:44:30Z</time>
      </trkpt>
      <trkpt lat="59.203084" lon="18.142235">
        <ele>0</ele>
        <time>2020-02-10T08:44:30Z</time>
      </trkpt>
      <trkpt lat="59.203031" lon="18.142227">
        <ele>39</ele>
        <time>2020-02-10T08:44:31Z</time>
      </trkpt>
      <trkpt lat="59.202979" lon="18.142219">
        <ele>40</ele>
        <time>2020-02-10T08:44:33Z</time>
      </trkpt>
      <trkpt lat="59.202928" lon="18.14221">
        <ele>40</ele>
        <time>2020-02-10T08:44:34Z</time>
      </trkpt>
      <trkpt lat="59.202878" lon="18.142204">
        <ele>40</ele>
        <time>2020-02-10T08:44:35Z</time>
      </trkpt>
      <trkpt lat="59.202828" lon="18.142199">
        <ele>40</ele>
        <time>2020-02-10T08:44:36Z</time>
      </trkpt>
      <trkpt lat="59.202779" lon="18.142195">
        <ele>40</ele>
        <time>2020-02-10T08:44:37Z</time>
      </trkpt>
      <trkpt lat="59.202728" lon="18.142196">
        <ele>40</ele>
        <time>2020-02-10T08:44:38Z</time>
      </trkpt>
      <trkpt lat="59.202675" lon="18.142204">
        <ele>40</ele>
        <time>2020-02-10T08:44:39Z</time>
      </trkpt>
      <trkpt lat="59.202621" lon="18.142215">
        <ele>40</ele>
        <time>2020-02-10T08:44:40Z</time>
      </trkpt>
      <trkpt lat="59.202565" lon="18.142228">
        <ele>0</ele>
        <time>2020-02-10T08:44:40Z</time>
      </trkpt>
      <trkpt lat="59.202509" lon="18.142239">
        <ele>40</ele>
        <time>2020-02-10T08:44:41Z</time>
      </trkpt>
      <trkpt lat="59.202449" lon="18.142247">
        <ele>40</ele>
        <time>2020-02-10T08:44:43Z</time>
      </trkpt>
      <trkpt lat="59.202389" lon="18.142252">
        <ele>40</ele>
        <time>2020-02-10T08:44:44Z</time>
      </trkpt>
      <trkpt lat="59.202328" lon="18.14225">
        <ele>40</ele>
        <time>2020-02-10T08:44:45Z</time>
      </trkpt>
      <trkpt lat="59.202267" lon="18.142237">
        <ele>39</ele>
        <time>2020-02-10T08:44:46Z</time>
      </trkpt>
      <trkpt lat="59.202208" lon="18.142215">
        <ele>39</ele>
        <time>2020-02-10T08:44:47Z</time>
      </trkpt>
      <trkpt lat="59.20215" lon="18.142187">
        <ele>39</ele>
        <time>2020-02-10T08:44:48Z</time>
      </trkpt>
      <trkpt lat="59.202091" lon="18.142159">
        <ele>0</ele>
        <time>2020-02-10T08:44:48Z</time>
      </trkpt>
      <trkpt lat="59.202033" lon="18.142132">
        <ele>39</ele>
        <time>2020-02-10T08:44:49Z</time>
      </trkpt>
      <trkpt lat="59.201975" lon="18.142104">
        <ele>38</ele>
        <time>2020-02-10T08:44:51Z</time>
      </trkpt>
      <trkpt lat="59.201917" lon="18.142077">
        <ele>38</ele>
        <time>2020-02-10T08:44:52Z</time>
      </trkpt>
      <trkpt lat="59.201859" lon="18.142051">
        <ele>38</ele>
        <time>2020-02-10T08:44:53Z</time>
      </trkpt>
      <trkpt lat="59.2018" lon="18.142025">
        <ele>38</ele>
        <time>2020-02-10T08:44:54Z</time>
      </trkpt>
      <trkpt lat="59.201741" lon="18.141996">
        <ele>37</ele>
        <time>2020-02-10T08:44:55Z</time>
      </trkpt>
      <trkpt lat="59.201683" lon="18.141966">
        <ele>37</ele>
        <time>2020-02-10T08:44:56Z</time>
      </trkpt>
      <trkpt lat="59.201625" lon="18.141939">
        <ele>37</ele>
        <time>2020-02-10T08:44:57Z</time>
      </trkpt>
      <trkpt lat="59.201566" lon="18.14191">
        <ele>37</ele>
        <time>2020-02-10T08:44:58Z</time>
      </trkpt>
      <trkpt lat="59.201509" lon="18.141878">
        <ele>37</ele>
        <time>2020-02-10T08:44:59Z</time>
      </trkpt>
      <trkpt lat="59.20145" lon="18.141843">
        <ele>37</ele>
        <time>2020-02-10T08:45:00Z</time>
      </trkpt>
      <trkpt lat="59.201391" lon="18.141802">
        <ele>0</ele>
        <time>2020-02-10T08:45:00Z</time>
      </trkpt>
      <trkpt lat="59.201331" lon="18.141756">
        <ele>36</ele>
        <time>2020-02-10T08:45:01Z</time>
      </trkpt>
      <trkpt lat="59.201272" lon="18.141707">
        <ele>36</ele>
        <time>2020-02-10T08:45:03Z</time>
      </trkpt>
      <trkpt lat="59.201215" lon="18.141658">
        <ele>36</ele>
        <time>2020-02-10T08:45:04Z</time>
      </trkpt>
      <trkpt lat="59.201159" lon="18.14161">
        <ele>36</ele>
        <time>2020-02-10T08:45:05Z</time>
      </trkpt>
      <trkpt lat="59.201105" lon="18.14156">
        <ele>36</ele>
        <time>2020-02-10T08:45:06Z</time>
      </trkpt>
      <trkpt lat="59.201052" lon="18.141514">
        <ele>36</ele>
        <time>2020-02-10T08:45:07Z</time>
      </trkpt>
      <trkpt lat="59.200999" lon="18.141473">
        <ele>35</ele>
        <time>2020-02-10T08:45:08Z</time>
      </trkpt>
      <trkpt lat="59.200946" lon="18.141432">
        <ele>35</ele>
        <time>2020-02-10T08:45:09Z</time>
      </trkpt>
      <trkpt lat="59.200893" lon="18.141389">
        <ele>35</ele>
        <time>2020-02-10T08:45:10Z</time>
      </trkpt>
      <trkpt lat="59.200841" lon="18.141349">
        <ele>35</ele>
        <time>2020-02-10T08:45:11Z</time>
      </trkpt>
      <trkpt lat="59.200787" lon="18.141316">
        <ele>35</ele>
        <time>2020-02-10T08:45:12Z</time>
      </trkpt>
      <trkpt lat="59.20073" lon="18.141304">
        <ele>35</ele>
        <time>2020-02-10T08:45:13Z</time>
      </trkpt>
      <trkpt lat="59.20067" lon="18.141316">
        <ele>34</ele>
        <time>2020-02-10T08:45:14Z</time>
      </trkpt>
      <trkpt lat="59.20061" lon="18.14135">
        <ele>34</ele>
        <time>2020-02-10T08:45:15Z</time>
      </trkpt>
      <trkpt lat="59.200551" lon="18.141405">
        <ele>33</ele>
        <time>2020-02-10T08:45:16Z</time>
      </trkpt>
      <trkpt lat="59.200491" lon="18.141474">
        <ele>33</ele>
        <time>2020-02-10T08:45:17Z</time>
      </trkpt>
      <trkpt lat="59.20043" lon="18.141544">
        <ele>32</ele>
        <time>2020-02-10T08:45:18Z</time>
      </trkpt>
      <trkpt lat="59.200365" lon="18.141613">
        <ele>32</ele>
        <time>2020-02-10T08:45:19Z</time>
      </trkpt>
      <trkpt lat="59.200298" lon="18.141683">
        <ele>31</ele>
        <time>2020-02-10T08:45:20Z</time>
      </trkpt>
      <trkpt lat="59.200229" lon="18.141755">
        <ele>31</ele>
        <time>2020-02-10T08:45:21Z</time>
      </trkpt>
      <trkpt lat="59.20016" lon="18.141829">
        <ele>30</ele>
        <time>2020-02-10T08:45:22Z</time>
      </trkpt>
      <trkpt lat="59.20009" lon="18.141907">
        <ele>29</ele>
        <time>2020-02-10T08:45:23Z</time>
      </trkpt>
      <trkpt lat="59.200021" lon="18.141991">
        <ele>29</ele>
        <time>2020-02-10T08:45:24Z</time>
      </trkpt>
      <trkpt lat="59.199952" lon="18.142075">
        <ele>29</ele>
        <time>2020-02-10T08:45:25Z</time>
      </trkpt>
      <trkpt lat="59.199883" lon="18.142164">
        <ele>29</ele>
        <time>2020-02-10T08:45:26Z</time>
      </trkpt>
      <trkpt lat="59.199821" lon="18.142266">
        <ele>0</ele>
        <time>2020-02-10T08:45:26Z</time>
      </trkpt>
      <trkpt lat="59.199767" lon="18.14238">
        <ele>28</ele>
        <time>2020-02-10T08:45:27Z</time>
      </trkpt>
      <trkpt lat="59.199716" lon="18.1425">
        <ele>28</ele>
        <time>2020-02-10T08:45:29Z</time>
      </trkpt>
      <trkpt lat="59.199667" lon="18.142626">
        <ele>28</ele>
        <time>2020-02-10T08:45:30Z</time>
      </trkpt>
      <trkpt lat="59.199614" lon="18.142749">
        <ele>28</ele>
        <time>2020-02-10T08:45:31Z</time>
      </trkpt>
      <trkpt lat="59.199552" lon="18.142855">
        <ele>28</ele>
        <time>2020-02-10T08:45:32Z</time>
      </trkpt>
      <trkpt lat="59.199484" lon="18.142935">
        <ele>0</ele>
        <time>2020-02-10T08:45:32Z</time>
      </trkpt>
      <trkpt lat="59.199413" lon="18.142985">
        <ele>28</ele>
        <time>2020-02-10T08:45:33Z</time>
      </trkpt>
      <trkpt lat="59.199341" lon="18.143007">
        <ele>28</ele>
        <time>2020-02-10T08:45:35Z</time>
      </trkpt>
      <trkpt lat="59.19927" lon="18.143011">
        <ele>28</ele>
        <time>2020-02-10T08:45:36Z</time>
      </trkpt>
      <trkpt lat="59.199201" lon="18.14301">
        <ele>28</ele>
        <time>2020-02-10T08:45:37Z</time>
      </trkpt>
      <trkpt lat="59.199133" lon="18.143008">
        <ele>28</ele>
        <time>2020-02-10T08:45:38Z</time>
      </trkpt>
      <trkpt lat="59.199067" lon="18.143003">
        <ele>28</ele>
        <time>2020-02-10T08:45:39Z</time>
      </trkpt>
      <trkpt lat="59.199001" lon="18.142998">
        <ele>28</ele>
        <time>2020-02-10T08:45:40Z</time>
      </trkpt>
      <trkpt lat="59.198935" lon="18.142998">
        <ele>28</ele>
        <time>2020-02-10T08:45:41Z</time>
      </trkpt>
      <trkpt lat="59.19887" lon="18.142996">
        <ele>28</ele>
        <time>2020-02-10T08:45:42Z</time>
      </trkpt>
      <trkpt lat="59.198805" lon="18.142992">
        <ele>27</ele>
        <time>2020-02-10T08:45:43Z</time>
      </trkpt>
      <trkpt lat="59.198739" lon="18.142985">
        <ele>27</ele>
        <time>2020-02-10T08:45:44Z</time>
      </trkpt>
      <trkpt lat="59.198674" lon="18.142976">
        <ele>27</ele>
        <time>2020-02-10T08:45:45Z</time>
      </trkpt>
      <trkpt lat="59.198609" lon="18.142961">
        <ele>27</ele>
        <time>2020-02-10T08:45:46Z</time>
      </trkpt>
      <trkpt lat="59.198544" lon="18.14294">
        <ele>27</ele>
        <time>2020-02-10T08:45:47Z</time>
      </trkpt>
      <trkpt lat="59.198481" lon="18.142916">
        <ele>27</ele>
        <time>2020-02-10T08:45:48Z</time>
      </trkpt>
      <trkpt lat="59.198419" lon="18.142886">
        <ele>27</ele>
        <time>2020-02-10T08:45:49Z</time>
      </trkpt>
      <trkpt lat="59.198358" lon="18.142853">
        <ele>27</ele>
        <time>2020-02-10T08:45:50Z</time>
      </trkpt>
      <trkpt lat="59.198297" lon="18.142817">
        <ele>27</ele>
        <time>2020-02-10T08:45:51Z</time>
      </trkpt>
      <trkpt lat="59.198238" lon="18.142777">
        <ele>27</ele>
        <time>2020-02-10T08:45:52Z</time>
      </trkpt>
      <trkpt lat="59.19818" lon="18.142733">
        <ele>27</ele>
        <time>2020-02-10T08:45:53Z</time>
      </trkpt>
      <trkpt lat="59.198124" lon="18.14269">
        <ele>27</ele>
        <time>2020-02-10T08:45:54Z</time>
      </trkpt>
      <trkpt lat="59.198066" lon="18.142645">
        <ele>27</ele>
        <time>2020-02-10T08:45:55Z</time>
      </trkpt>
      <trkpt lat="59.198009" lon="18.1426">
        <ele>0</ele>
        <time>2020-02-10T08:45:55Z</time>
      </trkpt>
      <trkpt lat="59.197952" lon="18.142555">
        <ele>27</ele>
        <time>2020-02-10T08:45:56Z</time>
      </trkpt>
      <trkpt lat="59.197896" lon="18.142509">
        <ele>27</ele>
        <time>2020-02-10T08:45:58Z</time>
      </trkpt>
      <trkpt lat="59.197841" lon="18.142467">
        <ele>27</ele>
        <time>2020-02-10T08:45:59Z</time>
      </trkpt>
      <trkpt lat="59.197786" lon="18.142427">
        <ele>27</ele>
        <time>2020-02-10T08:46:00Z</time>
      </trkpt>
      <trkpt lat="59.197733" lon="18.142389">
        <ele>27</ele>
        <time>2020-02-10T08:46:01Z</time>
      </trkpt>
      <trkpt lat="59.197682" lon="18.142352">
        <ele>27</ele>
        <time>2020-02-10T08:46:02Z</time>
      </trkpt>
      <trkpt lat="59.197633" lon="18.142314">
        <ele>27</ele>
        <time>2020-02-10T08:46:03Z</time>
      </trkpt>
      <trkpt lat="59.197584" lon="18.142276">
        <ele>27</ele>
        <time>2020-02-10T08:46:04Z</time>
      </trkpt>
      <trkpt lat="59.197538" lon="18.142236">
        <ele>27</ele>
        <time>2020-02-10T08:46:05Z</time>
      </trkpt>
      <trkpt lat="59.197494" lon="18.142198">
        <ele>27</ele>
        <time>2020-02-10T08:46:06Z</time>
      </trkpt>
      <trkpt lat="59.197449" lon="18.142164">
        <ele>27</ele>
        <time>2020-02-10T08:46:07Z</time>
      </trkpt>
      <trkpt lat="59.197407" lon="18.142128">
        <ele>27</ele>
        <time>2020-02-10T08:46:08Z</time>
      </trkpt>
      <trkpt lat="59.197366" lon="18.142088">
        <ele>27</ele>
        <time>2020-02-10T08:46:09Z</time>
      </trkpt>
      <trkpt lat="59.197325" lon="18.142048">
        <ele>28</ele>
        <time>2020-02-10T08:46:10Z</time>
      </trkpt>
      <trkpt lat="59.197287" lon="18.142008">
        <ele>28</ele>
        <time>2020-02-10T08:46:11Z</time>
      </trkpt>
      <trkpt lat="59.197249" lon="18.14196">
        <ele>28</ele>
        <time>2020-02-10T08:46:12Z</time>
      </trkpt>
      <trkpt lat="59.197213" lon="18.14191">
        <ele>28</ele>
        <time>2020-02-10T08:46:13Z</time>
      </trkpt>
      <trkpt lat="59.19718" lon="18.141862">
        <ele>28</ele>
        <time>2020-02-10T08:46:14Z</time>
      </trkpt>
      <trkpt lat="59.197149" lon="18.141814">
        <ele>28</ele>
        <time>2020-02-10T08:46:15Z</time>
      </trkpt>
      <trkpt lat="59.197118" lon="18.14177">
        <ele>28</ele>
        <time>2020-02-10T08:46:16Z</time>
      </trkpt>
      <trkpt lat="59.197089" lon="18.141722">
        <ele>28</ele>
        <time>2020-02-10T08:46:17Z</time>
      </trkpt>
      <trkpt lat="59.197058" lon="18.141678">
        <ele>29</ele>
        <time>2020-02-10T08:46:18Z</time>
      </trkpt>
      <trkpt lat="59.19703" lon="18.141632">
        <ele>29</ele>
        <time>2020-02-10T08:46:19Z</time>
      </trkpt>
      <trkpt lat="59.197003" lon="18.141584">
        <ele>29</ele>
        <time>2020-02-10T08:46:20Z</time>
      </trkpt>
      <trkpt lat="59.196975" lon="18.141532">
        <ele>29</ele>
        <time>2020-02-10T08:46:21Z</time>
      </trkpt>
      <trkpt lat="59.196947" lon="18.141482">
        <ele>29</ele>
        <time>2020-02-10T08:46:22Z</time>
      </trkpt>
      <trkpt lat="59.196919" lon="18.141434">
        <ele>29</ele>
        <time>2020-02-10T08:46:23Z</time>
      </trkpt>
      <trkpt lat="59.19689" lon="18.141388">
        <ele>30</ele>
        <time>2020-02-10T08:46:24Z</time>
      </trkpt>
      <trkpt lat="59.196861" lon="18.141344">
        <ele>30</ele>
        <time>2020-02-10T08:46:25Z</time>
      </trkpt>
      <trkpt lat="59.196832" lon="18.1413">
        <ele>30</ele>
        <time>2020-02-10T08:46:26Z</time>
      </trkpt>
      <trkpt lat="59.196801" lon="18.141256">
        <ele>30</ele>
        <time>2020-02-10T08:46:27Z</time>
      </trkpt>
      <trkpt lat="59.196768" lon="18.141216">
        <ele>30</ele>
        <time>2020-02-10T08:46:28Z</time>
      </trkpt>
      <trkpt lat="59.196737" lon="18.14118">
        <ele>30</ele>
        <time>2020-02-10T08:46:29Z</time>
      </trkpt>
      <trkpt lat="59.196707" lon="18.141144">
        <ele>30</ele>
        <time>2020-02-10T08:46:30Z</time>
      </trkpt>
      <trkpt lat="59.196677" lon="18.141106">
        <ele>31</ele>
        <time>2020-02-10T08:46:31Z</time>
      </trkpt>
      <trkpt lat="59.196647" lon="18.14107">
        <ele>31</ele>
        <time>2020-02-10T08:46:32Z</time>
      </trkpt>
      <trkpt lat="59.196615" lon="18.141036">
        <ele>31</ele>
        <time>2020-02-10T08:46:33Z</time>
      </trkpt>
      <trkpt lat="59.196582" lon="18.141006">
        <ele>31</ele>
        <time>2020-02-10T08:46:34Z</time>
      </trkpt>
      <trkpt lat="59.196549" lon="18.140976">
        <ele>31</ele>
        <time>2020-02-10T08:46:35Z</time>
      </trkpt>
      <trkpt lat="59.196515" lon="18.14095">
        <ele>31</ele>
        <time>2020-02-10T08:46:36Z</time>
      </trkpt>
      <trkpt lat="59.19648" lon="18.140924">
        <ele>31</ele>
        <time>2020-02-10T08:46:37Z</time>
      </trkpt>
      <trkpt lat="59.196442" lon="18.140902">
        <ele>31</ele>
        <time>2020-02-10T08:46:38Z</time>
      </trkpt>
      <trkpt lat="59.196405" lon="18.140886">
        <ele>32</ele>
        <time>2020-02-10T08:46:39Z</time>
      </trkpt>
      <trkpt lat="59.196368" lon="18.140868">
        <ele>32</ele>
        <time>2020-02-10T08:46:40Z</time>
      </trkpt>
      <trkpt lat="59.196331" lon="18.140854">
        <ele>32</ele>
        <time>2020-02-10T08:46:41Z</time>
      </trkpt>
      <trkpt lat="59.196295" lon="18.140838">
        <ele>32</ele>
        <time>2020-02-10T08:46:42Z</time>
      </trkpt>
      <trkpt lat="59.196259" lon="18.140824">
        <ele>32</ele>
        <time>2020-02-10T08:46:43Z</time>
      </trkpt>
      <trkpt lat="59.196222" lon="18.140812">
        <ele>32</ele>
        <time>2020-02-10T08:46:44Z</time>
      </trkpt>
      <trkpt lat="59.196187" lon="18.140802">
        <ele>32</ele>
        <time>2020-02-10T08:46:45Z</time>
      </trkpt>
      <trkpt lat="59.196153" lon="18.14079">
        <ele>32</ele>
        <time>2020-02-10T08:46:46Z</time>
      </trkpt>
      <trkpt lat="59.196119" lon="18.140782">
        <ele>32</ele>
        <time>2020-02-10T08:46:47Z</time>
      </trkpt>
      <trkpt lat="59.196088" lon="18.140774">
        <ele>32</ele>
        <time>2020-02-10T08:46:48Z</time>
      </trkpt>
      <trkpt lat="59.196058" lon="18.140766">
        <ele>32</ele>
        <time>2020-02-10T08:46:49Z</time>
      </trkpt>
      <trkpt lat="59.19603" lon="18.140758">
        <ele>32</ele>
        <time>2020-02-10T08:46:50Z</time>
      </trkpt>
      <trkpt lat="59.196002" lon="18.140752">
        <ele>33</ele>
        <time>2020-02-10T08:46:51Z</time>
      </trkpt>
      <trkpt lat="59.195973" lon="18.14075">
        <ele>33</ele>
        <time>2020-02-10T08:46:52Z</time>
      </trkpt>
      <trkpt lat="59.195943" lon="18.140746">
        <ele>33</ele>
        <time>2020-02-10T08:46:53Z</time>
      </trkpt>
      <trkpt lat="59.195913" lon="18.140742">
        <ele>33</ele>
        <time>2020-02-10T08:46:54Z</time>
      </trkpt>
      <trkpt lat="59.195882" lon="18.140738">
        <ele>33</ele>
        <time>2020-02-10T08:46:55Z</time>
      </trkpt>
      <trkpt lat="59.195851" lon="18.140732">
        <ele>33</ele>
        <time>2020-02-10T08:46:56Z</time>
      </trkpt>
      <trkpt lat="59.19582" lon="18.140726">
        <ele>33</ele>
        <time>2020-02-10T08:46:57Z</time>
      </trkpt>
      <trkpt lat="59.195788" lon="18.140722">
        <ele>33</ele>
        <time>2020-02-10T08:46:58Z</time>
      </trkpt>
      <trkpt lat="59.195757" lon="18.140718">
        <ele>33</ele>
        <time>2020-02-10T08:46:59Z</time>
      </trkpt>
      <trkpt lat="59.195728" lon="18.140714">
        <ele>34</ele>
        <time>2020-02-10T08:47:00Z</time>
      </trkpt>
      <trkpt lat="59.195699" lon="18.140708">
        <ele>34</ele>
        <time>2020-02-10T08:47:01Z</time>
      </trkpt>
      <trkpt lat="59.19567" lon="18.140703">
        <ele>34</ele>
        <time>2020-02-10T08:47:02Z</time>
      </trkpt>
      <trkpt lat="59.195641" lon="18.140696">
        <ele>34</ele>
        <time>2020-02-10T08:47:03Z</time>
      </trkpt>
      <trkpt lat="59.195612" lon="18.140692">
        <ele>34</ele>
        <time>2020-02-10T08:47:04Z</time>
      </trkpt>
      <trkpt lat="59.195582" lon="18.140688">
        <ele>34</ele>
        <time>2020-02-10T08:47:05Z</time>
      </trkpt>
      <trkpt lat="59.195552" lon="18.140683">
        <ele>34</ele>
        <time>2020-02-10T08:47:06Z</time>
      </trkpt>
      <trkpt lat="59.195522" lon="18.140678">
        <ele>34</ele>
        <time>2020-02-10T08:47:07Z</time>
      </trkpt>
      <trkpt lat="59.195492" lon="18.140674">
        <ele>35</ele>
        <time>2020-02-10T08:47:08Z</time>
      </trkpt>
      <trkpt lat="59.195461" lon="18.140671">
        <ele>35</ele>
        <time>2020-02-10T08:47:09Z</time>
      </trkpt>
      <trkpt lat="59.195431" lon="18.140667">
        <ele>35</ele>
        <time>2020-02-10T08:47:10Z</time>
      </trkpt>
      <trkpt lat="59.195402" lon="18.140666">
        <ele>35</ele>
        <time>2020-02-10T08:47:11Z</time>
      </trkpt>
      <trkpt lat="59.195372" lon="18.140664">
        <ele>35</ele>
        <time>2020-02-10T08:47:12Z</time>
      </trkpt>
      <trkpt lat="59.195342" lon="18.140663">
        <ele>35</ele>
        <time>2020-02-10T08:47:13Z</time>
      </trkpt>
      <trkpt lat="59.195312" lon="18.140664">
        <ele>36</ele>
        <time>2020-02-10T08:47:14Z</time>
      </trkpt>
      <trkpt lat="59.195283" lon="18.140669">
        <ele>36</ele>
        <time>2020-02-10T08:47:15Z</time>
      </trkpt>
      <trkpt lat="59.195254" lon="18.140675">
        <ele>36</ele>
        <time>2020-02-10T08:47:16Z</time>
      </trkpt>
      <trkpt lat="59.195224" lon="18.140682">
        <ele>36</ele>
        <time>2020-02-10T08:47:17Z</time>
      </trkpt>
      <trkpt lat="59.195193" lon="18.14069">
        <ele>36</ele>
        <time>2020-02-10T08:47:18Z</time>
      </trkpt>
      <trkpt lat="59.195162" lon="18.140699">
        <ele>36</ele>
        <time>2020-02-10T08:47:19Z</time>
      </trkpt>
      <trkpt lat="59.195131" lon="18.14071">
        <ele>37</ele>
        <time>2020-02-10T08:47:20Z</time>
      </trkpt>
      <trkpt lat="59.195099" lon="18.140722">
        <ele>37</ele>
        <time>2020-02-10T08:47:21Z</time>
      </trkpt>
      <trkpt lat="59.195069" lon="18.140737">
        <ele>37</ele>
        <time>2020-02-10T08:47:22Z</time>
      </trkpt>
      <trkpt lat="59.195039" lon="18.140754">
        <ele>37</ele>
        <time>2020-02-10T08:47:23Z</time>
      </trkpt>
      <trkpt lat="59.195009" lon="18.140773">
        <ele>37</ele>
        <time>2020-02-10T08:47:24Z</time>
      </trkpt>
      <trkpt lat="59.19498" lon="18.140793">
        <ele>37</ele>
        <time>2020-02-10T08:47:25Z</time>
      </trkpt>
      <trkpt lat="59.19495" lon="18.140813">
        <ele>38</ele>
        <time>2020-02-10T08:47:26Z</time>
      </trkpt>
      <trkpt lat="59.194922" lon="18.140837">
        <ele>38</ele>
        <time>2020-02-10T08:47:27Z</time>
      </trkpt>
      <trkpt lat="59.194893" lon="18.140861">
        <ele>38</ele>
        <time>2020-02-10T08:47:28Z</time>
      </trkpt>
      <trkpt lat="59.194864" lon="18.140885">
        <ele>38</ele>
        <time>2020-02-10T08:47:29Z</time>
      </trkpt>
      <trkpt lat="59.194835" lon="18.140909">
        <ele>38</ele>
        <time>2020-02-10T08:47:30Z</time>
      </trkpt>
      <trkpt lat="59.194807" lon="18.140933">
        <ele>38</ele>
        <time>2020-02-10T08:47:31Z</time>
      </trkpt>
      <trkpt lat="59.194778" lon="18.140957">
        <ele>39</ele>
        <time>2020-02-10T08:47:32Z</time>
      </trkpt>
      <trkpt lat="59.19475" lon="18.140985">
        <ele>39</ele>
        <time>2020-02-10T08:47:33Z</time>
      </trkpt>
      <trkpt lat="59.194721" lon="18.141012">
        <ele>39</ele>
        <time>2020-02-10T08:47:34Z</time>
      </trkpt>
      <trkpt lat="59.194693" lon="18.141041">
        <ele>39</ele>
        <time>2020-02-10T08:47:35Z</time>
      </trkpt>
      <trkpt lat="59.194664" lon="18.141071">
        <ele>39</ele>
        <time>2020-02-10T08:47:36Z</time>
      </trkpt>
      <trkpt lat="59.194636" lon="18.141101">
        <ele>39</ele>
        <time>2020-02-10T08:47:37Z</time>
      </trkpt>
      <trkpt lat="59.194607" lon="18.141126">
        <ele>39</ele>
        <time>2020-02-10T08:47:38Z</time>
      </trkpt>
      <trkpt lat="59.194578" lon="18.141151">
        <ele>39</ele>
        <time>2020-02-10T08:47:39Z</time>
      </trkpt>
      <trkpt lat="59.194549" lon="18.141176">
        <ele>40</ele>
        <time>2020-02-10T08:47:40Z</time>
      </trkpt>
      <trkpt lat="59.194519" lon="18.141205">
        <ele>40</ele>
        <time>2020-02-10T08:47:41Z</time>
      </trkpt>
      <trkpt lat="59.194488" lon="18.141242">
        <ele>40</ele>
        <time>2020-02-10T08:47:42Z</time>
      </trkpt>
      <trkpt lat="59.194456" lon="18.141278">
        <ele>40</ele>
        <time>2020-02-10T08:47:43Z</time>
      </trkpt>
      <trkpt lat="59.194427" lon="18.141312">
        <ele>40</ele>
        <time>2020-02-10T08:47:44Z</time>
      </trkpt>
      <trkpt lat="59.194402" lon="18.141343">
        <ele>41</ele>
        <time>2020-02-10T08:47:45Z</time>
      </trkpt>
      <trkpt lat="59.194371" lon="18.141369">
        <ele>41</ele>
        <time>2020-02-10T08:47:46Z</time>
      </trkpt>
      <trkpt lat="59.194338" lon="18.141399">
        <ele>41</ele>
        <time>2020-02-10T08:47:47Z</time>
      </trkpt>
      <trkpt lat="59.194303" lon="18.14143">
        <ele>41</ele>
        <time>2020-02-10T08:47:48Z</time>
      </trkpt>
      <trkpt lat="59.194268" lon="18.141461">
        <ele>41</ele>
        <time>2020-02-10T08:47:49Z</time>
      </trkpt>
      <trkpt lat="59.194234" lon="18.141491">
        <ele>41</ele>
        <time>2020-02-10T08:47:50Z</time>
      </trkpt>
      <trkpt lat="59.194199" lon="18.141524">
        <ele>41</ele>
        <time>2020-02-10T08:47:51Z</time>
      </trkpt>
      <trkpt lat="59.194165" lon="18.141558">
        <ele>41</ele>
        <time>2020-02-10T08:47:52Z</time>
      </trkpt>
      <trkpt lat="59.194131" lon="18.141592">
        <ele>41</ele>
        <time>2020-02-10T08:47:53Z</time>
      </trkpt>
      <trkpt lat="59.194096" lon="18.141625">
        <ele>41</ele>
        <time>2020-02-10T08:47:54Z</time>
      </trkpt>
      <trkpt lat="59.194061" lon="18.141658">
        <ele>41</ele>
        <time>2020-02-10T08:47:55Z</time>
      </trkpt>
      <trkpt lat="59.194026" lon="18.141689">
        <ele>41</ele>
        <time>2020-02-10T08:47:56Z</time>
      </trkpt>
      <trkpt lat="59.193993" lon="18.141718">
        <ele>41</ele>
        <time>2020-02-10T08:47:57Z</time>
      </trkpt>
      <trkpt lat="59.19396" lon="18.141748">
        <ele>41</ele>
        <time>2020-02-10T08:47:58Z</time>
      </trkpt>
      <trkpt lat="59.193926" lon="18.141779">
        <ele>41</ele>
        <time>2020-02-10T08:47:59Z</time>
      </trkpt>
      <trkpt lat="59.193891" lon="18.141811">
        <ele>41</ele>
        <time>2020-02-10T08:48:00Z</time>
      </trkpt>
      <trkpt lat="59.193858" lon="18.141845">
        <ele>41</ele>
        <time>2020-02-10T08:48:01Z</time>
      </trkpt>
      <trkpt lat="59.193825" lon="18.141881">
        <ele>41</ele>
        <time>2020-02-10T08:48:02Z</time>
      </trkpt>
      <trkpt lat="59.193793" lon="18.141914">
        <ele>41</ele>
        <time>2020-02-10T08:48:03Z</time>
      </trkpt>
      <trkpt lat="59.19376" lon="18.141943">
        <ele>41</ele>
        <time>2020-02-10T08:48:04Z</time>
      </trkpt>
      <trkpt lat="59.193726" lon="18.141971">
        <ele>41</ele>
        <time>2020-02-10T08:48:05Z</time>
      </trkpt>
      <trkpt lat="59.193693" lon="18.142002">
        <ele>41</ele>
        <time>2020-02-10T08:48:06Z</time>
      </trkpt>
      <trkpt lat="59.193657" lon="18.142035">
        <ele>41</ele>
        <time>2020-02-10T08:48:07Z</time>
      </trkpt>
      <trkpt lat="59.193618" lon="18.142068">
        <ele>41</ele>
        <time>2020-02-10T08:48:08Z</time>
      </trkpt>
      <trkpt lat="59.19358" lon="18.142104">
        <ele>41</ele>
        <time>2020-02-10T08:48:09Z</time>
      </trkpt>
      <trkpt lat="59.193542" lon="18.142142">
        <ele>0</ele>
        <time>2020-02-10T08:48:09Z</time>
      </trkpt>
      <trkpt lat="59.193504" lon="18.142175">
        <ele>41</ele>
        <time>2020-02-10T08:48:10Z</time>
      </trkpt>
      <trkpt lat="59.193464" lon="18.142205">
        <ele>41</ele>
        <time>2020-02-10T08:48:12Z</time>
      </trkpt>
      <trkpt lat="59.193424" lon="18.142238">
        <ele>41</ele>
        <time>2020-02-10T08:48:13Z</time>
      </trkpt>
      <trkpt lat="59.193384" lon="18.142273">
        <ele>41</ele>
        <time>2020-02-10T08:48:14Z</time>
      </trkpt>
      <trkpt lat="59.193341" lon="18.142303">
        <ele>42</ele>
        <time>2020-02-10T08:48:15Z</time>
      </trkpt>
      <trkpt lat="59.193298" lon="18.142333">
        <ele>42</ele>
        <time>2020-02-10T08:48:16Z</time>
      </trkpt>
      <trkpt lat="59.193255" lon="18.142365">
        <ele>42</ele>
        <time>2020-02-10T08:48:17Z</time>
      </trkpt>
      <trkpt lat="59.193211" lon="18.142397">
        <ele>42</ele>
        <time>2020-02-10T08:48:18Z</time>
      </trkpt>
      <trkpt lat="59.193168" lon="18.14243">
        <ele>42</ele>
        <time>2020-02-10T08:48:19Z</time>
      </trkpt>
      <trkpt lat="59.193125" lon="18.142468">
        <ele>41</ele>
        <time>2020-02-10T08:48:20Z</time>
      </trkpt>
      <trkpt lat="59.193081" lon="18.142508">
        <ele>41</ele>
        <time>2020-02-10T08:48:21Z</time>
      </trkpt>
      <trkpt lat="59.193038" lon="18.14255">
        <ele>41</ele>
        <time>2020-02-10T08:48:22Z</time>
      </trkpt>
      <trkpt lat="59.192995" lon="18.142594">
        <ele>41</ele>
        <time>2020-02-10T08:48:23Z</time>
      </trkpt>
      <trkpt lat="59.192953" lon="18.14264">
        <ele>0</ele>
        <time>2020-02-10T08:48:23Z</time>
      </trkpt>
      <trkpt lat="59.192909" lon="18.142686">
        <ele>41</ele>
        <time>2020-02-10T08:48:24Z</time>
      </trkpt>
      <trkpt lat="59.192864" lon="18.142729">
        <ele>41</ele>
        <time>2020-02-10T08:48:26Z</time>
      </trkpt>
      <trkpt lat="59.192817" lon="18.142773">
        <ele>41</ele>
        <time>2020-02-10T08:48:27Z</time>
      </trkpt>
      <trkpt lat="59.19277" lon="18.142822">
        <ele>41</ele>
        <time>2020-02-10T08:48:28Z</time>
      </trkpt>
      <trkpt lat="59.192722" lon="18.142872">
        <ele>41</ele>
        <time>2020-02-10T08:48:29Z</time>
      </trkpt>
      <trkpt lat="59.192673" lon="18.14292">
        <ele>41</ele>
        <time>2020-02-10T08:48:30Z</time>
      </trkpt>
      <trkpt lat="59.192622" lon="18.142971">
        <ele>41</ele>
        <time>2020-02-10T08:48:31Z</time>
      </trkpt>
      <trkpt lat="59.192571" lon="18.143023">
        <ele>41</ele>
        <time>2020-02-10T08:48:32Z</time>
      </trkpt>
      <trkpt lat="59.192518" lon="18.143077">
        <ele>41</ele>
        <time>2020-02-10T08:48:33Z</time>
      </trkpt>
      <trkpt lat="59.192464" lon="18.14313">
        <ele>41</ele>
        <time>2020-02-10T08:48:34Z</time>
      </trkpt>
      <trkpt lat="59.192409" lon="18.14319">
        <ele>41</ele>
        <time>2020-02-10T08:48:35Z</time>
      </trkpt>
      <trkpt lat="59.192352" lon="18.14325">
        <ele>41</ele>
        <time>2020-02-10T08:48:36Z</time>
      </trkpt>
      <trkpt lat="59.192293" lon="18.143312">
        <ele>41</ele>
        <time>2020-02-10T08:48:37Z</time>
      </trkpt>
      <trkpt lat="59.192231" lon="18.143376">
        <ele>41</ele>
        <time>2020-02-10T08:48:38Z</time>
      </trkpt>
      <trkpt lat="59.192166" lon="18.143446">
        <ele>40</ele>
        <time>2020-02-10T08:48:39Z</time>
      </trkpt>
      <trkpt lat="59.1921" lon="18.143518">
        <ele>40</ele>
        <time>2020-02-10T08:48:40Z</time>
      </trkpt>
      <trkpt lat="59.192034" lon="18.143588">
        <ele>40</ele>
        <time>2020-02-10T08:48:41Z</time>
      </trkpt>
      <trkpt lat="59.191969" lon="18.143657">
        <ele>40</ele>
        <time>2020-02-10T08:48:42Z</time>
      </trkpt>
      <trkpt lat="59.191902" lon="18.143724">
        <ele>39</ele>
        <time>2020-02-10T08:48:43Z</time>
      </trkpt>
      <trkpt lat="59.19183" lon="18.143785">
        <ele>39</ele>
        <time>2020-02-10T08:48:44Z</time>
      </trkpt>
      <trkpt lat="59.191757" lon="18.143845">
        <ele>39</ele>
        <time>2020-02-10T08:48:45Z</time>
      </trkpt>
      <trkpt lat="59.191681" lon="18.143902">
        <ele>38</ele>
        <time>2020-02-10T08:48:46Z</time>
      </trkpt>
      <trkpt lat="59.191604" lon="18.143954">
        <ele>38</ele>
        <time>2020-02-10T08:48:47Z</time>
      </trkpt>
      <trkpt lat="59.191525" lon="18.144004">
        <ele>37</ele>
        <time>2020-02-10T08:48:48Z</time>
      </trkpt>
      <trkpt lat="59.191444" lon="18.144047">
        <ele>37</ele>
        <time>2020-02-10T08:48:49Z</time>
      </trkpt>
      <trkpt lat="59.191361" lon="18.144082">
        <ele>37</ele>
        <time>2020-02-10T08:48:50Z</time>
      </trkpt>
      <trkpt lat="59.191277" lon="18.144114">
        <ele>37</ele>
        <time>2020-02-10T08:48:51Z</time>
      </trkpt>
      <trkpt lat="59.191192" lon="18.144147">
        <ele>36</ele>
        <time>2020-02-10T08:48:52Z</time>
      </trkpt>
      <trkpt lat="59.191107" lon="18.144175">
        <ele>36</ele>
        <time>2020-02-10T08:48:53Z</time>
      </trkpt>
      <trkpt lat="59.191021" lon="18.144196">
        <ele>36</ele>
        <time>2020-02-10T08:48:54Z</time>
      </trkpt>
      <trkpt lat="59.190936" lon="18.144212">
        <ele>35</ele>
        <time>2020-02-10T08:48:55Z</time>
      </trkpt>
      <trkpt lat="59.190852" lon="18.144227">
        <ele>35</ele>
        <time>2020-02-10T08:48:56Z</time>
      </trkpt>
      <trkpt lat="59.190764" lon="18.144243">
        <ele>35</ele>
        <time>2020-02-10T08:48:57Z</time>
      </trkpt>
      <trkpt lat="59.190676" lon="18.144262">
        <ele>34</ele>
        <time>2020-02-10T08:48:58Z</time>
      </trkpt>
      <trkpt lat="59.19059" lon="18.144283">
        <ele>34</ele>
        <time>2020-02-10T08:48:59Z</time>
      </trkpt>
      <trkpt lat="59.190506" lon="18.144302">
        <ele>34</ele>
        <time>2020-02-10T08:49:00Z</time>
      </trkpt>
      <trkpt lat="59.190428" lon="18.144321">
        <ele>34</ele>
        <time>2020-02-10T08:49:01Z</time>
      </trkpt>
      <trkpt lat="59.190357" lon="18.144342">
        <ele>34</ele>
        <time>2020-02-10T08:49:02Z</time>
      </trkpt>
      <trkpt lat="59.190286" lon="18.144356">
        <ele>33</ele>
        <time>2020-02-10T08:49:03Z</time>
      </trkpt>
      <trkpt lat="59.190219" lon="18.144362">
        <ele>33</ele>
        <time>2020-02-10T08:49:04Z</time>
      </trkpt>
      <trkpt lat="59.190147" lon="18.144358">
        <ele>32</ele>
        <time>2020-02-10T08:49:05Z</time>
      </trkpt>
      <trkpt lat="59.190086" lon="18.144366">
        <ele>32</ele>
        <time>2020-02-10T08:49:06Z</time>
      </trkpt>
      <trkpt lat="59.190026" lon="18.144386">
        <ele>31</ele>
        <time>2020-02-10T08:49:07Z</time>
      </trkpt>
      <trkpt lat="59.189961" lon="18.144406">
        <ele>31</ele>
        <time>2020-02-10T08:49:08Z</time>
      </trkpt>
      <trkpt lat="59.189909" lon="18.144422">
        <ele>31</ele>
        <time>2020-02-10T08:49:09Z</time>
      </trkpt>
      <trkpt lat="59.189854" lon="18.144442">
        <ele>31</ele>
        <time>2020-02-10T08:49:10Z</time>
      </trkpt>
      <trkpt lat="59.189796" lon="18.144468">
        <ele>31</ele>
        <time>2020-02-10T08:49:11Z</time>
      </trkpt>
      <trkpt lat="59.189744" lon="18.14449">
        <ele>31</ele>
        <time>2020-02-10T08:49:12Z</time>
      </trkpt>
      <trkpt lat="59.189699" lon="18.144524">
        <ele>31</ele>
        <time>2020-02-10T08:49:13Z</time>
      </trkpt>
      <trkpt lat="59.189648" lon="18.14456">
        <ele>31</ele>
        <time>2020-02-10T08:49:14Z</time>
      </trkpt>
      <trkpt lat="59.189596" lon="18.144598">
        <ele>31</ele>
        <time>2020-02-10T08:49:15Z</time>
      </trkpt>
      <trkpt lat="59.189545" lon="18.144634">
        <ele>31</ele>
        <time>2020-02-10T08:49:16Z</time>
      </trkpt>
      <trkpt lat="59.189493" lon="18.144666">
        <ele>31</ele>
        <time>2020-02-10T08:49:17Z</time>
      </trkpt>
      <trkpt lat="59.189442" lon="18.1447">
        <ele>31</ele>
        <time>2020-02-10T08:49:18Z</time>
      </trkpt>
      <trkpt lat="59.18939" lon="18.14474">
        <ele>31</ele>
        <time>2020-02-10T08:49:19Z</time>
      </trkpt>
      <trkpt lat="59.189339" lon="18.144778">
        <ele>31</ele>
        <time>2020-02-10T08:49:20Z</time>
      </trkpt>
      <trkpt lat="59.189289" lon="18.144822">
        <ele>31</ele>
        <time>2020-02-10T08:49:21Z</time>
      </trkpt>
      <trkpt lat="59.189241" lon="18.14487">
        <ele>32</ele>
        <time>2020-02-10T08:49:22Z</time>
      </trkpt>
      <trkpt lat="59.189198" lon="18.144924">
        <ele>32</ele>
        <time>2020-02-10T08:49:23Z</time>
      </trkpt>
      <trkpt lat="59.189155" lon="18.144982">
        <ele>31</ele>
        <time>2020-02-10T08:49:24Z</time>
      </trkpt>
      <trkpt lat="59.189115" lon="18.145042">
        <ele>31</ele>
        <time>2020-02-10T08:49:25Z</time>
      </trkpt>
      <trkpt lat="59.189075" lon="18.145106">
        <ele>31</ele>
        <time>2020-02-10T08:49:26Z</time>
      </trkpt>
      <trkpt lat="59.18903" lon="18.145174">
        <ele>31</ele>
        <time>2020-02-10T08:49:27Z</time>
      </trkpt>
      <trkpt lat="59.188984" lon="18.145238">
        <ele>31</ele>
        <time>2020-02-10T08:49:28Z</time>
      </trkpt>
      <trkpt lat="59.188936" lon="18.145298">
        <ele>31</ele>
        <time>2020-02-10T08:49:29Z</time>
      </trkpt>
      <trkpt lat="59.18889" lon="18.145358">
        <ele>31</ele>
        <time>2020-02-10T08:49:30Z</time>
      </trkpt>
      <trkpt lat="59.188842" lon="18.14542">
        <ele>30</ele>
        <time>2020-02-10T08:49:31Z</time>
      </trkpt>
      <trkpt lat="59.188793" lon="18.14548">
        <ele>30</ele>
        <time>2020-02-10T08:49:32Z</time>
      </trkpt>
      <trkpt lat="59.188744" lon="18.145544">
        <ele>30</ele>
        <time>2020-02-10T08:49:33Z</time>
      </trkpt>
      <trkpt lat="59.188693" lon="18.145604">
        <ele>30</ele>
        <time>2020-02-10T08:49:34Z</time>
      </trkpt>
      <trkpt lat="59.188642" lon="18.145658">
        <ele>30</ele>
        <time>2020-02-10T08:49:35Z</time>
      </trkpt>
      <trkpt lat="59.188588" lon="18.145708">
        <ele>29</ele>
        <time>2020-02-10T08:49:36Z</time>
      </trkpt>
      <trkpt lat="59.188534" lon="18.145756">
        <ele>29</ele>
        <time>2020-02-10T08:49:37Z</time>
      </trkpt>
      <trkpt lat="59.188479" lon="18.145798">
        <ele>29</ele>
        <time>2020-02-10T08:49:38Z</time>
      </trkpt>
      <trkpt lat="59.188424" lon="18.14584">
        <ele>29</ele>
        <time>2020-02-10T08:49:39Z</time>
      </trkpt>
      <trkpt lat="59.188369" lon="18.145884">
        <ele>0</ele>
        <time>2020-02-10T08:49:39Z</time>
      </trkpt>
      <trkpt lat="59.188313" lon="18.145928">
        <ele>29</ele>
        <time>2020-02-10T08:49:40Z</time>
      </trkpt>
      <trkpt lat="59.188257" lon="18.145968">
        <ele>29</ele>
        <time>2020-02-10T08:49:42Z</time>
      </trkpt>
      <trkpt lat="59.188202" lon="18.146004">
        <ele>29</ele>
        <time>2020-02-10T08:49:43Z</time>
      </trkpt>
      <trkpt lat="59.188149" lon="18.146042">
        <ele>29</ele>
        <time>2020-02-10T08:49:44Z</time>
      </trkpt>
      <trkpt lat="59.188097" lon="18.146072">
        <ele>28</ele>
        <time>2020-02-10T08:49:45Z</time>
      </trkpt>
      <trkpt lat="59.188043" lon="18.146098">
        <ele>28</ele>
        <time>2020-02-10T08:49:46Z</time>
      </trkpt>
      <trkpt lat="59.187987" lon="18.14613">
        <ele>28</ele>
        <time>2020-02-10T08:49:47Z</time>
      </trkpt>
      <trkpt lat="59.187934" lon="18.14617">
        <ele>28</ele>
        <time>2020-02-10T08:49:48Z</time>
      </trkpt>
      <trkpt lat="59.187878" lon="18.146216">
        <ele>28</ele>
        <time>2020-02-10T08:49:49Z</time>
      </trkpt>
      <trkpt lat="59.187821" lon="18.14626">
        <ele>28</ele>
        <time>2020-02-10T08:49:50Z</time>
      </trkpt>
      <trkpt lat="59.187763" lon="18.146298">
        <ele>28</ele>
        <time>2020-02-10T08:49:51Z</time>
      </trkpt>
      <trkpt lat="59.187706" lon="18.146334">
        <ele>28</ele>
        <time>2020-02-10T08:49:52Z</time>
      </trkpt>
      <trkpt lat="59.187649" lon="18.146374">
        <ele>27</ele>
        <time>2020-02-10T08:49:53Z</time>
      </trkpt>
      <trkpt lat="59.187592" lon="18.146412">
        <ele>27</ele>
        <time>2020-02-10T08:49:54Z</time>
      </trkpt>
      <trkpt lat="59.187534" lon="18.146444">
        <ele>27</ele>
        <time>2020-02-10T08:49:55Z</time>
      </trkpt>
      <trkpt lat="59.187475" lon="18.146468">
        <ele>27</ele>
        <time>2020-02-10T08:49:56Z</time>
      </trkpt>
      <trkpt lat="59.187418" lon="18.14649">
        <ele>0</ele>
        <time>2020-02-10T08:49:56Z</time>
      </trkpt>
      <trkpt lat="59.187363" lon="18.146508">
        <ele>27</ele>
        <time>2020-02-10T08:49:57Z</time>
      </trkpt>
      <trkpt lat="59.187309" lon="18.146524">
        <ele>27</ele>
        <time>2020-02-10T08:49:59Z</time>
      </trkpt>
      <trkpt lat="59.187256" lon="18.146536">
        <ele>26</ele>
        <time>2020-02-10T08:50:00Z</time>
      </trkpt>
      <trkpt lat="59.187206" lon="18.146548">
        <ele>26</ele>
        <time>2020-02-10T08:50:01Z</time>
      </trkpt>
      <trkpt lat="59.187157" lon="18.146561">
        <ele>26</ele>
        <time>2020-02-10T08:50:02Z</time>
      </trkpt>
      <trkpt lat="59.18711" lon="18.146574">
        <ele>26</ele>
        <time>2020-02-10T08:50:03Z</time>
      </trkpt>
      <trkpt lat="59.187064" lon="18.146586">
        <ele>27</ele>
        <time>2020-02-10T08:50:04Z</time>
      </trkpt>
      <trkpt lat="59.18702" lon="18.146599">
        <ele>27</ele>
        <time>2020-02-10T08:50:05Z</time>
      </trkpt>
      <trkpt lat="59.186977" lon="18.146612">
        <ele>27</ele>
        <time>2020-02-10T08:50:06Z</time>
      </trkpt>
      <trkpt lat="59.186933" lon="18.146625">
        <ele>27</ele>
        <time>2020-02-10T08:50:07Z</time>
      </trkpt>
      <trkpt lat="59.186889" lon="18.146641">
        <ele>27</ele>
        <time>2020-02-10T08:50:08Z</time>
      </trkpt>
      <trkpt lat="59.186845" lon="18.146655">
        <ele>27</ele>
        <time>2020-02-10T08:50:09Z</time>
      </trkpt>
      <trkpt lat="59.1868" lon="18.146669">
        <ele>27</ele>
        <time>2020-02-10T08:50:10Z</time>
      </trkpt>
      <trkpt lat="59.186754" lon="18.146681">
        <ele>27</ele>
        <time>2020-02-10T08:50:11Z</time>
      </trkpt>
      <trkpt lat="59.186709" lon="18.146693">
        <ele>27</ele>
        <time>2020-02-10T08:50:12Z</time>
      </trkpt>
      <trkpt lat="59.186663" lon="18.146704">
        <ele>27</ele>
        <time>2020-02-10T08:50:13Z</time>
      </trkpt>
      <trkpt lat="59.186617" lon="18.146716">
        <ele>27</ele>
        <time>2020-02-10T08:50:14Z</time>
      </trkpt>
      <trkpt lat="59.18657" lon="18.146728">
        <ele>27</ele>
        <time>2020-02-10T08:50:15Z</time>
      </trkpt>
      <trkpt lat="59.186522" lon="18.146739">
        <ele>27</ele>
        <time>2020-02-10T08:50:16Z</time>
      </trkpt>
      <trkpt lat="59.186475" lon="18.146753">
        <ele>26</ele>
        <time>2020-02-10T08:50:17Z</time>
      </trkpt>
      <trkpt lat="59.186428" lon="18.146764">
        <ele>26</ele>
        <time>2020-02-10T08:50:18Z</time>
      </trkpt>
      <trkpt lat="59.186381" lon="18.146775">
        <ele>26</ele>
        <time>2020-02-10T08:50:19Z</time>
      </trkpt>
      <trkpt lat="59.186334" lon="18.146784">
        <ele>26</ele>
        <time>2020-02-10T08:50:20Z</time>
      </trkpt>
      <trkpt lat="59.186287" lon="18.14679">
        <ele>27</ele>
        <time>2020-02-10T08:50:21Z</time>
      </trkpt>
      <trkpt lat="59.18624" lon="18.146799">
        <ele>27</ele>
        <time>2020-02-10T08:50:22Z</time>
      </trkpt>
      <trkpt lat="59.186192" lon="18.146813">
        <ele>27</ele>
        <time>2020-02-10T08:50:23Z</time>
      </trkpt>
      <trkpt lat="59.186144" lon="18.146825">
        <ele>27</ele>
        <time>2020-02-10T08:50:24Z</time>
      </trkpt>
      <trkpt lat="59.186096" lon="18.146833">
        <ele>27</ele>
        <time>2020-02-10T08:50:25Z</time>
      </trkpt>
      <trkpt lat="59.186049" lon="18.146835">
        <ele>27</ele>
        <time>2020-02-10T08:50:26Z</time>
      </trkpt>
      <trkpt lat="59.186002" lon="18.146836">
        <ele>26</ele>
        <time>2020-02-10T08:50:27Z</time>
      </trkpt>
      <trkpt lat="59.185956" lon="18.146843">
        <ele>26</ele>
        <time>2020-02-10T08:50:28Z</time>
      </trkpt>
      <trkpt lat="59.185909" lon="18.146853">
        <ele>26</ele>
        <time>2020-02-10T08:50:29Z</time>
      </trkpt>
      <trkpt lat="59.185862" lon="18.146863">
        <ele>26</ele>
        <time>2020-02-10T08:50:30Z</time>
      </trkpt>
      <trkpt lat="59.185815" lon="18.146875">
        <ele>26</ele>
        <time>2020-02-10T08:50:31Z</time>
      </trkpt>
      <trkpt lat="59.185766" lon="18.146887">
        <ele>26</ele>
        <time>2020-02-10T08:50:32Z</time>
      </trkpt>
      <trkpt lat="59.185716" lon="18.146898">
        <ele>26</ele>
        <time>2020-02-10T08:50:33Z</time>
      </trkpt>
      <trkpt lat="59.185666" lon="18.146909">
        <ele>26</ele>
        <time>2020-02-10T08:50:34Z</time>
      </trkpt>
      <trkpt lat="59.185615" lon="18.146919">
        <ele>26</ele>
        <time>2020-02-10T08:50:35Z</time>
      </trkpt>
      <trkpt lat="59.185565" lon="18.146929">
        <ele>26</ele>
        <time>2020-02-10T08:50:36Z</time>
      </trkpt>
      <trkpt lat="59.185519" lon="18.146936">
        <ele>26</ele>
        <time>2020-02-10T08:50:37Z</time>
      </trkpt>
      <trkpt lat="59.185475" lon="18.146943">
        <ele>26</ele>
        <time>2020-02-10T08:50:38Z</time>
      </trkpt>
      <trkpt lat="59.185434" lon="18.146951">
        <ele>26</ele>
        <time>2020-02-10T08:50:39Z</time>
      </trkpt>
      <trkpt lat="59.185394" lon="18.14694">
        <ele>27</ele>
        <time>2020-02-10T08:50:40Z</time>
      </trkpt>
      <trkpt lat="59.185361" lon="18.146902">
        <ele>27</ele>
        <time>2020-02-10T08:50:41Z</time>
      </trkpt>
      <trkpt lat="59.185336" lon="18.146851">
        <ele>27</ele>
        <time>2020-02-10T08:50:42Z</time>
      </trkpt>
      <trkpt lat="59.185312" lon="18.146804">
        <ele>27</ele>
        <time>2020-02-10T08:50:43Z</time>
      </trkpt>
      <trkpt lat="59.185286" lon="18.146769">
        <ele>27</ele>
        <time>2020-02-10T08:50:44Z</time>
      </trkpt>
      <trkpt lat="59.185257" lon="18.146749">
        <ele>27</ele>
        <time>2020-02-10T08:50:45Z</time>
      </trkpt>
      <trkpt lat="59.185229" lon="18.146744">
        <ele>28</ele>
        <time>2020-02-10T08:50:46Z</time>
      </trkpt>
      <trkpt lat="59.185201" lon="18.146751">
        <ele>28</ele>
        <time>2020-02-10T08:50:47Z</time>
      </trkpt>
      <trkpt lat="59.185175" lon="18.146767">
        <ele>28</ele>
        <time>2020-02-10T08:50:48Z</time>
      </trkpt>
      <trkpt lat="59.185147" lon="18.146784">
        <ele>28</ele>
        <time>2020-02-10T08:50:49Z</time>
      </trkpt>
      <trkpt lat="59.185118" lon="18.146803">
        <ele>28</ele>
        <time>2020-02-10T08:50:50Z</time>
      </trkpt>
      <trkpt lat="59.185089" lon="18.146824">
        <ele>28</ele>
        <time>2020-02-10T08:50:51Z</time>
      </trkpt>
      <trkpt lat="59.185059" lon="18.146849">
        <ele>28</ele>
        <time>2020-02-10T08:50:52Z</time>
      </trkpt>
      <trkpt lat="59.185031" lon="18.146877">
        <ele>28</ele>
        <time>2020-02-10T08:50:53Z</time>
      </trkpt>
      <trkpt lat="59.185" lon="18.146905">
        <ele>28</ele>
        <time>2020-02-10T08:50:54Z</time>
      </trkpt>
      <trkpt lat="59.184968" lon="18.146933">
        <ele>28</ele>
        <time>2020-02-10T08:50:55Z</time>
      </trkpt>
      <trkpt lat="59.184935" lon="18.146958">
        <ele>28</ele>
        <time>2020-02-10T08:50:56Z</time>
      </trkpt>
      <trkpt lat="59.184901" lon="18.146981">
        <ele>28</ele>
        <time>2020-02-10T08:50:57Z</time>
      </trkpt>
      <trkpt lat="59.184866" lon="18.147001">
        <ele>29</ele>
        <time>2020-02-10T08:50:58Z</time>
      </trkpt>
      <trkpt lat="59.184832" lon="18.147019">
        <ele>28</ele>
        <time>2020-02-10T08:50:59Z</time>
      </trkpt>
      <trkpt lat="59.184797" lon="18.147033">
        <ele>29</ele>
        <time>2020-02-10T08:51:00Z</time>
      </trkpt>
      <trkpt lat="59.184763" lon="18.147044">
        <ele>28</ele>
        <time>2020-02-10T08:51:01Z</time>
      </trkpt>
      <trkpt lat="59.18473" lon="18.147056">
        <ele>28</ele>
        <time>2020-02-10T08:51:02Z</time>
      </trkpt>
      <trkpt lat="59.184696" lon="18.147067">
        <ele>28</ele>
        <time>2020-02-10T08:51:03Z</time>
      </trkpt>
      <trkpt lat="59.184663" lon="18.147078">
        <ele>28</ele>
        <time>2020-02-10T08:51:04Z</time>
      </trkpt>
      <trkpt lat="59.18463" lon="18.147087">
        <ele>28</ele>
        <time>2020-02-10T08:51:05Z</time>
      </trkpt>
      <trkpt lat="59.184597" lon="18.147097">
        <ele>29</ele>
        <time>2020-02-10T08:51:06Z</time>
      </trkpt>
      <trkpt lat="59.184566" lon="18.147106">
        <ele>29</ele>
        <time>2020-02-10T08:51:07Z</time>
      </trkpt>
      <trkpt lat="59.184534" lon="18.147114">
        <ele>29</ele>
        <time>2020-02-10T08:51:08Z</time>
      </trkpt>
      <trkpt lat="59.184505" lon="18.147124">
        <ele>29</ele>
        <time>2020-02-10T08:51:09Z</time>
      </trkpt>
      <trkpt lat="59.184476" lon="18.147133">
        <ele>29</ele>
        <time>2020-02-10T08:51:10Z</time>
      </trkpt>
      <trkpt lat="59.184447" lon="18.14714">
        <ele>29</ele>
        <time>2020-02-10T08:51:11Z</time>
      </trkpt>
      <trkpt lat="59.184417" lon="18.147147">
        <ele>29</ele>
        <time>2020-02-10T08:51:12Z</time>
      </trkpt>
      <trkpt lat="59.184387" lon="18.147151">
        <ele>29</ele>
        <time>2020-02-10T08:51:13Z</time>
      </trkpt>
      <trkpt lat="59.184357" lon="18.147154">
        <ele>29</ele>
        <time>2020-02-10T08:51:14Z</time>
      </trkpt>
      <trkpt lat="59.184326" lon="18.147161">
        <ele>29</ele>
        <time>2020-02-10T08:51:15Z</time>
      </trkpt>
      <trkpt lat="59.184294" lon="18.147167">
        <ele>29</ele>
        <time>2020-02-10T08:51:16Z</time>
      </trkpt>
      <trkpt lat="59.184263" lon="18.147174">
        <ele>30</ele>
        <time>2020-02-10T08:51:17Z</time>
      </trkpt>
      <trkpt lat="59.184233" lon="18.147181">
        <ele>30</ele>
        <time>2020-02-10T08:51:18Z</time>
      </trkpt>
      <trkpt lat="59.184202" lon="18.147186">
        <ele>30</ele>
        <time>2020-02-10T08:51:19Z</time>
      </trkpt>
      <trkpt lat="59.184171" lon="18.147192">
        <ele>30</ele>
        <time>2020-02-10T08:51:20Z</time>
      </trkpt>
      <trkpt lat="59.184139" lon="18.147199">
        <ele>30</ele>
        <time>2020-02-10T08:51:21Z</time>
      </trkpt>
      <trkpt lat="59.184107" lon="18.147205">
        <ele>30</ele>
        <time>2020-02-10T08:51:22Z</time>
      </trkpt>
      <trkpt lat="59.184074" lon="18.147214">
        <ele>30</ele>
        <time>2020-02-10T08:51:23Z</time>
      </trkpt>
      <trkpt lat="59.184039" lon="18.147222">
        <ele>31</ele>
        <time>2020-02-10T08:51:24Z</time>
      </trkpt>
      <trkpt lat="59.184004" lon="18.147229">
        <ele>31</ele>
        <time>2020-02-10T08:51:25Z</time>
      </trkpt>
      <trkpt lat="59.183969" lon="18.147236">
        <ele>31</ele>
        <time>2020-02-10T08:51:26Z</time>
      </trkpt>
      <trkpt lat="59.183933" lon="18.147242">
        <ele>31</ele>
        <time>2020-02-10T08:51:27Z</time>
      </trkpt>
      <trkpt lat="59.183899" lon="18.147246">
        <ele>31</ele>
        <time>2020-02-10T08:51:28Z</time>
      </trkpt>
      <trkpt lat="59.183864" lon="18.14725">
        <ele>31</ele>
        <time>2020-02-10T08:51:29Z</time>
      </trkpt>
      <trkpt lat="59.18383" lon="18.147252">
        <ele>31</ele>
        <time>2020-02-10T08:51:30Z</time>
      </trkpt>
      <trkpt lat="59.183795" lon="18.147254">
        <ele>31</ele>
        <time>2020-02-10T08:51:31Z</time>
      </trkpt>
      <trkpt lat="59.183761" lon="18.147258">
        <ele>32</ele>
        <time>2020-02-10T08:51:32Z</time>
      </trkpt>
      <trkpt lat="59.183726" lon="18.147263">
        <ele>32</ele>
        <time>2020-02-10T08:51:33Z</time>
      </trkpt>
      <trkpt lat="59.183692" lon="18.147266">
        <ele>32</ele>
        <time>2020-02-10T08:51:34Z</time>
      </trkpt>
      <trkpt lat="59.183657" lon="18.147271">
        <ele>32</ele>
        <time>2020-02-10T08:51:35Z</time>
      </trkpt>
      <trkpt lat="59.183622" lon="18.147282">
        <ele>32</ele>
        <time>2020-02-10T08:51:36Z</time>
      </trkpt>
      <trkpt lat="59.183586" lon="18.147303">
        <ele>32</ele>
        <time>2020-02-10T08:51:37Z</time>
      </trkpt>
      <trkpt lat="59.183552" lon="18.147327">
        <ele>32</ele>
        <time>2020-02-10T08:51:38Z</time>
      </trkpt>
      <trkpt lat="59.183518" lon="18.147344">
        <ele>32</ele>
        <time>2020-02-10T08:51:39Z</time>
      </trkpt>
      <trkpt lat="59.183482" lon="18.147349">
        <ele>33</ele>
        <time>2020-02-10T08:51:40Z</time>
      </trkpt>
      <trkpt lat="59.183446" lon="18.147345">
        <ele>33</ele>
        <time>2020-02-10T08:51:41Z</time>
      </trkpt>
      <trkpt lat="59.183408" lon="18.147336">
        <ele>33</ele>
        <time>2020-02-10T08:51:42Z</time>
      </trkpt>
      <trkpt lat="59.183369" lon="18.147317">
        <ele>33</ele>
        <time>2020-02-10T08:51:43Z</time>
      </trkpt>
      <trkpt lat="59.183333" lon="18.147285">
        <ele>33</ele>
        <time>2020-02-10T08:51:44Z</time>
      </trkpt>
      <trkpt lat="59.183297" lon="18.147249">
        <ele>33</ele>
        <time>2020-02-10T08:51:45Z</time>
      </trkpt>
      <trkpt lat="59.18326" lon="18.14722">
        <ele>33</ele>
        <time>2020-02-10T08:51:46Z</time>
      </trkpt>
      <trkpt lat="59.183221" lon="18.147198">
        <ele>34</ele>
        <time>2020-02-10T08:51:47Z</time>
      </trkpt>
      <trkpt lat="59.183181" lon="18.14718">
        <ele>34</ele>
        <time>2020-02-10T08:51:48Z</time>
      </trkpt>
      <trkpt lat="59.183141" lon="18.147168">
        <ele>34</ele>
        <time>2020-02-10T08:51:49Z</time>
      </trkpt>
      <trkpt lat="59.183101" lon="18.147154">
        <ele>34</ele>
        <time>2020-02-10T08:51:50Z</time>
      </trkpt>
      <trkpt lat="59.18306" lon="18.147141">
        <ele>34</ele>
        <time>2020-02-10T08:51:51Z</time>
      </trkpt>
      <trkpt lat="59.183019" lon="18.147131">
        <ele>34</ele>
        <time>2020-02-10T08:51:52Z</time>
      </trkpt>
      <trkpt lat="59.182978" lon="18.147115">
        <ele>35</ele>
        <time>2020-02-10T08:51:53Z</time>
      </trkpt>
      <trkpt lat="59.182937" lon="18.147095">
        <ele>35</ele>
        <time>2020-02-10T08:51:54Z</time>
      </trkpt>
      <trkpt lat="59.182896" lon="18.147075">
        <ele>35</ele>
        <time>2020-02-10T08:51:55Z</time>
      </trkpt>
      <trkpt lat="59.182857" lon="18.147051">
        <ele>35</ele>
        <time>2020-02-10T08:51:56Z</time>
      </trkpt>
      <trkpt lat="59.182817" lon="18.147026">
        <ele>35</ele>
        <time>2020-02-10T08:51:57Z</time>
      </trkpt>
      <trkpt lat="59.182778" lon="18.146999">
        <ele>35</ele>
        <time>2020-02-10T08:51:58Z</time>
      </trkpt>
      <trkpt lat="59.182739" lon="18.146971">
        <ele>36</ele>
        <time>2020-02-10T08:51:59Z</time>
      </trkpt>
      <trkpt lat="59.1827" lon="18.146943">
        <ele>36</ele>
        <time>2020-02-10T08:52:00Z</time>
      </trkpt>
      <trkpt lat="59.182661" lon="18.146914">
        <ele>36</ele>
        <time>2020-02-10T08:52:01Z</time>
      </trkpt>
      <trkpt lat="59.182622" lon="18.146883">
        <ele>36</ele>
        <time>2020-02-10T08:52:02Z</time>
      </trkpt>
      <trkpt lat="59.182584" lon="18.146848">
        <ele>36</ele>
        <time>2020-02-10T08:52:03Z</time>
      </trkpt>
      <trkpt lat="59.182547" lon="18.146813">
        <ele>36</ele>
        <time>2020-02-10T08:52:04Z</time>
      </trkpt>
      <trkpt lat="59.182509" lon="18.146778">
        <ele>36</ele>
        <time>2020-02-10T08:52:05Z</time>
      </trkpt>
      <trkpt lat="59.182473" lon="18.146745">
        <ele>36</ele>
        <time>2020-02-10T08:52:06Z</time>
      </trkpt>
      <trkpt lat="59.182435" lon="18.146709">
        <ele>36</ele>
        <time>2020-02-10T08:52:07Z</time>
      </trkpt>
      <trkpt lat="59.182396" lon="18.146676">
        <ele>37</ele>
        <time>2020-02-10T08:52:08Z</time>
      </trkpt>
      <trkpt lat="59.182359" lon="18.14664">
        <ele>37</ele>
        <time>2020-02-10T08:52:09Z</time>
      </trkpt>
      <trkpt lat="59.182327" lon="18.146605">
        <ele>37</ele>
        <time>2020-02-10T08:52:10Z</time>
      </trkpt>
      <trkpt lat="59.182297" lon="18.146568">
        <ele>37</ele>
        <time>2020-02-10T08:52:11Z</time>
      </trkpt>
      <trkpt lat="59.182264" lon="18.146534">
        <ele>37</ele>
        <time>2020-02-10T08:52:12Z</time>
      </trkpt>
      <trkpt lat="59.182222" lon="18.146494">
        <ele>37</ele>
        <time>2020-02-10T08:52:13Z</time>
      </trkpt>
      <trkpt lat="59.182183" lon="18.146445">
        <ele>37</ele>
        <time>2020-02-10T08:52:14Z</time>
      </trkpt>
      <trkpt lat="59.182145" lon="18.146395">
        <ele>37</ele>
        <time>2020-02-10T08:52:15Z</time>
      </trkpt>
      <trkpt lat="59.182107" lon="18.146349">
        <ele>37</ele>
        <time>2020-02-10T08:52:16Z</time>
      </trkpt>
      <trkpt lat="59.182069" lon="18.146306">
        <ele>0</ele>
        <time>2020-02-10T08:52:16Z</time>
      </trkpt>
      <trkpt lat="59.182033" lon="18.146263">
        <ele>37</ele>
        <time>2020-02-10T08:52:17Z</time>
      </trkpt>
      <trkpt lat="59.181997" lon="18.146219">
        <ele>37</ele>
        <time>2020-02-10T08:52:19Z</time>
      </trkpt>
      <trkpt lat="59.181961" lon="18.146176">
        <ele>37</ele>
        <time>2020-02-10T08:52:20Z</time>
      </trkpt>
      <trkpt lat="59.181925" lon="18.146134">
        <ele>37</ele>
        <time>2020-02-10T08:52:21Z</time>
      </trkpt>
      <trkpt lat="59.18189" lon="18.146093">
        <ele>37</ele>
        <time>2020-02-10T08:52:22Z</time>
      </trkpt>
      <trkpt lat="59.181855" lon="18.146052">
        <ele>37</ele>
        <time>2020-02-10T08:52:23Z</time>
      </trkpt>
      <trkpt lat="59.18182" lon="18.146011">
        <ele>37</ele>
        <time>2020-02-10T08:52:24Z</time>
      </trkpt>
      <trkpt lat="59.181784" lon="18.14597">
        <ele>37</ele>
        <time>2020-02-10T08:52:25Z</time>
      </trkpt>
      <trkpt lat="59.181748" lon="18.145928">
        <ele>37</ele>
        <time>2020-02-10T08:52:26Z</time>
      </trkpt>
      <trkpt lat="59.181712" lon="18.145886">
        <ele>37</ele>
        <time>2020-02-10T08:52:27Z</time>
      </trkpt>
      <trkpt lat="59.181676" lon="18.145844">
        <ele>37</ele>
        <time>2020-02-10T08:52:28Z</time>
      </trkpt>
      <trkpt lat="59.181642" lon="18.1458">
        <ele>37</ele>
        <time>2020-02-10T08:52:29Z</time>
      </trkpt>
      <trkpt lat="59.181608" lon="18.145755">
        <ele>37</ele>
        <time>2020-02-10T08:52:30Z</time>
      </trkpt>
      <trkpt lat="59.181572" lon="18.145713">
        <ele>37</ele>
        <time>2020-02-10T08:52:31Z</time>
      </trkpt>
      <trkpt lat="59.181537" lon="18.145674">
        <ele>37</ele>
        <time>2020-02-10T08:52:32Z</time>
      </trkpt>
      <trkpt lat="59.181501" lon="18.145635">
        <ele>37</ele>
        <time>2020-02-10T08:52:33Z</time>
      </trkpt>
      <trkpt lat="59.181466" lon="18.1456">
        <ele>38</ele>
        <time>2020-02-10T08:52:34Z</time>
      </trkpt>
      <trkpt lat="59.181432" lon="18.145564">
        <ele>38</ele>
        <time>2020-02-10T08:52:35Z</time>
      </trkpt>
      <trkpt lat="59.181394" lon="18.145522">
        <ele>38</ele>
        <time>2020-02-10T08:52:36Z</time>
      </trkpt>
      <trkpt lat="59.181355" lon="18.14548">
        <ele>38</ele>
        <time>2020-02-10T08:52:37Z</time>
      </trkpt>
      <trkpt lat="59.181315" lon="18.145439">
        <ele>38</ele>
        <time>2020-02-10T08:52:38Z</time>
      </trkpt>
      <trkpt lat="59.181276" lon="18.145398">
        <ele>38</ele>
        <time>2020-02-10T08:52:39Z</time>
      </trkpt>
      <trkpt lat="59.181237" lon="18.145354">
        <ele>37</ele>
        <time>2020-02-10T08:52:40Z</time>
      </trkpt>
      <trkpt lat="59.181197" lon="18.145311">
        <ele>37</ele>
        <time>2020-02-10T08:52:41Z</time>
      </trkpt>
      <trkpt lat="59.181157" lon="18.145265">
        <ele>37</ele>
        <time>2020-02-10T08:52:42Z</time>
      </trkpt>
      <trkpt lat="59.181117" lon="18.145221">
        <ele>37</ele>
        <time>2020-02-10T08:52:43Z</time>
      </trkpt>
      <trkpt lat="59.181076" lon="18.145177">
        <ele>37</ele>
        <time>2020-02-10T08:52:44Z</time>
      </trkpt>
      <trkpt lat="59.181034" lon="18.145134">
        <ele>37</ele>
        <time>2020-02-10T08:52:45Z</time>
      </trkpt>
      <trkpt lat="59.180993" lon="18.145089">
        <ele>37</ele>
        <time>2020-02-10T08:52:46Z</time>
      </trkpt>
      <trkpt lat="59.180952" lon="18.145044">
        <ele>37</ele>
        <time>2020-02-10T08:52:47Z</time>
      </trkpt>
      <trkpt lat="59.18091" lon="18.144997">
        <ele>37</ele>
        <time>2020-02-10T08:52:48Z</time>
      </trkpt>
      <trkpt lat="59.180869" lon="18.144951">
        <ele>37</ele>
        <time>2020-02-10T08:52:49Z</time>
      </trkpt>
      <trkpt lat="59.180827" lon="18.144906">
        <ele>37</ele>
        <time>2020-02-10T08:52:50Z</time>
      </trkpt>
      <trkpt lat="59.180783" lon="18.144862">
        <ele>37</ele>
        <time>2020-02-10T08:52:51Z</time>
      </trkpt>
      <trkpt lat="59.180739" lon="18.144818">
        <ele>37</ele>
        <time>2020-02-10T08:52:52Z</time>
      </trkpt>
      <trkpt lat="59.180696" lon="18.144763">
        <ele>36</ele>
        <time>2020-02-10T08:52:53Z</time>
      </trkpt>
      <trkpt lat="59.180656" lon="18.144702">
        <ele>36</ele>
        <time>2020-02-10T08:52:54Z</time>
      </trkpt>
      <trkpt lat="59.180616" lon="18.144639">
        <ele>36</ele>
        <time>2020-02-10T08:52:55Z</time>
      </trkpt>
      <trkpt lat="59.180576" lon="18.144577">
        <ele>36</ele>
        <time>2020-02-10T08:52:56Z</time>
      </trkpt>
      <trkpt lat="59.180534" lon="18.144516">
        <ele>36</ele>
        <time>2020-02-10T08:52:57Z</time>
      </trkpt>
      <trkpt lat="59.18049" lon="18.144456">
        <ele>36</ele>
        <time>2020-02-10T08:52:58Z</time>
      </trkpt>
      <trkpt lat="59.180444" lon="18.144398">
        <ele>36</ele>
        <time>2020-02-10T08:52:59Z</time>
      </trkpt>
      <trkpt lat="59.180398" lon="18.144342">
        <ele>36</ele>
        <time>2020-02-10T08:53:00Z</time>
      </trkpt>
      <trkpt lat="59.180351" lon="18.14429">
        <ele>36</ele>
        <time>2020-02-10T08:53:01Z</time>
      </trkpt>
      <trkpt lat="59.180306" lon="18.144238">
        <ele>36</ele>
        <time>2020-02-10T08:53:02Z</time>
      </trkpt>
      <trkpt lat="59.180263" lon="18.144186">
        <ele>36</ele>
        <time>2020-02-10T08:53:03Z</time>
      </trkpt>
      <trkpt lat="59.18022" lon="18.144136">
        <ele>37</ele>
        <time>2020-02-10T08:53:04Z</time>
      </trkpt>
      <trkpt lat="59.180179" lon="18.144084">
        <ele>37</ele>
        <time>2020-02-10T08:53:05Z</time>
      </trkpt>
      <trkpt lat="59.180133" lon="18.144034">
        <ele>37</ele>
        <time>2020-02-10T08:53:06Z</time>
      </trkpt>
      <trkpt lat="59.180088" lon="18.14398">
        <ele>36</ele>
        <time>2020-02-10T08:53:07Z</time>
      </trkpt>
      <trkpt lat="59.18004" lon="18.143928">
        <ele>36</ele>
        <time>2020-02-10T08:53:08Z</time>
      </trkpt>
      <trkpt lat="59.179994" lon="18.14388">
        <ele>36</ele>
        <time>2020-02-10T08:53:09Z</time>
      </trkpt>
      <trkpt lat="59.179946" lon="18.143834">
        <ele>36</ele>
        <time>2020-02-10T08:53:10Z</time>
      </trkpt>
      <trkpt lat="59.179899" lon="18.143796">
        <ele>36</ele>
        <time>2020-02-10T08:53:11Z</time>
      </trkpt>
      <trkpt lat="59.17985" lon="18.14376">
        <ele>36</ele>
        <time>2020-02-10T08:53:12Z</time>
      </trkpt>
      <trkpt lat="59.179802" lon="18.143724">
        <ele>36</ele>
        <time>2020-02-10T08:53:13Z</time>
      </trkpt>
      <trkpt lat="59.179756" lon="18.143686">
        <ele>36</ele>
        <time>2020-02-10T08:53:14Z</time>
      </trkpt>
      <trkpt lat="59.179708" lon="18.143652">
        <ele>36</ele>
        <time>2020-02-10T08:53:15Z</time>
      </trkpt>
      <trkpt lat="59.179659" lon="18.143628">
        <ele>36</ele>
        <time>2020-02-10T08:53:16Z</time>
      </trkpt>
      <trkpt lat="59.179612" lon="18.14362">
        <ele>36</ele>
        <time>2020-02-10T08:53:17Z</time>
      </trkpt>
      <trkpt lat="59.17956" lon="18.143626">
        <ele>36</ele>
        <time>2020-02-10T08:53:18Z</time>
      </trkpt>
      <trkpt lat="59.17951" lon="18.143638">
        <ele>36</ele>
        <time>2020-02-10T08:53:19Z</time>
      </trkpt>
      <trkpt lat="59.179457" lon="18.14365">
        <ele>36</ele>
        <time>2020-02-10T08:53:20Z</time>
      </trkpt>
      <trkpt lat="59.179403" lon="18.143668">
        <ele>36</ele>
        <time>2020-02-10T08:53:21Z</time>
      </trkpt>
      <trkpt lat="59.179356" lon="18.143686">
        <ele>37</ele>
        <time>2020-02-10T08:53:22Z</time>
      </trkpt>
      <trkpt lat="59.179312" lon="18.143684">
        <ele>37</ele>
        <time>2020-02-10T08:53:23Z</time>
      </trkpt>
      <trkpt lat="59.179272" lon="18.14366">
        <ele>36</ele>
        <time>2020-02-10T08:53:24Z</time>
      </trkpt>
      <trkpt lat="59.179234" lon="18.143604">
        <ele>36</ele>
        <time>2020-02-10T08:53:25Z</time>
      </trkpt>
      <trkpt lat="59.179193" lon="18.143524">
        <ele>36</ele>
        <time>2020-02-10T08:53:26Z</time>
      </trkpt>
      <trkpt lat="59.179144" lon="18.143444">
        <ele>36</ele>
        <time>2020-02-10T08:53:27Z</time>
      </trkpt>
      <trkpt lat="59.179099" lon="18.14338">
        <ele>35</ele>
        <time>2020-02-10T08:53:28Z</time>
      </trkpt>
      <trkpt lat="59.17905" lon="18.143326">
        <ele>35</ele>
        <time>2020-02-10T08:53:29Z</time>
      </trkpt>
      <trkpt lat="59.179001" lon="18.143284">
        <ele>35</ele>
        <time>2020-02-10T08:53:30Z</time>
      </trkpt>
      <trkpt lat="59.178954" lon="18.143248">
        <ele>35</ele>
        <time>2020-02-10T08:53:31Z</time>
      </trkpt>
      <trkpt lat="59.178907" lon="18.143216">
        <ele>35</ele>
        <time>2020-02-10T08:53:32Z</time>
      </trkpt>
      <trkpt lat="59.178862" lon="18.143186">
        <ele>35</ele>
        <time>2020-02-10T08:53:33Z</time>
      </trkpt>
      <trkpt lat="59.178816" lon="18.143154">
        <ele>35</ele>
        <time>2020-02-10T08:53:34Z</time>
      </trkpt>
      <trkpt lat="59.17877" lon="18.14312">
        <ele>35</ele>
        <time>2020-02-10T08:53:35Z</time>
      </trkpt>
      <trkpt lat="59.178724" lon="18.14309">
        <ele>35</ele>
        <time>2020-02-10T08:53:36Z</time>
      </trkpt>
      <trkpt lat="59.178678" lon="18.14306">
        <ele>35</ele>
        <time>2020-02-10T08:53:37Z</time>
      </trkpt>
      <trkpt lat="59.17863" lon="18.143032">
        <ele>35</ele>
        <time>2020-02-10T08:53:38Z</time>
      </trkpt>
      <trkpt lat="59.178584" lon="18.143">
        <ele>35</ele>
        <time>2020-02-10T08:53:39Z</time>
      </trkpt>
      <trkpt lat="59.178538" lon="18.142968">
        <ele>35</ele>
        <time>2020-02-10T08:53:40Z</time>
      </trkpt>
      <trkpt lat="59.178492" lon="18.142934">
        <ele>35</ele>
        <time>2020-02-10T08:53:41Z</time>
      </trkpt>
      <trkpt lat="59.178447" lon="18.142902">
        <ele>35</ele>
        <time>2020-02-10T08:53:42Z</time>
      </trkpt>
      <trkpt lat="59.178403" lon="18.142872">
        <ele>35</ele>
        <time>2020-02-10T08:53:43Z</time>
      </trkpt>
      <trkpt lat="59.178358" lon="18.14284">
        <ele>35</ele>
        <time>2020-02-10T08:53:44Z</time>
      </trkpt>
      <trkpt lat="59.178309" lon="18.142808">
        <ele>35</ele>
        <time>2020-02-10T08:53:45Z</time>
      </trkpt>
      <trkpt lat="59.178255" lon="18.14277">
        <ele>35</ele>
        <time>2020-02-10T08:53:46Z</time>
      </trkpt>
      <trkpt lat="59.1782" lon="18.14273">
        <ele>35</ele>
        <time>2020-02-10T08:53:47Z</time>
      </trkpt>
      <trkpt lat="59.178144" lon="18.142694">
        <ele>35</ele>
        <time>2020-02-10T08:53:48Z</time>
      </trkpt>
      <trkpt lat="59.178092" lon="18.142666">
        <ele>35</ele>
        <time>2020-02-10T08:53:49Z</time>
      </trkpt>
      <trkpt lat="59.178042" lon="18.142646">
        <ele>35</ele>
        <time>2020-02-10T08:53:50Z</time>
      </trkpt>
      <trkpt lat="59.177994" lon="18.142638">
        <ele>35</ele>
        <time>2020-02-10T08:53:51Z</time>
      </trkpt>
      <trkpt lat="59.177947" lon="18.142642">
        <ele>35</ele>
        <time>2020-02-10T08:53:52Z</time>
      </trkpt>
      <trkpt lat="59.1779" lon="18.142652">
        <ele>35</ele>
        <time>2020-02-10T08:53:53Z</time>
      </trkpt>
      <trkpt lat="59.177852" lon="18.142666">
        <ele>35</ele>
        <time>2020-02-10T08:53:54Z</time>
      </trkpt>
      <trkpt lat="59.177803" lon="18.142682">
        <ele>35</ele>
        <time>2020-02-10T08:53:55Z</time>
      </trkpt>
      <trkpt lat="59.177752" lon="18.142696">
        <ele>35</ele>
        <time>2020-02-10T08:53:56Z</time>
      </trkpt>
      <trkpt lat="59.1777" lon="18.142712">
        <ele>35</ele>
        <time>2020-02-10T08:53:57Z</time>
      </trkpt>
      <trkpt lat="59.177646" lon="18.142726">
        <ele>35</ele>
        <time>2020-02-10T08:53:58Z</time>
      </trkpt>
      <trkpt lat="59.177597" lon="18.14274">
        <ele>0</ele>
        <time>2020-02-10T08:53:58Z</time>
      </trkpt>
      <trkpt lat="59.177548" lon="18.142748">
        <ele>35</ele>
        <time>2020-02-10T08:53:59Z</time>
      </trkpt>
      <trkpt lat="59.177502" lon="18.142754">
        <ele>36</ele>
        <time>2020-02-10T08:54:01Z</time>
      </trkpt>
      <trkpt lat="59.177459" lon="18.142761">
        <ele>36</ele>
        <time>2020-02-10T08:54:02Z</time>
      </trkpt>
      <trkpt lat="59.177417" lon="18.142768">
        <ele>36</ele>
        <time>2020-02-10T08:54:03Z</time>
      </trkpt>
      <trkpt lat="59.177378" lon="18.142772">
        <ele>36</ele>
        <time>2020-02-10T08:54:04Z</time>
      </trkpt>
      <trkpt lat="59.177339" lon="18.142773">
        <ele>36</ele>
        <time>2020-02-10T08:54:05Z</time>
      </trkpt>
      <trkpt lat="59.177302" lon="18.142775">
        <ele>37</ele>
        <time>2020-02-10T08:54:06Z</time>
      </trkpt>
      <trkpt lat="59.177266" lon="18.142776">
        <ele>37</ele>
        <time>2020-02-10T08:54:07Z</time>
      </trkpt>
      <trkpt lat="59.177231" lon="18.142775">
        <ele>37</ele>
        <time>2020-02-10T08:54:08Z</time>
      </trkpt>
      <trkpt lat="59.177197" lon="18.142771">
        <ele>37</ele>
        <time>2020-02-10T08:54:09Z</time>
      </trkpt>
      <trkpt lat="59.177167" lon="18.142769">
        <ele>37</ele>
        <time>2020-02-10T08:54:10Z</time>
      </trkpt>
      <trkpt lat="59.177138" lon="18.142769">
        <ele>37</ele>
        <time>2020-02-10T08:54:11Z</time>
      </trkpt>
      <trkpt lat="59.17711" lon="18.142769">
        <ele>37</ele>
        <time>2020-02-10T08:54:12Z</time>
      </trkpt>
      <trkpt lat="59.177081" lon="18.14277">
        <ele>38</ele>
        <time>2020-02-10T08:54:13Z</time>
      </trkpt>
      <trkpt lat="59.177052" lon="18.14277">
        <ele>38</ele>
        <time>2020-02-10T08:54:14Z</time>
      </trkpt>
      <trkpt lat="59.177023" lon="18.142768">
        <ele>38</ele>
        <time>2020-02-10T08:54:15Z</time>
      </trkpt>
      <trkpt lat="59.176994" lon="18.142762">
        <ele>38</ele>
        <time>2020-02-10T08:54:16Z</time>
      </trkpt>
      <trkpt lat="59.176966" lon="18.142753">
        <ele>38</ele>
        <time>2020-02-10T08:54:17Z</time>
      </trkpt>
      <trkpt lat="59.176938" lon="18.142744">
        <ele>39</ele>
        <time>2020-02-10T08:54:18Z</time>
      </trkpt>
      <trkpt lat="59.176911" lon="18.142737">
        <ele>39</ele>
        <time>2020-02-10T08:54:19Z</time>
      </trkpt>
      <trkpt lat="59.176885" lon="18.142734">
        <ele>39</ele>
        <time>2020-02-10T08:54:20Z</time>
      </trkpt>
      <trkpt lat="59.176859" lon="18.142728">
        <ele>39</ele>
        <time>2020-02-10T08:54:21Z</time>
      </trkpt>
      <trkpt lat="59.176833" lon="18.14272">
        <ele>39</ele>
        <time>2020-02-10T08:54:22Z</time>
      </trkpt>
      <trkpt lat="59.176804" lon="18.14271">
        <ele>39</ele>
        <time>2020-02-10T08:54:23Z</time>
      </trkpt>
      <trkpt lat="59.176776" lon="18.1427">
        <ele>40</ele>
        <time>2020-02-10T08:54:24Z</time>
      </trkpt>
      <trkpt lat="59.176748" lon="18.142689">
        <ele>40</ele>
        <time>2020-02-10T08:54:25Z</time>
      </trkpt>
      <trkpt lat="59.17672" lon="18.14268">
        <ele>40</ele>
        <time>2020-02-10T08:54:26Z</time>
      </trkpt>
      <trkpt lat="59.176691" lon="18.142673">
        <ele>40</ele>
        <time>2020-02-10T08:54:27Z</time>
      </trkpt>
      <trkpt lat="59.176662" lon="18.142667">
        <ele>40</ele>
        <time>2020-02-10T08:54:28Z</time>
      </trkpt>
      <trkpt lat="59.176635" lon="18.142662">
        <ele>41</ele>
        <time>2020-02-10T08:54:29Z</time>
      </trkpt>
      <trkpt lat="59.176608" lon="18.142654">
        <ele>41</ele>
        <time>2020-02-10T08:54:30Z</time>
      </trkpt>
      <trkpt lat="59.176581" lon="18.142642">
        <ele>41</ele>
        <time>2020-02-10T08:54:31Z</time>
      </trkpt>
      <trkpt lat="59.176551" lon="18.142626">
        <ele>41</ele>
        <time>2020-02-10T08:54:32Z</time>
      </trkpt>
      <trkpt lat="59.176522" lon="18.142609">
        <ele>41</ele>
        <time>2020-02-10T08:54:33Z</time>
      </trkpt>
      <trkpt lat="59.176493" lon="18.142589">
        <ele>41</ele>
        <time>2020-02-10T08:54:34Z</time>
      </trkpt>
      <trkpt lat="59.176463" lon="18.142566">
        <ele>41</ele>
        <time>2020-02-10T08:54:35Z</time>
      </trkpt>
      <trkpt lat="59.176432" lon="18.142543">
        <ele>41</ele>
        <time>2020-02-10T08:54:36Z</time>
      </trkpt>
      <trkpt lat="59.176401" lon="18.142523">
        <ele>42</ele>
        <time>2020-02-10T08:54:37Z</time>
      </trkpt>
      <trkpt lat="59.176369" lon="18.142503">
        <ele>42</ele>
        <time>2020-02-10T08:54:38Z</time>
      </trkpt>
      <trkpt lat="59.176339" lon="18.14248">
        <ele>42</ele>
        <time>2020-02-10T08:54:39Z</time>
      </trkpt>
      <trkpt lat="59.176309" lon="18.142455">
        <ele>42</ele>
        <time>2020-02-10T08:54:40Z</time>
      </trkpt>
      <trkpt lat="59.176278" lon="18.142426">
        <ele>42</ele>
        <time>2020-02-10T08:54:41Z</time>
      </trkpt>
      <trkpt lat="59.176248" lon="18.142396">
        <ele>42</ele>
        <time>2020-02-10T08:54:42Z</time>
      </trkpt>
      <trkpt lat="59.17622" lon="18.142362">
        <ele>42</ele>
        <time>2020-02-10T08:54:43Z</time>
      </trkpt>
      <trkpt lat="59.176196" lon="18.142321">
        <ele>42</ele>
        <time>2020-02-10T08:54:44Z</time>
      </trkpt>
      <trkpt lat="59.176174" lon="18.142276">
        <ele>42</ele>
        <time>2020-02-10T08:54:45Z</time>
      </trkpt>
      <trkpt lat="59.176153" lon="18.142228">
        <ele>42</ele>
        <time>2020-02-10T08:54:46Z</time>
      </trkpt>
      <trkpt lat="59.176136" lon="18.142175">
        <ele>42</ele>
        <time>2020-02-10T08:54:47Z</time>
      </trkpt>
      <trkpt lat="59.176123" lon="18.142117">
        <ele>42</ele>
        <time>2020-02-10T08:54:48Z</time>
      </trkpt>
      <trkpt lat="59.176114" lon="18.142058">
        <ele>42</ele>
        <time>2020-02-10T08:54:49Z</time>
      </trkpt>
      <trkpt lat="59.176106" lon="18.142002">
        <ele>42</ele>
        <time>2020-02-10T08:54:50Z</time>
      </trkpt>
      <trkpt lat="59.176099" lon="18.141952">
        <ele>42</ele>
        <time>2020-02-10T08:54:51Z</time>
      </trkpt>
      <trkpt lat="59.176092" lon="18.1419">
        <ele>42</ele>
        <time>2020-02-10T08:54:52Z</time>
      </trkpt>
      <trkpt lat="59.176085" lon="18.14184">
        <ele>41</ele>
        <time>2020-02-10T08:54:53Z</time>
      </trkpt>
      <trkpt lat="59.176077" lon="18.141775">
        <ele>41</ele>
        <time>2020-02-10T08:54:54Z</time>
      </trkpt>
      <trkpt lat="59.176065" lon="18.141706">
        <ele>41</ele>
        <time>2020-02-10T08:54:55Z</time>
      </trkpt>
      <trkpt lat="59.176054" lon="18.141637">
        <ele>41</ele>
        <time>2020-02-10T08:54:56Z</time>
      </trkpt>
      <trkpt lat="59.176041" lon="18.141568">
        <ele>41</ele>
        <time>2020-02-10T08:54:57Z</time>
      </trkpt>
      <trkpt lat="59.176026" lon="18.141499">
        <ele>41</ele>
        <time>2020-02-10T08:54:58Z</time>
      </trkpt>
      <trkpt lat="59.176013" lon="18.14143">
        <ele>41</ele>
        <time>2020-02-10T08:54:59Z</time>
      </trkpt>
      <trkpt lat="59.175999" lon="18.141361">
        <ele>41</ele>
        <time>2020-02-10T08:55:00Z</time>
      </trkpt>
      <trkpt lat="59.175981" lon="18.141299">
        <ele>41</ele>
        <time>2020-02-10T08:55:01Z</time>
      </trkpt>
      <trkpt lat="59.175955" lon="18.141257">
        <ele>41</ele>
        <time>2020-02-10T08:55:02Z</time>
      </trkpt>
      <trkpt lat="59.175923" lon="18.141237">
        <ele>41</ele>
        <time>2020-02-10T08:55:03Z</time>
      </trkpt>
      <trkpt lat="59.175889" lon="18.141225">
        <ele>41</ele>
        <time>2020-02-10T08:55:04Z</time>
      </trkpt>
      <trkpt lat="59.175856" lon="18.141213">
        <ele>41</ele>
        <time>2020-02-10T08:55:05Z</time>
      </trkpt>
      <trkpt lat="59.175825" lon="18.141203">
        <ele>41</ele>
        <time>2020-02-10T08:55:06Z</time>
      </trkpt>
      <trkpt lat="59.175797" lon="18.141196">
        <ele>42</ele>
        <time>2020-02-10T08:55:07Z</time>
      </trkpt>
      <trkpt lat="59.175768" lon="18.141189">
        <ele>42</ele>
        <time>2020-02-10T08:55:08Z</time>
      </trkpt>
      <trkpt lat="59.175743" lon="18.141179">
        <ele>42</ele>
        <time>2020-02-10T08:55:09Z</time>
      </trkpt>
      <trkpt lat="59.175718" lon="18.141175">
        <ele>42</ele>
        <time>2020-02-10T08:55:10Z</time>
      </trkpt>
      <trkpt lat="59.175696" lon="18.141181">
        <ele>42</ele>
        <time>2020-02-10T08:55:11Z</time>
      </trkpt>
      <trkpt lat="59.175676" lon="18.14119">
        <ele>42</ele>
        <time>2020-02-10T08:55:12Z</time>
      </trkpt>
      <trkpt lat="59.175646" lon="18.141202">
        <ele>42</ele>
        <time>2020-02-10T08:55:14Z</time>
      </trkpt>
      <trkpt lat="59.175622" lon="18.141225">
        <ele>42</ele>
        <time>2020-02-10T08:55:17Z</time>
      </trkpt>
      <trkpt lat="59.1756" lon="18.141264">
        <ele>43</ele>
        <time>2020-02-10T08:55:19Z</time>
      </trkpt>
      <trkpt lat="59.175585" lon="18.141304">
        <ele>42</ele>
        <time>2020-02-10T08:55:20Z</time>
      </trkpt>
      <trkpt lat="59.175567" lon="18.141356">
        <ele>42</ele>
        <time>2020-02-10T08:55:21Z</time>
      </trkpt>
      <trkpt lat="59.175545" lon="18.141411">
        <ele>42</ele>
        <time>2020-02-10T08:55:22Z</time>
      </trkpt>
      <trkpt lat="59.175524" lon="18.141465">
        <ele>42</ele>
        <time>2020-02-10T08:55:23Z</time>
      </trkpt>
      <trkpt lat="59.175501" lon="18.141525">
        <ele>42</ele>
        <time>2020-02-10T08:55:24Z</time>
      </trkpt>
      <trkpt lat="59.175476" lon="18.141585">
        <ele>42</ele>
        <time>2020-02-10T08:55:25Z</time>
      </trkpt>
      <trkpt lat="59.175451" lon="18.141642">
        <ele>42</ele>
        <time>2020-02-10T08:55:26Z</time>
      </trkpt>
      <trkpt lat="59.175425" lon="18.141695">
        <ele>42</ele>
        <time>2020-02-10T08:55:27Z</time>
      </trkpt>
      <trkpt lat="59.175399" lon="18.141741">
        <ele>42</ele>
        <time>2020-02-10T08:55:28Z</time>
      </trkpt>
      <trkpt lat="59.175372" lon="18.141783">
        <ele>43</ele>
        <time>2020-02-10T08:55:29Z</time>
      </trkpt>
      <trkpt lat="59.175348" lon="18.141815">
        <ele>43</ele>
        <time>2020-02-10T08:55:30Z</time>
      </trkpt>
      <trkpt lat="59.175323" lon="18.141836">
        <ele>43</ele>
        <time>2020-02-10T08:55:31Z</time>
      </trkpt>
      <trkpt lat="59.175294" lon="18.141843">
        <ele>43</ele>
        <time>2020-02-10T08:55:32Z</time>
      </trkpt>
      <trkpt lat="59.175262" lon="18.141845">
        <ele>43</ele>
        <time>2020-02-10T08:55:33Z</time>
      </trkpt>
      <trkpt lat="59.17523" lon="18.141849">
        <ele>43</ele>
        <time>2020-02-10T08:55:34Z</time>
      </trkpt>
      <trkpt lat="59.175199" lon="18.141853">
        <ele>43</ele>
        <time>2020-02-10T08:55:35Z</time>
      </trkpt>
      <trkpt lat="59.175168" lon="18.141863">
        <ele>44</ele>
        <time>2020-02-10T08:55:36Z</time>
      </trkpt>
      <trkpt lat="59.175137" lon="18.141874">
        <ele>44</ele>
        <time>2020-02-10T08:55:37Z</time>
      </trkpt>
      <trkpt lat="59.175103" lon="18.141882">
        <ele>44</ele>
        <time>2020-02-10T08:55:38Z</time>
      </trkpt>
      <trkpt lat="59.175069" lon="18.141887">
        <ele>44</ele>
        <time>2020-02-10T08:55:39Z</time>
      </trkpt>
      <trkpt lat="59.175032" lon="18.141893">
        <ele>44</ele>
        <time>2020-02-10T08:55:40Z</time>
      </trkpt>
      <trkpt lat="59.174996" lon="18.141908">
        <ele>44</ele>
        <time>2020-02-10T08:55:41Z</time>
      </trkpt>
      <trkpt lat="59.174961" lon="18.141929">
        <ele>44</ele>
        <time>2020-02-10T08:55:42Z</time>
      </trkpt>
      <trkpt lat="59.174927" lon="18.141957">
        <ele>45</ele>
        <time>2020-02-10T08:55:43Z</time>
      </trkpt>
      <trkpt lat="59.174899" lon="18.141986">
        <ele>45</ele>
        <time>2020-02-10T08:55:44Z</time>
      </trkpt>
      <trkpt lat="59.174873" lon="18.142018">
        <ele>44</ele>
        <time>2020-02-10T08:55:45Z</time>
      </trkpt>
      <trkpt lat="59.174836" lon="18.142055">
        <ele>44</ele>
        <time>2020-02-10T08:55:46Z</time>
      </trkpt>
      <trkpt lat="59.174802" lon="18.142097">
        <ele>44</ele>
        <time>2020-02-10T08:55:47Z</time>
      </trkpt>
      <trkpt lat="59.174771" lon="18.142147">
        <ele>44</ele>
        <time>2020-02-10T08:55:48Z</time>
      </trkpt>
      <trkpt lat="59.174748" lon="18.142203">
        <ele>44</ele>
        <time>2020-02-10T08:55:49Z</time>
      </trkpt>
      <trkpt lat="59.174725" lon="18.142259">
        <ele>44</ele>
        <time>2020-02-10T08:55:50Z</time>
      </trkpt>
      <trkpt lat="59.174692" lon="18.142298">
        <ele>44</ele>
        <time>2020-02-10T08:55:51Z</time>
      </trkpt>
      <trkpt lat="59.174651" lon="18.142318">
        <ele>45</ele>
        <time>2020-02-10T08:55:52Z</time>
      </trkpt>
      <trkpt lat="59.174611" lon="18.142322">
        <ele>45</ele>
        <time>2020-02-10T08:55:53Z</time>
      </trkpt>
      <trkpt lat="59.174571" lon="18.142317">
        <ele>45</ele>
        <time>2020-02-10T08:55:54Z</time>
      </trkpt>
      <trkpt lat="59.174532" lon="18.14231">
        <ele>45</ele>
        <time>2020-02-10T08:55:55Z</time>
      </trkpt>
      <trkpt lat="59.174493" lon="18.142301">
        <ele>45</ele>
        <time>2020-02-10T08:55:56Z</time>
      </trkpt>
      <trkpt lat="59.174456" lon="18.142294">
        <ele>45</ele>
        <time>2020-02-10T08:55:57Z</time>
      </trkpt>
      <trkpt lat="59.174418" lon="18.14229">
        <ele>45</ele>
        <time>2020-02-10T08:55:58Z</time>
      </trkpt>
      <trkpt lat="59.174382" lon="18.142289">
        <ele>45</ele>
        <time>2020-02-10T08:55:59Z</time>
      </trkpt>
      <trkpt lat="59.174345" lon="18.14229">
        <ele>46</ele>
        <time>2020-02-10T08:56:00Z</time>
      </trkpt>
      <trkpt lat="59.174311" lon="18.142295">
        <ele>46</ele>
        <time>2020-02-10T08:56:01Z</time>
      </trkpt>
      <trkpt lat="59.174278" lon="18.142304">
        <ele>46</ele>
        <time>2020-02-10T08:56:02Z</time>
      </trkpt>
      <trkpt lat="59.174248" lon="18.142321">
        <ele>46</ele>
        <time>2020-02-10T08:56:03Z</time>
      </trkpt>
      <trkpt lat="59.174222" lon="18.142345">
        <ele>46</ele>
        <time>2020-02-10T08:56:04Z</time>
      </trkpt>
      <trkpt lat="59.1742" lon="18.14237">
        <ele>0</ele>
        <time>2020-02-10T08:56:04Z</time>
      </trkpt>
      <trkpt lat="59.174178" lon="18.142396">
        <ele>46</ele>
        <time>2020-02-10T08:56:05Z</time>
      </trkpt>
      <trkpt lat="59.174155" lon="18.142427">
        <ele>47</ele>
        <time>2020-02-10T08:56:07Z</time>
      </trkpt>
      <trkpt lat="59.174129" lon="18.142459">
        <ele>47</ele>
        <time>2020-02-10T08:56:08Z</time>
      </trkpt>
      <trkpt lat="59.174102" lon="18.142489">
        <ele>47</ele>
        <time>2020-02-10T08:56:09Z</time>
      </trkpt>
      <trkpt lat="59.174077" lon="18.142516">
        <ele>48</ele>
        <time>2020-02-10T08:56:10Z</time>
      </trkpt>
      <trkpt lat="59.174053" lon="18.142545">
        <ele>48</ele>
        <time>2020-02-10T08:56:11Z</time>
      </trkpt>
      <trkpt lat="59.174033" lon="18.142574">
        <ele>48</ele>
        <time>2020-02-10T08:56:12Z</time>
      </trkpt>
      <trkpt lat="59.17402" lon="18.14264">
        <ele>48</ele>
        <time>2020-02-10T08:56:14Z</time>
      </trkpt>
      <trkpt lat="59.174011" lon="18.14268">
        <ele>49</ele>
        <time>2020-02-10T08:56:15Z</time>
      </trkpt>
      <trkpt lat="59.173999" lon="18.142721">
        <ele>49</ele>
        <time>2020-02-10T08:56:16Z</time>
      </trkpt>
      <trkpt lat="59.173983" lon="18.14276">
        <ele>49</ele>
        <time>2020-02-10T08:56:17Z</time>
      </trkpt>
      <trkpt lat="59.173965" lon="18.142795">
        <ele>50</ele>
        <time>2020-02-10T08:56:18Z</time>
      </trkpt>
      <trkpt lat="59.173946" lon="18.142846">
        <ele>50</ele>
        <time>2020-02-10T08:56:19Z</time>
      </trkpt>
      <trkpt lat="59.17393" lon="18.142903">
        <ele>50</ele>
        <time>2020-02-10T08:56:20Z</time>
      </trkpt>
      <trkpt lat="59.173916" lon="18.142957">
        <ele>50</ele>
        <time>2020-02-10T08:56:21Z</time>
      </trkpt>
      <trkpt lat="59.173903" lon="18.143016">
        <ele>50</ele>
        <time>2020-02-10T08:56:22Z</time>
      </trkpt>
      <trkpt lat="59.173895" lon="18.143072">
        <ele>50</ele>
        <time>2020-02-10T08:56:23Z</time>
      </trkpt>
      <trkpt lat="59.173887" lon="18.14313">
        <ele>50</ele>
        <time>2020-02-10T08:56:24Z</time>
      </trkpt>
      <trkpt lat="59.173881" lon="18.143193">
        <ele>50</ele>
        <time>2020-02-10T08:56:25Z</time>
      </trkpt>
      <trkpt lat="59.173875" lon="18.143257">
        <ele>50</ele>
        <time>2020-02-10T08:56:26Z</time>
      </trkpt>
      <trkpt lat="59.173869" lon="18.143322">
        <ele>50</ele>
        <time>2020-02-10T08:56:27Z</time>
      </trkpt>
      <trkpt lat="59.173859" lon="18.143384">
        <ele>50</ele>
        <time>2020-02-10T08:56:28Z</time>
      </trkpt>
      <trkpt lat="59.17384" lon="18.143433">
        <ele>51</ele>
        <time>2020-02-10T08:56:29Z</time>
      </trkpt>
      <trkpt lat="59.173815" lon="18.143458">
        <ele>51</ele>
        <time>2020-02-10T08:56:30Z</time>
      </trkpt>
      <trkpt lat="59.173791" lon="18.143461">
        <ele>51</ele>
        <time>2020-02-10T08:56:31Z</time>
      </trkpt>
      <trkpt lat="59.173764" lon="18.143461">
        <ele>51</ele>
        <time>2020-02-10T08:56:32Z</time>
      </trkpt>
      <trkpt lat="59.173733" lon="18.143459">
        <ele>51</ele>
        <time>2020-02-10T08:56:33Z</time>
      </trkpt>
      <trkpt lat="59.1737" lon="18.143455">
        <ele>51</ele>
        <time>2020-02-10T08:56:34Z</time>
      </trkpt>
      <trkpt lat="59.173665" lon="18.143455">
        <ele>51</ele>
        <time>2020-02-10T08:56:35Z</time>
      </trkpt>
      <trkpt lat="59.173627" lon="18.143452">
        <ele>51</ele>
        <time>2020-02-10T08:56:36Z</time>
      </trkpt>
      <trkpt lat="59.17359" lon="18.143445">
        <ele>51</ele>
        <time>2020-02-10T08:56:37Z</time>
      </trkpt>
      <trkpt lat="59.173549" lon="18.14344">
        <ele>51</ele>
        <time>2020-02-10T08:56:38Z</time>
      </trkpt>
      <trkpt lat="59.173515" lon="18.143435">
        <ele>51</ele>
        <time>2020-02-10T08:56:39Z</time>
      </trkpt>
      <trkpt lat="59.17346" lon="18.143422">
        <ele>0</ele>
        <time>2020-02-10T08:56:40Z</time>
      </trkpt>
    </trkseg>
  </trk>
</gpx>